# Wetter Temperatur Luftdruck Luftfeuchtigkeit Sichtweite Windgeschwindigkeit Windrichtung Zeit
1 Clouds 22 1010 45 10000 2.13 57 08:56 14.08.2022
2 Clouds 18 1011 58 10000 1.47 74 06:27 14.08.2022
3 Clouds 18 1012 56 10000 1.09 66 04:47 14.08.2022
4 Clear 20 1013 49 10000 1.32 51 01:36 14.08.2022
5 Clear 22 1014 45 10000 1.2 105 22:56 13.08.2022
6 Clear 24 1014 43 10000 1.57 112 22:27 13.08.2022
7 Clear 28 1013 39 10000 1.96 89 20:50 13.08.2022
8 Clear 30 1013 31 10000 2.74 77 19:48 13.08.2022
9 Clear 31 1013 23 10000 3.73 83 19:18 13.08.2022
10 Clear 31 1014 20 10000 3.87 92 17:21 13.08.2022
11 Clear 30 1014 21 10000 4.34 91 14:50 13.08.2022
12 Clear 30 1015 22 10000 4.32 91 13:50 13.08.2022
13 Clear 30 1015 22 10000 4.43 92 13:50 13.08.2022
14 Clear 29 1015 24 10000 4.54 94 13:28 13.08.2022
15 Clear 27 1016 26 10000 4.72 98 11:33 13.08.2022
16 Clear 23 1017 45 10000 2.2 66 09:26 13.08.2022
17 Clear 18 1017 58 10000 1.7 48 07:43 13.08.2022
18 Clear 19 1017 53 10000 1.93 72 01:52 13.08.2022
19 Clear 21 1017 48 10000 2.04 82 23:32 12.08.2022
20 Clear 26 1016 43 10000 1.65 81 21:39 12.08.2022
21 Clear 30 1016 31 10000 2.55 110 19:49 12.08.2022
22 Clear 30 1016 23 10000 4.62 95 19:24 12.08.2022
23 Clear 31 1016 20 10000 5.27 88 18:29 12.08.2022
24 Clear 31 1016 19 10000 4.94 78 16:27 12.08.2022
25 Clear 31 1016 19 10000 4.86 80 15:23 12.08.2022
26 Clouds 29 1017 20 10000 4.87 82 13:50 12.08.2022
27 Clouds 29 1017 24 10000 4.65 83 12:50 12.08.2022
28 Clouds 23 1018 39 10000 2.16 65 09:22 12.08.2022
29 Clouds 20 1018 49 10000 1.78 56 07:46 12.08.2022
30 Clear 18 1018 54 10000 1.92 51 06:25 12.08.2022
31 Clouds 20 1019 48 10000 1.97 57 01:22 12.08.2022
32 Clouds 21 1019 47 10000 1.96 51 00:18 12.08.2022
33 Clouds 22 1019 44 10000 1.97 46 23:29 11.08.2022
34 Clouds 25 1019 40 10000 1.91 67 21:57 11.08.2022
35 Clouds 26 1019 40 10000 1.91 67 21:34 11.08.2022
36 Clouds 29 1018 37 10000 2.23 71 20:31 11.08.2022
37 Clouds 30 1018 30 10000 3.09 68 19:53 11.08.2022
38 Clouds 30 1017 23 10000 4.51 72 19:29 11.08.2022
39 Clouds 31 1018 21 10000 5.08 78 17:34 11.08.2022
40 Clear 31 1018 21 10000 5.24 79 16:19 11.08.2022
41 Clear 30 1019 22 10000 5.19 79 15:20 11.08.2022
42 Clear 28 1020 25 10000 5.24 86 12:39 11.08.2022
43 Clear 23 1022 41 10000 2.71 69 09:29 11.08.2022
44 Clear 16 1022 60 10000 1.94 58 06:59 11.08.2022
45 Clouds 18 1022 54 10000 2.06 48 03:45 11.08.2022
46 Clear 20 1022 48 10000 1.91 62 00:35 11.08.2022
47 Clear 23 1022 39 10000 2.03 78 22:22 10.08.2022
48 Clear 26 1021 35 10000 2.35 75 21:24 10.08.2022
49 Clear 28 1021 35 10000 2.35 75 20:47 10.08.2022
50 Clouds 30 1020 23 10000 4.74 92 19:24 10.08.2022
51 Clouds 31 1021 21 10000 5.26 88 17:55 10.08.2022
52 Clouds 31 1021 21 10000 5.24 86 16:35 10.08.2022
53 Clouds 29 1022 26 10000 5.31 80 13:35 10.08.2022
54 Clouds 28 1023 28 10000 5.15 82 12:35 10.08.2022
55 Clear 23 1024 45 10000 2.47 70 09:24 10.08.2022
56 Clear 21 1024 45 10000 2.47 70 08:32 10.08.2022
57 Clear 18 1025 69 10000 2.46 46 07:18 10.08.2022
58 Clear 19 1025 66 10000 2.72 50 03:25 10.08.2022
59 Clear 24 1025 56 10000 2.75 40 23:34 09.08.2022
60 Clear 24 1024 51 10000 2.49 42 22:56 09.08.2022
61 Clear 25 1024 46 10000 2.26 47 21:35 09.08.2022
62 Clear 28 1024 40 10000 2.11 55 20:30 09.08.2022
63 Clear 30 1022 24 10000 4.42 60 18:44 09.08.2022
64 Clear 31 1022 21 10000 4.69 52 17:28 09.08.2022
65 Clear 31 1022 21 10000 4.69 52 16:40 09.08.2022
66 Clear 31 1022 22 10000 4.58 53 15:58 09.08.2022
67 Clear 28 1023 27 10000 4.42 62 12:52 09.08.2022
68 Clear 22 1025 42 10000 4.03 49 09:39 09.08.2022
69 Clear 20 1025 51 10000 3.54 39 08:50 09.08.2022
70 Clear 18 1024 64 10000 2.77 38 07:53 09.08.2022
71 Clear 17 1024 77 10000 2.64 31 04:25 09.08.2022
72 Clear 21 1025 61 10000 2.62 39 23:35 08.08.2022
73 Clouds 21 1024 57 10000 2.8 33 22:56 08.08.2022
74 Clouds 22 1024 52 10000 2.83 26 22:22 08.08.2022
75 Clouds 24 1023 44 10000 3.16 16 21:22 08.08.2022
76 Clouds 28 1022 34 10000 4.05 20 19:51 08.08.2022
77 Clouds 29 1021 26 10000 4.44 33 18:58 08.08.2022
78 Clouds 29 1021 23 10000 4.39 35 16:47 08.08.2022
79 Clouds 29 1021 23 10000 4.14 36 15:45 08.08.2022
80 Clear 28 1022 24 10000 4.11 42 14:33 08.08.2022
81 Clouds 26 1023 29 10000 4.57 53 12:29 08.08.2022
82 Clouds 22 1023 40 10000 4.03 37 10:19 08.08.2022
83 Clouds 14 1023 74 10000 2.32 31 06:56 08.08.2022
84 Clear 17 1022 72 10000 2.36 33 03:34 08.08.2022
85 Clear 21 1022 53 10000 2.48 30 22:44 07.08.2022
86 Clear 22 1022 50 10000 2.57 34 21:40 07.08.2022
87 Clear 24 1021 42 10000 2.86 29 20:54 07.08.2022
88 Clouds 25 1020 33 10000 3.28 37 20:18 07.08.2022
89 Clouds 26 1020 33 10000 3.28 37 19:50 07.08.2022
90 Clouds 27 1020 26 10000 4.24 39 18:40 07.08.2022
91 Clouds 28 1020 23 10000 4.7 30 17:21 07.08.2022
92 Clouds 27 1020 23 10000 4.7 30 16:41 07.08.2022
93 Clear 26 1021 23 10000 3.77 45 15:25 07.08.2022
94 Clear 26 1021 24 10000 3.89 49 13:47 07.08.2022
95 Clear 24 1022 29 10000 4.33 55 12:19 07.08.2022
96 Clear 21 1023 34 10000 4.63 54 10:37 07.08.2022
97 Clear 19 1023 38 10000 4.6 49 09:35 07.08.2022
98 Clear 13 1025 74 10000 2.75 34 04:33 07.08.2022
99 Clear 13 1025 65 10000 2.69 36 01:58 07.08.2022
100 Clear 18 1025 57 10000 2.72 34 22:30 06.08.2022
101 Clear 19 1025 52 10000 2.81 29 21:48 06.08.2022
102 Clear 23 1023 32 10000 4.24 29 19:43 06.08.2022
103 Clear 23 1023 26 10000 4.54 34 18:35 06.08.2022
104 Clear 24 1023 24 10000 4.39 38 17:44 06.08.2022
105 Clear 24 1024 22 10000 4.03 38 16:19 06.08.2022
106 Clouds 22 1025 25 10000 4.18 39 13:51 06.08.2022
107 Clouds 20 1026 34 10000 4.14 40 12:21 06.08.2022
108 Clouds 18 1026 41 10000 4.19 40 10:53 06.08.2022
109 Clouds 16 1026 50 10000 4.34 43 09:31 06.08.2022
110 Clear 14 1025 80 10000 2.31 19 04:38 06.08.2022
111 Clouds 16 1024 68 10000 2.02 7 00:49 06.08.2022
112 Clouds 18 1023 63 10000 2.54 11 22:35 05.08.2022
113 Clouds 20 1021 55 10000 5.17 10 21:18 05.08.2022
114 Clouds 24 1017 41 10000 6.41 346 19:18 05.08.2022
115 Clouds 25 1017 41 10000 6.41 346 18:41 05.08.2022
116 Clouds 24 1017 40 10000 6.53 329 16:53 05.08.2022
117 Clouds 24 1016 35 10000 5.01 293 15:25 05.08.2022
118 Clouds 25 1016 35 10000 5.01 293 14:54 05.08.2022
119 Clouds 24 1015 39 10000 5.49 270 13:39 05.08.2022
120 Clouds 24 1015 43 10000 5.24 266 13:19 05.08.2022
121 Clouds 22 1015 49 10000 4.61 277 11:58 05.08.2022
122 Clouds 21 1016 65 10000 3.41 266 10:24 05.08.2022
123 Rain 20 1014 75 10000 1.36 257 07:58 05.08.2022
124 Rain 20 1014 84 10000 1.38 10 05:20 05.08.2022
125 Clouds 25 1013 60 10000 1.6 24 23:50 04.08.2022
126 Clouds 25 1013 60 10000 1.6 24 23:50 04.08.2022
127 Clouds 28 1013 49 10000 1.86 6 21:39 04.08.2022
128 Clouds 29 1012 38 10000 2.69 331 21:21 04.08.2022
129 Clouds 31 1012 38 10000 2.69 331 20:40 04.08.2022
130 Clouds 34 1010 26 10000 1.07 257 19:21 04.08.2022
131 Clouds 34 1010 26 10000 1.07 257 18:34 04.08.2022
132 Clouds 35 1011 22 10000 0.83 205 17:28 04.08.2022
133 Clouds 35 1012 20 10000 2.2 248 13:44 04.08.2022
134 Clouds 33 1013 24 10000 1.86 271 11:47 04.08.2022
135 Clouds 31 1013 30 10000 0.87 236 10:48 04.08.2022
136 Clouds 22 1014 53 10000 0.18 118 07:52 04.08.2022
137 Clouds 21 1013 60 10000 0.72 98 04:30 04.08.2022
138 Clear 21 1014 53 10000 0.97 94 02:20 04.08.2022
139 Clear 25 1014 49 10000 0.93 59 23:43 03.08.2022
140 Clouds 27 1014 43 10000 1.26 123 22:29 03.08.2022
141 Clouds 32 1013 41 10000 1.8 125 20:45 03.08.2022
142 Clouds 35 1012 27 10000 3.21 125 19:29 03.08.2022
143 Clouds 35 1013 24 10000 2.6 128 18:23 03.08.2022
144 Clouds 35 1013 24 10000 1.61 145 16:24 03.08.2022
145 Clouds 33 1014 25 10000 1.25 154 14:45 03.08.2022
146 Clouds 31 1015 27 10000 0.88 197 12:30 03.08.2022
147 Clouds 23 1017 48 10000 0.54 40 08:50 03.08.2022
148 Clouds 18 1016 71 10000 0.64 56 04:47 03.08.2022
149 Clouds 19 1017 70 10000 0.87 74 03:30 03.08.2022
150 Clouds 20 1017 64 10000 0.9 75 01:36 03.08.2022
151 Clouds 22 1017 59 10000 0.61 91 23:23 02.08.2022
152 Clouds 25 1017 55 10000 0.16 107 21:55 02.08.2022
153 Clouds 26 1017 55 10000 0.16 107 21:33 02.08.2022
154 Clouds 29 1015 31 10000 1.18 266 19:19 02.08.2022
155 Clouds 30 1016 26 10000 1.03 265 16:38 02.08.2022
156 Clouds 28 1018 36 10000 1.95 248 12:55 02.08.2022
157 Clouds 22 1019 65 10000 0.75 244 09:53 02.08.2022
158 Clouds 18 1019 86 10000 0.13 108 08:26 02.08.2022
159 Clouds 17 1019 86 10000 0.13 108 07:50 02.08.2022
160 Clouds 16 1019 94 10000 0.86 69 04:56 02.08.2022
161 Clouds 17 1020 94 10000 1.24 22 01:58 02.08.2022
162 Clouds 20 1019 88 10000 0.43 133 23:21 01.08.2022
163 Clouds 22 1018 85 10000 1.34 305 21:19 01.08.2022
164 Clouds 24 1017 71 10000 1.83 351 19:45 01.08.2022
165 Clouds 25 1017 65 10000 2.05 335 18:53 01.08.2022
166 Clouds 25 1017 63 10000 2.94 320 16:55 01.08.2022
167 Clouds 25 1017 63 10000 2.94 320 16:55 01.08.2022
168 Clouds 25 1017 63 10000 2.94 320 16:55 01.08.2022
169 Clouds 25 1017 56 10000 3.17 301 16:29 01.08.2022
170 Clouds 25 1017 56 10000 3.17 301 15:34 01.08.2022
171 Clouds 25 1017 53 10000 2.85 303 14:44 01.08.2022
172 Clouds 24 1018 58 10000 3.97 316 13:29 01.08.2022
173 Clouds 21 1018 62 10000 2.13 293 10:48 01.08.2022
174 Clouds 19 1018 74 10000 1.26 263 08:53 01.08.2022
175 Clouds 17 1018 93 10000 1.29 220 06:51 01.08.2022
176 Clouds 18 1017 94 10000 1.38 221 04:31 01.08.2022
177 Clear 20 1017 89 10000 0.79 235 01:23 01.08.2022
178 Clear 22 1017 81 10000 1.74 312 22:44 31.07.2022
179 Clear 22 1017 69 10000 2.95 310 22:25 31.07.2022
180 Clouds 28 1015 40 10000 4.76 301 20:28 31.07.2022
181 Clouds 29 1015 37 10000 5.76 296 18:40 31.07.2022
182 Clouds 30 1015 32 10000 5.75 275 16:55 31.07.2022
183 Clear 29 1016 31 10000 5.72 270 14:38 31.07.2022
184 Clouds 28 1017 36 10000 5.3 260 12:59 31.07.2022
185 Clouds 26 1017 38 10000 4.98 255 11:39 31.07.2022
186 Clouds 21 1019 43 10000 1.96 243 08:47 31.07.2022
187 Clouds 19 1019 60 10000 1.38 190 05:38 31.07.2022
188 Clouds 20 1019 51 10000 0.57 141 02:29 31.07.2022
189 Clouds 23 1019 47 10000 1.2 98 22:49 30.07.2022
190 Clouds 24 1019 49 10000 1.37 84 21:52 30.07.2022
191 Clouds 25 1019 49 10000 1.37 84 21:33 30.07.2022
192 Clouds 27 1018 44 10000 1.92 45 20:38 30.07.2022
193 Clouds 27 1018 44 10000 1.92 45 20:38 30.07.2022
194 Clouds 27 1018 35 10000 2.48 355 19:57 30.07.2022
195 Clouds 28 1017 26 10000 4.04 329 18:20 30.07.2022
196 Clouds 28 1017 25 10000 4.33 328 16:44 30.07.2022
197 Clouds 29 1017 25 10000 4.77 325 15:34 30.07.2022
198 Clear 28 1018 24 10000 4.64 311 14:26 30.07.2022
199 Clouds 25 1018 26 10000 4.14 307 12:33 30.07.2022
200 Clouds 24 1019 29 10000 3.6 305 11:55 30.07.2022
201 Clouds 22 1020 45 10000 2.24 295 10:20 30.07.2022
202 Clouds 20 1020 45 10000 2.24 295 09:42 30.07.2022
203 Clouds 15 1020 67 10000 0.73 307 07:44 30.07.2022
204 Clouds 16 1018 76 10000 0.33 286 02:34 30.07.2022
205 Clouds 17 1018 73 10000 0.93 331 01:21 30.07.2022
206 Clouds 23 1017 65 10000 1.05 320 21:39 29.07.2022
207 Clouds 23 1016 66 10000 1.66 306 20:58 29.07.2022
208 Clouds 26 1016 73 10000 0.55 5 19:48 29.07.2022
209 Rain 27 1015 71 10000 1.81 358 17:52 29.07.2022
210 Clouds 29 1014 32 10000 0.88 246 15:19 29.07.2022
211 Clouds 27 1014 38 10000 2.37 244 12:59 29.07.2022
212 Clouds 23 1015 53 10000 0.21 130 09:49 29.07.2022
213 Clouds 20 1015 63 10000 0.37 19 08:48 29.07.2022
214 Clouds 18 1015 79 10000 0.83 34 07:40 29.07.2022
215 Clouds 21 1015 82 10000 2.11 47 01:46 29.07.2022
216 Clouds 22 1015 66 10000 2.36 61 22:41 28.07.2022
217 Clouds 24 1014 48 10000 3.84 48 20:59 28.07.2022
218 Clouds 25 1014 50 10000 3.08 45 20:30 28.07.2022
219 Clouds 26 1013 44 10000 3.17 44 19:42 28.07.2022
220 Clouds 26 1013 41 10000 2.94 49 18:48 28.07.2022
221 Clouds 26 1013 35 10000 3.13 51 17:43 28.07.2022
222 Clouds 26 1013 35 10000 2.64 45 16:51 28.07.2022
223 Clouds 26 1014 36 10000 3.25 97 15:29 28.07.2022
224 Clouds 25 1015 38 10000 4.6 93 12:58 28.07.2022
225 Clouds 21 1015 40 10000 3.81 69 10:36 28.07.2022
226 Clouds 13 1017 69 10000 2.59 42 06:42 28.07.2022
227 Clouds 13 1017 72 10000 2.58 44 05:29 28.07.2022
228 Clouds 16 1018 58 10000 2.67 45 00:49 28.07.2022
229 Clouds 18 1018 57 10000 2.62 48 22:40 27.07.2022
230 Clouds 20 1017 44 10000 3.91 43 21:28 27.07.2022
231 Clouds 22 1016 34 10000 4.41 42 19:42 27.07.2022
232 Clear 24 1016 28 10000 4.04 34 17:50 27.07.2022
233 Clear 23 1016 27 10000 3.69 17 15:52 27.07.2022
234 Clear 23 1017 28 10000 3.26 17 14:58 27.07.2022
235 Clear 23 1017 28 10000 3.26 17 14:35 27.07.2022
236 Clouds 22 1018 36 10000 2.94 42 12:50 27.07.2022
237 Clouds 17 1019 71 10000 3.29 30 08:44 27.07.2022
238 Clouds 15 1019 79 10000 2.29 5 07:24 27.07.2022
239 Clouds 17 1018 90 10000 2.2 13 02:42 27.07.2022
240 Clouds 20 1017 66 10000 1.76 349 22:29 26.07.2022
241 Clouds 21 1017 60 10000 2.37 350 21:21 26.07.2022
242 Clouds 22 1017 60 10000 2.37 350 20:43 26.07.2022
243 Clouds 24 1015 45 10000 2.74 318 18:44 26.07.2022
244 Clouds 24 1016 46 10000 3.92 333 18:19 26.07.2022
245 Clouds 24 1016 41 10000 3.84 322 16:46 26.07.2022
246 Clouds 24 1016 37 10000 3.17 270 15:42 26.07.2022
247 Clouds 22 1016 41 10000 3.62 273 13:47 26.07.2022
248 Clouds 20 1016 44 10000 5.56 284 11:40 26.07.2022
249 Clear 18 1017 56 10000 3.34 265 09:32 26.07.2022
250 Clear 17 1017 75 10000 1.95 249 07:56 26.07.2022
251 Clouds 19 1015 66 10000 1.03 335 01:21 26.07.2022
252 Clouds 21 1014 52 10000 2.73 324 23:37 25.07.2022
253 Clouds 22 1013 49 10000 1.83 269 22:33 25.07.2022
254 Clouds 23 1013 50 10000 2.18 253 21:43 25.07.2022
255 Clouds 25 1012 42 10000 4.32 254 20:42 25.07.2022
256 Clouds 25 1011 38 10000 5.12 253 19:51 25.07.2022
257 Clouds 27 1011 35 10000 6.42 260 18:23 25.07.2022
258 Clouds 29 1011 35 10000 6.42 260 17:34 25.07.2022
259 Clouds 30 1011 35 10000 7.47 267 16:40 25.07.2022
260 Clouds 30 1010 34 10000 5.75 229 12:47 25.07.2022
261 Clouds 29 1010 38 10000 4.64 225 10:47 25.07.2022
262 Clear 20 1012 64 10000 1.39 165 07:29 25.07.2022
263 Clouds 22 1014 53 10000 1.35 123 23:57 24.07.2022
264 Clouds 24 1014 52 10000 1.88 121 23:22 24.07.2022
265 Clouds 25 1014 52 10000 1.88 121 22:41 24.07.2022
266 Clouds 28 1015 51 10000 2.08 121 21:33 24.07.2022
267 Clouds 28 1014 48 10000 2.3 123 20:58 24.07.2022
268 Clouds 30 1014 48 10000 2.3 123 20:35 24.07.2022
269 Clouds 33 1014 31 10000 2.28 153 18:59 24.07.2022
270 Clouds 32 1015 28 10000 2.37 170 16:54 24.07.2022
271 Clouds 32 1016 29 10000 2.36 179 15:54 24.07.2022
272 Clouds 31 1017 30 10000 2.2 198 14:41 24.07.2022
273 Clouds 30 1017 30 10000 1.63 204 13:47 24.07.2022
274 Clouds 29 1019 36 10000 1.79 241 12:27 24.07.2022
275 Clouds 27 1019 36 10000 1.79 241 11:30 24.07.2022
276 Clouds 23 1020 47 10000 1.07 251 09:44 24.07.2022
277 Clouds 19 1020 64 10000 0.05 81 07:53 24.07.2022
278 Clouds 18 1020 76 10000 0.62 84 07:26 24.07.2022
279 Clouds 18 1021 77 10000 0.99 77 02:57 24.07.2022
280 Clouds 22 1020 64 10000 1.25 31 22:52 23.07.2022
281 Clouds 25 1019 55 10000 1.27 74 20:47 23.07.2022
282 Clouds 28 1018 48 10000 1.08 23 19:29 23.07.2022
283 Clouds 28 1018 48 10000 1.08 23 18:36 23.07.2022
284 Clouds 29 1018 48 10000 2.2 333 17:27 23.07.2022
285 Clouds 27 1018 46 10000 3.64 318 16:24 23.07.2022
286 Clouds 28 1017 39 10000 3.18 283 15:22 23.07.2022
287 Clouds 28 1017 39 10000 3.18 283 14:55 23.07.2022
288 Clouds 27 1017 37 10000 2.8 284 14:23 23.07.2022
289 Clouds 25 1018 45 10000 2.16 275 11:56 23.07.2022
290 Clouds 23 1018 50 10000 1.06 287 10:44 23.07.2022
291 Clouds 21 1018 58 10000 1.1 326 09:44 23.07.2022
292 Clouds 19 1018 76 10000 0.8 343 08:24 23.07.2022
293 Rain 19 1018 84 10000 0.74 46 03:38 23.07.2022
294 Clouds 20 1017 76 10000 1.91 356 00:39 23.07.2022
295 Clouds 24 1016 62 10000 2.26 347 21:41 22.07.2022
296 Clouds 25 1015 53 10000 1.69 311 20:33 22.07.2022
297 Clouds 28 1015 42 10000 0.41 269 18:57 22.07.2022
298 Clouds 30 1015 36 10000 2.14 267 17:52 22.07.2022
299 Clouds 30 1016 33 10000 2.1 259 16:46 22.07.2022
300 Clouds 28 1017 36 10000 0.11 117 14:20 22.07.2022
301 Clear 21 1019 50 10000 2.02 56 10:41 22.07.2022
302 Clear 19 1020 70 10000 2.27 54 09:25 22.07.2022
303 Clouds 18 1020 83 10000 2.07 46 08:27 22.07.2022
304 Clouds 16 1021 97 10000 1.74 46 04:48 22.07.2022
305 Clear 19 1021 90 10000 1.92 1 23:45 21.07.2022
306 Clear 20 1021 81 10000 2.23 353 22:25 21.07.2022
307 Clear 23 1020 68 10000 3.67 328 20:48 21.07.2022
308 Clouds 25 1019 54 10000 4.58 311 19:23 21.07.2022
309 Clouds 26 1019 57 10000 4.99 317 17:39 21.07.2022
310 Clouds 25 1019 47 10000 4.74 288 17:19 21.07.2022
311 Clouds 25 1019 44 10000 5.32 259 14:55 21.07.2022
312 Clouds 25 1019 39 10000 5.49 262 14:29 21.07.2022
313 Clouds 23 1020 47 10000 5.28 246 12:28 21.07.2022
314 Clouds 22 1021 59 10000 4.82 242 10:56 21.07.2022
315 Clouds 20 1021 83 10000 3.3 239 09:27 21.07.2022
316 Clouds 19 1021 83 10000 3.3 239 08:49 21.07.2022
317 Clouds 19 1020 92 10000 3.08 215 07:42 21.07.2022
318 Clouds 18 1020 97 10000 2.58 200 04:46 21.07.2022
319 Clouds 19 1019 97 10000 1.82 194 00:36 21.07.2022
320 Rain 21 1019 96 10000 0.36 254 22:21 20.07.2022
321 Rain 24 1018 91 4831 4.32 235 20:54 20.07.2022
322 Rain 26 1015 60 10000 2.05 247 19:52 20.07.2022
323 Rain 27 1016 46 10000 3.62 303 19:24 20.07.2022
324 Clouds 29 1016 46 10000 3.62 303 18:34 20.07.2022
325 Clouds 31 1016 37 10000 3.34 325 17:59 20.07.2022
326 Clouds 30 1015 38 10000 4.01 321 16:45 20.07.2022
327 Rain 31 1017 44 10000 3.19 313 15:32 20.07.2022
328 Clouds 30 1017 40 10000 5.93 280 14:20 20.07.2022
329 Clouds 30 1017 40 10000 5.93 280 14:20 20.07.2022
330 Clouds 30 1017 40 10000 5.93 280 14:20 20.07.2022
331 Clouds 29 1017 37 10000 2.36 314 11:37 20.07.2022
332 Clear 27 1017 47 10000 2.73 352 09:41 20.07.2022
333 Clear 23 1015 50 10000 0.97 104 03:49 20.07.2022
334 Clear 27 1014 37 10000 2.26 110 00:51 20.07.2022
335 Clear 27 1014 34 10000 3.01 115 23:41 19.07.2022
336 Clear 29 1014 32 10000 3.25 116 22:33 19.07.2022
337 Clear 32 1014 32 10000 3.25 116 21:46 19.07.2022
338 Clear 35 1014 33 10000 3.57 108 20:48 19.07.2022
339 Clouds 36 1014 17 10000 4.76 118 19:21 19.07.2022
340 Clouds 37 1014 17 10000 4.76 118 18:31 19.07.2022
341 Clouds 37 1014 14 10000 4.85 124 17:46 19.07.2022
342 Clouds 37 1015 14 10000 5.08 123 14:58 19.07.2022
343 Clear 33 1018 20 10000 4.48 127 11:58 19.07.2022
344 Clear 33 1018 22 10000 4.16 128 11:18 19.07.2022
345 Clear 29 1018 26 10000 2.67 115 09:44 19.07.2022
346 Clear 26 1019 33 10000 1.48 84 08:42 19.07.2022
347 Clear 20 1019 51 10000 1.41 65 07:19 19.07.2022
348 Clear 21 1019 52 10000 1.42 63 05:48 19.07.2022
349 Clear 21 1020 52 10000 1.34 65 05:18 19.07.2022
350 Clear 22 1020 50 10000 1.3 68 02:33 19.07.2022
351 Clear 24 1020 46 10000 1.19 123 23:52 18.07.2022
352 Clear 25 1020 45 10000 1.39 117 23:19 18.07.2022
353 Clear 27 1020 43 10000 1.44 104 22:26 18.07.2022
354 Clear 30 1020 40 10000 1.92 125 21:20 18.07.2022
355 Clouds 34 1019 31 10000 3.08 132 20:22 18.07.2022
356 Clouds 36 1019 18 10000 2.69 108 18:29 18.07.2022
357 Clouds 36 1020 18 10000 2.05 105 16:30 18.07.2022
358 Clouds 35 1021 19 10000 1.19 118 15:28 18.07.2022
359 Clouds 33 1021 19 10000 0.62 126 13:32 18.07.2022
360 Clouds 29 1022 23 10000 1.14 133 11:43 18.07.2022
361 Clouds 25 1023 31 10000 1 89 09:55 18.07.2022
362 Clouds 21 1024 46 10000 0.85 69 07:58 18.07.2022
363 Clouds 16 1024 56 10000 1.19 54 05:25 18.07.2022
364 Clouds 20 1025 45 10000 1.96 59 23:19 17.07.2022
365 Clouds 22 1025 45 10000 1.96 59 22:32 17.07.2022
366 Clouds 25 1025 43 10000 2.04 84 21:40 17.07.2022
367 Clouds 27 1024 39 10000 2.5 85 20:46 17.07.2022
368 Clouds 28 1023 30 10000 3.25 78 20:18 17.07.2022
369 Clouds 29 1023 24 10000 3.41 69 19:26 17.07.2022
370 Clouds 30 1023 20 10000 3.38 59 18:22 17.07.2022
371 Clouds 30 1023 20 10000 3.38 59 17:37 17.07.2022
372 Clouds 30 1023 19 10000 3.23 45 16:50 17.07.2022
373 Clouds 30 1024 18 10000 3.17 42 16:25 17.07.2022
374 Clouds 28 1025 19 10000 2.97 28 14:20 17.07.2022
375 Clear 27 1025 21 10000 2.44 32 13:24 17.07.2022
376 Clouds 23 1026 29 10000 1.83 57 10:59 17.07.2022
377 Clouds 18 1027 45 10000 2.34 33 08:43 17.07.2022
378 Clear 12 1027 65 10000 1.8 44 03:40 17.07.2022
379 Clouds 16 1027 61 10000 2.19 40 01:47 17.07.2022
380 Clouds 18 1026 56 10000 2.48 41 23:19 16.07.2022
381 Clouds 22 1024 50 10000 2.83 35 21:21 16.07.2022
382 Clear 25 1023 36 10000 4.15 10 19:25 16.07.2022
383 Clear 27 1022 34 10000 5.39 359 17:56 16.07.2022
384 Clear 26 1022 30 10000 3.67 347 16:27 16.07.2022
385 Clouds 24 1022 31 10000 4.31 342 13:47 16.07.2022
386 Clouds 22 1023 38 10000 2.63 345 10:50 16.07.2022
387 Clear 19 1023 43 10000 2.14 346 09:32 16.07.2022
388 Clear 17 1023 50 10000 1.2 346 08:43 16.07.2022
389 Clear 15 1023 59 10000 1 338 07:59 16.07.2022
390 Clear 13 1023 75 10000 0.31 20 03:41 16.07.2022
391 Clear 14 1023 73 10000 0.57 39 02:40 16.07.2022
392 Clear 17 1022 58 10000 0.98 29 23:29 15.07.2022
393 Clear 18 1022 58 10000 0.98 29 22:39 15.07.2022
394 Clear 21 1021 47 10000 1.88 26 21:28 15.07.2022
395 Clouds 23 1020 36 10000 3.08 27 20:24 15.07.2022
396 Clouds 25 1019 28 10000 3.97 355 18:37 15.07.2022
397 Clouds 25 1019 25 10000 3.65 356 17:37 15.07.2022
398 Clouds 23 1020 26 10000 2.97 3 14:53 15.07.2022
399 Clouds 22 1021 34 10000 2.81 1 12:57 15.07.2022
400 Clouds 20 1022 47 10000 2.63 13 11:27 15.07.2022
401 Clouds 18 1022 55 10000 3.11 22 09:44 15.07.2022
402 Clouds 13 1023 90 10000 2.23 11 06:24 15.07.2022
403 Clouds 16 1021 65 10000 2.42 10 00:58 15.07.2022
404 Clouds 18 1021 60 10000 2.95 7 00:21 15.07.2022
405 Clouds 20 1020 54 10000 3.09 1 22:50 14.07.2022
406 Clouds 22 1019 46 10000 3.22 356 21:51 14.07.2022
407 Clouds 23 1018 40 10000 3.92 352 21:29 14.07.2022
408 Clouds 24 1018 40 10000 3.92 352 20:45 14.07.2022
409 Clouds 25 1017 34 10000 5.05 346 20:24 14.07.2022
410 Clouds 27 1016 30 10000 5.67 334 19:19 14.07.2022
411 Clouds 28 1016 32 10000 5.61 312 16:23 14.07.2022
412 Clouds 27 1016 32 10000 5.61 312 15:34 14.07.2022
413 Clouds 28 1016 28 10000 6.33 314 14:31 14.07.2022
414 Clouds 28 1016 29 10000 3.14 268 13:21 14.07.2022
415 Clouds 26 1017 36 10000 2.39 281 11:56 14.07.2022
416 Clouds 25 1017 42 10000 1.28 297 11:24 14.07.2022
417 Clouds 24 1017 42 10000 1.28 297 10:39 14.07.2022
418 Clouds 21 1019 66 10000 1.35 50 08:21 14.07.2022
419 Clear 20 1020 81 10000 1.31 51 03:29 14.07.2022
420 Clouds 25 1020 66 10000 2.2 22 00:54 14.07.2022
421 Clouds 25 1020 57 10000 1.93 25 23:38 13.07.2022
422 Clouds 26 1019 44 10000 0.48 236 22:26 13.07.2022
423 Clouds 29 1019 44 10000 0.48 236 21:30 13.07.2022
424 Clouds 32 1018 30 10000 3.35 290 20:26 13.07.2022
425 Clouds 33 1018 23 10000 4.16 277 17:59 13.07.2022
426 Clouds 33 1019 21 10000 3.62 272 17:20 13.07.2022
427 Clouds 33 1020 23 10000 2.88 249 15:59 13.07.2022
428 Clouds 31 1021 28 10000 2.32 244 13:50 13.07.2022
429 Clouds 27 1022 35 10000 2.3 241 11:24 13.07.2022
430 Clouds 26 1022 35 10000 2.3 241 10:40 13.07.2022
431 Clouds 24 1022 43 10000 1.2 238 09:28 13.07.2022
432 Clouds 22 1023 51 10000 1.12 203 08:23 13.07.2022
433 Clouds 18 1023 58 10000 1.16 184 04:36 13.07.2022
434 Clouds 21 1024 63 10000 1.16 130 00:47 13.07.2022
435 Clouds 22 1024 55 10000 1.04 118 22:46 12.07.2022
436 Clouds 25 1024 49 10000 1.29 101 21:49 12.07.2022
437 Clouds 28 1023 46 10000 1.7 71 20:53 12.07.2022
438 Clouds 29 1023 41 10000 1.88 51 19:54 12.07.2022
439 Clouds 30 1022 31 10000 2.11 42 18:43 12.07.2022
440 Clouds 30 1023 26 10000 2.07 49 16:36 12.07.2022
441 Clouds 29 1023 26 10000 2.2 60 15:32 12.07.2022
442 Clouds 27 1024 30 10000 2.74 70 13:43 12.07.2022
443 Clouds 24 1024 38 10000 3 54 11:55 12.07.2022
444 Clouds 22 1025 47 10000 2.58 45 10:45 12.07.2022
445 Clouds 19 1025 68 10000 1.48 34 08:59 12.07.2022
446 Clouds 16 1025 79 10000 1.35 26 07:48 12.07.2022
447 Clouds 14 1024 94 10000 1.27 65 05:53 12.07.2022
448 Clouds 13 1024 94 10000 1.27 65 05:34 12.07.2022
449 Clouds 15 1024 89 10000 1.52 57 01:32 12.07.2022
450 Clouds 18 1024 85 10000 2.3 55 22:50 11.07.2022
451 Clouds 20 1024 77 10000 2.87 52 21:37 11.07.2022
452 Clouds 22 1023 63 10000 3.58 50 20:33 11.07.2022
453 Clouds 24 1022 45 10000 4.23 50 19:28 11.07.2022
454 Clouds 25 1022 45 10000 4.23 50 18:30 11.07.2022
455 Clouds 25 1022 47 10000 3.85 54 17:31 11.07.2022
456 Clouds 24 1022 43 10000 3.36 40 15:34 11.07.2022
457 Clouds 23 1022 44 10000 3.96 37 13:37 11.07.2022
458 Clouds 21 1022 49 10000 2.63 39 11:33 11.07.2022
459 Clouds 20 1023 61 10000 2.3 24 10:18 11.07.2022
460 Clouds 20 1023 61 10000 2.3 24 09:40 11.07.2022
461 Clouds 18 1024 68 10000 1.85 21 08:33 11.07.2022
462 Clear 18 1024 90 10000 0.71 1 03:23 11.07.2022
463 Clouds 18 1025 82 10000 0.51 99 00:20 11.07.2022
464 Clouds 18 1024 70 10000 0.47 115 22:55 10.07.2022
465 Clouds 19 1025 67 10000 0.84 72 21:41 10.07.2022
466 Clouds 20 1024 63 10000 2.14 47 20:47 10.07.2022
467 Clouds 20 1024 56 10000 3.8 32 19:50 10.07.2022
468 Clouds 21 1024 51 10000 4.48 26 18:48 10.07.2022
469 Clouds 21 1024 47 10000 4.99 25 17:37 10.07.2022
470 Clouds 21 1024 45 10000 5.07 22 16:45 10.07.2022
471 Clouds 21 1024 44 10000 5.46 12 15:28 10.07.2022
472 Clouds 20 1024 44 10000 5.18 14 14:21 10.07.2022
473 Clear 18 1025 45 10000 3.63 21 12:28 10.07.2022
474 Clear 18 1026 48 10000 3.6 22 11:20 10.07.2022
475 Clouds 15 1026 63 10000 3.87 31 08:45 10.07.2022
476 Clear 13 1027 75 10000 3.4 27 07:39 10.07.2022
477 Clouds 15 1027 91 10000 2.32 1 02:47 10.07.2022
478 Clouds 19 1025 65 10000 3.52 6 22:59 09.07.2022
479 Clouds 20 1025 60 10000 2.44 357 22:25 09.07.2022
480 Clouds 22 1024 48 10000 4.5 345 21:28 09.07.2022
481 Clouds 25 1023 43 10000 4.51 332 18:45 09.07.2022
482 Clouds 26 1024 47 10000 5.42 333 17:48 09.07.2022
483 Clouds 26 1024 43 10000 7.11 334 16:58 09.07.2022
484 Clouds 26 1024 35 10000 5.41 321 15:44 09.07.2022
485 Clouds 26 1024 35 10000 4.57 317 15:25 09.07.2022
486 Clouds 25 1025 39 10000 4.32 316 13:51 09.07.2022
487 Clouds 25 1025 40 10000 3.47 310 12:53 09.07.2022
488 Clear 23 1026 43 10000 2.44 291 11:33 09.07.2022
489 Clear 23 1026 43 10000 2.44 291 11:33 09.07.2022
490 Clouds 22 1027 56 10000 1.97 324 10:24 09.07.2022
491 Clouds 18 1028 74 10000 0.45 336 08:25 09.07.2022
492 Clouds 15 1028 85 10000 0.54 42 06:59 09.07.2022
493 Clouds 14 1028 91 10000 0.66 33 04:34 09.07.2022
494 Clear 18 1029 78 10000 1.8 28 23:27 08.07.2022
495 Clouds 19 1029 71 10000 1.59 47 21:59 08.07.2022
496 Clear 22 1029 64 10000 2.08 51 21:20 08.07.2022
497 Clear 23 1029 64 10000 2.08 51 20:33 08.07.2022
498 Clear 25 1028 42 10000 3.85 14 18:36 08.07.2022
499 Clear 26 1028 39 10000 4.24 8 17:45 08.07.2022
500 Clear 24 1028 35 10000 3.9 3 15:53 08.07.2022
501 Clear 24 1029 34 10000 3.49 4 14:50 08.07.2022
502 Clear 20 1030 36 10000 2.55 20 12:30 08.07.2022
503 Clear 17 1031 49 10000 2.39 21 10:46 08.07.2022
504 Clear 15 1031 57 10000 2.1 29 09:42 08.07.2022
505 Clear 11 1031 91 10000 0.31 321 06:55 08.07.2022
506 Clear 11 1031 96 10000 0.48 330 05:33 08.07.2022
507 Clouds 14 1029 92 10000 2.2 360 00:30 08.07.2022
508 Clouds 16 1028 87 10000 1.25 304 22:50 07.07.2022
509 Clouds 17 1027 84 10000 1.64 322 21:46 07.07.2022
510 Clouds 19 1025 60 10000 5.16 332 19:34 07.07.2022
511 Clouds 19 1024 50 10000 5.89 333 17:43 07.07.2022
512 Clouds 19 1024 53 10000 6.33 329 16:21 07.07.2022
513 Clouds 20 1023 57 10000 5.67 322 13:40 07.07.2022
514 Clouds 19 1023 72 10000 5.07 312 12:43 07.07.2022
515 Clouds 18 1023 84 10000 4.93 303 12:23 07.07.2022
516 Clouds 18 1023 84 10000 4.93 303 11:33 07.07.2022
517 Clouds 18 1022 79 10000 4.67 292 10:45 07.07.2022
518 Clouds 19 1022 78 10000 3.87 280 10:27 07.07.2022
519 Clouds 18 1022 77 10000 3.35 272 09:22 07.07.2022
520 Clouds 14 1022 87 10000 2.24 207 05:57 07.07.2022
521 Clouds 15 1024 69 10000 1.08 216 00:28 07.07.2022
522 Clouds 16 1024 69 10000 1.08 216 23:36 06.07.2022
523 Clouds 16 1024 68 10000 0.63 205 23:18 06.07.2022
524 Clouds 17 1024 68 10000 0.63 205 22:51 06.07.2022
525 Clouds 17 1024 68 10000 0.63 205 22:33 06.07.2022
526 Clouds 22 1023 47 10000 2.98 323 20:23 06.07.2022
527 Clouds 22 1023 38 10000 3.78 316 19:18 06.07.2022
528 Clouds 21 1023 34 10000 3.95 321 17:21 06.07.2022
529 Clouds 20 1024 33 10000 3.88 324 15:55 06.07.2022
530 Clouds 19 1025 35 10000 3.93 343 12:44 06.07.2022
531 Clouds 19 1025 37 10000 3.69 354 11:52 06.07.2022
532 Clouds 17 1025 41 10000 3.66 1 10:54 06.07.2022
533 Clouds 15 1026 57 10000 3.31 2 09:25 06.07.2022
534 Clouds 13 1026 68 10000 2.24 354 07:44 06.07.2022
535 Clouds 12 1026 83 10000 1.27 349 06:44 06.07.2022
536 Clear 17 1025 77 10000 2.37 3 00:24 06.07.2022
537 Clouds 19 1024 72 10000 2.35 7 22:43 05.07.2022
538 Clouds 24 1022 54 10000 4.44 353 20:49 05.07.2022
539 Clouds 24 1022 54 10000 4.44 353 20:31 05.07.2022
540 Clouds 25 1021 41 10000 3.96 322 19:38 05.07.2022
541 Clouds 26 1020 32 10000 5.51 324 17:51 05.07.2022
542 Clouds 26 1020 31 10000 5.08 317 17:19 05.07.2022
543 Clear 26 1020 31 10000 4.48 308 16:25 05.07.2022
544 Clear 26 1020 31 10000 3.68 303 14:54 05.07.2022
545 Clear 25 1021 33 10000 3.2 295 13:36 05.07.2022
546 Clear 24 1021 43 10000 2.84 279 12:24 05.07.2022
547 Clear 23 1022 49 10000 2.29 283 10:46 05.07.2022
548 Clear 21 1022 55 10000 1.18 305 09:58 05.07.2022
549 Clear 17 1022 71 10000 1.26 343 08:23 05.07.2022
550 Clear 14 1022 78 10000 0.94 353 06:59 05.07.2022
551 Clear 13 1022 84 10000 0.8 18 04:39 05.07.2022
552 Clear 17 1021 80 10000 0.74 32 01:33 05.07.2022
553 Clear 18 1021 77 10000 1.24 17 23:38 04.07.2022
554 Clear 17 1020 72 10000 1.44 3 22:57 04.07.2022
555 Clear 21 1020 67 10000 1.49 346 22:19 04.07.2022
556 Clear 23 1019 61 10000 1.51 315 20:57 04.07.2022
557 Clear 25 1019 61 10000 1.51 315 20:37 04.07.2022
558 Clear 25 1018 53 10000 1.69 300 19:57 04.07.2022
559 Clear 25 1018 53 10000 1.69 300 19:37 04.07.2022
560 Clear 26 1018 40 10000 2.63 313 18:54 04.07.2022
561 Clear 26 1019 35 10000 3.28 317 16:58 04.07.2022
562 Clear 25 1019 35 10000 3.14 316 15:40 04.07.2022
563 Clear 25 1019 34 10000 2.85 306 14:21 04.07.2022
564 Clear 23 1020 37 10000 2.46 293 12:56 04.07.2022
565 Clear 22 1020 41 10000 1.96 283 11:32 04.07.2022
566 Clear 21 1020 47 10000 1.19 298 10:33 04.07.2022
567 Clear 18 1021 63 10000 1.34 357 09:23 04.07.2022
568 Clear 12 1021 89 10000 0.34 52 06:28 04.07.2022
569 Clear 14 1021 88 10000 1.13 18 02:59 04.07.2022
570 Clouds 18 1020 80 10000 1.43 3 23:53 03.07.2022
571 Clouds 20 1020 76 10000 1.59 336 22:48 03.07.2022
572 Clouds 24 1018 58 10000 3.16 301 20:46 03.07.2022
573 Clouds 24 1018 46 10000 4.4 285 19:59 03.07.2022
574 Clouds 27 1017 40 10000 5.13 269 19:25 03.07.2022
575 Clouds 27 1017 40 10000 5.13 269 18:30 03.07.2022
576 Clouds 29 1017 37 10000 6 267 17:41 03.07.2022
577 Clear 29 1017 31 10000 5.7 257 15:28 03.07.2022
578 Clear 28 1017 31 10000 5.7 257 14:54 03.07.2022
579 Clouds 28 1018 34 10000 4.27 227 13:50 03.07.2022
580 Clouds 27 1018 36 10000 3.43 224 12:49 03.07.2022
581 Clouds 26 1018 40 10000 2.96 228 12:21 03.07.2022
582 Clouds 25 1019 46 10000 2.5 227 10:55 03.07.2022
583 Clouds 25 1019 46 10000 2.5 227 10:36 03.07.2022
584 Clear 20 1019 59 10000 1.37 240 08:48 03.07.2022
585 Clear 17 1019 68 10000 0.87 237 07:34 03.07.2022
586 Clear 18 1019 82 10000 0.39 286 01:32 03.07.2022
587 Clear 21 1019 78 10000 0.28 93 23:38 02.07.2022
588 Clear 22 1019 75 10000 0.49 286 22:31 02.07.2022
589 Clear 26 1018 61 10000 1.28 190 20:37 02.07.2022
590 Clear 27 1018 52 10000 1.79 191 19:50 02.07.2022
591 Clear 28 1018 38 10000 2.56 183 19:19 02.07.2022
592 Clear 28 1018 32 10000 2.6 183 17:40 02.07.2022
593 Clear 28 1018 31 10000 2.54 186 16:35 02.07.2022
594 Clear 25 1020 33 10000 2.5 187 13:51 02.07.2022
595 Clear 23 1021 37 10000 2.14 170 11:52 02.07.2022
596 Clear 22 1022 43 10000 1.34 146 10:53 02.07.2022
597 Clear 21 1022 43 10000 1.34 146 10:32 02.07.2022
598 Clear 17 1023 60 10000 0.59 77 08:39 02.07.2022
599 Clear 16 1023 70 10000 0.33 94 08:19 02.07.2022
600 Clear 11 1024 80 10000 0.7 72 06:51 02.07.2022
601 Clear 14 1024 84 10000 0.83 122 00:55 02.07.2022
602 Clear 15 1023 83 10000 0.6 137 23:31 01.07.2022
603 Clear 16 1023 82 10000 0.31 202 22:40 01.07.2022
604 Clear 19 1022 77 10000 1.07 269 21:40 01.07.2022
605 Clear 19 1021 69 10000 1.89 252 20:59 01.07.2022
606 Clear 20 1021 69 10000 1.89 252 20:37 01.07.2022
607 Clouds 21 1021 56 10000 2.3 276 19:41 01.07.2022
608 Clouds 21 1020 43 10000 4.64 284 17:52 01.07.2022
609 Clouds 22 1020 45 10000 4.18 262 15:50 01.07.2022
610 Clouds 21 1019 46 10000 4.33 257 13:54 01.07.2022
611 Clouds 18 1020 65 10000 3.6 261 11:56 01.07.2022
612 Clouds 16 1020 92 10000 3.46 229 10:20 01.07.2022
613 Clouds 15 1020 92 10000 3.46 229 09:31 01.07.2022
614 Clouds 14 1018 98 10000 2.54 245 03:42 01.07.2022
615 Rain 14 1017 97 10000 3.06 233 00:26 01.07.2022
616 Rain 15 1017 98 7660 2.66 226 22:59 30.06.2022
617 Rain 15 1017 98 7660 2.66 226 22:41 30.06.2022
618 Rain 15 1015 97 8670 2.35 291 22:22 30.06.2022
619 Rain 16 1015 97 8670 2.35 291 21:41 30.06.2022
620 Clouds 16 1015 95 8843 4.48 288 20:30 30.06.2022
621 Clouds 17 1014 96 10000 5.23 282 19:54 30.06.2022
622 Clouds 18 1013 95 5588 4.34 289 19:24 30.06.2022
623 Clouds 22 1013 95 5588 4.34 289 18:42 30.06.2022
624 Clouds 26 1010 85 4633 8.19 279 17:44 30.06.2022
625 Clouds 30 1008 45 10000 2.07 258 16:55 30.06.2022
626 Rain 31 1008 34 10000 4.29 176 15:39 30.06.2022
627 Clouds 29 1009 35 10000 3.3 164 13:34 30.06.2022
628 Clouds 29 1010 36 10000 2.19 182 12:35 30.06.2022
629 Clouds 28 1010 38 10000 1.49 177 11:43 30.06.2022
630 Clouds 24 1011 52 10000 0.16 95 09:55 30.06.2022
631 Clouds 24 1011 52 10000 0.16 95 09:35 30.06.2022
632 Clear 21 1012 66 10000 0.64 44 08:19 30.06.2022
633 Clear 17 1012 78 10000 1.12 68 07:23 30.06.2022
634 Clouds 17 1013 82 10000 1.05 71 02:38 30.06.2022
635 Clouds 21 1014 80 10000 0.68 268 23:35 29.06.2022
636 Clouds 22 1013 72 10000 1.07 263 22:41 29.06.2022
637 Clouds 25 1013 64 10000 1.03 281 21:43 29.06.2022
638 Clouds 27 1012 63 10000 1.22 316 20:34 29.06.2022
639 Clouds 28 1012 60 10000 1.67 330 19:48 29.06.2022
640 Clouds 27 1012 45 10000 1.2 13 17:54 29.06.2022
641 Clouds 27 1013 45 10000 1.06 344 16:51 29.06.2022
642 Clouds 28 1014 45 10000 1.07 330 15:32 29.06.2022
643 Clouds 25 1015 54 10000 0.53 278 13:20 29.06.2022
644 Clouds 24 1015 58 10000 0.28 316 12:24 29.06.2022
645 Clouds 20 1015 62 10000 0.35 316 09:43 29.06.2022
646 Clouds 20 1015 62 10000 0.46 51 09:21 29.06.2022
647 Clouds 18 1015 63 10000 1.16 5 06:27 29.06.2022
648 Clouds 17 1016 72 10000 1.41 37 02:59 29.06.2022
649 Clouds 18 1017 64 10000 2.07 36 00:52 29.06.2022
650 Clouds 18 1017 64 10000 2.07 36 00:33 29.06.2022
651 Clear 20 1018 69 10000 1.44 86 22:49 28.06.2022
652 Clear 22 1017 68 10000 1.62 91 21:57 28.06.2022
653 Clear 23 1017 68 10000 1.62 91 21:38 28.06.2022
654 Clear 23 1017 65 10000 2.39 105 20:57 28.06.2022
655 Clear 25 1017 54 10000 2.55 107 19:54 28.06.2022
656 Clear 25 1017 43 10000 2.35 120 19:28 28.06.2022
657 Clear 26 1017 43 10000 2.35 120 18:38 28.06.2022
658 Clear 26 1017 33 10000 1.93 115 16:58 28.06.2022
659 Clear 26 1018 33 10000 1.74 100 15:55 28.06.2022
660 Clear 24 1018 34 10000 1.62 57 14:50 28.06.2022
661 Clouds 24 1019 36 10000 1.54 48 14:18 28.06.2022
662 Clouds 24 1019 36 10000 1.54 48 13:45 28.06.2022
663 Clouds 22 1021 42 10000 0.85 26 12:28 28.06.2022
664 Clouds 19 1022 56 10000 0.92 101 10:23 28.06.2022
665 Clouds 17 1022 71 10000 1.05 92 08:55 28.06.2022
666 Clouds 15 1022 71 10000 1.05 92 08:33 28.06.2022
667 Clouds 13 1023 89 10000 1.07 57 07:20 28.06.2022
668 Clouds 12 1023 91 10000 0.93 47 03:55 28.06.2022
669 Clouds 15 1022 88 10000 1.13 184 23:51 27.06.2022
670 Clouds 15 1022 86 10000 1.58 162 23:26 27.06.2022
671 Clouds 18 1022 82 10000 0.98 187 21:53 27.06.2022
672 Clouds 18 1021 79 10000 0.59 333 21:29 27.06.2022
673 Clouds 18 1021 79 10000 0.59 333 20:33 27.06.2022
674 Clouds 20 1020 60 10000 4.72 283 18:51 27.06.2022
675 Clouds 21 1020 57 10000 5.04 279 17:38 27.06.2022
676 Clouds 20 1019 66 10000 5.87 256 15:50 27.06.2022
677 Clouds 20 1018 71 10000 6.12 238 14:25 27.06.2022
678 Rain 19 1018 84 10000 4.39 222 12:58 27.06.2022
679 Clouds 18 1017 89 10000 3.39 220 11:40 27.06.2022
680 Clouds 18 1017 92 7164 3.56 233 09:49 27.06.2022
681 Clouds 17 1016 89 10000 2.47 248 08:43 27.06.2022
682 Clouds 17 1016 94 10000 1.89 221 07:52 27.06.2022
683 Clouds 16 1015 98 10000 1.36 201 06:28 27.06.2022
684 Rain 17 1015 99 10000 2.18 67 01:25 27.06.2022
685 Rain 18 1014 98 2730 3.86 309 23:22 26.06.2022
686 Rain 18 1015 96 5589 0.59 292 21:40 26.06.2022
687 Clouds 19 1014 93 10000 1.86 19 20:33 26.06.2022
688 Rain 20 1015 92 10000 1.62 23 18:38 26.06.2022
689 Rain 19 1016 91 10000 0.98 345 18:20 26.06.2022
690 Clouds 19 1017 95 9909 0.4 116 15:37 26.06.2022
691 Rain 19 1017 96 10000 1.55 29 14:33 26.06.2022
692 Rain 18 1017 85 7410 1.12 5 13:27 26.06.2022
693 Clouds 19 1017 85 7410 1.12 5 12:37 26.06.2022
694 Rain 20 1017 79 10000 2.09 263 10:53 26.06.2022
695 Clouds 19 1016 88 10000 1.64 289 10:22 26.06.2022
696 Clouds 17 1016 91 10000 1.23 250 08:45 26.06.2022
697 Clouds 16 1016 97 10000 1.63 190 07:18 26.06.2022
698 Clouds 17 1015 97 10000 2.41 208 00:45 26.06.2022
699 Clouds 17 1014 93 10000 2.1 270 00:20 26.06.2022
700 Rain 19 1014 93 10000 2.1 270 23:33 25.06.2022
701 Rain 19 1014 93 10000 2.1 270 23:33 25.06.2022
702 Clouds 21 1013 85 5365 1.75 228 22:51 25.06.2022
703 Clouds 21 1012 75 10000 0.97 118 22:26 25.06.2022
704 Clouds 23 1011 71 10000 0.93 120 21:23 25.06.2022
705 Clouds 23 1011 71 10000 0.93 120 20:59 25.06.2022
706 Clouds 24 1011 65 10000 1.36 131 20:25 25.06.2022
707 Clouds 26 1011 63 10000 1.41 155 18:45 25.06.2022
708 Clouds 26 1011 41 10000 2.31 220 17:28 25.06.2022
709 Clouds 26 1011 41 10000 2.31 220 16:44 25.06.2022
710 Clouds 25 1011 46 10000 3.61 211 14:50 25.06.2022
711 Clouds 24 1012 50 10000 3.43 207 12:56 25.06.2022
712 Clouds 23 1012 50 10000 3.43 207 12:37 25.06.2022
713 Clouds 19 1013 61 10000 3.48 204 10:30 25.06.2022
714 Clouds 18 1014 89 10000 3.19 200 08:57 25.06.2022
715 Clouds 17 1014 94 10000 2.58 190 08:29 25.06.2022
716 Clouds 15 1014 97 10000 1.73 167 06:53 25.06.2022
717 Clouds 15 1013 98 10000 2.32 176 03:30 25.06.2022
718 Clouds 16 1012 97 10000 2.84 189 00:33 25.06.2022
719 Rain 17 1012 96 10000 3.17 185 22:51 24.06.2022
720 Clouds 18 1011 96 10000 3.14 185 21:31 24.06.2022
721 Clouds 18 1010 94 10000 3.35 201 20:44 24.06.2022
722 Clouds 18 1010 93 10000 4.35 218 20:18 24.06.2022
723 Clouds 20 1009 90 10000 4.63 230 19:20 24.06.2022
724 Clouds 20 1009 90 10000 4.63 230 18:48 24.06.2022
725 Clouds 21 1009 90 10000 4.63 230 18:30 24.06.2022
726 Rain 20 1008 81 10000 5.5 236 16:57 24.06.2022
727 Rain 23 1008 66 10000 5.13 219 15:29 24.06.2022
728 Clouds 25 1009 64 10000 5.13 226 14:26 24.06.2022
729 Clouds 24 1009 64 10000 5.13 226 13:54 24.06.2022
730 Clouds 22 1009 67 10000 4.68 230 11:43 24.06.2022
731 Clouds 21 1009 78 10000 4.38 205 10:47 24.06.2022
732 Clouds 19 1009 77 10000 3.74 193 09:49 24.06.2022
733 Clouds 19 1010 88 10000 2.59 193 09:27 24.06.2022
734 Clouds 18 1010 88 10000 2.59 193 08:51 24.06.2022
735 Clouds 18 1010 97 10000 2.63 196 06:47 24.06.2022
736 Clouds 18 1010 99 9092 2.84 187 06:29 24.06.2022
737 Clouds 18 1010 99 9092 2.84 187 05:52 24.06.2022
738 Clouds 20 1010 95 10000 1.53 147 01:21 24.06.2022
739 Clouds 24 1011 91 10000 7.58 214 22:44 23.06.2022
740 Clouds 26 1009 72 10000 1.33 100 21:54 23.06.2022
741 Clouds 28 1008 66 10000 1.77 63 20:54 23.06.2022
742 Clouds 28 1009 69 10000 2.54 30 20:32 23.06.2022
743 Clouds 29 1009 63 10000 1.85 58 18:49 23.06.2022
744 Clouds 29 1009 56 10000 1.76 1 17:45 23.06.2022
745 Clouds 30 1009 55 10000 1.1 0 16:36 23.06.2022
746 Clouds 29 1010 47 10000 1.28 245 15:43 23.06.2022
747 Clouds 30 1010 42 10000 2.13 218 15:23 23.06.2022
748 Clouds 28 1012 49 10000 2.03 219 12:43 23.06.2022
749 Clouds 25 1013 60 10000 1.8 182 11:20 23.06.2022
750 Clouds 23 1013 70 10000 1.6 178 09:46 23.06.2022
751 Clouds 21 1013 92 10000 1.88 172 08:18 23.06.2022
752 Clouds 19 1012 95 10000 1.65 135 02:19 23.06.2022
753 Clouds 21 1012 93 10000 1.45 116 00:25 23.06.2022
754 Clouds 21 1012 92 10000 1.43 94 23:27 22.06.2022
755 Clouds 21 1012 92 10000 1.43 94 22:31 22.06.2022
756 Clouds 23 1011 87 10000 1.49 50 21:21 22.06.2022
757 Clouds 24 1011 84 10000 0.79 90 20:25 22.06.2022
758 Clouds 25 1011 91 10000 1.09 18 19:50 22.06.2022
759 Rain 24 1011 91 10000 0.89 178 18:21 22.06.2022
760 Rain 25 1011 90 10000 1.61 200 17:26 22.06.2022
761 Clouds 26 1011 81 10000 2.24 157 16:18 22.06.2022
762 Clouds 27 1011 72 10000 1.89 156 15:26 22.06.2022
763 Clouds 26 1011 56 10000 1.47 189 14:18 22.06.2022
764 Clouds 27 1012 59 10000 3.26 183 13:37 22.06.2022
765 Clouds 26 1011 49 10000 3.16 180 13:18 22.06.2022
766 Clouds 24 1011 47 10000 1.96 134 11:48 22.06.2022
767 Clouds 23 1011 48 10000 2.55 64 10:55 22.06.2022
768 Clouds 22 1012 51 10000 2.22 55 09:59 22.06.2022
769 Clouds 18 1012 61 10000 2.1 35 07:59 22.06.2022
770 Clouds 15 1012 68 10000 1.93 45 03:40 22.06.2022
771 Clear 17 1012 67 10000 2.29 33 01:23 22.06.2022
772 Clear 19 1013 67 10000 2.39 19 23:42 21.06.2022
773 Clear 23 1011 74 10000 2.84 14 21:49 21.06.2022
774 Clear 25 1010 60 10000 2.64 27 19:55 21.06.2022
775 Clear 25 1010 50 10000 2.06 35 18:35 21.06.2022
776 Clear 27 1010 43 10000 1.98 38 17:31 21.06.2022
777 Clouds 24 1012 40 10000 2.38 72 13:54 21.06.2022
778 Clouds 20 1014 44 10000 3.06 81 11:37 21.06.2022
779 Clouds 17 1013 50 10000 3.46 71 09:54 21.06.2022
780 Clouds 15 1015 56 10000 2.36 60 08:47 21.06.2022
781 Clouds 11 1016 79 10000 1.98 48 06:36 21.06.2022
782 Clear 12 1017 82 10000 1.89 50 01:31 21.06.2022
783 Clear 14 1017 73 10000 1.54 61 23:25 20.06.2022
784 Clear 16 1017 70 10000 1.59 62 21:55 20.06.2022
785 Clear 17 1016 65 10000 1 46 20:53 20.06.2022
786 Clouds 19 1015 59 10000 0.99 3 19:44 20.06.2022
787 Clouds 18 1015 47 10000 2.55 4 18:48 20.06.2022
788 Clouds 18 1015 50 10000 3.5 356 18:20 20.06.2022
789 Clouds 18 1015 50 10000 3.5 356 17:35 20.06.2022
790 Clouds 17 1015 52 10000 4.25 349 15:58 20.06.2022
791 Clouds 15 1017 81 10000 3.29 15 13:34 20.06.2022
792 Clouds 15 1014 92 10000 2.61 339 11:25 20.06.2022
793 Clouds 17 1014 95 10000 2.64 315 09:47 20.06.2022
794 Clouds 17 1013 98 10000 1.58 210 08:45 20.06.2022
795 Rain 16 1012 97 10000 2.55 358 06:49 20.06.2022
796 Clouds 17 1011 97 10000 2.91 22 03:20 20.06.2022
797 Clouds 19 1010 89 10000 3.48 32 00:37 20.06.2022
798 Clear 21 1010 84 10000 4.08 32 23:25 19.06.2022
799 Clear 22 1009 78 10000 5.07 41 22:19 19.06.2022
800 Clear 23 1009 78 10000 5.07 41 21:41 19.06.2022
801 Clear 24 1008 73 10000 5.67 40 20:46 19.06.2022
802 Clear 26 1007 61 10000 3.35 4 19:48 19.06.2022
803 Clear 28 1007 48 10000 1.46 335 19:24 19.06.2022
804 Clear 29 1007 48 10000 1.46 335 18:31 19.06.2022
805 Clear 30 1007 44 10000 1.6 265 17:39 19.06.2022
806 Clear 32 1008 44 10000 2.2 245 16:39 19.06.2022
807 Clear 33 1008 45 10000 1.65 275 15:44 19.06.2022
808 Clear 33 1008 47 10000 3.24 287 15:26 19.06.2022
809 Clear 33 1008 47 10000 3.24 287 14:35 19.06.2022
810 Clouds 31 1008 46 10000 4.72 265 13:44 19.06.2022
811 Clouds 29 1008 46 10000 5.36 235 11:53 19.06.2022
812 Clouds 29 1008 46 10000 5.03 233 10:52 19.06.2022
813 Clear 26 1008 52 10000 4.58 214 08:55 19.06.2022
814 Clear 26 1008 52 10000 4.58 214 08:32 19.06.2022
815 Clear 23 1008 67 10000 2.69 176 07:26 19.06.2022
816 Clear 21 1008 60 10000 2.04 154 03:57 19.06.2022
817 Clear 24 1010 59 10000 1.39 135 00:51 19.06.2022
818 Clear 25 1011 56 10000 1.77 142 00:22 19.06.2022
819 Clear 26 1011 56 10000 1.77 142 23:35 18.06.2022
820 Clear 27 1011 59 10000 2.14 126 22:30 18.06.2022
821 Clear 31 1012 60 10000 2.01 113 20:54 18.06.2022
822 Clear 32 1012 54 10000 1.56 109 20:24 18.06.2022
823 Clear 34 1012 44 10000 2.14 147 19:21 18.06.2022
824 Clear 35 1012 44 10000 2.14 147 18:42 18.06.2022
825 Clear 35 1013 34 10000 2.33 178 17:30 18.06.2022
826 Clear 35 1015 30 10000 2.53 200 16:20 18.06.2022
827 Clear 35 1016 30 10000 2.6 206 15:18 18.06.2022
828 Clear 34 1016 30 10000 2.6 206 14:41 18.06.2022
829 Clear 32 1017 35 10000 2.38 210 12:46 18.06.2022
830 Clear 30 1018 39 10000 1.96 212 11:31 18.06.2022
831 Rain 27 1019 50 10000 1.2 212 10:25 18.06.2022
832 Rain 25 1020 56 10000 0.76 192 09:19 18.06.2022
833 Clouds 20 1020 64 10000 0.64 188 07:58 18.06.2022
834 Clouds 18 1021 71 10000 0.97 176 06:26 18.06.2022
835 Clouds 19 1022 67 10000 1.23 192 02:54 18.06.2022
836 Clouds 20 1023 65 10000 1.4 169 01:24 18.06.2022
837 Clouds 21 1023 65 10000 1.4 169 00:41 18.06.2022
838 Clouds 21 1023 66 10000 1.28 175 23:45 17.06.2022
839 Clouds 23 1023 66 10000 1.17 184 22:55 17.06.2022
840 Clouds 28 1022 64 10000 0.67 196 20:40 17.06.2022
841 Clouds 30 1022 51 10000 1.03 285 19:29 17.06.2022
842 Clouds 30 1022 46 10000 1.01 273 18:25 17.06.2022
843 Clouds 30 1022 46 10000 1.01 273 17:34 17.06.2022
844 Clouds 30 1022 36 10000 2.08 265 16:42 17.06.2022
845 Clouds 30 1023 34 10000 2.14 263 15:42 17.06.2022
846 Clouds 29 1023 33 10000 1.84 246 14:50 17.06.2022
847 Clouds 29 1023 34 10000 1.61 217 14:19 17.06.2022
848 Clouds 28 1023 34 10000 1.61 217 13:44 17.06.2022
849 Clouds 26 1024 36 10000 0.58 253 12:53 17.06.2022
850 Clouds 26 1024 40 10000 0.38 233 11:57 17.06.2022
851 Clouds 25 1024 40 10000 0.38 233 11:36 17.06.2022
852 Clouds 24 1024 46 10000 0.75 102 10:48 17.06.2022
853 Clouds 24 1024 46 10000 0.75 102 10:48 17.06.2022
854 Clouds 18 1024 58 10000 1.03 54 08:30 17.06.2022
855 Clouds 17 1024 65 10000 1.09 66 07:30 17.06.2022
856 Clouds 13 1025 75 10000 1.22 49 05:51 17.06.2022
857 Clouds 15 1024 78 10000 1.31 62 02:47 17.06.2022
858 Clouds 17 1025 75 10000 1.61 51 00:42 17.06.2022
859 Clouds 21 1024 70 10000 1.75 55 22:44 16.06.2022
860 Clouds 22 1024 66 10000 2.2 36 21:58 16.06.2022
861 Clouds 22 1023 63 10000 2.59 30 21:18 16.06.2022
862 Clouds 24 1023 63 10000 2.59 30 20:49 16.06.2022
863 Clouds 26 1022 56 10000 3.01 17 19:56 16.06.2022
864 Clouds 27 1021 47 10000 3.53 357 18:30 16.06.2022
865 Clouds 28 1021 38 10000 3.62 345 17:44 16.06.2022
866 Clouds 28 1021 34 10000 3.55 342 16:46 16.06.2022
867 Clear 28 1021 32 10000 3.23 344 15:37 16.06.2022
868 Clear 28 1021 32 10000 3.4 344 15:18 16.06.2022
869 Clouds 26 1021 33 10000 3.25 345 13:46 16.06.2022
870 Rain 26 1021 35 10000 3.41 353 12:38 16.06.2022
871 Rain 25 1020 39 10000 3.57 2 11:55 16.06.2022
872 Rain 25 1020 45 10000 3.98 4 11:19 16.06.2022
873 Clouds 24 1020 45 10000 3.98 4 10:34 16.06.2022
874 Rain 22 1019 52 10000 4.11 5 09:37 16.06.2022
875 Clouds 21 1019 61 10000 2.82 6 08:50 16.06.2022
876 Clouds 18 1019 69 10000 1.92 2 07:38 16.06.2022
877 Clouds 16 1018 82 10000 1.2 11 05:43 16.06.2022
878 Clouds 18 1017 84 10000 1.69 12 03:23 16.06.2022
879 Clouds 19 1017 84 10000 1.6 30 01:52 16.06.2022
880 Clouds 19 1017 84 10000 1.6 30 01:52 16.06.2022
881 Clouds 19 1018 84 10000 1.76 25 01:22 16.06.2022
882 Clouds 20 1017 82 10000 1.87 22 23:58 15.06.2022
883 Clouds 23 1017 77 10000 1.57 22 22:53 15.06.2022
884 Clouds 27 1016 70 10000 1.19 31 21:34 15.06.2022
885 Clear 27 1016 67 10000 0.51 343 20:58 15.06.2022
886 Clear 28 1016 67 10000 0.51 343 20:36 15.06.2022
887 Clouds 29 1016 64 10000 1.36 318 19:52 15.06.2022
888 Clear 30 1016 52 10000 2.3 313 18:30 15.06.2022
889 Clear 30 1016 41 10000 2.81 308 17:43 15.06.2022
890 Rain 30 1016 35 10000 2.98 303 16:23 15.06.2022
891 Rain 30 1016 36 10000 2.83 305 14:57 15.06.2022
892 Rain 28 1017 44 10000 1.82 338 13:22 15.06.2022
893 Rain 27 1017 44 10000 1.82 338 12:47 15.06.2022
894 Clear 25 1017 53 10000 1.44 18 11:25 15.06.2022
895 Rain 23 1017 58 10000 1.66 26 10:22 15.06.2022
896 Clear 20 1017 62 10000 1.51 24 08:59 15.06.2022
897 Clear 17 1017 69 10000 1.31 27 07:36 15.06.2022
898 Clear 13 1017 80 10000 1.42 56 05:57 15.06.2022
899 Clear 14 1018 72 10000 1.89 42 02:55 15.06.2022
900 Clouds 15 1018 70 10000 2.08 44 01:36 15.06.2022
901 Clouds 16 1018 71 10000 1.72 59 00:36 15.06.2022
902 Clouds 18 1018 73 10000 1.76 59 23:38 14.06.2022
903 Clouds 19 1018 72 10000 1.63 59 22:48 14.06.2022
904 Clouds 21 1018 70 10000 1.34 58 21:44 14.06.2022
905 Clouds 21 1018 71 10000 1.09 43 21:21 14.06.2022
906 Clouds 23 1018 71 10000 1.09 43 20:40 14.06.2022
907 Clouds 24 1017 66 10000 0.57 59 19:58 14.06.2022
908 Clouds 25 1017 56 10000 0.76 349 18:45 14.06.2022
909 Clouds 26 1018 38 10000 1.76 11 17:20 14.06.2022
910 Clouds 26 1018 38 10000 1.76 11 16:43 14.06.2022
911 Clouds 25 1019 38 10000 2.06 2 15:49 14.06.2022
912 Clouds 25 1019 38 10000 2.25 8 14:56 14.06.2022
913 Clear 24 1020 39 10000 2.26 7 14:18 14.06.2022
914 Clear 23 1020 38 10000 2.14 17 13:32 14.06.2022
915 Clear 22 1021 44 10000 2.1 37 12:25 14.06.2022
916 Clear 21 1022 49 10000 2.23 40 10:59 14.06.2022
917 Clear 20 1022 49 10000 2.23 40 10:33 14.06.2022
918 Clear 17 1023 63 10000 2.13 44 09:28 14.06.2022
919 Clear 17 1023 63 10000 2.13 44 09:28 14.06.2022
920 Clear 15 1023 63 10000 2.13 44 08:41 14.06.2022
921 Clear 12 1023 81 10000 1.43 43 07:26 14.06.2022
922 Clear 10 1024 88 10000 1.73 45 04:35 14.06.2022
923 Clear 11 1024 86 10000 1.62 50 02:43 14.06.2022
924 Clear 13 1024 81 10000 1.5 39 00:27 14.06.2022
925 Clear 15 1024 79 10000 1.63 28 23:18 13.06.2022
926 Clouds 16 1024 77 10000 1.84 359 22:25 13.06.2022
927 Clouds 19 1024 77 10000 1.84 359 21:43 13.06.2022
928 Clouds 20 1023 64 10000 2.92 322 20:19 13.06.2022
929 Clouds 22 1022 56 10000 3.98 321 19:26 13.06.2022
930 Clouds 21 1022 48 10000 3.38 315 17:57 13.06.2022
931 Clouds 22 1022 48 10000 3.38 315 17:36 13.06.2022
932 Clouds 22 1022 48 10000 3.94 321 16:39 13.06.2022
933 Clouds 21 1022 50 10000 4.52 308 15:20 13.06.2022
934 Clouds 21 1022 49 10000 5.67 322 14:41 13.06.2022
935 Clouds 21 1022 45 10000 4.77 301 13:46 13.06.2022
936 Clouds 20 1022 47 10000 4.61 300 12:31 13.06.2022
937 Clear 20 1022 55 10000 3.19 286 11:26 13.06.2022
938 Clear 18 1022 59 10000 2.46 289 10:26 13.06.2022
939 Clear 17 1022 59 10000 2.46 289 09:31 13.06.2022
940 Clear 14 1022 71 10000 0.98 292 07:38 13.06.2022
941 Clear 11 1022 90 10000 0.48 342 05:49 13.06.2022
942 Clear 14 1021 92 10000 1.48 343 02:55 13.06.2022
943 Clouds 17 1021 92 10000 1.38 5 01:37 13.06.2022
944 Clouds 18 1021 87 10000 1.96 3 00:21 13.06.2022
945 Clouds 19 1021 83 10000 1.7 337 23:25 12.06.2022
946 Clouds 20 1020 79 10000 1.73 321 22:22 12.06.2022
947 Clouds 22 1020 73 10000 1.88 324 21:27 12.06.2022
948 Clouds 24 1020 73 10000 1.93 321 20:33 12.06.2022
949 Clouds 25 1019 65 10000 2.36 331 19:36 12.06.2022
950 Clear 26 1020 43 10000 3.07 330 17:54 12.06.2022
951 Clear 26 1020 40 10000 3.76 320 16:34 12.06.2022
952 Clouds 27 1021 45 10000 3.69 297 15:24 12.06.2022
953 Clouds 26 1021 45 10000 3.69 297 14:31 12.06.2022
954 Clear 25 1022 50 10000 3.79 293 13:55 12.06.2022
955 Clear 24 1022 54 10000 3.57 288 12:46 12.06.2022
956 Clear 23 1022 56 10000 3.13 290 11:40 12.06.2022
957 Clear 22 1023 58 10000 2.72 295 10:45 12.06.2022
958 Clear 20 1023 72 10000 1.16 329 09:25 12.06.2022
959 Clear 19 1023 72 10000 1.16 329 08:48 12.06.2022
960 Clouds 17 1023 86 10000 0.54 359 07:39 12.06.2022
961 Clear 15 1023 95 10000 1.1 9 05:38 12.06.2022
962 Clear 16 1023 95 10000 1.14 34 03:38 12.06.2022
963 Clear 16 1023 95 10000 1.39 12 01:43 12.06.2022
964 Clear 17 1023 94 10000 1.48 7 00:59 12.06.2022
965 Clear 18 1023 93 10000 1.41 344 00:26 12.06.2022
966 Clear 18 1023 93 10000 1.41 344 23:53 11.06.2022
967 Clear 20 1023 90 10000 0.89 311 22:49 11.06.2022
968 Clear 20 1023 88 10000 1.2 271 22:28 11.06.2022
969 Clear 25 1022 82 10000 1.94 254 20:55 11.06.2022
970 Clouds 25 1022 73 10000 2.38 239 20:24 11.06.2022
971 Clouds 26 1022 72 10000 2.31 245 19:32 11.06.2022
972 Clouds 26 1022 61 10000 2.84 242 18:36 11.06.2022
973 Clouds 27 1022 54 10000 3.31 246 17:52 11.06.2022
974 Clouds 27 1022 51 10000 3.43 255 17:29 11.06.2022
975 Clouds 27 1022 51 10000 3.43 255 16:59 11.06.2022
976 Clouds 27 1022 51 10000 3.43 255 16:38 11.06.2022
977 Clouds 27 1022 50 10000 3.52 267 15:45 11.06.2022
978 Clouds 26 1023 60 10000 2.95 256 13:54 11.06.2022
979 Clouds 25 1023 65 10000 2.49 251 13:25 11.06.2022
980 Clouds 23 1023 72 10000 1.96 221 11:18 11.06.2022
981 Rain 23 1023 75 10000 1.73 213 10:22 11.06.2022
982 Rain 21 1023 75 10000 1.73 213 09:38 11.06.2022
983 Clouds 17 1023 78 10000 1.03 220 07:58 11.06.2022
984 Clear 16 1023 87 10000 0.87 187 06:31 11.06.2022
985 Clear 16 1023 91 10000 0.84 181 05:22 11.06.2022
986 Clear 16 1023 87 10000 0.86 170 02:34 11.06.2022
987 Clouds 16 1023 84 10000 1.37 144 01:41 11.06.2022
988 Clouds 17 1023 81 10000 1.4 148 00:37 11.06.2022
989 Clouds 18 1023 83 10000 1.42 183 22:38 10.06.2022
990 Clouds 19 1023 84 10000 1.47 195 21:56 10.06.2022
991 Clear 20 1022 81 10000 1.55 221 21:22 10.06.2022
992 Clear 21 1022 81 10000 1.55 221 20:36 10.06.2022
993 Clouds 22 1022 74 10000 1.92 250 20:18 10.06.2022
994 Clouds 22 1022 64 10000 2.6 261 19:19 10.06.2022
995 Clouds 23 1022 58 10000 2.91 258 18:20 10.06.2022
996 Clouds 23 1022 58 10000 2.91 258 17:41 10.06.2022
997 Clouds 23 1022 55 10000 2.9 256 16:59 10.06.2022
998 Clouds 22 1022 53 10000 3.12 257 16:23 10.06.2022
999 Clouds 22 1022 53 10000 3.12 257 15:37 10.06.2022
1000 Clouds 22 1023 53 10000 2.85 246 13:55 10.06.2022
1001 Clouds 21 1023 63 10000 2.65 255 12:48 10.06.2022
1002 Clouds 21 1024 67 10000 2.91 258 11:43 10.06.2022
1003 Clouds 20 1024 66 10000 2.85 251 10:45 10.06.2022
1004 Clouds 18 1024 68 10000 2.19 233 09:48 10.06.2022
1005 Clouds 15 1024 75 10000 1.82 218 08:33 10.06.2022
1006 Clear 12 1024 90 10000 1.18 193 07:26 10.06.2022
1007 Clear 11 1024 90 10000 1.18 193 06:44 10.06.2022
1008 Clear 10 1024 93 10000 1.15 182 06:25 10.06.2022
1009 Clear 11 1023 92 10000 0.79 178 03:55 10.06.2022
1010 Clear 12 1023 91 10000 0.43 158 01:41 10.06.2022
1011 Clear 13 1023 90 10000 0.18 193 00:32 10.06.2022
1012 Clear 13 1022 90 10000 0.55 246 23:39 09.06.2022
1013 Clear 14 1021 85 10000 1.02 251 22:18 09.06.2022
1014 Clear 16 1021 85 10000 1.02 251 21:33 09.06.2022
1015 Clear 18 1020 80 10000 1.31 274 20:54 09.06.2022
1016 Clouds 19 1019 78 10000 1.67 326 20:21 09.06.2022
1017 Clouds 20 1018 66 10000 2.79 299 19:21 09.06.2022
1018 Clouds 21 1017 60 10000 2.76 294 18:28 09.06.2022
1019 Clouds 20 1017 51 10000 3.43 303 16:56 09.06.2022
1020 Clouds 19 1017 57 10000 3.59 284 15:49 09.06.2022
1021 Clouds 19 1017 60 10000 4.58 281 14:38 09.06.2022
1022 Clouds 18 1016 59 10000 4.71 264 13:54 09.06.2022
1023 Clouds 17 1016 61 10000 4.57 263 13:28 09.06.2022
1024 Rain 16 1016 64 10000 4.95 270 11:54 09.06.2022
1025 Clouds 15 1015 66 10000 4.51 270 11:19 09.06.2022
1026 Clouds 14 1015 77 10000 3.84 262 09:50 09.06.2022
1027 Clouds 14 1015 77 10000 3.84 262 09:31 09.06.2022
1028 Clouds 13 1015 95 10000 2.87 245 07:56 09.06.2022
1029 Clouds 13 1014 98 10000 2.18 220 06:41 09.06.2022
1030 Clouds 13 1012 98 10000 2.1 224 03:19 09.06.2022
1031 Clouds 14 1011 98 10000 2.1 219 23:49 08.06.2022
1032 Clouds 15 1010 98 10000 1.94 209 22:58 08.06.2022
1033 Clouds 15 1010 98 10000 2.13 200 22:27 08.06.2022
1034 Rain 15 1010 98 10000 2.13 200 21:56 08.06.2022
1035 Rain 15 1009 97 10000 1.9 227 21:23 08.06.2022
1036 Clouds 16 1009 96 10000 3.27 241 20:22 08.06.2022
1037 Rain 16 1009 97 10000 4.23 234 19:39 08.06.2022
1038 Clouds 16 1009 97 10000 4.58 230 18:47 08.06.2022
1039 Clouds 16 1009 98 7630 4.5 231 17:30 08.06.2022
1040 Rain 16 1008 97 10000 4.37 216 15:52 08.06.2022
1041 Rain 17 1009 97 7931 4.45 207 13:58 08.06.2022
1042 Clouds 18 1009 80 10000 5.24 208 12:29 08.06.2022
1043 Rain 18 1009 80 10000 5.24 208 11:34 08.06.2022
1044 Clouds 18 1009 69 10000 4.56 197 10:30 08.06.2022
1045 Clouds 17 1010 86 10000 2.41 180 09:22 08.06.2022
1046 Clouds 16 1010 86 10000 2.41 180 08:43 08.06.2022
1047 Clouds 13 1011 96 10000 1.8 155 06:36 08.06.2022
1048 Clouds 13 1012 97 10000 1.94 192 04:22 08.06.2022
1049 Rain 15 1013 97 10000 2.2 190 00:49 08.06.2022
1050 Clouds 15 1014 97 10000 2.15 195 23:30 07.06.2022
1051 Clear 16 1014 96 10000 2.49 209 22:49 07.06.2022
1052 Clear 16 1014 96 10000 2.49 209 22:31 07.06.2022
1053 Clear 16 1014 94 10000 2.35 214 21:35 07.06.2022
1054 Rain 17 1013 91 10000 2.11 225 20:59 07.06.2022
1055 Clear 17 1013 91 10000 2.11 225 20:33 07.06.2022
1056 Clouds 18 1014 91 10000 3.08 246 19:49 07.06.2022
1057 Clouds 20 1013 80 10000 4.79 248 18:25 07.06.2022
1058 Clouds 20 1013 80 10000 4.79 248 17:31 07.06.2022
1059 Clouds 18 1014 82 10000 4.78 244 16:44 07.06.2022
1060 Rain 20 1014 86 10000 4.49 239 15:57 07.06.2022
1061 Rain 20 1014 76 10000 5.53 243 15:27 07.06.2022
1062 Clouds 20 1014 76 10000 5.53 243 14:56 07.06.2022
1063 Clouds 20 1014 76 10000 5.53 243 14:38 07.06.2022
1064 Clouds 19 1015 83 10000 4.88 232 13:33 07.06.2022
1065 Clouds 18 1015 77 10000 4.2 228 12:54 07.06.2022
1066 Clouds 19 1016 81 10000 3.67 223 11:51 07.06.2022
1067 Clouds 18 1016 89 10000 3.18 214 10:48 07.06.2022
1068 Clouds 16 1016 85 10000 3.52 212 08:53 07.06.2022
1069 Clouds 14 1016 82 10000 2.62 214 07:47 07.06.2022
1070 Clouds 12 1016 89 10000 1.89 182 06:41 07.06.2022
1071 Clouds 12 1016 91 10000 1.82 189 04:41 07.06.2022
1072 Clouds 14 1017 81 10000 2.19 194 01:27 07.06.2022
1073 Clouds 15 1017 80 10000 2.07 197 23:53 06.06.2022
1074 Clouds 16 1017 81 10000 1.9 210 22:54 06.06.2022
1075 Clouds 16 1017 81 10000 1.9 210 22:54 06.06.2022
1076 Clouds 16 1017 81 10000 1.9 210 22:30 06.06.2022
1077 Clouds 19 1016 76 10000 2.2 229 20:54 06.06.2022
1078 Clouds 21 1016 62 10000 5.02 275 19:29 06.06.2022
1079 Clouds 21 1016 62 10000 5.02 275 18:49 06.06.2022
1080 Clouds 22 1016 54 10000 5.62 256 18:21 06.06.2022
1081 Clouds 21 1016 51 10000 5.84 240 17:26 06.06.2022
1082 Clouds 21 1016 49 10000 6.52 241 16:18 06.06.2022
1083 Clouds 21 1016 49 10000 6.81 244 15:28 06.06.2022
1084 Clouds 19 1016 49 10000 6.81 244 14:32 06.06.2022
1085 Rain 19 1017 59 10000 6.78 239 13:25 06.06.2022
1086 Clouds 19 1017 59 10000 6.78 239 12:36 06.06.2022
1087 Clouds 19 1017 70 10000 6.21 238 11:53 06.06.2022
1088 Clouds 18 1017 76 10000 5.25 239 10:41 06.06.2022
1089 Clouds 17 1018 71 10000 5.2 239 09:39 06.06.2022
1090 Clouds 16 1018 87 10000 4.61 233 08:32 06.06.2022
1091 Clouds 15 1017 98 10000 2.78 201 07:28 06.06.2022
1092 Clouds 15 1017 99 10000 2.7 199 05:28 06.06.2022
1093 Clouds 16 1017 99 10000 2.6 199 03:39 06.06.2022
1094 Clouds 16 1017 96 10000 3.96 251 01:23 06.06.2022
1095 Clouds 17 1017 96 10000 3.96 251 00:39 06.06.2022
1096 Clouds 17 1016 98 10000 3.53 232 23:40 05.06.2022
1097 Clouds 17 1016 97 10000 3.48 236 22:45 05.06.2022
1098 Clouds 17 1015 91 10000 4.64 235 20:57 05.06.2022
1099 Clouds 17 1014 83 10000 3.66 243 19:44 05.06.2022
1100 Rain 17 1014 75 10000 4.48 258 18:30 05.06.2022
1101 Clouds 17 1014 71 10000 5.68 261 17:55 05.06.2022
1102 Rain 17 1013 78 10000 5.38 252 17:26 05.06.2022
1103 Rain 19 1013 78 10000 5.38 252 16:52 05.06.2022
1104 Rain 20 1013 78 10000 5.38 252 16:34 05.06.2022
1105 Clouds 21 1013 92 10000 6.25 218 14:27 05.06.2022
1106 Rain 20 1014 88 10000 5.01 226 12:57 05.06.2022
1107 Clouds 19 1014 96 10000 3.67 216 11:47 05.06.2022
1108 Clouds 19 1014 96 6829 2.91 190 10:42 05.06.2022
1109 Clouds 18 1014 92 10000 2.07 161 10:22 05.06.2022
1110 Clouds 18 1014 97 10000 1.02 157 08:40 05.06.2022
1111 Clouds 18 1014 97 9317 2.91 123 08:20 05.06.2022
1112 Rain 19 1014 89 10000 3 50 05:23 05.06.2022
1113 Clouds 19 1014 89 10000 3 50 04:30 05.06.2022
1114 Clouds 20 1016 85 10000 2.57 52 01:33 05.06.2022
1115 Clouds 21 1016 81 10000 3.24 69 00:52 05.06.2022
1116 Clouds 23 1016 85 10000 2.59 73 22:43 04.06.2022
1117 Clouds 25 1017 81 10000 2.18 74 20:42 04.06.2022
1118 Clouds 27 1016 72 10000 2.27 86 18:53 04.06.2022
1119 Clouds 27 1017 52 10000 1.51 70 16:47 04.06.2022
1120 Clouds 28 1017 50 10000 1.62 38 16:19 04.06.2022
1121 Clear 27 1017 51 10000 1.89 12 15:22 04.06.2022
1122 Clouds 26 1018 55 10000 1.12 278 13:46 04.06.2022
1123 Clouds 22 1018 73 10000 0.74 118 11:23 04.06.2022
1124 Clouds 21 1018 73 10000 0.74 118 10:50 04.06.2022
1125 Clouds 19 1018 82 10000 0.74 113 09:46 04.06.2022
1126 Clouds 17 1017 84 10000 1.12 31 08:44 04.06.2022
1127 Clouds 17 1017 84 10000 1.12 31 08:44 04.06.2022
1128 Clouds 16 1018 88 10000 0.55 88 07:59 04.06.2022
1129 Clouds 14 1017 93 10000 1.68 62 06:20 04.06.2022
1130 Clouds 14 1017 91 10000 0.93 78 02:57 04.06.2022
1131 Clouds 16 1017 93 10000 1.02 25 00:20 04.06.2022
1132 Clouds 18 1017 93 10000 0.77 67 22:54 03.06.2022
1133 Clouds 19 1017 94 10000 1.14 91 21:46 03.06.2022
1134 Clouds 20 1016 93 10000 1.73 20 20:40 03.06.2022
1135 Rain 21 1015 93 10000 1.62 2 19:33 03.06.2022
1136 Rain 20 1015 96 10000 1.57 331 16:56 03.06.2022
1137 Rain 23 1016 94 7878 2.37 215 15:52 03.06.2022
1138 Clouds 24 1014 47 10000 0.28 324 13:58 03.06.2022
1139 Clouds 22 1016 54 10000 1.89 48 12:21 03.06.2022
1140 Clouds 19 1016 61 10000 1.59 53 09:57 03.06.2022
1141 Clouds 18 1016 65 10000 1.7 49 09:29 03.06.2022
1142 Clouds 14 1016 69 10000 1.76 44 07:45 03.06.2022
1143 Clouds 13 1017 76 10000 1.59 41 06:59 03.06.2022
1144 Clouds 12 1017 77 10000 1.94 50 06:28 03.06.2022
1145 Clouds 13 1018 73 10000 2.17 47 03:39 03.06.2022
1146 Clouds 15 1019 66 10000 2.26 63 23:52 02.06.2022
1147 Clouds 17 1019 60 10000 2.23 61 22:23 02.06.2022
1148 Clouds 21 1019 69 10000 2.15 94 20:56 02.06.2022
1149 Clouds 21 1018 60 10000 3.32 76 19:58 02.06.2022
1150 Clouds 21 1018 61 10000 2.98 94 19:39 02.06.2022
1151 Clouds 22 1017 52 10000 3.61 88 18:51 02.06.2022
1152 Clouds 22 1018 40 10000 2.95 59 16:30 02.06.2022
1153 Clouds 22 1018 38 10000 2.75 45 15:47 02.06.2022
1154 Clouds 20 1019 40 10000 2.63 20 13:31 02.06.2022
1155 Clouds 19 1020 42 10000 2.37 26 12:49 02.06.2022
1156 Clouds 16 1021 53 10000 2.49 38 10:48 02.06.2022
1157 Clouds 15 1021 60 10000 2.48 40 09:45 02.06.2022
1158 Clouds 14 1021 68 10000 2.26 34 09:26 02.06.2022
1159 Clouds 12 1021 77 10000 1.56 43 08:23 02.06.2022
1160 Clouds 7 1021 93 10000 2.12 42 06:21 02.06.2022
1161 Clear 9 1021 93 10000 1.43 55 03:51 02.06.2022
1162 Clouds 10 1020 91 10000 1.46 24 01:36 02.06.2022
1163 Clouds 13 1020 87 10000 1.16 17 23:36 01.06.2022
1164 Clouds 14 1019 80 10000 1.34 340 22:18 01.06.2022
1165 Clouds 16 1017 72 10000 1.86 330 21:25 01.06.2022
1166 Clouds 18 1017 72 10000 1.86 330 20:39 01.06.2022
1167 Clouds 20 1017 71 10000 2.92 330 19:52 01.06.2022
1168 Clouds 20 1016 63 10000 3.8 309 18:52 01.06.2022
1169 Clouds 21 1016 51 10000 4.5 258 17:40 01.06.2022
1170 Clouds 21 1015 43 10000 5 248 16:22 01.06.2022
1171 Clouds 20 1015 42 10000 4.61 253 14:51 01.06.2022
1172 Clouds 20 1015 42 10000 4.19 262 13:44 01.06.2022
1173 Clouds 18 1016 47 10000 4.15 266 11:41 01.06.2022
1174 Clouds 15 1016 59 10000 3.54 270 09:34 01.06.2022
1175 Clouds 13 1016 76 10000 1.48 257 08:29 01.06.2022
1176 Clear 11 1017 89 10000 1.4 215 07:21 01.06.2022
1177 Clear 9 1016 92 10000 1.38 204 04:59 01.06.2022
1178 Clouds 11 1016 89 10000 0.82 205 00:20 01.06.2022
1179 Clear 11 1016 88 10000 1.08 198 22:59 31.05.2022
1180 Clear 14 1016 88 10000 1.08 198 22:33 31.05.2022
1181 Clouds 17 1015 87 10000 1.32 252 21:45 31.05.2022
1182 Clouds 18 1014 77 10000 2.44 256 20:45 31.05.2022
1183 Clouds 18 1014 77 10000 2.44 256 20:45 31.05.2022
1184 Clouds 20 1013 65 10000 2.93 251 19:53 31.05.2022
1185 Clouds 20 1012 57 10000 3.36 272 18:50 31.05.2022
1186 Clouds 20 1012 55 10000 4.48 295 17:49 31.05.2022
1187 Clouds 21 1012 45 10000 5.34 264 16:53 31.05.2022
1188 Clouds 20 1012 41 10000 5.05 247 15:40 31.05.2022
1189 Clouds 20 1012 43 10000 3.8 245 13:45 31.05.2022
1190 Clouds 18 1013 57 10000 1.43 234 12:20 31.05.2022
1191 Clouds 18 1013 57 10000 0.23 299 10:53 31.05.2022
1192 Clouds 13 1013 65 10000 1.44 2 08:49 31.05.2022
1193 Clouds 10 1014 79 10000 1 24 07:21 31.05.2022
1194 Clouds 9 1014 88 10000 1.7 49 05:19 31.05.2022
1195 Clouds 10 1015 80 10000 1.67 69 00:36 31.05.2022
1196 Clouds 11 1015 81 10000 1.71 86 23:26 30.05.2022
1197 Clouds 11 1015 81 10000 1.71 86 22:53 30.05.2022
1198 Clouds 12 1014 79 10000 1.91 79 21:52 30.05.2022
1199 Clouds 12 1014 79 10000 1.91 79 21:32 30.05.2022
1200 Clouds 16 1013 65 10000 1.85 39 20:20 30.05.2022
1201 Clouds 17 1012 56 10000 2 23 18:40 30.05.2022
1202 Clouds 17 1013 54 10000 2.05 12 17:36 30.05.2022
1203 Clouds 18 1012 53 10000 2.36 15 16:41 30.05.2022
1204 Clouds 18 1012 53 10000 2.36 15 16:41 30.05.2022
1205 Clouds 17 1012 47 10000 2.05 355 14:49 30.05.2022
1206 Clouds 15 1013 56 10000 1.94 22 12:24 30.05.2022
1207 Clouds 12 1013 62 10000 2.35 33 10:41 30.05.2022
1208 Clouds 10 1013 85 10000 2.12 33 09:21 30.05.2022
1209 Clouds 7 1014 97 10000 1.55 36 07:22 30.05.2022
1210 Clouds 6 1013 97 10000 1.82 29 05:49 30.05.2022
1211 Clouds 7 1013 97 10000 1.82 24 01:48 30.05.2022
1212 Clouds 9 1014 95 10000 2.1 19 23:19 29.05.2022
1213 Clouds 9 1014 95 10000 2.1 19 22:37 29.05.2022
1214 Clouds 11 1013 91 10000 2.18 8 20:57 29.05.2022
1215 Clouds 13 1013 83 10000 2.86 4 19:34 29.05.2022
1216 Clouds 14 1012 76 10000 3.42 3 18:59 29.05.2022
1217 Rain 15 1012 66 10000 3.8 1 17:31 29.05.2022
1218 Clouds 14 1012 50 10000 3.45 326 15:48 29.05.2022
1219 Clouds 15 1013 47 10000 3.3 325 15:23 29.05.2022
1220 Clouds 14 1013 48 10000 4.14 334 14:18 29.05.2022
1221 Clouds 13 1014 46 10000 2.65 339 11:48 29.05.2022
1222 Clear 12 1015 51 10000 2.42 348 10:40 29.05.2022
1223 Clear 11 1015 61 10000 2.42 360 09:31 29.05.2022
1224 Clouds 7 1017 88 10000 1.45 7 06:51 29.05.2022
1225 Clouds 8 1017 93 10000 1.84 4 04:47 29.05.2022
1226 Clouds 8 1017 90 10000 2.05 2 04:19 29.05.2022
1227 Clouds 10 1019 81 10000 2.05 4 23:59 28.05.2022
1228 Clouds 11 1019 81 10000 2.05 4 23:39 28.05.2022
1229 Clouds 12 1019 76 10000 1.97 11 22:40 28.05.2022
1230 Clouds 14 1019 74 10000 2.11 9 21:40 28.05.2022
1231 Clouds 16 1018 63 10000 2.29 333 19:52 28.05.2022
1232 Clouds 16 1017 52 10000 3.3 342 19:18 28.05.2022
1233 Rain 17 1018 51 10000 3.6 338 17:48 28.05.2022
1234 Clouds 17 1018 50 10000 3.45 320 16:53 28.05.2022
1235 Clouds 17 1019 58 10000 4.07 310 15:44 28.05.2022
1236 Clouds 17 1019 62 10000 3.5 301 14:37 28.05.2022
1237 Clouds 17 1020 53 10000 3.38 309 13:26 28.05.2022
1238 Clouds 16 1020 53 10000 3.38 309 12:41 28.05.2022
1239 Clouds 15 1022 63 10000 3.18 310 11:27 28.05.2022
1240 Clouds 14 1022 63 10000 2.95 309 10:25 28.05.2022
1241 Clouds 13 1022 63 10000 2.95 309 09:39 28.05.2022
1242 Clouds 9 1023 70 10000 0.72 279 07:53 28.05.2022
1243 Clouds 7 1023 80 10000 0.48 243 06:32 28.05.2022
1244 Clouds 7 1023 88 10000 0.58 304 04:21 28.05.2022
1245 Clouds 10 1024 85 10000 0.98 345 01:30 28.05.2022
1246 Clouds 13 1024 73 10000 1.68 352 23:53 27.05.2022
1247 Clouds 15 1023 65 10000 1.91 348 22:32 27.05.2022
1248 Clouds 18 1022 70 10000 2.31 323 20:59 27.05.2022
1249 Clouds 18 1022 70 10000 2.31 323 20:40 27.05.2022
1250 Clouds 19 1021 62 10000 4.1 320 20:18 27.05.2022
1251 Clouds 19 1021 63 10000 4.35 320 19:34 27.05.2022
1252 Clouds 20 1021 61 10000 4.46 286 18:41 27.05.2022
1253 Clouds 19 1021 74 10000 4.85 305 16:42 27.05.2022
1254 Clouds 19 1021 65 10000 5.1 273 15:47 27.05.2022
1255 Clouds 17 1022 84 10000 4.37 265 14:46 27.05.2022
1256 Clouds 16 1023 91 10000 4.31 271 13:36 27.05.2022
1257 Clouds 15 1023 87 10000 4.74 256 11:53 27.05.2022
1258 Clouds 15 1023 89 10000 4.44 250 11:27 27.05.2022
1259 Clouds 14 1023 89 10000 4.44 250 10:37 27.05.2022
1260 Clouds 15 1023 91 10000 3.9 241 09:52 27.05.2022
1261 Clouds 14 1023 92 10000 3.54 243 09:28 27.05.2022
1262 Clouds 14 1023 96 10000 2.88 234 06:58 27.05.2022
1263 Clouds 14 1023 98 10000 2.72 225 02:59 27.05.2022
1264 Clouds 15 1024 94 10000 2.89 228 01:19 27.05.2022
1265 Clouds 16 1024 87 10000 3.47 242 23:23 26.05.2022
1266 Clouds 18 1023 82 10000 4.05 235 21:53 26.05.2022
1267 Clouds 18 1023 78 10000 4.3 235 21:27 26.05.2022
1268 Clouds 20 1022 73 10000 4.79 236 19:34 26.05.2022
1269 Clouds 21 1022 67 10000 5 232 18:45 26.05.2022
1270 Clouds 21 1022 64 10000 5.02 233 17:36 26.05.2022
1271 Clouds 21 1023 60 10000 5.11 240 16:18 26.05.2022
1272 Clouds 21 1023 59 10000 5.06 246 15:24 26.05.2022
1273 Clouds 19 1024 61 10000 4.72 252 13:58 26.05.2022
1274 Clouds 18 1023 59 10000 5.38 255 12:18 26.05.2022
1275 Clouds 17 1023 63 10000 5.24 253 11:20 26.05.2022
1276 Clouds 15 1023 73 10000 4.86 260 09:39 26.05.2022
1277 Clouds 14 1022 78 10000 4.42 249 08:40 26.05.2022
1278 Clouds 14 1022 78 10000 4.42 249 08:40 26.05.2022
1279 Clouds 14 1021 89 10000 3.43 231 05:43 26.05.2022
1280 Clouds 15 1021 75 10000 2.89 228 02:24 26.05.2022
1281 Clouds 16 1020 70 10000 3.72 231 23:53 25.05.2022
1282 Clouds 16 1020 72 10000 3.71 217 22:53 25.05.2022
1283 Clouds 17 1020 77 10000 3.08 212 21:42 25.05.2022
1284 Clouds 18 1019 75 10000 3.48 224 20:49 25.05.2022
1285 Clouds 18 1019 71 10000 4.51 232 19:45 25.05.2022
1286 Clouds 19 1018 65 10000 5.13 239 18:48 25.05.2022
1287 Clouds 20 1017 53 10000 6.31 234 17:26 25.05.2022
1288 Clouds 20 1017 53 10000 6.31 234 16:34 25.05.2022
1289 Clouds 20 1017 48 10000 6.26 245 15:36 25.05.2022
1290 Clouds 19 1017 48 10000 5.73 248 14:50 25.05.2022
1291 Clouds 19 1017 48 10000 5.73 248 14:32 25.05.2022
1292 Clear 19 1017 52 10000 5.02 248 13:23 25.05.2022
1293 Clear 18 1017 56 10000 4.46 249 11:50 25.05.2022
1294 Clear 16 1017 62 10000 4.03 249 10:42 25.05.2022
1295 Clear 15 1017 69 10000 3.5 245 09:46 25.05.2022
1296 Clouds 12 1017 84 10000 1.79 232 08:21 25.05.2022
1297 Clouds 8 1017 93 10000 1.6 208 06:37 25.05.2022
1298 Clouds 10 1015 94 10000 1.73 209 02:46 25.05.2022
1299 Clouds 12 1014 90 10000 2.09 199 23:52 24.05.2022
1300 Clouds 12 1013 89 10000 2.12 205 23:23 24.05.2022
1301 Clouds 12 1013 87 10000 2.43 209 22:18 24.05.2022
1302 Clouds 13 1013 87 10000 2.43 209 21:38 24.05.2022
1303 Clouds 14 1012 83 10000 2.51 209 21:19 24.05.2022
1304 Clouds 16 1011 74 10000 2.89 224 19:32 24.05.2022
1305 Clouds 17 1010 67 10000 3.97 246 18:49 24.05.2022
1306 Clouds 16 1009 56 10000 5.91 258 16:40 24.05.2022
1307 Clouds 17 1009 55 10000 6.62 255 15:54 24.05.2022
1308 Rain 17 1009 60 10000 6.6 245 14:50 24.05.2022
1309 Clouds 16 1009 62 10000 6.6 244 13:48 24.05.2022
1310 Clouds 15 1009 60 10000 6.46 244 12:46 24.05.2022
1311 Clouds 14 1008 85 10000 6.2 249 10:29 24.05.2022
1312 Clouds 13 1008 85 10000 6.2 249 09:42 24.05.2022
1313 Rain 13 1007 94 10000 5.46 242 08:49 24.05.2022
1314 Rain 13 1006 96 10000 3.92 229 06:56 24.05.2022
1315 Clouds 14 1004 98 9045 3.36 201 03:48 24.05.2022
1316 Clouds 15 1005 97 10000 3.99 224 01:49 24.05.2022
1317 Clouds 14 1005 98 10000 3.86 216 01:19 24.05.2022
1318 Clouds 15 1005 97 10000 3.26 237 22:51 23.05.2022
1319 Clouds 16 1004 96 10000 4.34 260 21:55 23.05.2022
1320 Clouds 17 1002 95 10000 6.25 255 21:26 23.05.2022
1321 Clouds 18 1000 95 10000 6.9 240 20:26 23.05.2022
1322 Clouds 19 1000 95 10000 6.9 240 19:31 23.05.2022
1323 Clouds 19 999 92 10000 7.96 219 18:57 23.05.2022
1324 Clouds 19 1000 87 10000 6.15 212 18:29 23.05.2022
1325 Rain 19 1000 87 10000 5.96 221 17:20 23.05.2022
1326 Clouds 23 1000 84 10000 3.25 206 14:52 23.05.2022
1327 Clouds 22 1002 66 10000 6.26 212 12:56 23.05.2022
1328 Clouds 22 1003 70 10000 5.83 186 11:31 23.05.2022
1329 Clouds 18 1003 90 10000 2.99 195 09:50 23.05.2022
1330 Clouds 17 1003 90 10000 2.99 195 09:30 23.05.2022
1331 Clouds 16 1004 96 10000 2.07 83 08:31 23.05.2022
1332 Clouds 15 1005 83 10000 0.18 198 06:46 23.05.2022
1333 Rain 15 1005 81 10000 1.68 60 05:31 23.05.2022
1334 Clouds 14 1008 78 10000 2.04 54 02:32 23.05.2022
1335 Clouds 17 1008 78 10000 1.86 62 01:37 23.05.2022
1336 Clouds 17 1009 72 10000 1.78 74 00:23 23.05.2022
1337 Clouds 17 1010 73 10000 1.6 127 22:40 22.05.2022
1338 Clouds 17 1011 77 10000 2.13 121 21:55 22.05.2022
1339 Clouds 18 1011 77 10000 2.13 121 21:36 22.05.2022
1340 Rain 19 1011 77 10000 1.53 120 20:32 22.05.2022
1341 Rain 20 1010 72 10000 0.86 67 19:57 22.05.2022
1342 Clouds 22 1011 67 10000 1 10 18:56 22.05.2022
1343 Clouds 23 1011 57 10000 1.73 14 18:25 22.05.2022
1344 Clouds 23 1011 57 10000 1.73 14 17:39 22.05.2022
1345 Clouds 24 1012 49 10000 1.47 352 16:50 22.05.2022
1346 Clouds 23 1014 45 10000 3.07 306 14:53 22.05.2022
1347 Clouds 24 1014 44 10000 2.28 339 13:57 22.05.2022
1348 Clouds 22 1014 48 10000 1.43 330 12:53 22.05.2022
1349 Clouds 21 1015 53 10000 1.27 5 11:52 22.05.2022
1350 Clouds 19 1017 68 10000 0.96 17 10:27 22.05.2022
1351 Clouds 16 1017 75 10000 0.76 346 09:19 22.05.2022
1352 Clouds 11 1018 89 10000 0.97 43 07:34 22.05.2022
1353 Clouds 10 1018 89 10000 0.99 43 06:41 22.05.2022
1354 Clouds 11 1019 92 10000 0.83 51 03:25 22.05.2022
1355 Clouds 13 1020 90 10000 0.4 25 00:49 22.05.2022
1356 Clouds 13 1021 89 10000 0.09 271 23:56 21.05.2022
1357 Clouds 14 1021 87 10000 0.84 184 23:27 21.05.2022
1358 Clouds 16 1021 87 10000 1.21 193 21:59 21.05.2022
1359 Clouds 17 1021 87 10000 1.21 193 21:34 21.05.2022
1360 Clouds 19 1020 84 10000 1.28 212 20:41 21.05.2022
1361 Clouds 20 1020 78 10000 2.12 237 19:53 21.05.2022
1362 Clouds 21 1020 70 10000 3.99 240 18:54 21.05.2022
1363 Clouds 21 1021 53 10000 3.74 247 16:58 21.05.2022
1364 Clouds 21 1022 51 10000 3.83 261 14:51 21.05.2022
1365 Clouds 20 1022 53 10000 3.97 265 14:19 21.05.2022
1366 Clouds 19 1023 57 10000 4.44 265 13:25 21.05.2022
1367 Clouds 19 1023 57 10000 4.44 265 12:39 21.05.2022
1368 Clouds 17 1023 60 10000 4.54 261 11:38 21.05.2022
1369 Clouds 14 1024 74 10000 4.44 249 10:21 21.05.2022
1370 Clouds 14 1024 87 10000 4.16 244 08:59 21.05.2022
1371 Clouds 13 1024 87 10000 4.16 244 08:38 21.05.2022
1372 Clouds 10 1024 97 10000 2.57 204 06:21 21.05.2022
1373 Clouds 13 1023 97 10000 2.25 241 01:59 21.05.2022
1374 Clouds 15 1022 88 10000 4.49 286 23:36 20.05.2022
1375 Clouds 16 1021 89 10000 5.61 291 22:41 20.05.2022
1376 Clouds 16 1020 95 10000 3.59 292 22:18 20.05.2022
1377 Clouds 18 1019 94 10000 4.03 305 21:19 20.05.2022
1378 Clouds 19 1019 94 10000 4.03 305 20:47 20.05.2022
1379 Clouds 20 1019 93 10000 3.88 284 19:54 20.05.2022
1380 Rain 25 1017 93 10000 7.89 310 18:58 20.05.2022
1381 Clouds 23 1015 87 10000 8.41 245 18:23 20.05.2022
1382 Clouds 26 1014 78 10000 3.03 242 16:27 20.05.2022
1383 Clouds 24 1014 78 10000 3.03 242 15:54 20.05.2022
1384 Clouds 24 1014 78 10000 3.03 242 15:32 20.05.2022
1385 Rain 24 1016 65 10000 5.25 190 14:27 20.05.2022
1386 Rain 25 1017 65 10000 4.42 196 12:45 20.05.2022
1387 Clouds 22 1019 75 10000 3.15 194 10:48 20.05.2022
1388 Clouds 20 1019 86 10000 2.17 182 09:31 20.05.2022
1389 Clouds 19 1020 92 10000 1.16 143 08:37 20.05.2022
1390 Clouds 16 1021 98 10000 0.62 72 06:44 20.05.2022
1391 Clouds 16 1021 98 10000 0.29 71 05:52 20.05.2022
1392 Clouds 18 1021 98 8065 0.5 321 02:52 20.05.2022
1393 Clouds 18 1022 96 10000 0.97 353 23:47 19.05.2022
1394 Clouds 18 1021 96 10000 0.95 9 22:39 19.05.2022
1395 Clouds 19 1021 96 10000 0.9 336 21:52 19.05.2022
1396 Clouds 20 1020 95 10000 2.04 309 21:24 19.05.2022
1397 Clouds 20 1020 95 10000 2.04 309 20:54 19.05.2022
1398 Clouds 21 1019 90 10000 2.86 273 20:20 19.05.2022
1399 Clouds 22 1018 86 10000 4.91 259 19:25 19.05.2022
1400 Rain 22 1018 83 10000 4.96 240 17:47 19.05.2022
1401 Clouds 29 1019 80 10000 4.5 217 16:22 19.05.2022
1402 Clouds 28 1019 76 10000 4.2 208 14:50 19.05.2022
1403 Clouds 28 1019 63 10000 4.65 202 14:21 19.05.2022
1404 Clouds 25 1020 70 10000 3.61 204 12:23 19.05.2022
1405 Clouds 24 1020 65 10000 4.29 201 10:40 19.05.2022
1406 Clouds 22 1019 68 10000 1.8 168 08:57 19.05.2022
1407 Clouds 19 1019 74 10000 1.21 145 07:48 19.05.2022
1408 Clouds 18 1018 81 10000 1.24 109 04:44 19.05.2022
1409 Clouds 19 1020 73 10000 1.94 115 01:57 19.05.2022
1410 Clouds 21 1020 74 10000 2.48 116 23:53 18.05.2022
1411 Clouds 22 1020 72 10000 2.34 113 22:46 18.05.2022
1412 Clouds 22 1020 72 10000 2.34 113 22:46 18.05.2022
1413 Clouds 23 1020 71 10000 2.03 106 21:47 18.05.2022
1414 Clouds 24 1019 70 10000 1.76 97 21:25 18.05.2022
1415 Clouds 27 1019 67 10000 1.44 100 20:24 18.05.2022
1416 Clouds 28 1019 66 10000 1.44 103 19:39 18.05.2022
1417 Clouds 29 1019 45 10000 1.36 142 18:21 18.05.2022
1418 Clouds 29 1019 45 10000 1.36 142 17:41 18.05.2022
1419 Clouds 29 1019 40 10000 1.39 162 17:23 18.05.2022
1420 Clear 30 1020 40 10000 1.48 186 16:23 18.05.2022
1421 Clear 30 1020 40 10000 1.48 186 15:39 18.05.2022
1422 Clear 29 1020 40 10000 1.49 203 14:35 18.05.2022
1423 Clouds 28 1021 47 10000 1.22 219 13:22 18.05.2022
1424 Clouds 28 1021 47 10000 1.22 219 12:40 18.05.2022
1425 Clouds 26 1021 50 10000 1.15 203 11:34 18.05.2022
1426 Clouds 25 1022 54 10000 1.09 164 10:56 18.05.2022
1427 Clouds 21 1022 67 10000 0.55 70 09:24 18.05.2022
1428 Clouds 17 1022 76 10000 0.58 72 07:32 18.05.2022
1429 Clouds 14 1021 87 10000 0.71 74 05:34 18.05.2022
1430 Clouds 18 1021 83 10000 1.21 99 00:52 18.05.2022
1431 Clouds 18 1021 80 10000 1.56 104 00:21 18.05.2022
1432 Clouds 22 1020 77 10000 1.68 124 21:39 17.05.2022
1433 Clouds 22 1020 74 10000 1.6 116 21:19 17.05.2022
1434 Clouds 24 1019 71 10000 1.06 36 19:59 17.05.2022
1435 Clouds 25 1019 61 10000 1.04 17 19:27 17.05.2022
1436 Clouds 25 1019 51 10000 0.74 20 17:50 17.05.2022
1437 Clouds 25 1019 52 10000 0.7 22 16:59 17.05.2022
1438 Clouds 26 1020 54 10000 0.8 324 16:29 17.05.2022
1439 Clouds 26 1020 50 10000 1.03 293 15:25 17.05.2022
1440 Clouds 26 1020 50 10000 1.03 293 14:30 17.05.2022
1441 Clouds 25 1020 49 10000 0.96 304 13:35 17.05.2022
1442 Clouds 25 1020 49 10000 0.96 304 13:35 17.05.2022
1443 Clouds 22 1021 56 10000 0.22 55 11:46 17.05.2022
1444 Clouds 18 1022 74 10000 0.28 84 09:35 17.05.2022
1445 Clouds 15 1022 85 10000 0.35 71 08:33 17.05.2022
1446 Clouds 13 1022 93 10000 0.72 95 06:50 17.05.2022
1447 Clouds 13 1022 93 10000 0.65 86 03:45 17.05.2022
1448 Clear 15 1022 92 10000 0.53 221 00:45 17.05.2022
1449 Clear 16 1022 92 10000 1.16 261 22:44 16.05.2022
1450 Clear 19 1021 91 10000 1.74 262 21:52 16.05.2022
1451 Clear 21 1020 88 10000 2.27 251 20:49 16.05.2022
1452 Clouds 22 1019 85 10000 2.59 261 19:49 16.05.2022
1453 Clouds 22 1018 80 10000 3.23 278 18:21 16.05.2022
1454 Clouds 20 1018 85 10000 4.7 260 16:24 16.05.2022
1455 Rain 21 1018 86 10000 4.76 251 14:38 16.05.2022
1456 Clouds 22 1018 81 10000 4.56 245 13:25 16.05.2022
1457 Clouds 24 1018 72 10000 5.89 253 11:33 16.05.2022
1458 Clouds 22 1017 81 10000 5.84 229 10:24 16.05.2022
1459 Clouds 16 1016 94 10000 3.2 205 07:34 16.05.2022
1460 Clouds 16 1015 94 10000 1.45 184 05:23 16.05.2022
1461 Clouds 19 1015 72 10000 1.89 87 23:59 15.05.2022
1462 Clouds 21 1015 69 10000 2.34 98 22:36 15.05.2022
1463 Clouds 22 1015 67 10000 2.57 95 21:48 15.05.2022
1464 Clouds 23 1015 68 10000 2.62 91 21:21 15.05.2022
1465 Clouds 24 1015 69 10000 2.4 93 20:34 15.05.2022
1466 Clouds 26 1014 56 10000 3.51 94 18:30 15.05.2022
1467 Clouds 27 1015 47 10000 3.39 107 16:37 15.05.2022
1468 Clouds 26 1017 44 10000 3.93 110 14:18 15.05.2022
1469 Clouds 25 1017 45 10000 3.6 112 13:35 15.05.2022
1470 Clouds 23 1018 45 10000 3.42 96 11:55 15.05.2022
1471 Clouds 21 1018 50 10000 2.98 83 10:40 15.05.2022
1472 Clouds 17 1019 66 10000 1.95 54 08:52 15.05.2022
1473 Clouds 13 1019 82 10000 1.83 51 07:22 15.05.2022
1474 Clouds 13 1019 82 10000 1.83 51 06:42 15.05.2022
1475 Clouds 13 1020 85 10000 1.89 57 02:38 15.05.2022
1476 Clouds 14 1021 83 10000 1.78 57 23:59 14.05.2022
1477 Clouds 15 1021 83 10000 1.78 57 23:35 14.05.2022
1478 Clouds 15 1021 83 10000 1.78 57 23:35 14.05.2022
1479 Clouds 20 1020 75 10000 1.14 63 21:45 14.05.2022
1480 Clouds 20 1020 74 10000 0.17 84 21:25 14.05.2022
1481 Clouds 21 1020 69 10000 0.74 297 20:25 14.05.2022
1482 Clouds 23 1020 58 10000 1.62 304 19:20 14.05.2022
1483 Clouds 23 1020 58 10000 1.62 304 18:57 14.05.2022
1484 Clouds 24 1020 49 10000 2.14 318 17:44 14.05.2022
1485 Clouds 24 1020 47 10000 2.45 316 15:58 14.05.2022
1486 Clouds 23 1021 47 10000 2.51 309 14:38 14.05.2022
1487 Clouds 21 1021 53 10000 2.45 296 13:27 14.05.2022
1488 Clouds 19 1022 58 10000 2.19 289 11:45 14.05.2022
1489 Clouds 17 1022 63 10000 2.23 275 10:43 14.05.2022
1490 Clear 17 1022 69 10000 1.26 271 10:18 14.05.2022
1491 Clouds 15 1022 76 10000 0.73 271 09:23 14.05.2022
1492 Clouds 10 1023 84 10000 0.21 323 07:32 14.05.2022
1493 Clear 10 1023 93 10000 0.08 345 04:35 14.05.2022
1494 Clear 13 1023 91 10000 0.23 218 00:43 14.05.2022
1495 Clear 14 1023 91 10000 1.46 228 23:28 13.05.2022
1496 Clear 15 1023 91 10000 1.46 228 22:55 13.05.2022
1497 Clear 15 1023 89 10000 2 223 22:21 13.05.2022
1498 Clear 18 1022 83 10000 2.43 222 20:59 13.05.2022
1499 Clear 20 1022 83 10000 2.43 222 20:38 13.05.2022
1500 Clouds 20 1021 72 10000 2.71 234 20:20 13.05.2022
1501 Clouds 21 1021 61 10000 3.14 252 19:18 13.05.2022
1502 Clouds 22 1021 53 10000 3.48 260 17:47 13.05.2022
1503 Clouds 22 1021 48 10000 3.64 261 17:23 13.05.2022
1504 Clouds 21 1021 47 10000 3.61 265 15:48 13.05.2022
1505 Clouds 20 1021 47 10000 3.78 272 14:45 13.05.2022
1506 Clouds 18 1021 49 10000 4.27 276 12:54 13.05.2022
1507 Clouds 18 1022 53 10000 4.41 275 12:20 13.05.2022
1508 Clear 15 1022 63 10000 3.99 279 10:23 13.05.2022
1509 Clear 14 1022 67 10000 3.36 275 09:29 13.05.2022
1510 Clouds 11 1021 73 10000 2.13 279 07:59 13.05.2022
1511 Clouds 10 1021 89 10000 1.3 227 07:26 13.05.2022
1512 Clouds 10 1021 93 10000 1.03 242 05:31 13.05.2022
1513 Clouds 13 1021 90 10000 1.17 217 01:37 13.05.2022
1514 Clouds 15 1021 90 10000 0.45 286 23:34 12.05.2022
1515 Clouds 16 1020 91 10000 1.3 304 22:35 12.05.2022
1516 Clouds 18 1020 87 10000 2.07 262 21:35 12.05.2022
1517 Clouds 21 1018 74 10000 3.24 255 19:55 12.05.2022
1518 Clouds 22 1018 63 10000 4.79 250 18:29 12.05.2022
1519 Clouds 22 1019 58 10000 5.48 249 16:48 12.05.2022
1520 Clouds 22 1019 57 10000 5.7 249 15:30 12.05.2022
1521 Clouds 21 1019 55 10000 5.36 253 13:58 12.05.2022
1522 Clouds 20 1019 55 10000 4.95 254 12:46 12.05.2022
1523 Clouds 18 1020 61 10000 3.97 256 10:35 12.05.2022
1524 Clouds 16 1020 81 10000 2.98 266 08:58 12.05.2022
1525 Clouds 16 1020 81 10000 2.98 266 08:37 12.05.2022
1526 Clouds 15 1018 92 10000 3.05 257 07:36 12.05.2022
1527 Clouds 15 1017 98 10000 2.14 233 05:30 12.05.2022
1528 Clouds 18 1015 87 10000 3.07 242 02:21 12.05.2022
1529 Clouds 19 1014 75 10000 4.82 232 23:55 11.05.2022
1530 Clouds 20 1014 81 10000 4.36 223 22:31 11.05.2022
1531 Clouds 22 1013 84 10000 3.67 223 21:32 11.05.2022
1532 Clouds 24 1013 79 10000 4.01 227 20:52 11.05.2022
1533 Clouds 26 1012 65 10000 6.7 232 17:56 11.05.2022
1534 Clear 27 1012 61 10000 7.14 233 16:50 11.05.2022
1535 Clear 27 1013 57 10000 7.96 234 14:50 11.05.2022
1536 Clear 27 1013 56 10000 7.81 232 14:26 11.05.2022
1537 Clear 26 1013 56 10000 7.79 233 13:44 11.05.2022
1538 Clear 24 1014 60 10000 6.71 227 11:51 11.05.2022
1539 Clear 22 1014 67 10000 5.51 220 10:27 11.05.2022
1540 Clear 18 1015 72 10000 4.34 216 08:33 11.05.2022
1541 Clouds 15 1015 94 10000 2.83 185 05:19 11.05.2022
1542 Clouds 17 1017 93 10000 2.44 184 00:42 11.05.2022
1543 Clouds 18 1017 90 10000 2.59 188 22:30 10.05.2022
1544 Clouds 20 1018 87 10000 2.77 189 21:55 10.05.2022
1545 Clouds 22 1017 82 10000 2.75 197 20:54 10.05.2022
1546 Clouds 25 1017 66 10000 3.88 226 19:27 10.05.2022
1547 Clouds 25 1017 61 10000 4.49 232 17:54 10.05.2022
1548 Clouds 24 1018 59 10000 4.44 236 16:56 10.05.2022
1549 Rain 25 1018 50 10000 4.88 234 15:28 10.05.2022
1550 Clouds 24 1020 55 10000 4.09 232 12:39 10.05.2022
1551 Clouds 23 1020 59 10000 3.69 230 11:50 10.05.2022
1552 Clouds 23 1020 60 10000 3.22 217 11:20 10.05.2022
1553 Clouds 21 1020 63 10000 2.32 204 10:26 10.05.2022
1554 Clouds 18 1021 68 10000 1.41 195 09:25 10.05.2022
1555 Clouds 12 1021 83 10000 1.03 158 06:54 10.05.2022
1556 Clouds 13 1021 85 10000 0.97 144 03:57 10.05.2022
1557 Clouds 14 1023 76 10000 0.54 129 00:57 10.05.2022
1558 Clouds 16 1024 76 10000 0.66 108 22:56 09.05.2022
1559 Clouds 18 1023 75 10000 0.95 115 21:50 09.05.2022
1560 Clouds 21 1023 74 10000 0.76 113 20:54 09.05.2022
1561 Clouds 23 1022 70 10000 0.33 321 19:23 09.05.2022
1562 Clouds 25 1022 68 10000 1.05 322 17:51 09.05.2022
1563 Clouds 24 1023 64 10000 1.42 321 16:38 09.05.2022
1564 Clouds 24 1023 53 10000 1.06 318 15:52 09.05.2022
1565 Clouds 24 1023 46 10000 0.49 333 15:24 09.05.2022
1566 Clouds 24 1023 45 10000 0.34 72 14:31 09.05.2022
1567 Clear 23 1024 46 10000 0.61 65 13:50 09.05.2022
1568 Clear 22 1025 54 10000 1.19 65 12:26 09.05.2022
1569 Clear 20 1025 54 10000 1.19 65 11:32 09.05.2022
1570 Clear 18 1025 63 10000 1.63 73 10:42 09.05.2022
1571 Clear 15 1026 84 10000 1.57 44 08:51 09.05.2022
1572 Clear 13 1026 91 10000 1.45 49 07:54 09.05.2022
1573 Clear 10 1026 96 10000 2.05 43 03:36 09.05.2022
1574 Clouds 14 1025 95 10000 2.14 44 23:37 08.05.2022
1575 Clouds 15 1025 95 10000 2.31 42 22:56 08.05.2022
1576 Clouds 17 1025 94 10000 2.37 44 21:56 08.05.2022
1577 Clouds 19 1024 90 10000 2.48 49 20:37 08.05.2022
1578 Clouds 19 1023 81 10000 2.82 47 19:45 08.05.2022
1579 Clouds 20 1023 77 10000 3.04 42 18:54 08.05.2022
1580 Clouds 20 1023 75 10000 3.54 43 18:19 08.05.2022
1581 Clouds 21 1023 66 10000 3.63 42 16:56 08.05.2022
1582 Clouds 21 1023 62 10000 3.47 46 15:40 08.05.2022
1583 Clouds 21 1023 66 10000 3.98 45 14:57 08.05.2022
1584 Clear 19 1023 58 10000 4.03 41 12:39 08.05.2022
1585 Clouds 15 1024 65 10000 4.08 42 10:32 08.05.2022
1586 Clouds 14 1024 74 10000 4.22 40 09:58 08.05.2022
1587 Clouds 14 1024 74 10000 4.22 40 09:31 08.05.2022
1588 Clouds 11 1024 93 10000 3.01 25 07:31 08.05.2022
1589 Clouds 11 1023 94 10000 2.28 32 04:20 08.05.2022
1590 Clouds 12 1023 94 10000 2.2 35 02:51 08.05.2022
1591 Clouds 13 1023 92 10000 1.84 20 00:28 08.05.2022
1592 Rain 13 1023 92 10000 1.84 20 23:53 07.05.2022
1593 Rain 14 1023 90 10000 2 23 22:51 07.05.2022
1594 Rain 14 1023 90 10000 2 23 22:33 07.05.2022
1595 Rain 15 1023 88 10000 1.84 26 21:43 07.05.2022
1596 Rain 16 1022 86 10000 1.69 14 20:55 07.05.2022
1597 Rain 16 1021 84 10000 1.91 19 19:58 07.05.2022
1598 Clouds 21 1021 78 10000 2.13 359 17:51 07.05.2022
1599 Clouds 22 1021 56 10000 1.72 325 15:53 07.05.2022
1600 Clouds 21 1022 50 10000 1.97 327 14:20 07.05.2022
1601 Clouds 19 1023 58 10000 1.34 6 10:57 07.05.2022
1602 Clouds 15 1023 63 10000 1.23 17 09:38 07.05.2022
1603 Clouds 11 1023 77 10000 1.04 25 07:52 07.05.2022
1604 Clouds 9 1023 85 10000 1.19 39 06:44 07.05.2022
1605 Clouds 9 1023 86 10000 1.01 53 05:22 07.05.2022
1606 Clouds 10 1024 84 10000 1.29 39 02:21 07.05.2022
1607 Clouds 13 1025 79 10000 1.31 45 23:38 06.05.2022
1608 Clouds 14 1024 74 10000 1.44 40 22:32 06.05.2022
1609 Clouds 16 1024 66 10000 1.25 55 21:44 06.05.2022
1610 Clouds 19 1023 66 10000 1.28 59 20:35 06.05.2022
1611 Clouds 20 1023 65 10000 1.33 49 19:40 06.05.2022
1612 Clouds 21 1022 59 10000 1.36 45 19:18 06.05.2022
1613 Clouds 21 1022 50 10000 1.75 29 18:23 06.05.2022
1614 Clouds 22 1023 44 10000 2.24 30 16:53 06.05.2022
1615 Clouds 21 1023 42 10000 2.7 31 15:42 06.05.2022
1616 Clouds 21 1023 42 10000 2.95 38 14:54 06.05.2022
1617 Clouds 20 1024 47 10000 3.33 42 13:26 06.05.2022
1618 Clouds 19 1024 47 10000 3.33 42 12:40 06.05.2022
1619 Clear 18 1024 49 10000 3.44 40 11:45 06.05.2022
1620 Clear 17 1024 54 10000 3.6 37 10:30 06.05.2022
1621 Clear 14 1025 62 10000 2.9 28 09:46 06.05.2022
1622 Clear 12 1025 71 10000 2.14 25 08:33 06.05.2022
1623 Clear 7 1025 90 10000 1.5 26 06:48 06.05.2022
1624 Clear 8 1025 93 10000 1.54 30 05:37 06.05.2022
1625 Clear 10 1024 92 10000 1.38 22 02:50 06.05.2022
1626 Clouds 11 1024 90 10000 1.59 23 00:26 06.05.2022
1627 Clouds 13 1024 87 10000 1.54 29 22:32 05.05.2022
1628 Clouds 14 1023 82 10000 1.99 21 21:22 05.05.2022
1629 Clouds 17 1022 77 10000 2.36 7 19:55 05.05.2022
1630 Clouds 17 1021 73 10000 0.81 33 18:34 05.05.2022
1631 Clouds 18 1021 63 10000 1.87 26 16:33 05.05.2022
1632 Clouds 17 1021 56 10000 2.74 0 14:51 05.05.2022
1633 Clouds 17 1021 51 10000 0.9 10 13:24 05.05.2022
1634 Clouds 17 1021 51 10000 0.9 10 12:49 05.05.2022
1635 Clouds 14 1021 62 10000 1.72 7 10:48 05.05.2022
1636 Clouds 12 1021 71 10000 1.4 4 09:40 05.05.2022
1637 Rain 10 1021 84 10000 1.18 13 07:36 05.05.2022
1638 Clouds 10 1020 87 10000 1.13 10 05:19 05.05.2022
1639 Clouds 12 1020 86 10000 1.47 5 01:59 05.05.2022
1640 Clouds 12 1020 86 10000 1.46 10 01:29 05.05.2022
1641 Clouds 12 1020 88 10000 1.4 20 23:52 04.05.2022
1642 Clouds 13 1019 90 10000 1.98 14 22:46 04.05.2022
1643 Clouds 14 1018 89 10000 2.32 1 21:50 04.05.2022
1644 Clouds 14 1017 87 10000 1.76 13 21:29 04.05.2022
1645 Clouds 15 1016 83 10000 1.89 15 20:27 04.05.2022
1646 Clouds 16 1016 86 10000 1.72 19 19:53 04.05.2022
1647 Clouds 17 1016 83 10000 2.41 2 19:24 04.05.2022
1648 Clouds 19 1016 77 10000 3.23 338 18:22 04.05.2022
1649 Clouds 18 1016 77 10000 3.23 338 17:51 04.05.2022
1650 Clouds 19 1016 65 10000 3.51 300 15:42 04.05.2022
1651 Clouds 19 1016 61 10000 3.26 296 15:24 04.05.2022
1652 Clouds 19 1016 57 10000 2.93 299 14:21 04.05.2022
1653 Clouds 19 1016 57 10000 2.93 299 13:49 04.05.2022
1654 Clouds 18 1016 66 10000 1.38 331 12:33 04.05.2022
1655 Clouds 16 1017 68 10000 1.58 10 10:43 04.05.2022
1656 Clouds 14 1018 76 10000 1.6 31 09:44 04.05.2022
1657 Clouds 12 1018 82 10000 1.42 29 08:48 04.05.2022
1658 Clouds 10 1018 94 10000 1.63 31 06:49 04.05.2022
1659 Clouds 10 1017 93 10000 2.01 21 02:59 04.05.2022
1660 Clouds 12 1018 91 10000 1.98 30 01:24 04.05.2022
1661 Clouds 15 1018 87 10000 2.15 32 22:50 03.05.2022
1662 Clouds 15 1017 86 10000 2.4 28 21:47 03.05.2022
1663 Clouds 16 1016 85 10000 2.66 16 21:20 03.05.2022
1664 Clouds 17 1016 85 10000 2.66 16 20:31 03.05.2022
1665 Clouds 19 1015 73 10000 3.12 21 18:54 03.05.2022
1666 Clouds 19 1015 73 10000 3.12 21 18:34 03.05.2022
1667 Clouds 20 1015 65 10000 3.75 40 17:19 03.05.2022
1668 Clouds 19 1015 67 10000 3.65 45 15:43 03.05.2022
1669 Clouds 18 1016 67 10000 3.78 33 13:32 03.05.2022
1670 Clouds 18 1016 69 10000 3.7 34 12:31 03.05.2022
1671 Clouds 17 1016 73 10000 2.75 50 11:23 03.05.2022
1672 Clouds 15 1016 81 10000 2.94 45 10:25 03.05.2022
1673 Clouds 12 1016 92 10000 2.12 29 08:18 03.05.2022
1674 Clouds 11 1016 95 10000 2.1 29 06:45 03.05.2022
1675 Clouds 11 1017 93 10000 1.91 23 01:56 03.05.2022
1676 Clouds 13 1017 92 10000 2.41 17 22:47 02.05.2022
1677 Clouds 13 1017 90 10000 2.4 23 22:28 02.05.2022
1678 Clouds 15 1016 87 10000 2.85 23 21:26 02.05.2022
1679 Clouds 18 1015 74 10000 3.4 23 19:22 02.05.2022
1680 Clouds 18 1015 67 10000 1.93 30 18:25 02.05.2022
1681 Clouds 18 1015 67 10000 1.93 30 17:38 02.05.2022
1682 Clouds 19 1015 58 10000 1.46 28 16:37 02.05.2022
1683 Clouds 19 1015 53 10000 1.78 35 15:41 02.05.2022
1684 Clouds 18 1016 54 10000 2.14 51 14:20 02.05.2022
1685 Clouds 18 1016 57 10000 2.8 52 13:19 02.05.2022
1686 Clouds 17 1017 59 10000 2.7 49 11:41 02.05.2022
1687 Clouds 13 1018 72 10000 2.22 42 09:32 02.05.2022
1688 Clouds 10 1018 88 10000 1.73 36 07:57 02.05.2022
1689 Clouds 7 1018 93 10000 1.6 43 06:31 02.05.2022
1690 Clouds 10 1021 91 10000 2.13 47 00:44 02.05.2022
1691 Clouds 10 1021 90 10000 2.26 37 00:21 02.05.2022
1692 Clouds 11 1021 89 10000 2.43 36 22:53 01.05.2022
1693 Clouds 12 1021 85 10000 2.55 42 21:42 01.05.2022
1694 Clouds 14 1020 83 10000 2.57 37 20:30 01.05.2022
1695 Clouds 15 1019 78 10000 2.2 54 19:21 01.05.2022
1696 Clouds 15 1019 78 10000 2.2 54 18:52 01.05.2022
1697 Clouds 15 1020 72 10000 2.31 49 17:49 01.05.2022
1698 Clouds 16 1020 62 10000 2.86 39 16:29 01.05.2022
1699 Clouds 15 1020 62 10000 2.85 39 15:51 01.05.2022
1700 Clouds 16 1021 61 10000 3.09 32 14:45 01.05.2022
1701 Clouds 14 1022 65 10000 2.86 56 12:24 01.05.2022
1702 Clouds 11 1023 69 10000 2.78 36 10:22 01.05.2022
1703 Clouds 8 1023 73 10000 2.42 29 08:49 01.05.2022
1704 Clear 5 1024 90 10000 1.69 15 06:31 01.05.2022
1705 Clouds 7 1024 88 10000 1.11 10 01:56 01.05.2022
1706 Clouds 9 1025 80 10000 2.13 17 22:18 30.04.2022
1707 Clouds 10 1025 80 10000 2.13 17 21:32 30.04.2022
1708 Clouds 13 1023 69 10000 2.36 32 19:54 30.04.2022
1709 Clouds 14 1022 59 10000 3.11 42 19:24 30.04.2022
1710 Clouds 14 1022 56 10000 3.48 36 17:31 30.04.2022
1711 Clouds 14 1022 48 10000 3.62 9 15:52 30.04.2022
1712 Clouds 14 1022 48 10000 3.62 9 15:52 30.04.2022
1713 Clouds 14 1023 52 10000 2.88 19 15:18 30.04.2022
1714 Clouds 12 1024 64 10000 2.64 42 13:59 30.04.2022
1715 Clouds 11 1025 83 10000 3.56 38 11:58 30.04.2022
1716 Clouds 11 1025 83 10000 3.56 38 11:31 30.04.2022
1717 Clouds 10 1026 87 10000 3.79 16 10:23 30.04.2022
1718 Clouds 8 1025 93 10000 3.59 1 07:47 30.04.2022
1719 Clouds 9 1024 97 10000 2.6 12 04:25 30.04.2022
1720 Rain 10 1025 97 7690 2.22 15 00:25 30.04.2022
1721 Rain 12 1026 95 10000 2.6 0 22:56 29.04.2022
1722 Rain 12 1025 94 10000 2.58 7 22:21 29.04.2022
1723 Rain 14 1025 89 10000 2.79 4 21:26 29.04.2022
1724 Clouds 14 1024 80 10000 2.51 1 20:24 29.04.2022
1725 Clouds 17 1023 75 10000 2.42 349 19:28 29.04.2022
1726 Clouds 18 1023 66 10000 1.23 306 17:37 29.04.2022
1727 Clouds 19 1023 56 10000 1.1 318 16:43 29.04.2022
1728 Clouds 19 1024 45 10000 1.79 2 14:38 29.04.2022
1729 Clouds 18 1025 45 10000 1.92 36 13:51 29.04.2022
1730 Clouds 18 1025 46 10000 1.53 21 12:38 29.04.2022
1731 Clouds 17 1026 55 10000 1.63 50 10:56 29.04.2022
1732 Clouds 11 1027 78 10000 1.39 41 07:58 29.04.2022
1733 Clouds 9 1027 85 10000 1.56 60 07:26 29.04.2022
1734 Clouds 9 1027 85 10000 1.56 60 06:33 29.04.2022
1735 Clouds 9 1028 82 10000 1.65 50 03:23 29.04.2022
1736 Clouds 11 1029 80 10000 1.99 53 00:18 29.04.2022
1737 Clouds 12 1029 77 10000 2.23 46 23:26 28.04.2022
1738 Clouds 13 1029 77 10000 2.23 46 22:37 28.04.2022
1739 Clouds 14 1028 73 10000 2.25 58 21:45 28.04.2022
1740 Clear 16 1028 71 10000 1.74 80 20:49 28.04.2022
1741 Clouds 18 1027 66 10000 1.92 92 19:59 28.04.2022
1742 Clouds 18 1026 67 10000 1.74 87 19:40 28.04.2022
1743 Clouds 19 1026 57 10000 1.75 59 19:20 28.04.2022
1744 Clouds 21 1026 46 10000 2.54 62 17:56 28.04.2022
1745 Clouds 21 1026 42 10000 2.92 61 16:59 28.04.2022
1746 Clouds 21 1026 41 10000 3.07 62 16:21 28.04.2022
1747 Clouds 21 1026 41 10000 3.07 62 15:57 28.04.2022
1748 Clouds 20 1027 40 10000 3.31 64 15:23 28.04.2022
1749 Clear 19 1027 43 10000 3.5 49 13:44 28.04.2022
1750 Clear 18 1027 44 10000 3.44 50 12:38 28.04.2022
1751 Clear 17 1027 46 10000 3.38 52 11:51 28.04.2022
1752 Clear 15 1027 51 10000 3.1 54 10:37 28.04.2022
1753 Clear 13 1027 60 10000 2.54 51 09:52 28.04.2022
1754 Clear 10 1027 81 10000 1.82 42 08:20 28.04.2022
1755 Clear 6 1027 92 10000 2.12 45 06:58 28.04.2022
1756 Clear 7 1027 93 10000 2.2 46 05:55 28.04.2022
1757 Clear 7 1027 92 10000 2.15 47 04:50 28.04.2022
1758 Clear 7 1027 92 10000 2.15 47 04:31 28.04.2022
1759 Clear 9 1026 91 10000 2.24 47 23:59 27.04.2022
1760 Clear 11 1026 89 10000 2.27 43 22:38 27.04.2022
1761 Clear 12 1026 85 10000 2.26 51 21:52 27.04.2022
1762 Clouds 14 1025 81 10000 2.37 61 20:56 27.04.2022
1763 Clouds 15 1025 81 10000 2.37 61 20:35 27.04.2022
1764 Clouds 16 1023 72 10000 3.3 51 19:37 27.04.2022
1765 Clouds 16 1023 66 10000 3.89 44 18:56 27.04.2022
1766 Clouds 17 1023 63 10000 4.33 39 18:22 27.04.2022
1767 Clouds 18 1022 53 10000 4.17 44 16:29 27.04.2022
1768 Clouds 17 1022 50 10000 4.17 54 14:33 27.04.2022
1769 Clouds 14 1023 59 10000 4.62 53 12:23 27.04.2022
1770 Clear 13 1023 65 10000 4.25 54 11:20 27.04.2022
1771 Clear 10 1023 74 10000 3.52 49 09:43 27.04.2022
1772 Clouds 6 1023 96 10000 1.62 34 07:18 27.04.2022
1773 Clouds 6 1022 95 10000 1.54 39 04:45 27.04.2022
1774 Clouds 7 1022 92 10000 1.2 26 01:34 27.04.2022
1775 Clouds 8 1022 92 10000 1.31 16 00:38 27.04.2022
1776 Clouds 8 1021 92 10000 1.19 30 23:40 26.04.2022
1777 Clouds 9 1021 93 10000 1.1 55 23:22 26.04.2022
1778 Clouds 9 1021 93 10000 1.1 55 22:41 26.04.2022
1779 Clouds 10 1021 95 10000 1.65 50 21:37 26.04.2022
1780 Clouds 11 1020 94 10000 2.38 37 20:53 26.04.2022
1781 Clouds 11 1020 94 10000 2.38 37 20:33 26.04.2022
1782 Clouds 11 1019 86 10000 3.19 10 19:32 26.04.2022
1783 Clouds 11 1018 84 10000 3.88 1 18:45 26.04.2022
1784 Clouds 11 1018 75 10000 4.12 346 17:59 26.04.2022
1785 Clouds 11 1017 74 10000 3.59 330 17:22 26.04.2022
1786 Clouds 12 1017 78 10000 4.52 335 14:28 26.04.2022
1787 Clouds 11 1017 70 10000 4.31 354 13:33 26.04.2022
1788 Clouds 11 1016 71 10000 3.54 351 12:22 26.04.2022
1789 Clouds 9 1016 73 10000 2.65 349 10:44 26.04.2022
1790 Clouds 8 1016 80 10000 2.22 353 09:36 26.04.2022
1791 Rain 7 1015 90 10000 1.11 327 07:54 26.04.2022
1792 Clouds 7 1014 95 10000 0.52 284 04:33 26.04.2022
1793 Clouds 8 1013 93 10000 0.94 314 01:54 26.04.2022
1794 Clouds 8 1013 88 10000 1.37 2 00:26 26.04.2022
1795 Clouds 9 1013 85 10000 1.59 11 22:49 25.04.2022
1796 Rain 10 1012 79 10000 1.92 9 21:43 25.04.2022
1797 Clouds 11 1012 73 10000 1.62 358 20:45 25.04.2022
1798 Clouds 11 1012 73 10000 1.62 358 20:45 25.04.2022
1799 Clouds 13 1010 67 10000 2.11 358 19:34 25.04.2022
1800 Clouds 14 1009 44 10000 2.56 311 18:23 25.04.2022
1801 Clouds 15 1009 44 10000 2.56 311 17:32 25.04.2022
1802 Clouds 13 1009 42 10000 2.85 289 15:30 25.04.2022
1803 Clouds 15 1009 43 10000 3.22 275 14:54 25.04.2022
1804 Clouds 15 1009 44 10000 2.92 271 13:41 25.04.2022
1805 Clouds 13 1009 53 10000 2.05 285 11:53 25.04.2022
1806 Clouds 11 1009 78 10000 0.85 307 10:27 25.04.2022
1807 Rain 9 1009 86 10000 1.11 342 09:20 25.04.2022
1808 Clouds 8 1008 95 10000 0.78 9 06:49 25.04.2022
1809 Clouds 7 1007 95 10000 0.7 48 05:23 25.04.2022
1810 Clouds 9 1007 87 10000 1.18 1 01:24 25.04.2022
1811 Clouds 11 1007 86 10000 1.28 19 23:53 24.04.2022
1812 Clouds 11 1006 85 10000 1.15 61 22:52 24.04.2022
1813 Clouds 12 1006 85 10000 1.15 61 22:31 24.04.2022
1814 Rain 12 1006 86 10000 1.64 71 21:54 24.04.2022
1815 Clouds 12 1005 85 10000 2.36 68 21:20 24.04.2022
1816 Clouds 13 1005 85 10000 2.36 68 20:38 24.04.2022
1817 Clouds 15 1004 73 10000 3.51 77 19:50 24.04.2022
1818 Clouds 16 1003 69 10000 4.38 62 18:28 24.04.2022
1819 Clouds 16 1003 69 10000 4.38 62 17:40 24.04.2022
1820 Clouds 16 1002 74 10000 3.75 63 17:19 24.04.2022
1821 Clouds 16 1002 74 10000 3.75 63 16:48 24.04.2022
1822 Clouds 16 1002 70 10000 5.34 48 16:20 24.04.2022
1823 Clouds 15 1002 70 10000 5.34 48 15:31 24.04.2022
1824 Clouds 15 1001 64 10000 3.94 36 14:30 24.04.2022
1825 Clouds 15 1001 60 10000 3.19 41 13:26 24.04.2022
1826 Clouds 15 1001 60 10000 3.19 41 13:26 24.04.2022
1827 Clouds 13 1001 60 10000 3.19 41 12:35 24.04.2022
1828 Clouds 12 1001 62 10000 3.19 35 11:39 24.04.2022
1829 Clouds 11 1000 64 10000 2.72 34 10:30 24.04.2022
1830 Clouds 10 1000 74 10000 2.09 41 09:39 24.04.2022
1831 Rain 10 1000 77 10000 2.18 53 07:31 24.04.2022
1832 Rain 11 1000 84 10000 2.09 51 04:44 24.04.2022
1833 Clouds 11 1000 85 10000 3.41 41 01:39 24.04.2022
1834 Clouds 11 999 80 10000 3.48 40 00:30 24.04.2022
1835 Clouds 11 999 78 10000 3.33 46 23:45 23.04.2022
1836 Clouds 11 1000 78 10000 3.45 55 23:22 23.04.2022
1837 Clouds 13 1000 77 10000 3.74 63 21:54 23.04.2022
1838 Clouds 13 1000 77 10000 3.74 63 21:34 23.04.2022
1839 Clouds 13 1000 75 10000 4.43 68 20:57 23.04.2022
1840 Clouds 14 1000 72 10000 4.77 74 19:49 23.04.2022
1841 Clouds 15 1000 68 10000 5.53 74 19:19 23.04.2022
1842 Clouds 15 1000 68 10000 5.53 74 18:53 23.04.2022
1843 Rain 15 1001 65 10000 5.5 75 18:24 23.04.2022
1844 Rain 16 1001 65 10000 5.5 75 17:43 23.04.2022
1845 Clouds 16 1001 63 10000 5.32 84 16:43 23.04.2022
1846 Clouds 17 1001 59 10000 4.43 90 15:32 23.04.2022
1847 Clouds 16 1002 60 10000 4.05 102 12:50 23.04.2022
1848 Clouds 13 1002 65 10000 4.85 93 10:50 23.04.2022
1849 Clouds 12 1002 67 10000 5.33 94 09:38 23.04.2022
1850 Clouds 9 1003 83 10000 3.54 72 07:38 23.04.2022
1851 Clouds 10 1003 82 10000 3.73 61 03:54 23.04.2022
1852 Clouds 11 1003 83 10000 4.05 65 01:32 23.04.2022
1853 Clouds 13 1003 75 10000 4.34 76 23:32 22.04.2022
1854 Clouds 13 1003 67 10000 5.42 76 22:22 22.04.2022
1855 Clouds 14 1003 67 10000 5.42 76 21:44 22.04.2022
1856 Clouds 15 1003 63 10000 5.57 78 20:55 22.04.2022
1857 Clouds 15 1002 65 10000 5.29 65 20:28 22.04.2022
1858 Clouds 17 1001 58 10000 4.14 71 19:22 22.04.2022
1859 Clouds 17 1001 58 10000 4.14 71 18:46 22.04.2022
1860 Clouds 18 1001 50 10000 4.19 84 17:50 22.04.2022
1861 Clouds 18 1001 45 10000 4.6 81 16:46 22.04.2022
1862 Clouds 18 1001 45 10000 4.76 81 15:47 22.04.2022
1863 Clouds 17 1002 45 10000 4.78 78 15:21 22.04.2022
1864 Clouds 17 1002 46 10000 4.96 71 13:54 22.04.2022
1865 Clear 16 1003 50 10000 5.03 64 13:27 22.04.2022
1866 Clear 14 1003 56 10000 5.57 57 12:29 22.04.2022
1867 Clear 13 1004 61 10000 5.89 56 11:22 22.04.2022
1868 Clear 12 1004 61 10000 5.89 56 10:52 22.04.2022
1869 Clear 11 1004 61 10000 5.89 56 10:31 22.04.2022
1870 Clouds 10 1005 68 10000 5.64 58 09:54 22.04.2022
1871 Clouds 9 1005 78 10000 5.15 58 08:56 22.04.2022
1872 Clouds 9 1006 90 10000 3.68 47 08:25 22.04.2022
1873 Clear 7 1006 97 10000 2.81 45 05:20 22.04.2022
1874 Clouds 11 1008 95 10000 2.93 46 00:53 22.04.2022
1875 Clouds 12 1008 81 10000 4.4 61 23:29 21.04.2022
1876 Clouds 13 1008 75 10000 4.79 61 22:29 21.04.2022
1877 Clouds 14 1008 73 10000 4.61 64 21:22 21.04.2022
1878 Clouds 14 1008 70 10000 4.87 57 20:27 21.04.2022
1879 Clouds 16 1008 67 10000 4.06 61 18:49 21.04.2022
1880 Clouds 17 1008 64 10000 4.22 61 18:19 21.04.2022
1881 Clouds 17 1008 59 10000 4.98 59 16:56 21.04.2022
1882 Clouds 17 1008 52 10000 5.55 64 15:24 21.04.2022
1883 Clouds 17 1008 52 10000 5.55 64 14:51 21.04.2022
1884 Clouds 17 1009 51 10000 5.42 65 13:56 21.04.2022
1885 Clouds 16 1009 52 10000 5.11 61 13:20 21.04.2022
1886 Clouds 14 1010 54 10000 5.22 62 11:46 21.04.2022
1887 Clouds 11 1011 71 10000 4.09 64 09:24 21.04.2022
1888 Clear 9 1012 82 10000 2.63 50 08:29 21.04.2022
1889 Clear 7 1012 90 10000 2.83 54 06:36 21.04.2022
1890 Clear 8 1012 90 10000 2.48 53 03:39 21.04.2022
1891 Clear 8 1012 90 10000 2.48 53 03:39 21.04.2022
1892 Clear 8 1012 88 10000 2.62 53 03:20 21.04.2022
1893 Clear 8 1012 88 10000 2.62 53 02:44 21.04.2022
1894 Clear 9 1013 84 10000 2.52 56 00:34 21.04.2022
1895 Clear 10 1013 77 10000 2.55 66 23:25 20.04.2022
1896 Clear 10 1013 77 10000 2.55 66 22:59 20.04.2022
1897 Clear 10 1013 77 10000 2.55 66 22:59 20.04.2022
1898 Clear 11 1013 77 10000 2.55 66 22:33 20.04.2022
1899 Clear 12 1013 70 10000 2.44 61 21:36 20.04.2022
1900 Clear 14 1013 61 10000 2.05 75 20:44 20.04.2022
1901 Clouds 14 1012 56 10000 2.54 75 20:21 20.04.2022
1902 Clouds 16 1012 56 10000 2.54 75 19:39 20.04.2022
1903 Clouds 17 1011 46 10000 3.85 78 18:46 20.04.2022
1904 Clouds 17 1012 40 10000 4.53 78 17:49 20.04.2022
1905 Clouds 17 1012 35 10000 5.03 79 16:39 20.04.2022
1906 Clouds 15 1012 35 10000 5.18 81 14:58 20.04.2022
1907 Clouds 14 1014 42 10000 6.12 72 12:22 20.04.2022
1908 Clouds 13 1014 42 10000 6.12 72 11:42 20.04.2022
1909 Clouds 12 1014 46 10000 5.7 72 10:43 20.04.2022
1910 Clouds 11 1014 51 10000 5.41 69 09:31 20.04.2022
1911 Clouds 9 1015 59 10000 4.37 66 08:40 20.04.2022
1912 Clouds 9 1015 70 10000 3.32 59 08:18 20.04.2022
1913 Clouds 7 1015 71 10000 2.66 54 06:18 20.04.2022
1914 Clouds 10 1014 66 10000 3.49 77 02:34 20.04.2022
1915 Clouds 11 1014 58 10000 4.32 84 00:22 20.04.2022
1916 Clouds 12 1014 58 10000 4.51 86 22:59 19.04.2022
1917 Clouds 12 1014 58 10000 4.51 86 22:59 19.04.2022
1918 Clouds 13 1013 67 10000 3.63 80 22:23 19.04.2022
1919 Clouds 14 1013 67 10000 3.63 80 21:53 19.04.2022
1920 Clouds 15 1013 67 10000 2.58 79 20:59 19.04.2022
1921 Clouds 16 1013 67 10000 2.58 79 20:37 19.04.2022
1922 Clouds 18 1011 66 10000 2.75 73 19:41 19.04.2022
1923 Clouds 19 1011 57 10000 3.04 54 18:31 19.04.2022
1924 Clouds 20 1011 41 10000 2.8 39 17:24 19.04.2022
1925 Clouds 20 1011 41 10000 2.8 39 16:42 19.04.2022
1926 Clouds 20 1011 41 10000 2.8 39 16:42 19.04.2022
1927 Clouds 20 1011 39 10000 2.26 37 16:20 19.04.2022
1928 Clouds 19 1011 38 10000 2.04 34 14:46 19.04.2022
1929 Clouds 19 1011 38 10000 2.04 34 14:46 19.04.2022
1930 Clouds 19 1012 43 10000 2.35 29 13:22 19.04.2022
1931 Clouds 18 1012 43 10000 2.35 29 12:49 19.04.2022
1932 Clouds 16 1013 47 10000 2.31 27 11:38 19.04.2022
1933 Clouds 12 1013 57 10000 1.4 8 09:52 19.04.2022
1934 Clouds 7 1014 70 10000 1.2 35 08:23 19.04.2022
1935 Clouds 6 1014 69 10000 1.04 43 04:26 19.04.2022
1936 Clouds 7 1014 68 10000 0.89 50 02:41 19.04.2022
1937 Clouds 9 1016 67 10000 0.86 73 00:24 19.04.2022
1938 Clouds 10 1016 66 10000 1.1 88 22:58 18.04.2022
1939 Clouds 13 1016 67 10000 2.02 106 21:29 18.04.2022
1940 Clouds 16 1016 67 10000 2.02 106 20:46 18.04.2022
1941 Clouds 16 1016 65 10000 2.32 85 20:25 18.04.2022
1942 Clouds 17 1016 65 10000 2.28 86 19:42 18.04.2022
1943 Clouds 18 1015 56 10000 2.57 70 18:53 18.04.2022
1944 Clouds 18 1015 45 10000 2.9 73 17:53 18.04.2022
1945 Clouds 18 1015 41 10000 2.91 78 17:28 18.04.2022
1946 Clouds 18 1015 41 10000 2.91 78 16:44 18.04.2022
1947 Clouds 19 1016 39 10000 2.88 83 15:54 18.04.2022
1948 Clouds 17 1016 39 10000 2.96 88 14:43 18.04.2022
1949 Clear 17 1017 39 10000 3.04 99 13:35 18.04.2022
1950 Clear 17 1017 39 10000 3.04 99 13:34 18.04.2022
1951 Clear 15 1018 40 10000 3.44 94 12:29 18.04.2022
1952 Clear 14 1019 42 10000 3.26 87 11:27 18.04.2022
1953 Clear 12 1019 49 10000 2.61 80 10:29 18.04.2022
1954 Clear 10 1019 49 10000 2.61 80 09:30 18.04.2022
1955 Clear 6 1020 71 10000 1.46 36 07:42 18.04.2022
1956 Clear 6 1020 75 10000 1.57 66 05:35 18.04.2022
1957 Clear 8 1023 70 10000 1.61 73 23:51 17.04.2022
1958 Clear 9 1023 67 10000 1.57 91 22:40 17.04.2022
1959 Clear 11 1023 64 10000 2.05 91 21:42 17.04.2022
1960 Clear 12 1023 62 10000 2.04 88 21:22 17.04.2022
1961 Clear 14 1023 62 10000 2.04 88 20:33 17.04.2022
1962 Clouds 16 1022 49 10000 3.86 94 19:23 17.04.2022
1963 Clouds 17 1022 44 10000 4.45 87 17:45 17.04.2022
1964 Clouds 17 1023 37 10000 4.83 83 15:39 17.04.2022
1965 Clouds 17 1024 36 10000 4.72 88 14:54 17.04.2022
1966 Clouds 17 1024 36 10000 4.72 88 14:54 17.04.2022
1967 Clear 16 1025 35 10000 4.77 86 13:48 17.04.2022
1968 Clear 15 1026 37 10000 4.89 86 12:58 17.04.2022
1969 Clear 14 1026 39 10000 5.12 87 12:27 17.04.2022
1970 Clear 11 1027 41 10000 4.39 87 10:46 17.04.2022
1971 Clear 10 1027 47 10000 3.82 81 10:28 17.04.2022
1972 Clear 10 1027 47 10000 3.82 81 10:28 17.04.2022
1973 Clear 9 1027 47 10000 3.82 81 09:34 17.04.2022
1974 Clear 7 1028 56 10000 2.97 75 08:51 17.04.2022
1975 Clear 4 1028 69 10000 2.31 49 07:30 17.04.2022
1976 Clear 6 1029 71 10000 2.58 69 04:29 17.04.2022
1977 Clouds 7 1031 64 10000 3.22 70 01:26 17.04.2022
1978 Clouds 9 1031 63 10000 2.88 69 23:52 16.04.2022
1979 Clouds 10 1031 62 10000 2.53 70 22:35 16.04.2022
1980 Clouds 10 1031 60 10000 2.34 74 21:38 16.04.2022
1981 Clouds 13 1030 58 10000 2.55 75 20:32 16.04.2022
1982 Clear 16 1029 48 10000 4.06 85 18:59 16.04.2022
1983 Clear 16 1029 45 10000 4.59 76 17:52 16.04.2022
1984 Clear 16 1029 42 10000 5.29 77 16:40 16.04.2022
1985 Clear 16 1029 42 10000 5.5 75 15:45 16.04.2022
1986 Clear 15 1029 45 10000 5.66 72 14:56 16.04.2022
1987 Clear 15 1029 48 10000 5.68 71 13:58 16.04.2022
1988 Clear 15 1029 50 10000 5.46 75 13:37 16.04.2022
1989 Clear 14 1029 55 10000 5.82 69 12:26 16.04.2022
1990 Clear 12 1030 59 10000 5.97 68 10:50 16.04.2022
1991 Clear 11 1030 65 10000 5.53 69 09:56 16.04.2022
1992 Clouds 10 1029 75 10000 4.6 70 08:59 16.04.2022
1993 Clouds 7 1029 88 10000 2.61 51 07:57 16.04.2022
1994 Clouds 7 1029 95 10000 2.48 47 06:58 16.04.2022
1995 Clouds 8 1028 88 10000 2.25 45 02:52 16.04.2022
1996 Clouds 10 1028 89 10000 2.56 49 00:31 16.04.2022
1997 Clouds 11 1028 85 10000 2.81 35 23:23 15.04.2022
1998 Clouds 11 1028 85 10000 2.81 35 22:36 15.04.2022
1999 Clouds 12 1028 82 10000 2.58 28 21:55 15.04.2022
2000 Clouds 13 1027 77 10000 3.13 32 21:18 15.04.2022
2001 Clouds 15 1026 71 10000 3.82 31 20:24 15.04.2022
2002 Clouds 17 1026 71 10000 3.35 26 19:40 15.04.2022
2003 Clouds 18 1025 62 10000 3.81 24 18:54 15.04.2022
2004 Clouds 19 1025 54 10000 3.47 21 18:25 15.04.2022
2005 Clouds 19 1025 54 10000 3.47 21 17:48 15.04.2022
2006 Clouds 19 1025 49 10000 3.38 19 17:21 15.04.2022
2007 Clouds 19 1024 48 10000 3.24 18 16:23 15.04.2022
2008 Clouds 19 1025 49 10000 3.29 16 15:24 15.04.2022
2009 Clouds 18 1025 51 10000 3.14 10 13:42 15.04.2022
2010 Clouds 17 1025 55 10000 2.73 13 12:43 15.04.2022
2011 Clouds 17 1025 60 10000 2.65 19 11:59 15.04.2022
2012 Clouds 15 1025 60 10000 2.65 19 11:40 15.04.2022
2013 Clouds 14 1025 66 10000 2.71 19 10:45 15.04.2022
2014 Clouds 13 1025 74 10000 2.44 18 09:50 15.04.2022
2015 Clouds 12 1025 82 10000 1.71 22 09:21 15.04.2022
2016 Clouds 10 1025 91 10000 1.48 21 08:24 15.04.2022
2017 Clouds 8 1025 95 10000 1.69 27 06:46 15.04.2022
2018 Clouds 9 1024 91 10000 1.34 23 04:28 15.04.2022
2019 Clouds 12 1023 85 10000 1.83 350 23:42 14.04.2022
2020 Clouds 13 1023 77 10000 1.37 13 23:19 14.04.2022
2021 Clouds 14 1023 77 10000 1.37 13 22:42 14.04.2022
2022 Clouds 14 1023 76 10000 1.82 16 22:24 14.04.2022
2023 Clouds 15 1023 76 10000 1.82 16 21:32 14.04.2022
2024 Clouds 19 1020 70 10000 1.9 350 19:24 14.04.2022
2025 Clouds 19 1020 70 10000 1.9 350 18:38 14.04.2022
2026 Clouds 20 1020 67 10000 1.94 331 17:45 14.04.2022
2027 Clouds 20 1020 56 10000 2.85 322 16:49 14.04.2022
2028 Clouds 19 1020 52 10000 2.01 319 15:50 14.04.2022
2029 Clouds 17 1020 55 10000 1.7 357 13:52 14.04.2022
2030 Clouds 16 1021 58 10000 2.37 353 13:19 14.04.2022
2031 Clouds 16 1021 58 10000 2.37 353 12:32 14.04.2022
2032 Clouds 15 1021 64 10000 2.08 18 11:36 14.04.2022
2033 Clouds 14 1021 70 10000 2.34 9 10:58 14.04.2022
2034 Clouds 14 1021 70 10000 2.34 9 10:31 14.04.2022
2035 Clouds 13 1021 83 10000 1.74 1 09:28 14.04.2022
2036 Clouds 12 1021 89 10000 1.64 344 08:23 14.04.2022
2037 Clouds 12 1019 93 10000 1.54 4 05:52 14.04.2022
2038 Clouds 15 1019 95 10000 2.16 15 00:29 14.04.2022
2039 Clouds 16 1019 95 10000 2.15 356 22:38 13.04.2022
2040 Clouds 17 1019 94 10000 2.3 9 21:43 13.04.2022
2041 Clouds 17 1018 93 10000 2.45 353 20:41 13.04.2022
2042 Clouds 19 1017 88 10000 3.6 330 19:49 13.04.2022
2043 Clouds 21 1015 79 10000 3.08 331 18:39 13.04.2022
2044 Clouds 22 1015 69 10000 3.45 324 17:41 13.04.2022
2045 Clouds 22 1015 57 10000 2.22 301 17:23 13.04.2022
2046 Clouds 22 1015 54 10000 1.81 303 16:18 13.04.2022
2047 Clouds 22 1015 55 10000 1.45 302 15:29 13.04.2022
2048 Clouds 22 1015 55 10000 1.45 302 14:40 13.04.2022
2049 Clouds 22 1015 57 10000 1.27 308 13:43 13.04.2022
2050 Clouds 21 1016 58 10000 1.09 307 12:57 13.04.2022
2051 Clouds 20 1016 62 10000 0.49 3 11:58 13.04.2022
2052 Clouds 17 1015 67 10000 0.72 45 10:41 13.04.2022
2053 Clouds 12 1015 79 10000 0.33 350 08:49 13.04.2022
2054 Clouds 11 1015 87 10000 0.8 347 08:24 13.04.2022
2055 Clouds 10 1015 90 10000 0.05 73 06:50 13.04.2022
2056 Clouds 10 1014 89 10000 0.33 218 06:24 13.04.2022
2057 Clouds 12 1013 84 10000 1.09 179 02:27 13.04.2022
2058 Clouds 14 1013 77 10000 1.05 163 00:20 13.04.2022
2059 Clouds 15 1013 77 10000 1.41 165 22:45 12.04.2022
2060 Clouds 15 1013 78 10000 1.34 147 21:56 12.04.2022
2061 Clouds 18 1012 78 10000 1.54 147 20:49 12.04.2022
2062 Clouds 18 1012 78 10000 1.54 147 20:49 12.04.2022
2063 Clouds 18 1011 75 10000 1.73 158 20:22 12.04.2022
2064 Clouds 20 1012 77 10000 1.73 166 19:41 12.04.2022
2065 Clouds 20 1011 69 10000 2.58 192 19:19 12.04.2022
2066 Clouds 22 1011 62 10000 3.69 197 17:50 12.04.2022
2067 Clouds 22 1011 57 10000 4.03 191 16:50 12.04.2022
2068 Clouds 22 1011 49 10000 5.34 185 15:39 12.04.2022
2069 Clouds 22 1010 47 10000 5.53 185 15:21 12.04.2022
2070 Clouds 21 1011 46 10000 4.45 167 13:54 12.04.2022
2071 Clouds 20 1011 49 10000 4.32 165 13:27 12.04.2022
2072 Clouds 19 1011 49 10000 4.32 165 12:31 12.04.2022
2073 Clouds 17 1012 50 10000 3.59 163 11:40 12.04.2022
2074 Clouds 15 1012 61 10000 1.24 129 10:29 12.04.2022
2075 Clouds 11 1012 70 10000 1.11 99 08:54 12.04.2022
2076 Clouds 11 1012 70 10000 1.11 99 08:54 12.04.2022
2077 Clouds 8 1013 77 10000 1.03 100 07:47 12.04.2022
2078 Clouds 9 1013 76 10000 1.53 107 05:49 12.04.2022
2079 Clouds 8 1013 71 10000 1.45 115 03:28 12.04.2022
2080 Clouds 10 1014 70 10000 1.72 109 23:36 11.04.2022
2081 Clouds 11 1014 70 10000 2.02 109 22:44 11.04.2022
2082 Clouds 12 1014 72 10000 2.17 106 21:36 11.04.2022
2083 Clouds 14 1014 72 10000 2.06 109 20:54 11.04.2022
2084 Clouds 13 1014 69 10000 2.11 111 20:28 11.04.2022
2085 Clouds 16 1014 68 10000 2.02 114 19:36 11.04.2022
2086 Clouds 15 1013 62 10000 2.8 122 19:18 11.04.2022
2087 Clouds 17 1013 62 10000 2.8 122 18:37 11.04.2022
2088 Clouds 17 1013 52 10000 3.43 125 17:44 11.04.2022
2089 Clouds 17 1014 43 10000 4.08 124 16:54 11.04.2022
2090 Clouds 16 1015 42 10000 4.09 129 15:24 11.04.2022
2091 Clouds 15 1015 45 10000 4.25 126 13:51 11.04.2022
2092 Clouds 13 1016 47 10000 4.3 124 12:44 11.04.2022
2093 Clouds 13 1017 51 10000 4.27 120 12:25 11.04.2022
2094 Clouds 10 1017 54 10000 4.33 113 10:58 11.04.2022
2095 Clouds 8 1018 59 10000 4.31 100 09:58 11.04.2022
2096 Clouds 4 1019 83 10000 1.87 68 08:24 11.04.2022
2097 Clouds 3 1019 85 10000 1.96 71 05:38 11.04.2022
2098 Clouds 3 1021 80 10000 1.3 94 00:57 11.04.2022
2099 Clouds 5 1022 79 10000 0.96 123 22:33 10.04.2022
2100 Clouds 6 1021 77 10000 1.16 126 21:55 10.04.2022
2101 Clouds 6 1021 77 10000 0.96 147 21:26 10.04.2022
2102 Clouds 8 1021 77 10000 0.96 147 20:30 10.04.2022
2103 Clouds 9 1020 73 10000 0.89 222 19:41 10.04.2022
2104 Clouds 10 1020 67 10000 1.59 255 19:18 10.04.2022
2105 Clouds 11 1020 67 10000 1.59 255 18:38 10.04.2022
2106 Clouds 11 1020 55 10000 2.19 266 17:51 10.04.2022
2107 Clouds 11 1020 55 10000 2.19 266 17:31 10.04.2022
2108 Clouds 10 1020 53 10000 2.84 278 15:56 10.04.2022
2109 Clouds 9 1021 56 10000 3.23 277 14:51 10.04.2022
2110 Clouds 9 1021 57 10000 2.95 270 13:49 10.04.2022
2111 Clouds 7 1022 60 10000 2.76 270 12:33 10.04.2022
2112 Clouds 7 1022 65 10000 2.82 259 11:46 10.04.2022
2113 Clouds 6 1022 72 10000 2.6 249 11:28 10.04.2022
2114 Clouds 5 1022 72 10000 2.6 249 10:41 10.04.2022
2115 Clouds 4 1022 77 10000 2.08 240 09:50 10.04.2022
2116 Clouds 2 1022 81 10000 1.76 224 08:56 10.04.2022
2117 Clouds 2 1022 89 10000 1.68 197 08:21 10.04.2022
2118 Clouds 1 1022 92 10000 1.69 193 06:59 10.04.2022
2119 Clear 0 1022 92 10000 1.82 200 04:42 10.04.2022
2120 Clouds 1 1021 90 10000 1.48 208 02:20 10.04.2022
2121 Clouds 2 1020 91 10000 1.48 231 23:54 09.04.2022
2122 Clouds 3 1019 91 10000 1.53 239 23:29 09.04.2022
2123 Clouds 3 1019 91 10000 1.53 239 22:39 09.04.2022
2124 Clouds 4 1018 91 10000 1.77 244 21:31 09.04.2022
2125 Clouds 4 1018 90 10000 2.11 240 20:39 09.04.2022
2126 Clouds 6 1017 88 10000 2.34 265 20:18 09.04.2022
2127 Clouds 6 1016 87 10000 2.25 263 19:41 09.04.2022
2128 Clouds 7 1015 81 10000 3.94 285 18:54 09.04.2022
2129 Rain 8 1015 79 10000 4.35 281 18:18 09.04.2022
2130 Clouds 7 1015 79 10000 4.35 281 17:32 09.04.2022
2131 Clouds 9 1015 77 10000 4.73 278 16:43 09.04.2022
2132 Rain 8 1015 78 10000 4.66 265 15:53 09.04.2022
2133 Clouds 8 1015 81 10000 4.52 253 15:27 09.04.2022
2134 Clouds 8 1015 87 10000 4.56 255 14:26 09.04.2022
2135 Rain 8 1015 91 10000 4.28 246 13:47 09.04.2022
2136 Clouds 8 1015 94 3479 4.07 250 12:59 09.04.2022
2137 Clouds 6 1015 97 3497 3.35 253 11:56 09.04.2022
2138 Clouds 5 1014 98 2122 2.8 255 10:55 09.04.2022
2139 Clouds 5 1014 98 4728 2.27 254 10:19 09.04.2022
2140 Clouds 4 1014 98 4728 2.27 254 09:37 09.04.2022
2141 Clouds 3 1013 98 10000 2.23 242 08:50 09.04.2022
2142 Clouds 2 1012 98 10000 2.3 209 06:48 09.04.2022
2143 Clouds 2 1004 99 10000 2.07 280 01:31 09.04.2022
2144 Rain 2 999 100 166 3.8 356 23:25 08.04.2022
2145 Rain 2 997 99 173 4.74 30 21:58 08.04.2022
2146 Rain 2 997 99 45 5.17 29 20:48 08.04.2022
2147 Rain 2 996 100 28 3.55 34 20:23 08.04.2022
2148 Rain 3 997 100 32 3.11 15 19:18 08.04.2022
2149 Rain 3 997 100 37 1.48 12 18:29 08.04.2022
2150 Rain 3 997 100 37 1.48 12 17:46 08.04.2022
2151 Rain 3 997 100 44 1.56 34 17:22 08.04.2022
2152 Rain 3 997 100 44 1.56 34 16:47 08.04.2022
2153 Rain 3 997 100 36 2.39 47 15:57 08.04.2022
2154 Rain 3 998 99 43 1.07 41 15:26 08.04.2022
2155 Rain 4 997 98 76 1.2 118 14:27 08.04.2022
2156 Rain 4 997 98 76 1.2 118 13:46 08.04.2022
2157 Rain 5 998 96 175 1.7 164 13:27 08.04.2022
2158 Rain 6 999 90 4657 2.32 248 11:56 08.04.2022
2159 Rain 7 1000 83 10000 3.7 229 10:33 08.04.2022
2160 Rain 7 1001 80 10000 4.4 224 09:38 08.04.2022
2161 Clouds 6 1002 83 10000 4.51 227 08:51 08.04.2022
2162 Clouds 5 1003 81 10000 5.09 245 06:55 08.04.2022
2163 Clouds 6 1003 79 10000 6.17 250 05:23 08.04.2022
2164 Clouds 8 1001 74 10000 8.84 256 01:29 08.04.2022
2165 Clouds 8 1000 70 10000 9.1 257 00:25 08.04.2022
2166 Clouds 9 999 66 10000 9.38 257 22:59 07.04.2022
2167 Clouds 9 999 66 10000 9.38 257 22:40 07.04.2022
2168 Clouds 9 998 65 10000 9.35 255 22:22 07.04.2022
2169 Clouds 9 998 65 10000 9.35 255 21:53 07.04.2022
2170 Clouds 10 996 63 10000 9.19 255 21:19 07.04.2022
2171 Clouds 10 996 63 10000 9.13 255 20:38 07.04.2022
2172 Clouds 12 994 63 10000 9.4 257 18:48 07.04.2022
2173 Clouds 12 992 67 10000 9.83 256 17:27 07.04.2022
2174 Clouds 13 992 67 10000 9.83 256 16:45 07.04.2022
2175 Clouds 12 992 73 10000 9.95 257 16:23 07.04.2022
2176 Rain 13 991 78 10000 10.3 256 15:19 07.04.2022
2177 Clouds 12 991 85 10000 10.55 251 13:51 07.04.2022
2178 Clouds 11 990 92 6667 10.99 225 13:22 07.04.2022
2179 Rain 11 991 90 10000 12.73 224 11:40 07.04.2022
2180 Clouds 10 991 91 10000 12.41 218 10:30 07.04.2022
2181 Clouds 9 993 92 10000 9.62 208 08:40 07.04.2022
2182 Clouds 9 996 89 10000 8.37 220 06:58 07.04.2022
2183 Clouds 9 998 89 10000 8.27 227 04:26 07.04.2022
2184 Clouds 9 1000 91 10000 8.55 225 02:29 07.04.2022
2185 Clouds 10 1001 89 10000 8.03 228 00:42 07.04.2022
2186 Clouds 10 1001 88 10000 7.31 229 23:21 06.04.2022
2187 Clouds 10 1001 88 10000 7.31 229 22:44 06.04.2022
2188 Clouds 10 1002 87 10000 7.22 234 21:47 06.04.2022
2189 Clouds 10 1001 85 10000 7.31 228 20:43 06.04.2022
2190 Clouds 11 1001 84 10000 6.8 226 19:59 06.04.2022
2191 Clouds 10 1002 85 10000 6.39 224 19:20 06.04.2022
2192 Clouds 10 1002 85 10000 6.39 224 18:48 06.04.2022
2193 Clouds 10 1002 81 10000 5.81 229 17:36 06.04.2022
2194 Clouds 11 1003 80 10000 6.11 233 16:39 06.04.2022
2195 Clouds 11 1004 82 10000 6.05 231 16:19 06.04.2022
2196 Clouds 11 1004 82 10000 6.05 231 15:40 06.04.2022
2197 Clouds 10 1006 81 10000 5.64 235 13:34 06.04.2022
2198 Clouds 10 1007 79 10000 6.34 237 12:30 06.04.2022
2199 Clouds 9 1008 86 10000 5.47 235 10:57 06.04.2022
2200 Clouds 9 1008 86 10000 5.47 235 10:33 06.04.2022
2201 Clouds 9 1008 84 10000 6.46 245 09:46 06.04.2022
2202 Clouds 8 1008 89 10000 5.75 242 08:59 06.04.2022
2203 Clouds 8 1008 94 10000 3.83 240 07:59 06.04.2022
2204 Clouds 9 1008 94 10000 3.65 236 05:45 06.04.2022
2205 Clouds 10 1010 96 10000 5.2 231 01:26 06.04.2022
2206 Clouds 10 1010 95 10000 5.84 234 23:50 05.04.2022
2207 Clouds 10 1010 98 1485 5.35 218 21:58 05.04.2022
2208 Clouds 10 1010 98 1650 5.14 214 21:18 05.04.2022
2209 Clouds 10 1010 98 303 5 214 20:24 05.04.2022
2210 Clouds 10 1010 98 1071 4.89 219 18:32 05.04.2022
2211 Clouds 10 1010 98 113 4.76 225 17:22 05.04.2022
2212 Clouds 9 1010 98 113 4.76 225 16:44 05.04.2022
2213 Clouds 9 1011 97 84 4.75 229 15:52 05.04.2022
2214 Clouds 9 1011 97 84 4.75 229 15:31 05.04.2022
2215 Clouds 9 1011 98 119 4.62 230 13:59 05.04.2022
2216 Clouds 8 1011 98 159 4.84 231 12:41 05.04.2022
2217 Clouds 8 1011 97 663 4.87 230 11:43 05.04.2022
2218 Clouds 7 1011 98 1932 4.89 230 11:25 05.04.2022
2219 Clouds 6 1011 98 803 5.1 231 09:41 05.04.2022
2220 Clouds 6 1011 98 600 5.14 231 08:51 05.04.2022
2221 Clouds 6 1010 97 4915 6.32 236 05:28 05.04.2022
2222 Clouds 5 1012 96 10000 7.18 234 23:51 04.04.2022
2223 Clouds 5 1012 95 10000 7.23 234 22:41 04.04.2022
2224 Clouds 5 1012 95 10000 7.18 234 21:57 04.04.2022
2225 Clouds 5 1013 93 10000 7.28 235 21:21 04.04.2022
2226 Clouds 5 1013 93 10000 7.28 235 20:48 04.04.2022
2227 Rain 5 1013 94 9625 7.5 235 19:39 04.04.2022
2228 Clouds 6 1013 90 10000 8.1 235 18:59 04.04.2022
2229 Rain 7 1013 72 10000 8.41 240 17:55 04.04.2022
2230 Rain 8 1013 69 10000 8.29 243 16:36 04.04.2022
2231 Rain 8 1013 66 10000 8.23 239 15:43 04.04.2022
2232 Rain 8 1014 61 10000 8.48 237 15:25 04.04.2022
2233 Clouds 8 1014 61 10000 8.48 237 14:45 04.04.2022
2234 Clouds 7 1016 64 10000 7.88 232 13:22 04.04.2022
2235 Clouds 6 1017 65 10000 7.63 234 11:49 04.04.2022
2236 Clouds 6 1018 68 10000 6.82 233 11:28 04.04.2022
2237 Clouds 0 1020 73 10000 4.04 224 08:36 04.04.2022
2238 Clouds -1 1022 85 10000 1.87 197 03:52 04.04.2022
2239 Clouds 2 1023 85 10000 0.89 192 00:41 04.04.2022
2240 Clear 2 1024 82 10000 0.45 170 22:40 03.04.2022
2241 Clear 3 1023 80 10000 0.31 49 21:45 03.04.2022
2242 Clear 4 1023 78 10000 0.64 46 20:55 03.04.2022
2243 Clouds 5 1022 74 10000 1.27 34 19:50 03.04.2022
2244 Clouds 6 1022 61 10000 2.47 15 18:32 03.04.2022
2245 Clouds 5 1021 51 10000 3.43 17 17:47 03.04.2022
2246 Clouds 7 1021 47 10000 3.5 18 16:59 03.04.2022
2247 Clouds 6 1021 47 10000 3.5 18 16:41 03.04.2022
2248 Clouds 6 1022 45 10000 2.96 26 14:52 03.04.2022
2249 Clouds 6 1022 45 10000 3 24 13:55 03.04.2022
2250 Clouds 4 1023 45 10000 3.06 33 12:46 03.04.2022
2251 Clouds 3 1023 47 10000 3.26 40 11:33 03.04.2022
2252 Clouds 1 1023 61 10000 2.52 33 09:39 03.04.2022
2253 Clouds -1 1023 74 10000 2.06 26 08:40 03.04.2022
2254 Clouds -2 1022 93 10000 1.67 31 05:42 03.04.2022
2255 Clouds -1 1021 89 10000 1.29 4 02:54 03.04.2022
2256 Clouds 1 1020 86 10000 3.8 30 23:22 02.04.2022
2257 Clouds 1 1020 86 10000 3.8 30 22:40 02.04.2022
2258 Clouds 2 1020 86 10000 3.94 25 21:54 02.04.2022
2259 Clouds 2 1019 84 10000 4.3 26 21:19 02.04.2022
2260 Clouds 2 1019 84 10000 4.3 26 20:35 02.04.2022
2261 Clouds 3 1017 81 10000 4.9 32 18:45 02.04.2022
2262 Clouds 3 1017 84 5316 5.03 30 18:18 02.04.2022
2263 Clouds 3 1016 76 4005 5.28 34 16:45 02.04.2022
2264 Clouds 3 1015 68 7343 6.26 39 15:27 02.04.2022
2265 Clouds 2 1015 68 7343 6.26 39 14:52 02.04.2022
2266 Rain 2 1015 68 7951 6.31 38 14:20 02.04.2022
2267 Rain 2 1015 71 8013 6.28 38 13:29 02.04.2022
2268 Clouds 1 1015 74 8942 6.31 37 11:56 02.04.2022
2269 Snow 1 1013 78 10000 6.59 33 10:22 02.04.2022
2270 Snow 0 1012 85 10000 5.53 25 07:48 02.04.2022
2271 Clouds 1 1010 88 8923 4.74 16 04:34 02.04.2022
2272 Snow 1 1010 84 10000 5.9 23 01:21 02.04.2022
2273 Clouds 1 1009 84 10000 5.7 26 23:54 01.04.2022
2274 Clouds 1 1009 85 10000 5.85 26 22:46 01.04.2022
2275 Clouds 1 1008 87 10000 5.75 24 21:22 01.04.2022
2276 Clouds 1 1008 87 10000 5.75 24 20:46 01.04.2022
2277 Clouds 1 1007 86 10000 6.19 30 19:45 01.04.2022
2278 Clouds 1 1006 82 10000 6.02 27 19:26 01.04.2022
2279 Clouds 2 1006 82 10000 6.02 27 18:37 01.04.2022
2280 Clouds 2 1005 77 10000 5.82 20 17:39 01.04.2022
2281 Clouds 2 1004 75 10000 5.68 15 16:24 01.04.2022
2282 Clouds 2 1004 73 10000 5.63 18 14:56 01.04.2022
2283 Clouds 3 1004 73 10000 4.9 20 13:56 01.04.2022
2284 Clouds 3 1004 76 10000 5.18 23 13:31 01.04.2022
2285 Clouds 3 1003 80 10000 4.97 30 12:26 01.04.2022
2286 Clouds 3 1003 91 8051 4.21 26 10:52 01.04.2022
2287 Rain 3 1002 94 8351 3.02 4 09:41 01.04.2022
2288 Clouds 3 1001 97 462 2.08 341 07:50 01.04.2022
2289 Clouds 3 1001 94 7410 2 335 05:45 01.04.2022
2290 Clouds 3 1001 93 10000 2.07 341 04:43 01.04.2022
2291 Clouds 3 1000 95 10000 1.61 335 03:19 01.04.2022
2292 Clouds 3 1000 93 10000 1.71 328 01:51 01.04.2022
2293 Clouds 4 1000 96 2153 1.87 336 22:34 31.03.2022
2294 Clouds 4 1000 97 106 2.04 338 21:44 31.03.2022
2295 Clouds 4 1000 98 53 2.17 330 20:51 31.03.2022
2296 Clouds 4 1000 98 53 2.17 330 20:51 31.03.2022
2297 Clouds 4 999 98 51 2.83 333 20:28 31.03.2022
2298 Clouds 5 999 98 51 2.83 333 19:43 31.03.2022
2299 Clouds 5 998 98 59 2.84 337 18:35 31.03.2022
2300 Clouds 6 997 97 95 2.99 341 17:25 31.03.2022
2301 Clouds 7 998 97 240 3.27 339 15:58 31.03.2022
2302 Clouds 7 998 96 1388 3.19 340 15:29 31.03.2022
2303 Clouds 7 998 96 1388 3.19 340 14:49 31.03.2022
2304 Clouds 7 998 93 6293 2.29 343 13:53 31.03.2022
2305 Rain 7 997 72 10000 1.83 65 11:31 31.03.2022
2306 Rain 6 998 79 10000 1.62 69 10:27 31.03.2022
2307 Clouds 7 998 79 10000 1.62 69 09:43 31.03.2022
2308 Clouds 7 998 88 10000 1.14 92 07:49 31.03.2022
2309 Clouds 7 999 85 10000 0.93 102 03:48 31.03.2022
2310 Clouds 8 1001 81 10000 0.99 116 23:25 30.03.2022
2311 Clouds 8 1001 78 10000 0.72 91 22:20 30.03.2022
2312 Clouds 9 1001 78 10000 0.72 91 21:32 30.03.2022
2313 Clouds 10 1001 75 10000 0.37 52 20:44 30.03.2022
2314 Clouds 11 1000 73 10000 0.43 27 19:54 30.03.2022
2315 Clouds 11 1001 71 10000 0.58 97 18:50 30.03.2022
2316 Clouds 11 1001 71 10000 0.58 97 18:50 30.03.2022
2317 Clouds 11 1001 68 10000 1.69 76 17:52 30.03.2022
2318 Clouds 11 1001 67 10000 2.64 73 17:29 30.03.2022
2319 Clouds 11 1001 67 10000 2.64 73 16:41 30.03.2022
2320 Clouds 11 1002 66 10000 2.78 53 16:19 30.03.2022
2321 Clouds 10 1002 69 10000 2.97 31 14:47 30.03.2022
2322 Rain 9 1004 88 10000 3.02 45 13:26 30.03.2022
2323 Clouds 9 1004 88 10000 3.02 45 12:32 30.03.2022
2324 Clouds 8 1004 93 10000 3.69 42 10:48 30.03.2022
2325 Rain 8 1003 95 7632 4.09 36 09:58 30.03.2022
2326 Rain 8 1003 95 10000 3.56 18 08:29 30.03.2022
2327 Rain 8 1002 94 10000 2.75 41 07:29 30.03.2022
2328 Rain 9 1003 93 10000 3.01 44 05:40 30.03.2022
2329 Rain 9 1005 92 10000 1.93 14 03:20 30.03.2022
2330 Clouds 11 1007 90 10000 2.24 54 22:56 29.03.2022
2331 Clouds 11 1007 90 10000 1.65 47 22:18 29.03.2022
2332 Clouds 12 1007 90 10000 1.65 47 21:40 29.03.2022
2333 Clouds 12 1007 88 10000 1.02 1 20:39 29.03.2022
2334 Clouds 12 1007 88 10000 0.69 358 19:35 29.03.2022
2335 Clouds 13 1007 85 10000 1.74 18 18:54 29.03.2022
2336 Clouds 14 1007 79 10000 2.6 14 18:18 29.03.2022
2337 Clouds 17 1007 69 10000 1.52 359 17:20 29.03.2022
2338 Clouds 17 1007 69 10000 1.49 358 16:55 29.03.2022
2339 Clouds 17 1008 67 10000 1.32 199 15:47 29.03.2022
2340 Clouds 17 1009 59 10000 3.13 199 14:44 29.03.2022
2341 Clouds 16 1009 55 10000 2.01 193 13:41 29.03.2022
2342 Clouds 16 1010 55 10000 1.44 157 12:46 29.03.2022
2343 Clouds 14 1011 66 10000 0.94 101 11:28 29.03.2022
2344 Clouds 12 1012 72 10000 1.05 56 10:23 29.03.2022
2345 Clouds 10 1012 77 10000 1.15 58 09:20 29.03.2022
2346 Clouds 8 1013 82 10000 1.48 56 06:54 29.03.2022
2347 Clouds 9 1015 79 10000 1.32 36 03:19 29.03.2022
2348 Clouds 11 1017 76 10000 1.25 19 23:49 28.03.2022
2349 Clouds 11 1018 74 10000 1.17 11 22:58 28.03.2022
2350 Clouds 12 1018 74 10000 1.17 11 22:39 28.03.2022
2351 Clouds 12 1018 71 10000 0.61 327 22:19 28.03.2022
2352 Clouds 15 1018 68 10000 1.01 267 20:47 28.03.2022
2353 Clouds 16 1018 65 10000 2.02 231 19:59 28.03.2022
2354 Clouds 18 1018 65 10000 2.02 231 19:40 28.03.2022
2355 Clouds 19 1018 61 10000 2.38 228 18:51 28.03.2022
2356 Clouds 20 1018 49 10000 2.71 246 18:18 28.03.2022
2357 Clouds 20 1018 49 10000 2.71 246 17:30 28.03.2022
2358 Clouds 21 1020 43 10000 3.19 255 15:48 28.03.2022
2359 Clear 20 1021 46 10000 2.62 252 14:24 28.03.2022
2360 Clear 19 1021 47 10000 2.6 251 13:35 28.03.2022
2361 Clear 17 1023 55 10000 1.81 243 11:57 28.03.2022
2362 Clear 14 1024 62 10000 1.16 234 10:49 28.03.2022
2363 Clear 9 1024 69 10000 0.72 238 09:41 28.03.2022
2364 Clear 7 1025 79 10000 0.05 139 08:49 28.03.2022
2365 Clear 7 1026 88 10000 0.31 133 08:21 28.03.2022
2366 Clear 7 1025 89 10000 0.33 115 07:27 28.03.2022
2367 Clear 10 1026 86 10000 1.15 50 03:27 28.03.2022
2368 Clear 12 1028 77 10000 1.26 60 23:24 27.03.2022
2369 Clear 13 1028 74 10000 1.17 75 22:23 27.03.2022
2370 Clear 13 1028 74 10000 1.17 75 21:41 27.03.2022
2371 Clear 15 1027 71 10000 1.35 94 20:54 27.03.2022
2372 Clear 18 1027 67 10000 1.99 117 19:46 27.03.2022
2373 Clear 19 1027 59 10000 2.22 107 18:54 27.03.2022
2374 Clear 20 1026 48 10000 2.61 90 18:26 27.03.2022
2375 Clear 20 1026 48 10000 2.61 90 17:38 27.03.2022
2376 Clear 20 1027 41 10000 2.92 70 15:59 27.03.2022
2377 Clear 20 1027 41 10000 2.92 70 15:59 27.03.2022
2378 Clear 19 1028 42 10000 3.08 65 14:55 27.03.2022
2379 Clear 18 1028 46 10000 3.21 57 13:54 27.03.2022
2380 Clear 18 1028 46 10000 3.21 57 13:54 27.03.2022
2381 Clear 15 1029 56 10000 3.53 54 11:52 27.03.2022
2382 Clear 14 1030 63 10000 2.78 50 10:47 27.03.2022
2383 Clear 8 1030 82 10000 2.12 42 08:37 27.03.2022
2384 Clear 8 1030 90 10000 2.3 46 05:45 27.03.2022
2385 Clear 9 1031 84 10000 2.55 45 00:47 27.03.2022
2386 Clear 10 1031 82 10000 2.46 46 23:34 26.03.2022
2387 Clear 11 1031 79 10000 2.44 46 22:35 26.03.2022
2388 Clear 11 1031 76 10000 2.56 41 21:33 26.03.2022
2389 Clear 12 1030 67 10000 2.32 61 20:20 26.03.2022
2390 Clear 13 1029 62 10000 2.56 60 19:19 26.03.2022
2391 Clear 17 1028 55 10000 2.9 54 17:51 26.03.2022
2392 Clear 18 1028 55 10000 2.9 54 17:30 26.03.2022
2393 Clear 18 1028 39 10000 4.61 59 16:25 26.03.2022
2394 Clear 18 1028 35 10000 5.01 60 14:51 26.03.2022
2395 Clear 18 1029 35 10000 5.03 59 13:52 26.03.2022
2396 Clear 17 1029 37 10000 5.08 59 12:44 26.03.2022
2397 Clear 15 1030 45 10000 4.99 58 11:29 26.03.2022
2398 Clear 12 1030 57 10000 3.2 55 09:23 26.03.2022
2399 Clear 9 1030 67 10000 2.67 40 08:28 26.03.2022
2400 Clear 7 1030 72 10000 2.68 39 05:54 26.03.2022
2401 Clear 5 1030 71 10000 2.29 50 03:59 26.03.2022
2402 Clear 9 1030 73 10000 2.55 46 23:39 25.03.2022
2403 Clear 10 1029 69 10000 2.26 53 21:28 25.03.2022
2404 Clear 12 1029 69 10000 2.26 53 20:45 25.03.2022
2405 Clear 14 1027 64 10000 2.51 48 19:28 25.03.2022
2406 Clear 15 1027 63 10000 2.52 48 18:47 25.03.2022
2407 Clear 17 1027 57 10000 2.75 37 17:35 25.03.2022
2408 Clear 18 1026 48 10000 3.59 38 16:41 25.03.2022
2409 Clear 18 1026 41 10000 4.22 41 15:56 25.03.2022
2410 Clear 17 1027 41 10000 4.34 45 13:58 25.03.2022
2411 Clear 17 1027 43 10000 4.08 48 12:32 25.03.2022
2412 Clear 12 1028 54 10000 2.97 39 09:55 25.03.2022
2413 Clear 10 1028 61 10000 2.41 37 09:26 25.03.2022
2414 Clear 6 1029 71 10000 1.92 31 07:51 25.03.2022
2415 Clear 5 1029 76 10000 2.12 32 07:23 25.03.2022
2416 Clear 5 1028 72 10000 1.68 32 05:23 25.03.2022
2417 Clear 7 1029 66 10000 1.8 28 00:33 25.03.2022
2418 Clear 10 1029 65 10000 1.84 31 22:30 24.03.2022
2419 Clear 10 1029 64 10000 1.96 36 21:34 24.03.2022
2420 Clear 13 1028 59 10000 2.3 37 19:50 24.03.2022
2421 Clear 16 1027 50 10000 1.51 40 18:58 24.03.2022
2422 Clear 19 1026 46 10000 0.8 12 17:45 24.03.2022
2423 Clear 19 1026 38 10000 1.14 358 16:54 24.03.2022
2424 Clear 19 1027 30 10000 1.59 359 15:21 24.03.2022
2425 Clear 19 1027 30 10000 1.59 359 14:42 24.03.2022
2426 Clear 18 1027 32 10000 1.67 5 13:59 24.03.2022
2427 Clear 18 1028 37 10000 1.92 19 12:42 24.03.2022
2428 Clear 16 1028 40 10000 2.23 29 11:33 24.03.2022
2429 Clear 12 1029 50 10000 2.09 27 09:48 24.03.2022
2430 Clear 8 1029 57 10000 1.84 28 08:40 24.03.2022
2431 Clear 6 1029 71 10000 1.46 37 06:44 24.03.2022
2432 Clear 8 1029 71 10000 1.55 37 01:43 24.03.2022
2433 Clear 9 1031 69 10000 1.46 37 22:37 23.03.2022
2434 Clear 11 1030 61 10000 1.31 1 21:25 23.03.2022
2435 Clear 11 1030 61 10000 1.31 1 21:25 23.03.2022
2436 Clear 11 1030 61 10000 1.31 1 21:25 23.03.2022
2437 Clear 11 1030 61 10000 1.31 1 20:49 23.03.2022
2438 Clear 13 1030 55 10000 0.18 282 19:45 23.03.2022
2439 Clear 17 1029 55 10000 0.85 199 18:30 23.03.2022
2440 Clear 17 1029 52 10000 0.73 228 17:36 23.03.2022
2441 Clear 19 1029 38 10000 1.22 314 16:21 23.03.2022
2442 Clear 19 1029 37 10000 1.31 317 14:50 23.03.2022
2443 Clear 18 1030 38 10000 1.43 324 14:21 23.03.2022
2444 Clear 17 1030 41 10000 1.62 329 12:45 23.03.2022
2445 Clear 10 1031 52 10000 0.77 345 09:38 23.03.2022
2446 Clear 4 1032 72 10000 0.37 70 06:41 23.03.2022
2447 Clear 5 1031 71 10000 0.3 102 04:31 23.03.2022
2448 Clear 6 1031 66 10000 0.56 92 00:29 23.03.2022
2449 Clear 8 1031 64 10000 0.75 101 22:46 22.03.2022
2450 Clear 9 1031 62 10000 1.11 114 21:29 22.03.2022
2451 Clear 10 1031 62 10000 1.11 114 20:40 22.03.2022
2452 Clear 11 1031 60 10000 1.24 129 19:41 22.03.2022
2453 Clear 12 1030 59 10000 1.41 123 19:18 22.03.2022
2454 Clear 15 1030 59 10000 1.41 123 18:31 22.03.2022
2455 Clear 17 1029 41 10000 0.94 81 17:29 22.03.2022
2456 Clear 17 1029 34 10000 0.87 73 16:21 22.03.2022
2457 Clear 17 1030 34 10000 1.01 68 15:22 22.03.2022
2458 Clear 17 1030 34 10000 1.01 68 14:46 22.03.2022
2459 Clear 17 1030 34 10000 1.13 62 14:27 22.03.2022
2460 Clear 17 1030 34 10000 1.13 62 13:35 22.03.2022
2461 Clear 15 1031 39 10000 0.89 56 11:52 22.03.2022
2462 Clear 13 1032 43 10000 0.94 74 10:40 22.03.2022
2463 Clear 8 1032 65 10000 1.28 57 08:29 22.03.2022
2464 Clear 5 1032 73 10000 1.44 62 06:53 22.03.2022
2465 Clear 8 1032 78 10000 1.37 60 03:49 22.03.2022
2466 Clear 8 1032 79 10000 1.42 66 00:28 22.03.2022
2467 Clear 10 1032 77 10000 1.39 77 22:42 21.03.2022
2468 Clear 10 1032 75 10000 1.61 104 21:18 21.03.2022
2469 Clear 12 1032 75 10000 1.61 104 20:40 21.03.2022
2470 Clear 11 1031 71 10000 1.6 104 19:58 21.03.2022
2471 Clear 14 1031 71 10000 1.6 104 19:34 21.03.2022
2472 Clear 16 1031 67 10000 0.38 91 18:31 21.03.2022
2473 Clear 18 1030 51 10000 1.21 215 17:19 21.03.2022
2474 Clear 18 1030 51 10000 1.21 215 16:51 21.03.2022
2475 Clear 18 1030 46 10000 1.91 204 16:00 21.03.2022
2476 Clear 18 1030 46 10000 2.43 197 15:20 21.03.2022
2477 Clear 17 1030 47 10000 2.8 190 14:28 21.03.2022
2478 Clouds 16 1031 54 10000 2.34 181 12:43 21.03.2022
2479 Clouds 14 1031 59 10000 2.1 178 11:54 21.03.2022
2480 Clouds 13 1031 64 10000 1.71 175 10:45 21.03.2022
2481 Clouds 9 1032 75 10000 0.9 168 09:21 21.03.2022
2482 Clouds 6 1032 90 10000 1.21 134 06:59 21.03.2022
2483 Clouds 6 1030 88 10000 1.17 122 03:29 21.03.2022
2484 Clouds 6 1030 88 10000 1.4 118 00:35 21.03.2022
2485 Clouds 6 1030 90 10000 1.48 109 22:56 20.03.2022
2486 Clouds 7 1030 90 10000 1.28 102 21:57 20.03.2022
2487 Clouds 6 1030 90 10000 1.28 102 21:30 20.03.2022
2488 Clouds 7 1030 89 10000 1.08 104 20:48 20.03.2022
2489 Clouds 7 1029 89 10000 1.07 127 20:25 20.03.2022
2490 Clouds 7 1029 89 10000 1.07 127 19:43 20.03.2022
2491 Clouds 8 1029 87 10000 1.37 131 18:48 20.03.2022
2492 Clouds 8 1028 78 10000 1.89 168 17:38 20.03.2022
2493 Clouds 10 1028 70 10000 3.33 190 16:59 20.03.2022
2494 Clouds 11 1028 68 10000 4.76 205 15:57 20.03.2022
2495 Rain 8 1028 81 10000 4.74 198 14:38 20.03.2022
2496 Clouds 9 1028 82 10000 4.83 185 13:31 20.03.2022
2497 Clouds 7 1028 87 10000 4.03 160 11:51 20.03.2022
2498 Rain 6 1027 84 10000 4.92 153 09:58 20.03.2022
2499 Clouds 4 1027 68 10000 2.64 106 08:19 20.03.2022
2500 Clouds 4 1027 68 10000 3.36 94 05:49 20.03.2022
2501 Clouds 4 1028 68 10000 5.31 64 03:18 20.03.2022
2502 Clouds 4 1030 77 10000 4.94 51 00:53 20.03.2022
2503 Clouds 5 1031 77 10000 4.87 61 23:37 19.03.2022
2504 Clear 6 1032 74 10000 5.01 60 22:25 19.03.2022
2505 Clear 6 1033 64 10000 5.07 58 21:26 19.03.2022
2506 Clear 8 1033 51 10000 5.61 58 19:22 19.03.2022
2507 Clear 9 1033 50 10000 5.63 57 18:38 19.03.2022
2508 Clear 10 1033 46 10000 6.16 60 17:49 19.03.2022
2509 Clear 12 1033 44 10000 6.89 58 16:46 19.03.2022
2510 Clear 13 1034 34 10000 7.04 62 15:29 19.03.2022
2511 Clear 13 1035 39 10000 7.12 64 13:49 19.03.2022
2512 Clear 12 1036 44 10000 7.03 67 12:56 19.03.2022
2513 Clear 12 1036 45 10000 7.11 66 12:36 19.03.2022
2514 Clear 11 1037 50 10000 7.11 68 11:45 19.03.2022
2515 Clear 8 1039 64 10000 6.02 64 09:23 19.03.2022
2516 Clear 5 1039 68 10000 4.64 61 05:44 19.03.2022
2517 Clear 5 1039 68 10000 4.64 61 05:44 19.03.2022
2518 Clear 6 1039 70 10000 5.62 64 02:34 19.03.2022
2519 Clear 7 1040 67 10000 5.98 65 00:32 19.03.2022
2520 Clear 8 1041 61 10000 6.58 61 22:59 18.03.2022
2521 Clear 9 1041 58 10000 6.85 59 22:22 18.03.2022
2522 Clear 9 1041 56 10000 6.43 56 20:40 18.03.2022
2523 Clear 10 1040 55 10000 6.13 56 19:48 18.03.2022
2524 Clear 11 1039 52 10000 6.4 56 19:19 18.03.2022
2525 Clear 14 1039 44 10000 7.36 51 17:27 18.03.2022
2526 Clear 14 1039 44 10000 7.36 51 16:42 18.03.2022
2527 Clear 13 1038 40 10000 7.18 53 14:30 18.03.2022
2528 Clear 13 1039 38 10000 7.5 50 13:41 18.03.2022
2529 Clouds 11 1039 40 10000 6.81 52 12:18 18.03.2022
2530 Clouds 8 1040 45 10000 6.28 59 10:38 18.03.2022
2531 Clouds 6 1040 65 10000 5.22 43 09:21 18.03.2022
2532 Clouds 4 1040 79 10000 4.17 41 07:45 18.03.2022
2533 Clouds 4 1039 91 10000 2.94 36 05:46 18.03.2022
2534 Clouds 4 1037 89 10000 2.57 32 02:50 18.03.2022
2535 Clouds 5 1037 86 10000 2.55 23 00:21 18.03.2022
2536 Clouds 5 1037 85 10000 2.56 22 22:56 17.03.2022
2537 Clouds 6 1036 84 10000 2.34 21 22:22 17.03.2022
2538 Clouds 6 1036 84 10000 2.34 21 21:47 17.03.2022
2539 Clouds 6 1035 83 10000 2.31 19 21:19 17.03.2022
2540 Clouds 6 1035 83 10000 2.31 19 20:41 17.03.2022
2541 Clouds 7 1034 80 10000 2.21 29 19:45 17.03.2022
2542 Clouds 8 1033 76 10000 2.74 40 18:57 17.03.2022
2543 Clouds 9 1032 70 10000 3.73 31 17:56 17.03.2022
2544 Clouds 10 1031 64 10000 4.41 23 16:43 17.03.2022
2545 Clouds 10 1031 60 10000 5.32 18 15:44 17.03.2022
2546 Clouds 10 1030 60 10000 5.48 8 15:23 17.03.2022
2547 Clouds 10 1029 59 10000 5.49 3 13:50 17.03.2022
2548 Clouds 9 1029 67 10000 4.95 357 12:49 17.03.2022
2549 Clouds 9 1029 76 10000 4.79 356 12:21 17.03.2022
2550 Clouds 9 1029 86 10000 3.92 349 11:25 17.03.2022
2551 Rain 9 1028 90 10000 3.43 344 09:57 17.03.2022
2552 Clouds 9 1027 93 10000 3.35 336 08:34 17.03.2022
2553 Clouds 9 1027 93 10000 3.35 336 08:34 17.03.2022
2554 Clouds 8 1026 97 10000 1.73 304 07:33 17.03.2022
2555 Clouds 8 1024 93 10000 0.35 227 05:47 17.03.2022
2556 Clouds 9 1022 90 10000 0.43 112 00:46 17.03.2022
2557 Clouds 10 1022 91 10000 1.15 87 23:45 16.03.2022
2558 Clouds 9 1022 91 10000 1.4 81 22:45 16.03.2022
2559 Clouds 9 1021 90 10000 1.46 88 22:21 16.03.2022
2560 Clouds 9 1021 90 10000 1.46 88 21:37 16.03.2022
2561 Clouds 9 1022 91 10000 1.85 97 19:41 16.03.2022
2562 Clouds 10 1022 89 10000 1.97 90 19:20 16.03.2022
2563 Clouds 10 1021 87 10000 2.22 87 18:36 16.03.2022
2564 Clouds 10 1021 79 10000 3 98 17:41 16.03.2022
2565 Clouds 10 1021 73 10000 3.64 108 17:19 16.03.2022
2566 Clouds 11 1021 69 10000 4.14 116 15:55 16.03.2022
2567 Clouds 10 1023 69 10000 3.12 124 14:25 16.03.2022
2568 Clouds 10 1023 69 10000 3.12 124 13:31 16.03.2022
2569 Clouds 9 1024 76 10000 3.05 112 11:56 16.03.2022
2570 Clouds 8 1024 81 10000 2.18 109 11:21 16.03.2022
2571 Clouds 7 1024 83 10000 1.6 105 10:23 16.03.2022
2572 Clouds 6 1024 87 10000 1.48 88 08:53 16.03.2022
2573 Clouds 5 1025 95 10000 1.15 95 06:27 16.03.2022
2574 Clouds 5 1025 95 10000 1.27 97 01:45 16.03.2022
2575 Clouds 6 1025 96 10000 1.71 75 22:41 15.03.2022
2576 Clouds 6 1025 96 10000 1.79 64 21:55 15.03.2022
2577 Clouds 7 1025 96 10000 1.54 51 20:33 15.03.2022
2578 Clouds 7 1024 98 10000 1.62 3 18:58 15.03.2022
2579 Clouds 8 1022 97 10000 0.52 289 16:59 15.03.2022
2580 Rain 8 1022 97 10000 0.52 289 16:32 15.03.2022
2581 Rain 7 1022 98 4625 0.89 47 15:21 15.03.2022
2582 Rain 7 1022 98 4625 0.89 47 15:21 15.03.2022
2583 Rain 8 1022 98 4625 0.89 47 14:40 15.03.2022
2584 Rain 7 1022 97 3884 1.42 28 13:46 15.03.2022
2585 Rain 6 1024 94 10000 2.78 109 12:24 15.03.2022
2586 Rain 6 1024 94 10000 2.78 109 11:31 15.03.2022
2587 Rain 6 1025 95 7394 1.96 58 09:46 15.03.2022
2588 Rain 6 1026 90 8551 1.21 101 08:42 15.03.2022
2589 Rain 6 1027 86 10000 1.19 96 07:52 15.03.2022
2590 Rain 6 1027 86 10000 1.19 96 07:32 15.03.2022
2591 Clouds 7 1028 82 10000 1.04 87 04:20 15.03.2022
2592 Clouds 5 1030 81 10000 1.14 72 23:57 14.03.2022
2593 Clouds 6 1031 82 10000 1.2 93 23:24 14.03.2022
2594 Clouds 6 1031 82 10000 1.2 93 22:30 14.03.2022
2595 Clouds 6 1031 82 10000 1.31 113 21:35 14.03.2022
2596 Clouds 7 1030 83 10000 1.43 99 20:54 14.03.2022
2597 Clouds 7 1030 84 10000 1.52 92 20:20 14.03.2022
2598 Clouds 10 1029 83 10000 1.69 68 18:55 14.03.2022
2599 Clouds 12 1029 78 10000 1.29 18 17:55 14.03.2022
2600 Clouds 12 1028 66 10000 2.27 321 17:24 14.03.2022
2601 Clouds 13 1028 64 10000 3.04 287 16:18 14.03.2022
2602 Clouds 12 1028 64 10000 3.6 273 14:41 14.03.2022
2603 Clouds 11 1028 71 10000 3.85 254 12:54 14.03.2022
2604 Clouds 8 1028 81 10000 4.66 242 10:54 14.03.2022
2605 Clouds 8 1027 90 10000 4.1 231 09:56 14.03.2022
2606 Clouds 7 1026 92 10000 4.55 227 09:22 14.03.2022
2607 Clouds 7 1026 92 10000 4.55 227 08:57 14.03.2022
2608 Clouds 7 1025 93 10000 3.76 213 07:43 14.03.2022
2609 Clouds 7 1024 93 10000 4.39 233 05:46 14.03.2022
2610 Rain 8 1022 94 10000 3.07 227 02:51 14.03.2022
2611 Clouds 8 1019 91 10000 3.35 225 01:29 14.03.2022
2612 Rain 9 1018 96 10000 2.4 237 23:25 13.03.2022
2613 Rain 9 1017 92 10000 1.77 263 21:40 13.03.2022
2614 Rain 10 1016 88 10000 1.04 289 21:19 13.03.2022
2615 Rain 10 1016 88 10000 1.04 289 20:43 13.03.2022
2616 Rain 10 1015 85 10000 1.24 325 20:20 13.03.2022
2617 Rain 11 1015 85 10000 1.24 325 19:40 13.03.2022
2618 Clouds 11 1015 78 10000 1.21 227 19:19 13.03.2022
2619 Clouds 12 1015 78 10000 1.21 227 18:40 13.03.2022
2620 Clouds 11 1014 61 10000 2.92 119 17:48 13.03.2022
2621 Rain 13 1014 58 10000 3.42 114 17:22 13.03.2022
2622 Clouds 13 1014 58 10000 3.42 114 16:44 13.03.2022
2623 Clouds 14 1013 55 10000 4.25 129 16:20 13.03.2022
2624 Clouds 14 1013 55 10000 4.25 129 15:34 13.03.2022
2625 Clouds 15 1013 51 10000 1.94 163 13:53 13.03.2022
2626 Clouds 15 1014 52 10000 1.98 206 13:26 13.03.2022
2627 Clouds 15 1014 53 10000 1.41 190 12:20 13.03.2022
2628 Clouds 14 1014 53 10000 1.41 190 11:36 13.03.2022
2629 Clouds 11 1014 58 10000 1.23 146 10:48 13.03.2022
2630 Clouds 11 1015 64 10000 1.5 104 10:25 13.03.2022
2631 Clouds 10 1015 64 10000 1.5 104 09:41 13.03.2022
2632 Clouds 7 1015 70 10000 1.57 99 08:48 13.03.2022
2633 Clouds 6 1016 76 10000 1.32 152 07:57 13.03.2022
2634 Clouds 6 1015 75 10000 0.97 145 05:59 13.03.2022
2635 Clouds 5 1015 72 10000 1.18 83 03:33 13.03.2022
2636 Clouds 7 1016 80 10000 1.6 70 00:48 13.03.2022
2637 Clouds 9 1017 81 10000 1.61 77 22:48 12.03.2022
2638 Clouds 9 1017 80 10000 2.08 110 20:59 12.03.2022
2639 Clouds 10 1017 80 10000 2.41 116 19:58 12.03.2022
2640 Clouds 9 1017 80 10000 2.41 116 19:39 12.03.2022
2641 Clouds 11 1017 78 10000 2.42 124 18:34 12.03.2022
2642 Clouds 12 1017 70 10000 2.4 137 17:46 12.03.2022
2643 Clouds 14 1017 59 10000 3.63 166 16:28 12.03.2022
2644 Clouds 14 1017 59 10000 3.63 166 15:40 12.03.2022
2645 Clouds 13 1017 56 10000 3.61 177 15:18 12.03.2022
2646 Clouds 13 1018 58 10000 3.32 183 13:53 12.03.2022
2647 Clouds 12 1019 65 10000 3.64 181 12:27 12.03.2022
2648 Clouds 11 1019 65 10000 3.64 181 11:52 12.03.2022
2649 Clouds 11 1019 68 10000 3.44 179 11:20 12.03.2022
2650 Clouds 10 1019 73 10000 3.14 183 09:59 12.03.2022
2651 Clouds 10 1019 73 10000 3.14 183 09:40 12.03.2022
2652 Clouds 8 1019 87 10000 2.98 164 07:52 12.03.2022
2653 Clouds 8 1018 85 10000 3.97 184 05:46 12.03.2022
2654 Clouds 9 1017 69 10000 1.6 120 00:27 12.03.2022
2655 Clouds 9 1017 69 10000 1.6 120 23:38 11.03.2022
2656 Clouds 9 1016 65 10000 1.29 129 21:55 11.03.2022
2657 Clouds 9 1016 62 10000 1.88 100 21:23 11.03.2022
2658 Clouds 10 1016 62 10000 1.88 100 20:42 11.03.2022
2659 Clouds 10 1016 61 10000 1.86 117 20:19 11.03.2022
2660 Clouds 10 1016 61 10000 2.42 121 19:29 11.03.2022
2661 Clouds 12 1015 59 10000 3.49 121 17:50 11.03.2022
2662 Clouds 13 1015 54 10000 4.37 123 17:21 11.03.2022
2663 Clouds 14 1015 48 10000 4.79 138 15:57 11.03.2022
2664 Clouds 14 1015 44 10000 5.43 138 15:29 11.03.2022
2665 Clouds 13 1016 48 10000 5.66 129 13:28 11.03.2022
2666 Clouds 12 1016 49 10000 5.02 127 12:30 11.03.2022
2667 Clouds 12 1017 53 10000 4.36 128 11:57 11.03.2022
2668 Clouds 9 1017 55 10000 2.95 128 10:30 11.03.2022
2669 Clouds 6 1018 58 10000 1.93 105 09:33 11.03.2022
2670 Clouds 4 1019 76 10000 1.77 102 08:27 11.03.2022
2671 Clouds 4 1019 76 10000 1.77 102 07:46 11.03.2022
2672 Clouds 4 1019 82 10000 1.88 100 06:26 11.03.2022
2673 Clear 6 1019 74 10000 1.89 98 04:28 11.03.2022
2674 Clear 6 1020 67 10000 2.22 106 01:20 11.03.2022
2675 Clear 8 1021 64 10000 2.72 105 22:32 10.03.2022
2676 Clear 8 1021 63 10000 2.78 105 21:53 10.03.2022
2677 Clear 8 1021 64 10000 2.71 97 21:24 10.03.2022
2678 Clear 8 1021 64 10000 2.71 97 21:24 10.03.2022
2679 Clear 9 1021 64 10000 2.42 90 20:18 10.03.2022
2680 Clear 10 1021 63 10000 2.26 89 19:20 10.03.2022
2681 Clear 15 1021 58 10000 2.74 99 17:50 10.03.2022
2682 Clear 15 1021 50 10000 3.92 109 16:52 10.03.2022
2683 Clear 16 1022 39 10000 4.45 117 15:28 10.03.2022
2684 Clouds 15 1022 39 10000 4.13 119 13:42 10.03.2022
2685 Clear 13 1023 39 10000 3.56 119 12:38 10.03.2022
2686 Clear 11 1024 44 10000 1.97 104 11:28 10.03.2022
2687 Clear 8 1025 49 10000 1.33 80 09:42 10.03.2022
2688 Clear 3 1026 65 10000 1.2 69 08:23 10.03.2022
2689 Clear 2 1025 74 10000 1.09 80 05:32 10.03.2022
2690 Clear 3 1025 77 10000 1.05 90 02:33 10.03.2022
2691 Clear 3 1025 75 10000 1.18 100 23:32 09.03.2022
2692 Clear 4 1025 74 10000 1.31 112 22:28 09.03.2022
2693 Clear 4 1025 74 10000 1.31 112 21:47 09.03.2022
2694 Clear 5 1025 74 10000 1.76 111 20:44 09.03.2022
2695 Clear 10 1024 73 10000 1.73 130 18:50 09.03.2022
2696 Clear 12 1023 58 10000 1.54 181 17:28 09.03.2022
2697 Clear 13 1023 58 10000 1.54 181 16:45 09.03.2022
2698 Clear 13 1023 47 10000 2.1 185 15:37 09.03.2022
2699 Clear 12 1023 44 10000 2.38 175 14:23 09.03.2022
2700 Clear 12 1023 43 10000 2.23 173 13:25 09.03.2022
2701 Clear 10 1024 42 10000 1.68 173 12:20 09.03.2022
2702 Clear 9 1024 42 10000 1.68 173 11:45 09.03.2022
2703 Clear 8 1025 42 10000 1.15 163 10:54 09.03.2022
2704 Clear 3 1025 51 10000 0.73 128 09:25 09.03.2022
2705 Clear 2 1025 51 10000 0.73 128 08:43 09.03.2022
2706 Clear 0 1024 66 10000 0.79 110 05:36 09.03.2022
2707 Clear 0 1023 66 10000 1.38 91 00:56 09.03.2022
2708 Clear 0 1024 66 10000 1.53 89 23:46 08.03.2022
2709 Clear 1 1023 65 10000 1.42 90 22:45 08.03.2022
2710 Clear 2 1023 63 10000 1.33 92 21:46 08.03.2022
2711 Clear 2 1022 61 10000 1.73 98 21:19 08.03.2022
2712 Clear 3 1022 61 10000 1.94 102 20:19 08.03.2022
2713 Clear 6 1022 59 10000 2.02 104 18:57 08.03.2022
2714 Clear 7 1021 53 10000 2.78 114 18:21 08.03.2022
2715 Clear 9 1020 45 10000 4.16 117 16:40 08.03.2022
2716 Clear 9 1020 36 10000 5.16 125 14:36 08.03.2022
2717 Clear 9 1020 35 10000 5.51 121 13:39 08.03.2022
2718 Clear 8 1021 36 10000 5.95 115 12:20 08.03.2022
2719 Clear 7 1021 36 10000 5.95 115 11:42 08.03.2022
2720 Clear 5 1022 46 10000 6.1 112 10:28 08.03.2022
2721 Clear 2 1022 49 10000 5.8 106 08:56 08.03.2022
2722 Clear 0 1022 54 10000 3.77 98 05:51 08.03.2022
2723 Clear 0 1023 53 10000 4.5 98 02:37 08.03.2022
2724 Clear 1 1024 56 10000 3.8 98 22:43 07.03.2022
2725 Clear 1 1025 57 10000 4.02 94 21:44 07.03.2022
2726 Clear 1 1025 60 10000 3.64 90 21:22 07.03.2022
2727 Clear 1 1025 60 10000 3.64 90 20:33 07.03.2022
2728 Clear 2 1025 60 10000 3.34 86 19:49 07.03.2022
2729 Clear 2 1025 57 10000 3.62 82 19:20 07.03.2022
2730 Clear 3 1024 51 10000 4.32 83 18:29 07.03.2022
2731 Clear 5 1024 51 10000 4.32 83 17:31 07.03.2022
2732 Clear 5 1023 45 10000 4.83 82 16:43 07.03.2022
2733 Clear 5 1023 37 10000 5.79 87 14:51 07.03.2022
2734 Clear 3 1024 36 10000 6.03 82 12:34 07.03.2022
2735 Clear 2 1025 38 10000 5.84 80 11:34 07.03.2022
2736 Clear 1 1026 42 10000 6 77 10:31 07.03.2022
2737 Clear -1 1026 60 10000 5.07 71 08:35 07.03.2022
2738 Clouds -1 1026 88 10000 2.56 42 02:50 07.03.2022
2739 Clouds 0 1026 83 10000 3.17 47 00:20 07.03.2022
2740 Clouds 1 1025 78 10000 3.41 47 23:26 06.03.2022
2741 Clouds 2 1025 72 10000 3.17 44 22:29 06.03.2022
2742 Clouds 3 1025 72 10000 3.17 44 21:44 06.03.2022
2743 Clouds 3 1024 67 10000 1.61 54 20:29 06.03.2022
2744 Clouds 3 1024 67 10000 1.61 54 20:29 06.03.2022
2745 Clouds 3 1024 67 10000 1.61 54 19:43 06.03.2022
2746 Clouds 4 1023 64 10000 1.71 75 18:51 06.03.2022
2747 Clear 6 1022 59 10000 1.91 51 17:49 06.03.2022
2748 Clear 6 1022 49 10000 3.48 48 17:20 06.03.2022
2749 Clear 7 1022 49 10000 3.48 48 16:40 06.03.2022
2750 Clear 7 1022 42 10000 4.49 43 15:37 06.03.2022
2751 Clear 7 1022 39 10000 4.32 41 14:48 06.03.2022
2752 Clear 7 1023 39 10000 4.23 43 14:26 06.03.2022
2753 Clear 6 1023 39 10000 4.23 50 12:40 06.03.2022
2754 Clear 5 1023 40 10000 4.09 54 11:56 06.03.2022
2755 Clear 4 1024 43 10000 4.03 58 10:43 06.03.2022
2756 Clear 2 1024 56 10000 2.56 55 09:25 06.03.2022
2757 Clear -1 1024 68 10000 1.93 41 08:28 06.03.2022
2758 Clear -1 1024 68 10000 1.93 41 07:33 06.03.2022
2759 Clear -2 1023 72 10000 1.91 51 03:58 06.03.2022
2760 Clear 0 1023 69 10000 1.73 47 00:42 06.03.2022
2761 Clear 0 1022 68 10000 1.64 58 00:23 06.03.2022
2762 Clear 0 1022 68 10000 1.55 67 23:19 05.03.2022
2763 Clear 1 1022 68 10000 1.55 67 22:42 05.03.2022
2764 Clear 1 1022 68 10000 1.64 78 21:36 05.03.2022
2765 Clear 2 1022 67 10000 1.79 88 20:57 05.03.2022
2766 Clear 3 1021 65 10000 2.53 108 19:23 05.03.2022
2767 Clear 5 1021 65 10000 2.53 108 18:50 05.03.2022
2768 Clear 7 1020 60 10000 2.65 96 17:41 05.03.2022
2769 Clear 9 1019 39 10000 2.27 68 16:20 05.03.2022
2770 Clear 9 1019 39 10000 2.27 68 15:30 05.03.2022
2771 Clear 9 1019 37 10000 1.93 72 14:42 05.03.2022
2772 Clear 9 1020 37 10000 1.89 93 14:24 05.03.2022
2773 Clear 8 1020 38 10000 2.06 110 12:59 05.03.2022
2774 Clear 6 1020 42 10000 1.71 107 11:43 05.03.2022
2775 Clear 5 1021 47 10000 1.62 103 11:18 05.03.2022
2776 Clear 3 1021 54 10000 1.16 83 09:58 05.03.2022
2777 Clear 0 1021 61 10000 1.15 69 08:49 05.03.2022
2778 Clear -2 1021 71 10000 1.23 61 07:37 05.03.2022
2779 Clear -1 1021 76 10000 1.52 47 05:42 05.03.2022
2780 Clear 0 1021 69 10000 1.4 63 01:30 05.03.2022
2781 Clear 1 1021 67 10000 1.46 58 23:35 04.03.2022
2782 Clear 2 1021 65 10000 1.46 68 22:41 04.03.2022
2783 Clear 2 1021 63 10000 1.49 75 21:47 04.03.2022
2784 Clear 3 1021 63 10000 1.5 84 20:51 04.03.2022
2785 Clear 4 1021 64 10000 1.82 92 20:21 04.03.2022
2786 Clear 5 1021 64 10000 1.82 92 19:35 04.03.2022
2787 Clear 7 1020 64 10000 2.25 98 18:37 04.03.2022
2788 Clear 9 1020 59 10000 2.49 88 17:30 04.03.2022
2789 Clear 10 1019 49 10000 3.21 80 16:43 04.03.2022
2790 Clear 11 1019 37 10000 3.36 75 15:28 04.03.2022
2791 Clear 10 1019 36 10000 2.98 78 14:19 04.03.2022
2792 Clear 10 1020 37 10000 2.78 82 13:26 04.03.2022
2793 Clear 7 1020 39 10000 2.67 73 11:41 04.03.2022
2794 Clear 5 1020 44 10000 2.51 72 10:42 04.03.2022
2795 Clear 3 1021 52 10000 2.09 69 09:42 04.03.2022
2796 Clear 1 1021 63 10000 1.85 56 08:36 04.03.2022
2797 Clear 0 1021 74 10000 1.87 48 07:34 04.03.2022
2798 Clear 1 1020 77 10000 1.96 50 03:53 04.03.2022
2799 Clear 2 1020 64 10000 1.74 62 00:24 04.03.2022
2800 Clear 2 1019 59 10000 1.75 64 22:26 03.03.2022
2801 Clear 3 1019 59 10000 1.75 64 21:42 03.03.2022
2802 Clear 4 1019 61 10000 1.7 75 21:24 03.03.2022
2803 Clear 5 1018 65 10000 1.71 86 19:52 03.03.2022
2804 Clear 8 1018 67 10000 2.04 87 18:54 03.03.2022
2805 Clear 9 1017 62 10000 2.4 66 18:24 03.03.2022
2806 Clear 11 1017 62 10000 2.4 66 17:30 03.03.2022
2807 Clear 13 1016 42 10000 1.95 24 16:24 03.03.2022
2808 Clear 12 1016 40 10000 1.69 19 15:23 03.03.2022
2809 Clear 12 1016 40 10000 1.69 19 14:43 03.03.2022
2810 Clear 12 1016 39 10000 1.33 14 14:20 03.03.2022
2811 Clear 12 1016 39 10000 1.33 14 14:20 03.03.2022
2812 Clear 12 1016 39 10000 1.33 14 14:20 03.03.2022
2813 Clear 9 1018 43 10000 1.37 41 12:22 03.03.2022
2814 Clear 7 1018 46 10000 1.06 33 10:48 03.03.2022
2815 Clear 3 1019 50 10000 0.54 29 09:41 03.03.2022
2816 Clear 0 1020 64 10000 1.15 71 07:50 03.03.2022
2817 Clear 0 1019 65 10000 0.93 83 06:37 03.03.2022
2818 Clear 1 1020 68 10000 0.86 75 03:21 03.03.2022
2819 Clouds 2 1021 68 10000 0.95 88 23:39 02.03.2022
2820 Clouds 2 1022 68 10000 1.02 96 22:53 02.03.2022
2821 Clouds 3 1022 67 10000 0.96 108 21:35 02.03.2022
2822 Clouds 3 1021 67 10000 1.26 134 20:57 02.03.2022
2823 Clouds 4 1021 66 10000 1.36 145 20:25 02.03.2022
2824 Clouds 4 1021 66 10000 1.36 145 19:37 02.03.2022
2825 Clouds 5 1021 62 10000 1.11 134 18:57 02.03.2022
2826 Clouds 6 1021 57 10000 0.65 112 18:26 02.03.2022
2827 Clouds 8 1021 57 10000 0.65 112 17:37 02.03.2022
2828 Clouds 9 1021 51 10000 0.56 35 16:51 02.03.2022
2829 Clouds 9 1021 37 10000 0.74 48 15:20 02.03.2022
2830 Clouds 8 1022 38 10000 0.71 64 13:35 02.03.2022
2831 Clouds 8 1022 39 10000 0.97 82 12:45 02.03.2022
2832 Clouds 7 1023 41 10000 1.37 53 12:24 02.03.2022
2833 Clouds 6 1023 44 10000 1.26 48 11:26 02.03.2022
2834 Clouds 4 1023 44 10000 1.26 48 10:31 02.03.2022
2835 Clouds 3 1024 47 10000 0.72 60 09:35 02.03.2022
2836 Clouds 1 1024 53 10000 0.88 51 08:34 02.03.2022
2837 Snow 0 1025 57 10000 0.94 61 07:23 02.03.2022
2838 Clouds 1 1025 58 10000 1.33 63 04:51 02.03.2022
2839 Clouds 2 1027 62 10000 1.38 59 00:40 02.03.2022
2840 Clouds 2 1028 62 10000 0.95 78 23:27 01.03.2022
2841 Clouds 3 1028 62 10000 0.95 78 22:38 01.03.2022
2842 Clouds 3 1028 63 10000 1.12 90 21:44 01.03.2022
2843 Clouds 5 1028 63 10000 1.31 100 20:40 01.03.2022
2844 Clouds 5 1028 61 10000 1.17 103 20:20 01.03.2022
2845 Clouds 6 1027 60 10000 0.94 115 18:58 01.03.2022
2846 Clouds 7 1027 58 10000 0.76 123 18:25 01.03.2022
2847 Clouds 8 1027 58 10000 0.76 123 17:54 01.03.2022
2848 Clouds 9 1027 53 10000 0.92 114 16:39 01.03.2022
2849 Clouds 10 1027 44 10000 0.74 106 15:49 01.03.2022
2850 Clouds 10 1027 40 10000 1.43 103 14:54 01.03.2022
2851 Clouds 10 1027 40 10000 1.43 103 14:33 01.03.2022
2852 Clouds 9 1028 39 10000 1.56 101 13:26 01.03.2022
2853 Clouds 8 1028 37 10000 1.9 104 12:38 01.03.2022
2854 Clouds 7 1029 38 10000 1.67 96 11:44 01.03.2022
2855 Clouds 4 1029 48 10000 1.78 90 09:53 01.03.2022
2856 Clouds 1 1029 58 10000 1.29 71 08:31 01.03.2022
2857 Clouds 1 1029 67 10000 1.62 87 07:32 01.03.2022
2858 Clear 1 1030 72 10000 1.58 69 03:29 01.03.2022
2859 Clear 1 1030 70 10000 1.64 69 00:58 01.03.2022
2860 Clear 2 1030 70 10000 1.75 75 23:47 28.02.2022
2861 Clear 2 1031 69 10000 1.7 65 22:51 28.02.2022
2862 Clear 3 1031 67 10000 1.48 63 21:48 28.02.2022
2863 Clear 3 1031 67 10000 1.48 63 21:48 28.02.2022
2864 Clear 4 1031 65 10000 1.67 81 20:56 28.02.2022
2865 Clear 5 1030 66 10000 1.9 101 19:51 28.02.2022
2866 Clear 5 1030 64 10000 1.69 101 19:22 28.02.2022
2867 Clear 7 1030 64 10000 1.74 98 18:35 28.02.2022
2868 Clear 9 1029 52 10000 2.55 112 17:23 28.02.2022
2869 Clear 11 1029 52 10000 2.55 112 16:32 28.02.2022
2870 Clear 11 1029 36 10000 4.09 118 15:23 28.02.2022
2871 Clear 10 1029 36 10000 4.09 118 14:30 28.02.2022
2872 Clear 9 1030 35 10000 3.53 117 13:34 28.02.2022
2873 Clear 8 1030 35 10000 3.66 115 12:31 28.02.2022
2874 Clear 7 1031 36 10000 3.48 117 11:40 28.02.2022
2875 Clear 5 1031 38 10000 2.46 112 10:44 28.02.2022
2876 Clear 4 1031 46 10000 2.63 107 10:19 28.02.2022
2877 Clear 4 1031 46 10000 2.63 107 09:30 28.02.2022
2878 Clear 1 1031 71 10000 1.68 66 08:29 28.02.2022
2879 Clear -1 1031 75 10000 1.98 78 07:19 28.02.2022
2880 Clear 0 1031 75 10000 1.82 75 04:31 28.02.2022
2881 Clear 1 1031 75 10000 1.86 65 03:58 28.02.2022
2882 Clear 3 1032 71 10000 2.03 82 23:27 27.02.2022
2883 Clear 3 1032 71 10000 2.03 82 22:33 27.02.2022
2884 Clear 3 1032 70 10000 2.2 89 21:49 27.02.2022
2885 Clear 4 1032 69 10000 2.71 96 20:59 27.02.2022
2886 Clear 4 1031 69 10000 2.57 93 20:27 27.02.2022
2887 Clear 4 1031 69 10000 2.57 93 19:57 27.02.2022
2888 Clear 5 1031 67 10000 2.58 90 19:26 27.02.2022
2889 Clear 6 1031 68 10000 2.48 87 18:47 27.02.2022
2890 Clear 7 1030 62 10000 3.21 92 17:55 27.02.2022
2891 Clear 9 1030 54 10000 4.29 100 16:54 27.02.2022
2892 Clear 9 1030 50 10000 4.45 103 16:21 27.02.2022
2893 Clear 9 1031 44 10000 5.86 112 13:25 27.02.2022
2894 Clear 8 1031 44 10000 5.75 109 12:32 27.02.2022
2895 Clear 6 1031 53 10000 6.04 110 10:56 27.02.2022
2896 Clear 5 1031 59 10000 5.62 106 10:20 27.02.2022
2897 Clear 4 1031 59 10000 5.62 106 09:50 27.02.2022
2898 Clear 3 1031 66 10000 4.74 102 09:20 27.02.2022
2899 Clear 1 1031 74 10000 3.36 92 08:20 27.02.2022
2900 Clear 1 1031 77 10000 3 82 05:38 27.02.2022
2901 Clear 1 1031 77 10000 3 82 05:38 27.02.2022
2902 Clear 1 1031 80 10000 2.84 80 02:35 27.02.2022
2903 Clear 2 1033 80 10000 2.58 76 23:30 26.02.2022
2904 Clear 2 1033 80 10000 2.58 76 23:30 26.02.2022
2905 Clear 2 1033 81 10000 2.52 76 22:31 26.02.2022
2906 Clear 3 1033 78 10000 2.63 84 21:18 26.02.2022
2907 Clear 3 1033 79 10000 2.31 94 20:27 26.02.2022
2908 Clear 3 1033 79 10000 2.31 94 19:52 26.02.2022
2909 Clear 3 1033 79 10000 2.31 94 19:31 26.02.2022
2910 Clear 6 1032 71 10000 2.59 95 17:55 26.02.2022
2911 Clear 7 1032 60 10000 2.8 86 17:29 26.02.2022
2912 Clear 8 1032 60 10000 2.8 86 16:33 26.02.2022
2913 Clear 8 1033 50 10000 3.2 72 15:26 26.02.2022
2914 Clear 7 1033 50 10000 3.2 72 14:57 26.02.2022
2915 Clear 7 1033 50 10000 3.2 72 14:38 26.02.2022
2916 Clear 6 1033 51 10000 3.05 66 13:46 26.02.2022
2917 Clouds 6 1034 55 10000 3.01 65 12:53 26.02.2022
2918 Clouds 5 1034 58 10000 3.07 65 11:39 26.02.2022
2919 Clouds 3 1035 64 10000 2.57 68 10:59 26.02.2022
2920 Clouds 1 1035 80 10000 0.78 37 09:28 26.02.2022
2921 Clouds 0 1035 87 10000 0.8 37 08:21 26.02.2022
2922 Clouds 0 1034 92 10000 0.38 37 04:22 26.02.2022
2923 Clear 1 1032 93 10000 0.73 296 23:50 25.02.2022
2924 Clear 2 1032 92 10000 0.98 297 22:31 25.02.2022
2925 Clear 2 1031 92 10000 1.18 292 21:31 25.02.2022
2926 Clear 2 1030 90 10000 1.22 302 20:47 25.02.2022
2927 Clouds 2 1029 89 10000 1.58 295 20:25 25.02.2022
2928 Clouds 4 1027 80 10000 3.56 302 17:54 25.02.2022
2929 Clouds 5 1026 72 10000 4.96 299 16:54 25.02.2022
2930 Clouds 6 1026 69 10000 4.95 277 15:55 25.02.2022
2931 Clouds 6 1025 71 10000 5.29 255 15:23 25.02.2022
2932 Clouds 6 1025 71 10000 5.29 255 14:55 25.02.2022
2933 Rain 6 1025 69 10000 5.74 256 14:27 25.02.2022
2934 Clouds 5 1025 69 10000 5.74 256 13:30 25.02.2022
2935 Clouds 4 1025 79 10000 5.71 263 12:21 25.02.2022
2936 Clouds 4 1024 78 9977 6.79 261 11:22 25.02.2022
2937 Clouds 3 1024 81 10000 6.62 243 10:23 25.02.2022
2938 Clouds 3 1024 81 10000 6.62 243 10:23 25.02.2022
2939 Clouds 3 1024 81 10000 6.62 243 09:51 25.02.2022
2940 Clouds 2 1024 87 10000 5.82 232 08:42 25.02.2022
2941 Clouds 1 1024 91 10000 5.04 221 07:35 25.02.2022
2942 Clear 1 1023 92 10000 4.17 224 05:45 25.02.2022
2943 Clear 1 1022 88 10000 4.69 249 02:49 25.02.2022
2944 Clouds 3 1019 81 10000 5.5 264 22:55 24.02.2022
2945 Clouds 3 1018 79 10000 6.2 268 21:54 24.02.2022
2946 Clouds 4 1018 79 10000 6.2 268 21:31 24.02.2022
2947 Clouds 4 1017 79 10000 6.39 264 20:57 24.02.2022
2948 Rain 4 1016 81 10000 4.77 252 19:38 24.02.2022
2949 Rain 4 1015 84 10000 5.34 280 18:38 24.02.2022
2950 Rain 5 1013 92 10000 7.15 291 18:18 24.02.2022
2951 Rain 7 1013 92 10000 7.15 291 17:33 24.02.2022
2952 Rain 7 1013 92 10000 7.15 291 17:33 24.02.2022
2953 Clouds 10 1010 74 10000 9.7 225 16:45 24.02.2022
2954 Clouds 10 1010 74 10000 9.26 219 16:21 24.02.2022
2955 Clouds 10 1011 77 10000 8.18 218 14:53 24.02.2022
2956 Clouds 10 1012 81 10000 7.65 225 14:26 24.02.2022
2957 Clouds 10 1012 81 10000 7.65 225 13:39 24.02.2022
2958 Clouds 10 1012 81 10000 7.65 225 13:39 24.02.2022
2959 Clouds 9 1013 85 10000 7.16 227 12:49 24.02.2022
2960 Clouds 9 1014 81 10000 5.91 216 10:40 24.02.2022
2961 Clouds 7 1015 84 10000 3.79 199 08:59 24.02.2022
2962 Clouds 7 1015 84 10000 3.79 199 08:40 24.02.2022
2963 Clouds 7 1017 86 10000 3.72 201 05:53 24.02.2022
2964 Clouds 7 1020 91 10000 2.64 194 01:56 24.02.2022
2965 Clouds 7 1022 90 10000 2.4 186 23:31 23.02.2022
2966 Clouds 7 1022 87 10000 2.19 181 21:43 23.02.2022
2967 Clouds 8 1023 84 10000 2.14 173 20:31 23.02.2022
2968 Clouds 7 1023 81 10000 1.99 170 19:48 23.02.2022
2969 Clouds 8 1023 78 10000 1.94 169 18:32 23.02.2022
2970 Clouds 10 1023 74 10000 1.95 169 17:44 23.02.2022
2971 Clouds 12 1025 54 10000 2.44 202 15:19 23.02.2022
2972 Clear 11 1027 58 10000 2.4 208 13:28 23.02.2022
2973 Clear 10 1028 62 10000 1.98 204 12:24 23.02.2022
2974 Clear 7 1029 70 10000 1.23 218 10:44 23.02.2022
2975 Clear 3 1029 89 10000 0.97 192 09:00 23.02.2022
2976 Clear 2 1029 93 10000 1.38 181 08:23 23.02.2022
2977 Clouds 3 1028 93 10000 1.26 198 07:18 23.02.2022
2978 Clouds 7 1024 87 10000 2.24 288 01:21 23.02.2022
2979 Rain 8 1023 79 10000 4.18 323 23:39 22.02.2022
2980 Rain 9 1021 92 10000 7.21 259 22:59 22.02.2022
2981 Clouds 9 1021 93 10000 7.63 245 21:56 22.02.2022
2982 Rain 9 1021 93 10000 7.63 245 21:37 22.02.2022
2983 Clouds 9 1020 93 10000 7.73 241 21:18 22.02.2022
2984 Clouds 8 1020 93 10000 7.73 241 20:31 22.02.2022
2985 Clouds 8 1020 92 10000 7.47 236 19:53 22.02.2022
2986 Clouds 8 1020 92 10000 7.47 236 19:33 22.02.2022
2987 Clouds 8 1020 94 10000 7.03 233 18:27 22.02.2022
2988 Clouds 8 1020 94 10000 6.97 224 17:26 22.02.2022
2989 Clouds 7 1020 94 10000 6.97 224 16:55 22.02.2022
2990 Clouds 7 1020 92 10000 6.92 224 16:19 22.02.2022
2991 Clouds 7 1021 90 10000 6.89 225 15:18 22.02.2022
2992 Clouds 8 1022 90 10000 6.69 226 13:37 22.02.2022
2993 Clouds 7 1023 90 10000 5.83 237 11:18 22.02.2022
2994 Clouds 5 1024 90 10000 3.93 235 09:22 22.02.2022
2995 Clouds 4 1023 92 10000 2.85 238 07:28 22.02.2022
2996 Clouds 4 1023 92 10000 2.85 238 06:53 22.02.2022
2997 Clouds 5 1020 83 10000 4.72 294 02:49 22.02.2022
2998 Clouds 6 1017 84 10000 6.02 291 23:18 21.02.2022
2999 Clouds 6 1016 82 10000 5.64 282 21:56 21.02.2022
3000 Clouds 6 1014 78 10000 5.96 290 20:38 21.02.2022
3001 Clouds 6 1010 80 10000 7.55 302 18:47 21.02.2022
3002 Clouds 6 1008 82 10000 8.97 293 18:19 21.02.2022
3003 Clouds 6 1005 92 10000 9.85 267 15:49 21.02.2022
3004 Rain 5 1005 96 409 9.95 249 14:23 21.02.2022
3005 Rain 5 1005 96 409 9.95 249 13:31 21.02.2022
3006 Clouds 5 1006 89 8098 9.99 242 12:46 21.02.2022
3007 Clouds 5 1007 82 10000 9.33 244 12:21 21.02.2022
3008 Clouds 5 1007 74 10000 9.6 250 10:27 21.02.2022
3009 Clouds 4 1006 75 10000 10.01 258 06:25 21.02.2022
3010 Clouds 9 1001 88 7113 13.38 235 00:35 21.02.2022
3011 Clouds 9 1004 84 10000 12.41 226 22:32 20.02.2022
3012 Clouds 9 1005 82 10000 11.79 223 21:44 20.02.2022
3013 Rain 9 1007 84 10000 11.32 224 21:24 20.02.2022
3014 Clouds 9 1007 84 10000 11.32 224 20:43 20.02.2022
3015 Clouds 9 1008 83 10000 11.06 227 19:49 20.02.2022
3016 Rain 9 1009 87 10000 10.23 223 18:56 20.02.2022
3017 Clouds 9 1009 87 10000 10.04 223 18:36 20.02.2022
3018 Clouds 9 1010 87 10000 9.74 223 17:55 20.02.2022
3019 Clouds 9 1011 86 10000 9.86 226 17:23 20.02.2022
3020 Clouds 9 1013 89 10000 9.51 228 15:27 20.02.2022
3021 Clouds 9 1014 91 10000 9.05 229 13:59 20.02.2022
3022 Clouds 8 1014 92 10000 9.01 227 12:47 20.02.2022
3023 Clouds 8 1016 92 10000 8.94 228 11:50 20.02.2022
3024 Clouds 7 1016 91 10000 8.7 222 10:21 20.02.2022
3025 Clouds 7 1016 91 10000 8.7 222 09:35 20.02.2022
3026 Clouds 7 1016 91 10000 7.38 235 06:29 20.02.2022
3027 Clouds 6 1014 84 10000 9.82 240 00:32 20.02.2022
3028 Clouds 6 1014 86 10000 10.24 234 23:33 19.02.2022
3029 Clouds 6 1014 79 10000 9.68 223 22:24 19.02.2022
3030 Clouds 6 1014 79 10000 9.68 223 21:47 19.02.2022
3031 Rain 6 1015 68 10000 8.48 213 20:28 19.02.2022
3032 Clouds 6 1015 68 10000 8.48 213 19:35 19.02.2022
3033 Clouds 6 1015 70 10000 7.94 216 18:41 19.02.2022
3034 Clouds 7 1016 72 10000 6.89 220 17:57 19.02.2022
3035 Clouds 7 1016 69 10000 6.52 225 17:23 19.02.2022
3036 Clouds 7 1017 65 10000 6.49 237 15:59 19.02.2022
3037 Clouds 7 1017 63 10000 6.83 239 14:55 19.02.2022
3038 Clouds 7 1018 66 10000 7.14 236 13:58 19.02.2022
3039 Clouds 5 1019 70 10000 7.26 244 11:58 19.02.2022
3040 Clouds 5 1019 74 10000 7.26 244 11:24 19.02.2022
3041 Clear 4 1018 81 10000 6.69 241 09:00 19.02.2022
3042 Clouds 4 1017 74 10000 7.31 250 06:49 19.02.2022
3043 Clouds 6 1012 71 10000 9.67 245 00:50 19.02.2022
3044 Clouds 7 1011 69 10000 9.68 244 22:33 18.02.2022
3045 Clouds 7 1008 70 10000 9.79 251 21:27 18.02.2022
3046 Clouds 8 1007 70 10000 10.44 253 20:25 18.02.2022
3047 Clouds 9 1007 70 10000 10.44 253 19:51 18.02.2022
3048 Rain 9 1006 71 10000 10.44 250 18:38 18.02.2022
3049 Rain 9 1005 68 10000 11.26 248 18:18 18.02.2022
3050 Rain 9 1003 65 10000 11 243 17:18 18.02.2022
3051 Clouds 11 1001 80 10000 11.14 221 14:31 18.02.2022
3052 Clouds 11 1002 82 10000 10.46 224 13:47 18.02.2022
3053 Clouds 11 1003 85 10000 9.74 224 12:50 18.02.2022
3054 Clouds 11 1004 87 10000 9.44 221 11:57 18.02.2022
3055 Clouds 11 1005 90 10000 9.56 221 10:47 18.02.2022
3056 Clouds 10 1007 96 8485 6.6 207 09:29 18.02.2022
3057 Clouds 8 1009 92 10000 4.08 184 06:50 18.02.2022
3058 Clouds 8 1011 93 10000 3.86 187 05:36 18.02.2022
3059 Clouds 8 1016 80 10000 6.75 244 22:43 17.02.2022
3060 Clouds 8 1016 78 10000 6.6 239 21:42 17.02.2022
3061 Clouds 8 1015 77 10000 5.71 239 20:52 17.02.2022
3062 Clouds 8 1015 77 10000 5.71 239 20:33 17.02.2022
3063 Clouds 8 1015 79 10000 5.11 243 19:43 17.02.2022
3064 Clouds 9 1015 74 10000 6.23 255 18:34 17.02.2022
3065 Clouds 10 1014 71 10000 7.3 259 17:46 17.02.2022
3066 Clouds 10 1013 70 10000 8.71 264 16:19 17.02.2022
3067 Clouds 10 1012 70 10000 9.27 264 14:39 17.02.2022
3068 Clouds 10 1011 78 10000 9.68 261 13:47 17.02.2022
3069 Clouds 10 1011 82 10000 8.5 262 11:57 17.02.2022
3070 Clouds 9 1010 82 10000 8.25 261 11:21 17.02.2022
3071 Clouds 10 1009 74 10000 9.74 262 08:37 17.02.2022
3072 Rain 12 1002 93 6419 11.73 238 00:20 17.02.2022
3073 Clouds 13 1002 93 10000 11.52 236 22:39 16.02.2022
3074 Clouds 12 1003 96 7147 10.41 235 20:39 16.02.2022
3075 Clouds 12 1003 95 10000 9.68 233 19:32 16.02.2022
3076 Rain 12 1004 91 10000 8.76 231 18:35 16.02.2022
3077 Clouds 12 1004 86 10000 8.91 234 17:34 16.02.2022
3078 Clouds 12 1004 95 10000 7.91 236 15:26 16.02.2022
3079 Clouds 12 1004 95 10000 7.91 236 14:46 16.02.2022
3080 Clouds 10 1004 97 2870 7.96 228 12:32 16.02.2022
3081 Clouds 9 1004 96 2647 7.95 221 11:52 16.02.2022
3082 Clouds 9 1005 94 10000 7.72 216 10:52 16.02.2022
3083 Clouds 8 1005 93 10000 8.19 209 10:29 16.02.2022
3084 Rain 7 1006 92 10000 8.34 207 06:56 16.02.2022
3085 Rain 7 1008 93 8425 7.96 214 03:46 16.02.2022
3086 Clouds 7 1011 92 10000 7.66 208 23:35 15.02.2022
3087 Clouds 7 1013 85 10000 7.78 212 22:18 15.02.2022
3088 Clouds 7 1013 85 10000 7.78 212 21:45 15.02.2022
3089 Clouds 7 1013 81 10000 7.93 210 21:26 15.02.2022
3090 Clouds 7 1013 81 10000 7.93 210 20:53 15.02.2022
3091 Clouds 7 1014 78 10000 7.41 211 19:48 15.02.2022
3092 Clouds 7 1014 75 10000 6.82 212 18:45 15.02.2022
3093 Clouds 7 1014 75 10000 6.05 215 18:19 15.02.2022
3094 Clouds 8 1014 75 10000 6.05 215 17:47 15.02.2022
3095 Clouds 8 1015 71 10000 5.7 217 16:30 15.02.2022
3096 Clouds 9 1015 69 10000 5.9 240 14:47 15.02.2022
3097 Clouds 8 1016 73 10000 6.06 250 13:26 15.02.2022
3098 Clouds 7 1016 83 10000 4.97 237 11:54 15.02.2022
3099 Clouds 7 1015 86 10000 4.83 249 10:58 15.02.2022
3100 Clouds 6 1014 94 10000 3.57 249 09:28 15.02.2022
3101 Clouds 6 1013 88 10000 3.26 241 06:50 15.02.2022
3102 Clouds 6 1010 92 10000 4.6 237 02:36 15.02.2022
3103 Clouds 6 1009 92 10000 3.55 202 22:26 14.02.2022
3104 Clouds 6 1009 92 10000 3.55 202 21:35 14.02.2022
3105 Clouds 6 1009 90 10000 3.37 204 20:30 14.02.2022
3106 Clouds 7 1008 88 10000 3.46 205 19:32 14.02.2022
3107 Clouds 8 1008 85 10000 3.52 210 18:30 14.02.2022
3108 Clouds 8 1007 81 10000 4.22 219 17:58 14.02.2022
3109 Clouds 9 1006 77 10000 4.99 222 17:24 14.02.2022
3110 Clouds 10 1006 73 10000 5.05 225 16:19 14.02.2022
3111 Clouds 10 1005 70 10000 5.53 242 13:54 14.02.2022
3112 Clouds 10 1006 82 10000 4.52 232 13:26 14.02.2022
3113 Clouds 9 1006 88 10000 4.56 234 12:33 14.02.2022
3114 Clouds 9 1005 89 10000 6.47 219 11:54 14.02.2022
3115 Clouds 9 1005 83 10000 6.77 208 10:44 14.02.2022
3116 Clouds 9 1004 83 10000 7.38 198 08:45 14.02.2022
3117 Clouds 9 1004 83 10000 7.33 193 07:31 14.02.2022
3118 Clouds 8 1007 75 10000 6.1 185 02:27 14.02.2022
3119 Clouds 9 1009 71 10000 5.72 180 22:42 13.02.2022
3120 Clouds 9 1009 75 10000 4.93 178 22:24 13.02.2022
3121 Clouds 8 1009 75 10000 4.93 178 21:32 13.02.2022
3122 Clouds 8 1009 78 10000 4.59 171 20:36 13.02.2022
3123 Clouds 7 1010 79 10000 4.81 170 19:45 13.02.2022
3124 Clouds 8 1011 78 10000 4.71 173 18:54 13.02.2022
3125 Clouds 8 1011 77 10000 4.85 176 18:35 13.02.2022
3126 Clouds 10 1012 74 10000 5.36 177 16:34 13.02.2022
3127 Clouds 11 1013 68 10000 5.31 185 15:25 13.02.2022
3128 Clouds 10 1013 68 10000 5.31 185 14:37 13.02.2022
3129 Clouds 8 1016 67 10000 5.44 193 12:52 13.02.2022
3130 Clouds 7 1017 68 10000 5.06 192 12:18 13.02.2022
3131 Clouds 4 1018 70 10000 4.52 199 10:38 13.02.2022
3132 Clouds 2 1019 68 10000 3.13 187 09:49 13.02.2022
3133 Clouds -1 1020 75 10000 2.16 175 07:52 13.02.2022
3134 Clouds 0 1024 74 10000 2.1 176 00:49 13.02.2022
3135 Clouds 0 1024 75 10000 1.87 183 00:20 13.02.2022
3136 Clouds 0 1024 77 10000 2.06 163 22:34 12.02.2022
3137 Clouds 0 1025 79 10000 1.92 165 21:40 12.02.2022
3138 Clouds 1 1025 80 10000 1.89 162 20:52 12.02.2022
3139 Clouds 1 1025 80 10000 1.91 155 19:56 12.02.2022
3140 Clouds 3 1025 80 10000 1.68 160 18:53 12.02.2022
3141 Clouds 3 1025 80 10000 1.68 160 18:53 12.02.2022
3142 Clouds 3 1025 80 10000 1.67 160 18:35 12.02.2022
3143 Clouds 4 1025 76 10000 1.63 152 17:38 12.02.2022
3144 Clouds 6 1026 68 10000 2.37 152 16:44 12.02.2022
3145 Clouds 7 1026 59 10000 3.13 152 15:52 12.02.2022
3146 Clouds 7 1027 53 10000 3.47 148 15:20 12.02.2022
3147 Clouds 7 1027 53 10000 3.47 148 15:20 12.02.2022
3148 Clouds 6 1028 52 10000 3.72 141 14:25 12.02.2022
3149 Clouds 3 1031 60 10000 2.7 120 11:26 12.02.2022
3150 Clouds 1 1031 60 10000 2.7 120 10:30 12.02.2022
3151 Clouds 1 1031 68 10000 1.53 97 09:37 12.02.2022
3152 Clouds -1 1032 77 10000 1.26 79 08:46 12.02.2022
3153 Clouds -1 1032 82 10000 1.32 78 07:44 12.02.2022
3154 Clouds -2 1033 81 10000 1.08 73 04:47 12.02.2022
3155 Clear -1 1034 83 10000 1.04 94 02:19 12.02.2022
3156 Clear -1 1035 82 10000 0.74 43 23:21 11.02.2022
3157 Clear 0 1035 82 10000 0.24 21 22:23 11.02.2022
3158 Clear 0 1035 82 10000 0.24 21 21:34 11.02.2022
3159 Clear 1 1035 80 10000 0.43 46 20:28 11.02.2022
3160 Clouds 2 1034 78 10000 1.01 341 19:29 11.02.2022
3161 Clouds 3 1034 79 10000 0.8 20 18:41 11.02.2022
3162 Clouds 5 1033 69 10000 2.83 327 17:27 11.02.2022
3163 Clouds 6 1033 69 10000 2.83 327 16:47 11.02.2022
3164 Clouds 6 1032 59 10000 5.12 322 15:22 11.02.2022
3165 Clouds 6 1032 59 10000 5.12 322 14:38 11.02.2022
3166 Clouds 6 1032 60 10000 5.93 315 14:19 11.02.2022
3167 Clouds 6 1032 60 10000 5.93 315 13:47 11.02.2022
3168 Clouds 6 1032 63 10000 5.64 308 13:28 11.02.2022
3169 Clouds 5 1031 74 10000 5.28 306 11:23 11.02.2022
3170 Clouds 3 1030 81 10000 4.59 297 09:37 11.02.2022
3171 Clouds 2 1030 88 10000 4.45 286 08:35 11.02.2022
3172 Clouds 2 1028 88 10000 3.12 267 07:46 11.02.2022
3173 Clouds 2 1029 87 10000 3.89 273 07:46 11.02.2022
3174 Clouds 2 1027 84 10000 3.42 281 06:29 11.02.2022
3175 Clouds 3 1024 94 6702 1.38 308 02:22 11.02.2022
3176 Rain 5 1023 98 31 3.69 325 23:48 10.02.2022
3177 Rain 5 1023 97 152 4.19 290 22:39 10.02.2022
3178 Rain 6 1022 94 6396 4.26 255 21:43 10.02.2022
3179 Rain 6 1022 90 10000 4.29 244 20:50 10.02.2022
3180 Rain 6 1022 89 10000 4.05 234 20:24 10.02.2022
3181 Clouds 6 1023 89 10000 4.41 228 19:24 10.02.2022
3182 Clouds 6 1022 88 10000 4.52 229 18:33 10.02.2022
3183 Clouds 6 1022 89 10000 4.53 219 17:25 10.02.2022
3184 Clouds 6 1022 89 10000 4.53 219 16:47 10.02.2022
3185 Clouds 7 1023 90 10000 4.43 221 15:45 10.02.2022
3186 Clouds 7 1023 90 10000 4.32 224 15:25 10.02.2022
3187 Clouds 7 1023 90 10000 4.32 224 14:44 10.02.2022
3188 Clouds 7 1023 91 10000 4.36 230 14:22 10.02.2022
3189 Clouds 7 1023 91 10000 4.88 230 13:20 10.02.2022
3190 Clouds 7 1023 91 10000 4.99 228 11:58 10.02.2022
3191 Clouds 6 1023 91 10000 4.99 228 11:33 10.02.2022
3192 Clouds 6 1023 94 10000 5.09 227 10:35 10.02.2022
3193 Clouds 6 1023 97 702 5.13 227 09:49 10.02.2022
3194 Clouds 6 1023 97 3800 5.09 228 08:53 10.02.2022
3195 Clouds 5 1022 91 10000 4.56 211 06:42 10.02.2022
3196 Clouds 3 1023 94 10000 2.37 178 03:55 10.02.2022
3197 Clear 4 1024 93 10000 2.36 182 01:43 10.02.2022
3198 Clouds 4 1024 92 10000 2.28 182 00:42 10.02.2022
3199 Clouds 4 1025 92 10000 2.19 181 00:24 10.02.2022
3200 Clouds 4 1025 92 10000 2.13 182 22:58 09.02.2022
3201 Clouds 5 1025 92 10000 2.13 182 22:34 09.02.2022
3202 Clear 5 1026 91 10000 2.12 180 21:49 09.02.2022
3203 Clouds 5 1026 90 10000 2.26 182 21:28 09.02.2022
3204 Clouds 6 1026 90 10000 2.26 182 20:47 09.02.2022
3205 Clouds 6 1026 89 10000 2.19 181 20:24 09.02.2022
3206 Clouds 6 1026 89 10000 2.19 181 19:44 09.02.2022
3207 Clear 8 1026 89 10000 2.18 187 18:58 09.02.2022
3208 Clear 11 1026 88 10000 2.01 188 17:32 09.02.2022
3209 Clear 13 1026 74 10000 2.74 225 16:26 09.02.2022
3210 Clear 13 1026 74 10000 2.74 225 15:33 09.02.2022
3211 Clear 13 1027 71 10000 3.83 225 14:25 09.02.2022
3212 Clouds 10 1029 77 10000 2.75 221 12:27 09.02.2022
3213 Clouds 8 1029 82 10000 2.52 219 10:47 09.02.2022
3214 Clouds 7 1029 90 10000 2.2 207 09:59 09.02.2022
3215 Clouds 7 1030 97 10000 2.06 201 09:23 09.02.2022
3216 Clouds 7 1030 97 10000 2.06 201 08:58 09.02.2022
3217 Clouds 7 1030 97 10000 2.23 201 07:34 09.02.2022
3218 Clouds 7 1030 97 10000 2.47 198 05:30 09.02.2022
3219 Clouds 7 1030 97 10000 2.47 198 05:30 09.02.2022
3220 Clouds 7 1030 97 10000 2.63 200 03:50 09.02.2022
3221 Clouds 7 1031 95 10000 2.76 211 00:23 09.02.2022
3222 Clouds 7 1031 95 10000 2.76 211 23:30 08.02.2022
3223 Clouds 7 1031 95 10000 2.94 213 22:45 08.02.2022
3224 Clouds 8 1031 96 10000 2.94 212 22:21 08.02.2022
3225 Clouds 7 1031 96 10000 2.94 212 21:38 08.02.2022
3226 Clouds 7 1031 96 10000 3.21 222 21:19 08.02.2022
3227 Clouds 7 1031 96 10000 3.21 222 20:41 08.02.2022
3228 Clouds 8 1031 96 10000 3.7 222 19:45 08.02.2022
3229 Clouds 8 1031 95 10000 3.04 223 18:34 08.02.2022
3230 Clouds 8 1031 95 10000 3.48 226 17:38 08.02.2022
3231 Clouds 8 1031 94 10000 4.36 230 16:22 08.02.2022
3232 Clouds 8 1031 93 10000 4.33 228 15:29 08.02.2022
3233 Clouds 8 1031 93 10000 4.33 228 15:29 08.02.2022
3234 Clouds 8 1031 94 10000 4.27 228 14:26 08.02.2022
3235 Clouds 7 1032 94 10000 4.43 228 12:41 08.02.2022
3236 Clouds 6 1032 92 10000 4.57 223 11:28 08.02.2022
3237 Clouds 6 1032 93 10000 4.47 221 10:18 08.02.2022
3238 Clouds 5 1032 93 10000 4.47 221 09:41 08.02.2022
3239 Clouds 5 1031 91 10000 4.53 219 07:37 08.02.2022
3240 Clouds 5 1031 88 10000 4.45 218 05:37 08.02.2022
3241 Clouds 4 1031 87 10000 4.22 219 04:39 08.02.2022
3242 Clouds 4 1031 85 10000 4.24 223 04:21 08.02.2022
3243 Clouds 4 1031 85 10000 4.24 223 03:36 08.02.2022
3244 Clouds 4 1031 86 10000 4.32 226 03:18 08.02.2022
3245 Clouds 4 1031 86 10000 4.32 226 02:58 08.02.2022
3246 Clouds 4 1031 86 10000 4.32 226 02:36 08.02.2022
3247 Clouds 3 1032 84 10000 4.25 225 02:18 08.02.2022
3248 Clouds 3 1032 84 10000 4.25 225 01:43 08.02.2022
3249 Clouds 3 1032 85 10000 3.73 225 01:24 08.02.2022
3250 Clouds 3 1032 85 10000 3.73 225 00:49 08.02.2022
3251 Clear 3 1032 89 10000 3.22 220 23:54 07.02.2022
3252 Clear 3 1032 89 10000 3.22 220 23:36 07.02.2022
3253 Clear 3 1032 89 10000 3.03 215 23:18 07.02.2022
3254 Clear 2 1032 89 10000 2.88 207 22:19 07.02.2022
3255 Clear 3 1032 89 10000 2.88 207 21:52 07.02.2022
3256 Clear 3 1031 88 10000 2.7 214 21:29 07.02.2022
3257 Clear 3 1031 88 10000 2.7 214 21:29 07.02.2022
3258 Clear 3 1031 88 10000 2.7 214 20:56 07.02.2022
3259 Clear 3 1031 88 10000 2.7 214 20:38 07.02.2022
3260 Clear 3 1031 87 10000 2.86 228 19:49 07.02.2022
3261 Clear 3 1031 87 10000 2.86 228 19:31 07.02.2022
3262 Clouds 5 1030 81 10000 2.9 240 17:41 07.02.2022
3263 Clouds 7 1029 72 10000 3.54 255 16:52 07.02.2022
3264 Clouds 7 1029 66 10000 4.16 260 15:49 07.02.2022
3265 Clouds 7 1028 65 10000 4.77 267 14:48 07.02.2022
3266 Clouds 6 1028 74 10000 4.47 285 13:28 07.02.2022
3267 Clouds 6 1028 74 10000 4.47 285 12:38 07.02.2022
3268 Clouds 5 1028 80 10000 4.38 287 11:57 07.02.2022
3269 Clouds 5 1028 80 10000 4.38 287 11:34 07.02.2022
3270 Clouds 4 1026 79 10000 4.57 284 10:49 07.02.2022
3271 Clouds 4 1025 72 10000 5.28 301 10:29 07.02.2022
3272 Clouds 3 1025 72 10000 5.28 301 09:53 07.02.2022
3273 Clouds 3 1024 69 10000 6.17 311 09:18 07.02.2022
3274 Clouds 3 1022 74 10000 6.36 312 08:24 07.02.2022
3275 Clouds 3 1021 82 10000 5.24 307 06:52 07.02.2022
3276 Clouds 3 1021 82 10000 5.24 307 06:33 07.02.2022
3277 Rain 4 1013 77 10000 8.33 310 02:58 07.02.2022
3278 Clouds 4 1010 80 10000 7.96 291 00:44 07.02.2022
3279 Clouds 5 1009 83 10000 7.88 301 23:47 06.02.2022
3280 Rain 5 1007 94 4028 11.19 305 22:48 06.02.2022
3281 Clouds 6 1004 78 10000 10.53 286 21:54 06.02.2022
3282 Clouds 7 1004 78 10000 10.53 286 21:35 06.02.2022
3283 Clouds 7 1004 75 10000 11.41 272 20:54 06.02.2022
3284 Rain 7 1004 75 10000 11.41 272 20:31 06.02.2022
3285 Rain 8 1004 87 10000 9.86 267 19:38 06.02.2022
3286 Rain 7 1005 86 10000 9.02 259 18:40 06.02.2022
3287 Clouds 8 1006 88 10000 8.97 259 17:55 06.02.2022
3288 Rain 8 1005 81 10000 11.46 263 17:18 06.02.2022
3289 Rain 8 1005 81 10000 11.46 263 16:38 06.02.2022
3290 Rain 8 1006 92 5292 11.64 241 15:48 06.02.2022
3291 Rain 7 1006 92 9265 12.99 234 15:26 06.02.2022
3292 Rain 7 1006 92 9265 12.99 234 14:36 06.02.2022
3293 Rain 6 1009 93 8222 11.96 226 13:26 06.02.2022
3294 Rain 6 1009 93 8222 11.96 226 12:52 06.02.2022
3295 Rain 6 1011 95 4143 10.69 223 11:32 06.02.2022
3296 Rain 6 1012 95 3093 9.98 224 10:31 06.02.2022
3297 Clouds 6 1014 90 10000 8.87 221 08:59 06.02.2022
3298 Rain 6 1014 90 10000 8.87 221 08:30 06.02.2022
3299 Rain 6 1017 85 10000 8.74 227 05:31 06.02.2022
3300 Rain 6 1017 85 10000 8.74 227 05:31 06.02.2022
3301 Clouds 5 1019 81 10000 8.39 228 02:50 06.02.2022
3302 Clouds 5 1020 83 10000 7.75 230 02:24 06.02.2022
3303 Clouds 5 1021 83 10000 7.15 226 00:29 06.02.2022
3304 Clouds 5 1022 84 10000 6.74 223 22:31 05.02.2022
3305 Clouds 4 1023 86 10000 6.07 223 21:32 05.02.2022
3306 Clouds 4 1023 88 10000 5.42 220 20:25 05.02.2022
3307 Clouds 3 1023 88 10000 5.42 220 19:48 05.02.2022
3308 Clouds 4 1023 85 10000 4.98 225 18:59 05.02.2022
3309 Clouds 4 1023 83 10000 4.97 233 17:45 05.02.2022
3310 Clouds 5 1023 74 10000 5.05 237 17:25 05.02.2022
3311 Clouds 5 1023 72 10000 5.65 246 15:42 05.02.2022
3312 Clouds 5 1024 75 10000 5.92 251 15:21 05.02.2022
3313 Clouds 4 1025 83 10000 5.55 246 12:54 05.02.2022
3314 Clouds 4 1024 83 10000 5.37 245 12:31 05.02.2022
3315 Clouds 3 1025 87 10000 4.49 249 10:52 05.02.2022
3316 Clouds 3 1024 91 10000 4.15 240 10:25 05.02.2022
3317 Clouds 3 1024 91 10000 4.15 240 09:46 05.02.2022
3318 Clouds 2 1024 96 10000 3.04 221 08:20 05.02.2022
3319 Clouds 2 1024 95 10000 2.85 224 06:57 05.02.2022
3320 Clouds 2 1023 92 10000 3.21 246 04:55 05.02.2022
3321 Clouds 2 1020 89 10000 3.77 234 01:19 05.02.2022
3322 Clouds 2 1020 88 10000 3.92 238 00:53 05.02.2022
3323 Clouds 2 1020 78 10000 3.69 258 23:58 04.02.2022
3324 Clouds 3 1020 78 10000 3.69 258 23:30 04.02.2022
3325 Clouds 3 1018 73 10000 6.19 290 22:18 04.02.2022
3326 Clouds 4 1018 73 10000 6.19 290 21:36 04.02.2022
3327 Clouds 4 1017 76 10000 6.46 294 21:18 04.02.2022
3328 Clouds 5 1015 81 10000 6.92 295 20:20 04.02.2022
3329 Clouds 7 1011 91 10000 8.46 232 17:45 04.02.2022
3330 Clouds 7 1012 88 10000 7.95 228 15:55 04.02.2022
3331 Clouds 7 1012 87 10000 7.61 226 14:56 04.02.2022
3332 Clouds 7 1013 83 10000 7.5 225 13:55 04.02.2022
3333 Clouds 7 1014 87 10000 7.16 218 12:43 04.02.2022
3334 Clouds 6 1014 90 10000 6.38 216 11:43 04.02.2022
3335 Clouds 6 1015 92 10000 5.72 215 10:48 04.02.2022
3336 Clouds 6 1016 91 10000 4.76 217 08:50 04.02.2022
3337 Clouds 6 1015 94 10000 4.45 218 06:58 04.02.2022
3338 Clouds 6 1016 92 10000 3.56 227 02:51 04.02.2022
3339 Clouds 6 1016 91 10000 3.3 226 02:20 04.02.2022
3340 Clouds 6 1016 92 10000 3.93 228 23:32 03.02.2022
3341 Clouds 6 1016 90 10000 3.77 234 22:48 03.02.2022
3342 Clouds 6 1016 89 10000 3.6 226 21:50 03.02.2022
3343 Clouds 6 1016 88 10000 3.53 225 20:50 03.02.2022
3344 Clouds 6 1016 87 10000 3.63 239 20:20 03.02.2022
3345 Clouds 6 1016 87 10000 3.63 239 19:34 03.02.2022
3346 Clouds 6 1016 86 10000 4.11 244 18:48 03.02.2022
3347 Clouds 6 1016 88 10000 3.27 239 17:47 03.02.2022
3348 Clouds 7 1016 87 10000 3.33 240 16:39 03.02.2022
3349 Clouds 7 1016 81 10000 4.37 246 14:54 03.02.2022
3350 Clouds 6 1017 80 10000 5.05 230 13:19 03.02.2022
3351 Clouds 7 1019 82 10000 5.11 226 11:43 03.02.2022
3352 Clouds 7 1021 91 10000 4.14 213 08:55 03.02.2022
3353 Clouds 7 1020 93 10000 3.67 203 07:40 03.02.2022
3354 Clouds 8 1024 97 10000 2.6 225 00:34 03.02.2022
3355 Clouds 8 1024 97 10000 2.06 216 23:45 02.02.2022
3356 Clouds 8 1024 97 10000 2.25 240 22:36 02.02.2022
3357 Clouds 8 1024 98 10000 2.44 226 21:42 02.02.2022
3358 Clouds 8 1024 98 10000 2.21 212 21:24 02.02.2022
3359 Clouds 8 1024 98 10000 2.01 228 20:19 02.02.2022
3360 Clouds 8 1024 98 10000 2.01 228 19:45 02.02.2022
3361 Clouds 8 1024 98 10000 2.19 234 18:53 02.02.2022
3362 Clouds 8 1023 98 10000 2.45 241 18:22 02.02.2022
3363 Clouds 9 1023 96 10000 3.38 254 17:20 02.02.2022
3364 Clouds 9 1023 96 10000 3.38 254 16:48 02.02.2022
3365 Rain 9 1022 90 10000 3.77 272 14:21 02.02.2022
3366 Clouds 8 1021 84 10000 4.29 294 12:26 02.02.2022
3367 Clouds 8 1021 84 10000 4.29 294 11:42 02.02.2022
3368 Clouds 8 1021 83 10000 5.09 295 11:23 02.02.2022
3369 Clouds 8 1019 82 10000 4.84 299 08:26 02.02.2022
3370 Clouds 8 1017 80 10000 6.85 300 01:37 02.02.2022
3371 Clouds 8 1017 80 10000 6.35 297 22:29 01.02.2022
3372 Clouds 8 1017 81 10000 6.76 297 20:50 01.02.2022
3373 Clouds 7 1016 91 10000 6.22 266 18:55 01.02.2022
3374 Clouds 5 1017 97 269 6.99 251 16:46 01.02.2022
3375 Clouds 5 1018 96 10000 7.26 248 16:19 01.02.2022
3376 Clouds 3 1020 97 38 6.88 228 12:57 01.02.2022
3377 Clouds 3 1021 97 25 6.17 221 11:57 01.02.2022
3378 Clouds 2 1023 89 10000 4.67 230 08:51 01.02.2022
3379 Clouds 3 1022 76 10000 5.33 315 02:20 01.02.2022
3380 Clouds 4 1022 77 10000 6.5 327 23:37 31.01.2022
3381 Clouds 4 1021 80 10000 7.52 320 22:33 31.01.2022
3382 Clouds 4 1020 84 10000 7.9 321 21:35 31.01.2022
3383 Clouds 4 1020 84 10000 7.9 321 21:35 31.01.2022
3384 Clouds 4 1019 86 10000 8.24 320 20:34 31.01.2022
3385 Clouds 4 1017 90 10000 8.98 317 19:57 31.01.2022
3386 Clouds 4 1017 85 10000 8 301 18:32 31.01.2022
3387 Clouds 4 1017 92 10000 8.7 310 18:32 31.01.2022
3388 Clouds 4 1017 82 10000 8.22 295 17:57 31.01.2022
3389 Clouds 4 1017 82 10000 8.22 295 17:57 31.01.2022
3390 Clouds 4 1016 80 10000 8.45 291 17:24 31.01.2022
3391 Clouds 5 1016 78 10000 8.61 295 16:23 31.01.2022
3392 Rain 5 1015 77 10000 9.31 295 14:53 31.01.2022
3393 Clouds 5 1015 75 10000 9.69 293 13:31 31.01.2022
3394 Clouds 5 1015 80 10000 8.77 287 12:37 31.01.2022
3395 Rain 5 1014 88 10000 8.39 282 11:26 31.01.2022
3396 Rain 5 1014 88 10000 8.39 282 10:48 31.01.2022
3397 Clouds 5 1014 83 10000 7.97 278 09:37 31.01.2022
3398 Clouds 4 1014 79 10000 7.35 285 08:56 31.01.2022
3399 Clouds 4 1013 79 10000 7.72 296 08:20 31.01.2022
3400 Clouds 4 1013 79 10000 7.72 296 07:40 31.01.2022
3401 Clouds 4 1013 96 5715 8.09 245 05:33 31.01.2022
3402 Clouds 2 1022 91 10000 3.44 221 00:36 31.01.2022
3403 Clouds 1 1025 92 10000 2.62 204 22:33 30.01.2022
3404 Clouds 1 1026 90 10000 2.14 210 21:46 30.01.2022
3405 Clouds 1 1027 86 10000 1.87 202 21:26 30.01.2022
3406 Clouds 2 1027 86 10000 1.92 196 20:55 30.01.2022
3407 Clouds 2 1027 86 10000 1.92 196 20:31 30.01.2022
3408 Clouds 2 1028 84 10000 1.65 192 19:58 30.01.2022
3409 Clear 4 1029 81 10000 1.05 222 18:52 30.01.2022
3410 Clear 4 1029 79 10000 0.95 261 18:26 30.01.2022
3411 Clear 5 1029 79 10000 0.95 261 17:40 30.01.2022
3412 Clear 6 1029 75 10000 1.37 272 17:19 30.01.2022
3413 Clear 6 1029 75 10000 1.37 272 16:36 30.01.2022
3414 Clear 6 1030 67 10000 1.93 294 16:18 30.01.2022
3415 Clear 7 1030 67 10000 1.93 294 15:45 30.01.2022
3416 Clear 7 1030 62 10000 2.84 307 15:25 30.01.2022
3417 Clear 7 1030 62 10000 2.84 307 14:44 30.01.2022
3418 Clouds 6 1031 65 10000 4.45 295 12:46 30.01.2022
3419 Clouds 6 1032 69 10000 4.17 299 11:52 30.01.2022
3420 Clouds 5 1033 75 10000 4.03 318 10:26 30.01.2022
3421 Clouds 4 1033 75 10000 4.03 318 09:41 30.01.2022
3422 Clouds 3 1032 88 10000 2.6 297 08:48 30.01.2022
3423 Clouds 6 1030 82 10000 3.88 311 05:30 30.01.2022
3424 Clouds 8 1029 90 10000 3.87 289 01:55 30.01.2022
3425 Rain 9 1028 87 10000 5.12 291 23:50 29.01.2022
3426 Rain 9 1028 90 10000 5.29 265 22:58 29.01.2022
3427 Clouds 8 1027 95 8819 5.77 257 21:46 29.01.2022
3428 Clouds 8 1027 95 8470 5.96 255 21:22 29.01.2022
3429 Clouds 8 1027 95 10000 6.42 248 20:22 29.01.2022
3430 Clouds 8 1027 95 10000 6.42 248 19:33 29.01.2022
3431 Clouds 8 1027 92 10000 6.25 253 18:51 29.01.2022
3432 Clouds 8 1027 94 10000 7.06 251 18:18 29.01.2022
3433 Clouds 8 1027 95 10000 6.48 241 17:27 29.01.2022
3434 Clouds 8 1028 91 10000 5.89 248 15:50 29.01.2022
3435 Clouds 7 1029 93 10000 6.27 246 13:59 29.01.2022
3436 Clouds 7 1029 93 10000 6.27 246 13:41 29.01.2022
3437 Clouds 6 1029 96 8486 5.54 236 13:22 29.01.2022
3438 Clouds 5 1030 96 10000 5.47 232 11:40 29.01.2022
3439 Clouds 5 1030 95 10000 5.37 230 10:54 29.01.2022
3440 Clouds 4 1030 97 6716 5.31 227 08:42 29.01.2022
3441 Clouds 4 1031 97 7454 4.4 216 06:37 29.01.2022
3442 Clouds 4 1034 95 10000 3.91 216 00:34 29.01.2022
3443 Clouds 4 1035 94 10000 3.89 213 23:51 28.01.2022
3444 Clouds 4 1035 94 10000 3.41 216 22:50 28.01.2022
3445 Clouds 4 1036 94 10000 2.84 212 22:21 28.01.2022
3446 Clouds 4 1036 94 10000 2.84 212 21:35 28.01.2022
3447 Clouds 4 1036 88 10000 3.04 212 20:29 28.01.2022
3448 Clouds 5 1036 88 10000 2.89 221 19:29 28.01.2022
3449 Clouds 5 1036 88 10000 2.89 221 18:42 28.01.2022
3450 Clouds 5 1036 81 10000 2.12 236 16:46 28.01.2022
3451 Clouds 6 1036 73 10000 3.32 288 15:18 28.01.2022
3452 Clouds 5 1036 79 10000 2.8 276 13:37 28.01.2022
3453 Clouds 5 1037 80 10000 3.16 279 12:29 28.01.2022
3454 Clouds 4 1037 82 10000 2.56 284 10:49 28.01.2022
3455 Clouds 3 1036 87 10000 1.92 282 09:52 28.01.2022
3456 Clear 3 1035 94 10000 1.81 264 07:44 28.01.2022
3457 Clouds 3 1034 95 10000 1.94 263 06:44 28.01.2022
3458 Clouds 4 1033 96 10000 2.37 258 03:57 28.01.2022
3459 Clouds 4 1033 96 10000 2.37 258 03:57 28.01.2022
3460 Clouds 3 1033 96 10000 2.42 252 03:20 28.01.2022
3461 Clouds 3 1032 96 10000 2.42 250 02:22 28.01.2022
3462 Clouds 3 1032 96 10000 2.42 250 01:31 28.01.2022
3463 Rain 4 1030 98 1411 3.22 260 22:48 27.01.2022
3464 Clouds 3 1029 98 235 4.25 256 21:47 27.01.2022
3465 Clouds 3 1029 98 298 4.71 248 21:29 27.01.2022
3466 Clouds 3 1028 97 8887 4.77 245 20:25 27.01.2022
3467 Clouds 3 1028 95 10000 5.02 245 18:26 27.01.2022
3468 Clouds 3 1028 95 10000 5.02 245 17:55 27.01.2022
3469 Clouds 2 1028 90 10000 5.61 239 14:42 27.01.2022
3470 Clouds 2 1028 85 10000 5.62 229 13:26 27.01.2022
3471 Clouds 2 1028 84 10000 5.43 228 12:39 27.01.2022
3472 Clouds 2 1029 84 10000 5.47 224 10:23 27.01.2022
3473 Clouds 1 1029 85 10000 4.67 216 08:52 27.01.2022
3474 Clouds 1 1029 85 10000 4.67 216 08:30 27.01.2022
3475 Clouds 1 1029 85 10000 4.67 216 08:30 27.01.2022
3476 Clouds 1 1030 81 10000 4.44 257 05:49 27.01.2022
3477 Clouds 0 1032 90 10000 2.86 235 02:36 27.01.2022
3478 Clouds 1 1033 92 10000 2.34 223 22:44 26.01.2022
3479 Clouds 1 1033 88 10000 2.06 228 21:57 26.01.2022
3480 Clouds 1 1033 88 10000 2.06 228 21:33 26.01.2022
3481 Clouds 1 1033 81 10000 2.23 240 20:36 26.01.2022
3482 Clouds 1 1034 79 10000 2.04 260 19:55 26.01.2022
3483 Clouds 1 1034 78 10000 2.22 282 19:20 26.01.2022
3484 Clouds 1 1034 89 10000 0.55 250 18:40 26.01.2022
3485 Clouds 1 1033 86 10000 1.16 248 17:50 26.01.2022
3486 Clouds 1 1033 81 10000 1.41 281 17:22 26.01.2022
3487 Clouds 1 1033 81 10000 1.41 281 16:31 26.01.2022
3488 Clouds 1 1033 76 10000 1.84 302 15:49 26.01.2022
3489 Clouds 1 1034 78 10000 2.15 321 13:58 26.01.2022
3490 Clear 1 1034 76 10000 2.07 310 11:48 26.01.2022
3491 Clear 0 1034 85 10000 0.97 305 10:27 26.01.2022
3492 Clear 0 1034 85 10000 0.97 305 09:45 26.01.2022
3493 Clear 0 1033 93 10000 1.34 208 07:44 26.01.2022
3494 Clear 0 1033 89 10000 0.62 198 01:54 26.01.2022
3495 Clear 0 1034 88 10000 0.98 202 23:56 25.01.2022
3496 Clear 0 1034 88 10000 0.76 207 22:57 25.01.2022
3497 Clear 0 1034 87 10000 0.93 204 22:21 25.01.2022
3498 Clear 0 1034 87 10000 0.93 204 21:58 25.01.2022
3499 Clear 0 1033 86 10000 1.02 196 20:46 25.01.2022
3500 Clear 0 1033 86 10000 1.02 196 20:46 25.01.2022
3501 Clear 0 1033 86 10000 1.2 187 20:23 25.01.2022
3502 Clear 0 1033 86 10000 1.2 187 19:50 25.01.2022
3503 Clear 1 1033 83 10000 1.31 183 18:37 25.01.2022
3504 Clear 1 1033 82 10000 1.16 181 17:44 25.01.2022
3505 Clear 2 1033 80 10000 0.74 206 16:35 25.01.2022
3506 Clear 3 1032 72 10000 0.67 252 15:49 25.01.2022
3507 Clear 3 1032 72 10000 0.67 252 15:31 25.01.2022
3508 Clear 4 1032 64 10000 0.89 260 14:57 25.01.2022
3509 Clear 5 1033 62 10000 0.94 242 13:42 25.01.2022
3510 Clear 0 1034 67 10000 0.72 212 10:51 25.01.2022
3511 Clear -1 1034 81 10000 0.66 180 08:37 25.01.2022
3512 Clear -1 1034 85 10000 0.55 117 07:29 25.01.2022
3513 Clear 0 1034 85 10000 0.55 117 06:49 25.01.2022
3514 Clear 0 1034 90 10000 0.74 76 05:22 25.01.2022
3515 Clear 0 1035 93 10000 1.14 80 23:37 24.01.2022
3516 Clear 1 1035 93 10000 1.12 57 23:18 24.01.2022
3517 Clear 1 1035 93 10000 1.12 57 22:59 24.01.2022
3518 Clear 1 1035 93 10000 1.12 57 22:41 24.01.2022
3519 Clear 1 1034 92 10000 1.09 68 21:54 24.01.2022
3520 Clear 1 1034 92 10000 1.18 79 21:29 24.01.2022
3521 Clear 2 1034 92 10000 1.18 79 20:32 24.01.2022
3522 Clear 2 1034 92 10000 1.17 79 19:52 24.01.2022
3523 Clear 2 1034 92 10000 1.17 79 19:30 24.01.2022
3524 Clear 3 1033 90 10000 1.15 87 18:19 24.01.2022
3525 Clear 4 1033 88 10000 1.18 67 17:24 24.01.2022
3526 Clear 5 1033 88 10000 1.18 67 16:55 24.01.2022
3527 Clear 6 1032 81 10000 1.31 56 16:21 24.01.2022
3528 Clear 6 1032 71 10000 1.71 72 14:45 24.01.2022
3529 Clear 6 1033 70 10000 1.65 59 13:38 24.01.2022
3530 Clear 5 1033 70 10000 1.94 57 12:32 24.01.2022
3531 Clear 4 1033 78 10000 1.83 54 11:20 24.01.2022
3532 Clear 2 1034 85 10000 1.55 61 09:49 24.01.2022
3533 Clear 1 1034 93 10000 1.77 59 09:20 24.01.2022
3534 Clouds 0 1034 94 10000 1.79 58 07:20 24.01.2022
3535 Clouds 0 1034 94 10000 1.79 58 07:20 24.01.2022
3536 Clouds 0 1034 94 10000 1.79 58 07:20 24.01.2022
3537 Clouds 4 1034 95 10000 1.79 49 01:32 24.01.2022
3538 Clear 4 1034 93 10000 1.8 60 00:46 24.01.2022
3539 Clear 4 1034 93 10000 1.66 70 00:27 24.01.2022
3540 Clear 4 1035 93 10000 1.84 67 22:46 23.01.2022
3541 Clear 4 1035 93 10000 1.89 73 21:50 23.01.2022
3542 Clear 4 1035 92 10000 1.94 74 21:27 23.01.2022
3543 Clear 4 1035 92 10000 1.94 74 20:54 23.01.2022
3544 Clear 4 1035 91 10000 2.01 71 19:55 23.01.2022
3545 Clouds 4 1034 92 10000 2.04 66 18:52 23.01.2022
3546 Clouds 4 1034 90 10000 2.15 67 17:54 23.01.2022
3547 Clouds 5 1034 84 10000 2.43 70 16:52 23.01.2022
3548 Clouds 5 1034 75 10000 2.76 80 15:18 23.01.2022
3549 Clouds 5 1034 75 10000 2.76 80 14:33 23.01.2022
3550 Clouds 5 1035 76 10000 2.64 73 13:43 23.01.2022
3551 Clouds 5 1035 78 10000 2.71 62 12:40 23.01.2022
3552 Clouds 5 1036 82 10000 2.08 52 12:18 23.01.2022
3553 Clouds 4 1036 88 10000 1.59 45 11:25 23.01.2022
3554 Clouds 4 1036 88 10000 1.61 44 10:57 23.01.2022
3555 Clouds 4 1036 92 10000 1.4 40 10:24 23.01.2022
3556 Clouds 4 1036 94 10000 1.52 45 09:26 23.01.2022
3557 Clouds 4 1035 95 10000 1.05 48 06:18 23.01.2022
3558 Clouds 4 1035 95 10000 0.55 322 03:20 23.01.2022
3559 Clouds 4 1036 95 10000 0.42 330 01:36 23.01.2022
3560 Clouds 4 1036 95 10000 0.39 278 00:46 23.01.2022
3561 Clouds 4 1036 94 10000 0.72 242 23:59 22.01.2022
3562 Clouds 5 1036 94 10000 0.76 233 22:49 22.01.2022
3563 Clouds 5 1036 94 10000 0.62 240 22:19 22.01.2022
3564 Clouds 5 1036 93 10000 0.81 273 20:33 22.01.2022
3565 Clouds 5 1036 93 10000 1.04 281 19:46 22.01.2022
3566 Clouds 5 1035 94 10000 0.39 228 18:37 22.01.2022
3567 Clouds 5 1035 94 10000 0.94 215 17:46 22.01.2022
3568 Clouds 5 1035 93 10000 1.18 218 17:25 22.01.2022
3569 Clouds 5 1035 93 10000 1.18 218 16:54 22.01.2022
3570 Clouds 5 1035 90 10000 0.97 230 15:45 22.01.2022
3571 Clouds 5 1035 87 10000 1.01 283 14:55 22.01.2022
3572 Clouds 5 1035 86 10000 1.34 287 13:31 22.01.2022
3573 Clouds 5 1035 88 10000 1.18 302 12:40 22.01.2022
3574 Clouds 5 1035 90 10000 0.9 293 12:20 22.01.2022
3575 Clouds 4 1035 91 10000 0.95 281 10:55 22.01.2022
3576 Clouds 4 1035 91 10000 1.14 271 10:26 22.01.2022
3577 Clouds 3 1035 93 10000 1.37 252 09:25 22.01.2022
3578 Clouds 3 1035 93 10000 1.37 252 08:50 22.01.2022
3579 Clouds 3 1035 94 10000 1.27 245 07:27 22.01.2022
3580 Clouds 3 1034 91 10000 1.52 254 03:26 22.01.2022
3581 Clouds 4 1034 93 10000 3.23 283 00:32 22.01.2022
3582 Clouds 3 1035 91 10000 2.11 279 23:21 21.01.2022
3583 Clouds 3 1035 92 10000 2.15 280 22:19 21.01.2022
3584 Clouds 4 1035 92 10000 1.67 262 19:55 21.01.2022
3585 Clouds 4 1034 92 10000 1.36 266 18:23 21.01.2022
3586 Clouds 4 1034 90 10000 1.8 296 16:58 21.01.2022
3587 Clouds 5 1034 74 10000 3.58 337 15:27 21.01.2022
3588 Clouds 4 1034 74 10000 3.22 336 13:18 21.01.2022
3589 Clouds 3 1035 77 10000 2.59 334 12:26 21.01.2022
3590 Clouds 3 1035 80 10000 1.68 317 11:26 21.01.2022
3591 Clouds 2 1035 85 10000 0.91 290 09:46 21.01.2022
3592 Clouds 1 1034 94 10000 0.92 244 08:22 21.01.2022
3593 Clouds 1 1034 95 10000 0.84 311 04:49 21.01.2022
3594 Clouds 2 1033 95 10000 1.33 298 23:27 20.01.2022
3595 Clouds 2 1033 95 10000 1.35 294 21:50 20.01.2022
3596 Clouds 2 1033 95 10000 1.35 294 21:32 20.01.2022
3597 Clouds 2 1032 95 10000 1.46 284 20:31 20.01.2022
3598 Clouds 2 1031 93 10000 1.66 284 19:19 20.01.2022
3599 Clouds 3 1030 90 10000 2.1 306 18:23 20.01.2022
3600 Clouds 3 1030 85 10000 3.44 316 16:53 20.01.2022
3601 Clouds 4 1029 78 10000 4.45 318 15:41 20.01.2022
3602 Clouds 4 1029 73 10000 4.75 322 14:41 20.01.2022
3603 Rain 4 1029 70 10000 5.28 323 13:41 20.01.2022
3604 Clouds 4 1030 65 10000 5.08 330 12:34 20.01.2022
3605 Clouds 4 1029 69 10000 4.57 333 11:50 20.01.2022
3606 Clouds 3 1029 82 10000 3.88 330 10:39 20.01.2022
3607 Clouds 3 1028 93 10000 4.79 311 09:36 20.01.2022
3608 Clouds 3 1027 95 10000 3.13 266 07:51 20.01.2022
3609 Clouds 4 1025 96 10000 3.24 283 00:46 20.01.2022
3610 Rain 4 1025 97 6709 4.35 258 22:59 19.01.2022
3611 Clouds 4 1025 97 6331 4.84 248 22:24 19.01.2022
3612 Clouds 3 1024 97 7353 4.88 237 21:23 19.01.2022
3613 Clouds 3 1024 97 7353 4.88 237 20:49 19.01.2022
3614 Clouds 3 1024 96 7348 4.82 231 19:45 19.01.2022
3615 Clouds 3 1024 91 10000 4.72 238 18:29 19.01.2022
3616 Clouds 3 1024 91 10000 4.72 238 17:45 19.01.2022
3617 Clouds 3 1025 91 10000 4.7 242 16:48 19.01.2022
3618 Clouds 3 1025 94 10000 5.14 243 14:42 19.01.2022
3619 Clouds 2 1026 90 10000 4.6 222 12:43 19.01.2022
3620 Clouds 2 1027 87 10000 4.24 219 11:42 19.01.2022
3621 Clouds 2 1028 86 10000 4.36 213 10:35 19.01.2022
3622 Clear 2 1028 88 10000 3.11 202 09:34 19.01.2022
3623 Clouds 2 1029 93 10000 1.37 168 06:56 19.01.2022
3624 Clouds 2 1030 94 10000 1.48 187 05:18 19.01.2022
3625 Clear 4 1034 93 10000 1.42 64 23:20 18.01.2022
3626 Clear 4 1034 93 10000 1.42 64 22:34 18.01.2022
3627 Clear 4 1035 92 10000 2.19 74 21:20 18.01.2022
3628 Clear 5 1035 91 10000 1.97 67 19:55 18.01.2022
3629 Clear 5 1035 91 10000 1.97 67 19:37 18.01.2022
3630 Clouds 5 1035 90 10000 2.42 64 18:54 18.01.2022
3631 Clouds 6 1036 90 10000 2.28 66 17:58 18.01.2022
3632 Clouds 6 1036 88 10000 2.22 72 16:59 18.01.2022
3633 Clouds 7 1036 80 10000 3.04 77 15:48 18.01.2022
3634 Clouds 7 1036 80 10000 3.04 77 15:48 18.01.2022
3635 Clouds 7 1036 80 10000 3.04 77 15:48 18.01.2022
3636 Clouds 7 1036 75 10000 3.37 73 15:22 18.01.2022
3637 Clouds 6 1037 73 10000 2.53 54 12:49 18.01.2022
3638 Clouds 5 1038 85 10000 2.18 46 10:48 18.01.2022
3639 Clouds 4 1038 95 10000 1.64 45 09:29 18.01.2022
3640 Clouds 4 1038 94 10000 1.64 45 07:56 18.01.2022
3641 Clouds 4 1038 95 10000 1.77 22 05:31 18.01.2022
3642 Clouds 5 1038 96 10000 0.83 269 23:55 17.01.2022
3643 Clouds 4 1038 95 10000 0.92 242 22:29 17.01.2022
3644 Clouds 4 1038 95 10000 0.92 242 21:35 17.01.2022
3645 Clouds 4 1037 94 10000 1.35 235 20:29 17.01.2022
3646 Clouds 4 1037 94 10000 1.54 265 18:31 17.01.2022
3647 Clouds 4 1036 93 10000 1.94 266 17:51 17.01.2022
3648 Clouds 4 1036 92 10000 2.12 261 16:53 17.01.2022
3649 Clouds 4 1035 86 10000 3.7 278 15:24 17.01.2022
3650 Clouds 4 1035 86 10000 3.7 278 14:57 17.01.2022
3651 Clouds 4 1035 86 10000 4.06 281 13:30 17.01.2022
3652 Clouds 4 1035 91 10000 3.32 262 12:57 17.01.2022
3653 Clouds 3 1036 92 10000 3.26 255 11:50 17.01.2022
3654 Clouds 3 1036 93 10000 3.24 248 10:38 17.01.2022
3655 Clouds 2 1036 97 7793 2.81 225 09:35 17.01.2022
3656 Clouds 2 1035 98 2960 2.18 237 07:47 17.01.2022
3657 Clouds 2 1034 98 10000 2.04 219 07:19 17.01.2022
3658 Clouds 1 1034 98 10000 2.15 222 00:57 17.01.2022
3659 Clouds 1 1033 96 10000 2.59 221 22:53 16.01.2022
3660 Clouds 2 1032 97 6599 2.79 209 20:40 16.01.2022
3661 Clouds 2 1032 98 1506 2.63 214 19:44 16.01.2022
3662 Clouds 2 1031 98 317 2.58 227 18:42 16.01.2022
3663 Snow 2 1030 96 10000 3.58 240 17:45 16.01.2022
3664 Clouds 2 1030 97 6316 4.32 233 16:48 16.01.2022
3665 Clouds 2 1029 97 127 4.25 226 15:34 16.01.2022
3666 Clouds 2 1029 89 10000 4.11 229 14:29 16.01.2022
3667 Clouds 2 1029 87 10000 3.59 226 12:51 16.01.2022
3668 Clouds 1 1028 87 10000 3.06 216 11:48 16.01.2022
3669 Clouds 1 1028 88 10000 2.74 221 10:58 16.01.2022
3670 Clouds 1 1028 89 10000 2.38 228 10:26 16.01.2022
3671 Clouds 1 1028 89 10000 2.38 228 09:56 16.01.2022
3672 Clouds 1 1028 95 10000 2.24 222 09:23 16.01.2022
3673 Clouds 0 1028 95 10000 2.24 222 08:47 16.01.2022
3674 Clouds 1 1025 95 10000 1.89 182 03:58 16.01.2022
3675 Clouds 1 1026 93 10000 1.12 168 23:51 15.01.2022
3676 Clouds 1 1026 93 10000 0.96 151 22:37 15.01.2022
3677 Clouds 1 1026 92 10000 0.82 151 21:21 15.01.2022
3678 Clouds 1 1026 92 10000 0.82 151 20:43 15.01.2022
3679 Clouds 1 1026 92 10000 0.75 130 19:52 15.01.2022
3680 Clouds 1 1026 91 10000 1.08 100 19:19 15.01.2022
3681 Clouds 1 1026 90 10000 1.15 86 17:49 15.01.2022
3682 Clouds 2 1026 89 10000 1.25 68 16:38 15.01.2022
3683 Clear 5 1027 73 10000 1.2 33 13:57 15.01.2022
3684 Clear 5 1029 75 10000 1.28 41 12:23 15.01.2022
3685 Clear 2 1029 77 10000 1.24 45 11:18 15.01.2022
3686 Clear -1 1030 85 10000 1.45 63 09:21 15.01.2022
3687 Clear 0 1033 88 10000 1.61 58 00:52 15.01.2022
3688 Clear 1 1034 87 10000 1.38 60 21:57 14.01.2022
3689 Clear 1 1034 86 10000 1.39 66 20:51 14.01.2022
3690 Clear 2 1034 85 10000 1.06 64 20:23 14.01.2022
3691 Clear 2 1034 85 10000 1.06 64 19:48 14.01.2022
3692 Clear 3 1034 85 10000 1.18 71 18:33 14.01.2022
3693 Clear 6 1034 84 10000 1.31 65 16:51 14.01.2022
3694 Clear 7 1034 84 10000 1.31 65 16:33 14.01.2022
3695 Clear 9 1034 77 10000 1.21 34 14:49 14.01.2022
3696 Clear 9 1035 70 10000 1.13 19 13:48 14.01.2022
3697 Clear 7 1035 69 10000 1.37 19 12:34 14.01.2022
3698 Clear 5 1037 76 10000 1 29 11:29 14.01.2022
3699 Clear 2 1037 83 10000 1.21 39 10:22 14.01.2022
3700 Clear 1 1037 88 10000 1.01 38 08:52 14.01.2022
3701 Clear 1 1037 89 10000 0.96 61 07:27 14.01.2022
3702 Clear 1 1038 90 10000 1.04 64 01:43 14.01.2022
3703 Clear 1 1039 90 10000 1.06 61 23:36 13.01.2022
3704 Clear 1 1040 90 10000 1.63 51 21:45 13.01.2022
3705 Clear 1 1040 89 10000 1.48 53 21:27 13.01.2022
3706 Clear 2 1040 88 10000 1.43 55 19:44 13.01.2022
3707 Clear 2 1040 87 10000 1.39 60 19:22 13.01.2022
3708 Clear 2 1040 89 10000 1.53 57 18:33 13.01.2022
3709 Clear 5 1040 87 10000 1.57 51 16:43 13.01.2022
3710 Clear 6 1040 83 10000 1.64 37 15:38 13.01.2022
3711 Clear 6 1040 76 10000 1.69 29 14:50 13.01.2022
3712 Clear 6 1040 76 10000 1.69 29 14:50 13.01.2022
3713 Clear 4 1041 67 10000 1.43 34 13:22 13.01.2022
3714 Clear 0 1042 80 10000 1.6 47 10:29 13.01.2022
3715 Clear 0 1042 86 10000 1.73 50 09:22 13.01.2022
3716 Clear 0 1042 89 10000 1.51 45 08:28 13.01.2022
3717 Clear 0 1042 90 10000 1.43 55 07:25 13.01.2022
3718 Clear 0 1041 91 10000 1.53 50 06:41 13.01.2022
3719 Clear 1 1042 93 10000 1.81 40 05:20 13.01.2022
3720 Clear 1 1042 94 10000 1.58 52 03:33 13.01.2022
3721 Clear 1 1041 95 10000 1.75 49 00:56 13.01.2022
3722 Clear 1 1042 94 10000 1.88 43 23:53 12.01.2022
3723 Clear 1 1042 94 10000 1.88 43 23:32 12.01.2022
3724 Clouds 2 1041 93 10000 1.71 55 21:58 12.01.2022
3725 Clouds 2 1041 93 10000 1.71 55 21:39 12.01.2022
3726 Clouds 2 1041 92 10000 1.72 46 21:18 12.01.2022
3727 Clouds 2 1041 92 10000 1.72 46 20:41 12.01.2022
3728 Clouds 2 1040 88 10000 1.79 47 18:48 12.01.2022
3729 Clouds 2 1040 84 10000 1.57 51 17:54 12.01.2022
3730 Clouds 4 1039 84 10000 1.24 55 16:43 12.01.2022
3731 Clouds 4 1039 75 10000 1.25 29 14:49 12.01.2022
3732 Clouds 4 1039 74 10000 1.22 37 13:40 12.01.2022
3733 Clouds 3 1040 78 10000 1.44 16 12:57 12.01.2022
3734 Clouds -2 1039 90 10000 1.1 65 09:26 12.01.2022
3735 Clouds -2 1039 94 10000 1.29 51 07:57 12.01.2022
3736 Clouds -2 1039 94 10000 1.29 51 07:33 12.01.2022
3737 Clouds -2 1037 94 10000 1 72 02:20 12.01.2022
3738 Clouds -1 1037 93 10000 1.22 64 23:27 11.01.2022
3739 Clouds -1 1037 93 10000 1.22 64 22:39 11.01.2022
3740 Clouds -1 1037 92 10000 1.17 66 22:18 11.01.2022
3741 Clouds -1 1036 92 10000 1.11 67 20:40 11.01.2022
3742 Clouds -1 1036 92 10000 1.11 67 20:40 11.01.2022
3743 Clouds 0 1036 92 10000 1.15 73 19:40 11.01.2022
3744 Clear 0 1035 90 10000 1.32 58 17:55 11.01.2022
3745 Clear 1 1034 88 10000 1.49 46 16:47 11.01.2022
3746 Clear 2 1034 84 10000 1.62 18 16:28 11.01.2022
3747 Clear 4 1033 75 10000 1.25 35 14:57 11.01.2022
3748 Clear 3 1033 75 10000 1.25 35 14:38 11.01.2022
3749 Clear 4 1033 70 10000 1.34 73 13:53 11.01.2022
3750 Clear 4 1034 71 10000 1.33 66 13:28 11.01.2022
3751 Clear 4 1034 70 10000 1.28 65 12:37 11.01.2022
3752 Clear 1 1034 77 10000 1.33 46 10:45 11.01.2022
3753 Clear -1 1033 92 10000 1.21 67 08:27 11.01.2022
3754 Clouds -1 1032 93 10000 1.28 53 04:30 11.01.2022
3755 Clouds -1 1032 93 10000 1.28 53 04:30 11.01.2022
3756 Clear -1 1031 93 10000 1.1 85 00:28 11.01.2022
3757 Clear 0 1031 93 10000 1.1 85 23:40 10.01.2022
3758 Clear 0 1031 93 10000 1.27 83 22:43 10.01.2022
3759 Clear 0 1030 93 10000 1.28 72 22:18 10.01.2022
3760 Clear 0 1030 93 10000 1.28 72 21:42 10.01.2022
3761 Clear 0 1030 93 10000 1.38 77 21:18 10.01.2022
3762 Clear 0 1030 93 10000 1.38 77 20:55 10.01.2022
3763 Clear 0 1029 92 10000 1.27 83 20:23 10.01.2022
3764 Clear 0 1029 92 10000 1.27 83 19:41 10.01.2022
3765 Clear 0 1028 92 10000 1.18 74 19:19 10.01.2022
3766 Clear 0 1028 92 10000 1.18 74 18:48 10.01.2022
3767 Clear 1 1026 90 10000 1.33 64 16:59 10.01.2022
3768 Clear 1 1026 90 10000 1.33 64 16:41 10.01.2022
3769 Clear 2 1024 77 10000 1.27 38 14:58 10.01.2022
3770 Clear 2 1023 75 10000 1.31 30 13:35 10.01.2022
3771 Clear 1 1022 80 10000 1.27 37 11:57 10.01.2022
3772 Clear 1 1022 84 10000 1.32 33 11:24 10.01.2022
3773 Clear 0 1021 89 10000 1.19 25 09:41 10.01.2022
3774 Clear 0 1017 93 10000 0.8 82 06:22 10.01.2022
3775 Clear 0 1017 93 10000 0.8 82 05:49 10.01.2022
3776 Clouds 1 1012 93 10000 0.62 181 01:26 10.01.2022
3777 Clouds 1 1011 90 10000 0.62 174 00:23 10.01.2022
3778 Clouds 1 1010 89 10000 0.9 186 23:28 09.01.2022
3779 Clouds 1 1010 89 10000 0.9 186 22:33 09.01.2022
3780 Clouds 1 1010 87 10000 1.25 182 21:44 09.01.2022
3781 Clouds 1 1009 87 10000 1.44 194 21:23 09.01.2022
3782 Clouds 1 1009 87 10000 1.44 194 21:23 09.01.2022
3783 Clouds 1 1009 87 10000 1.44 194 20:50 09.01.2022
3784 Clouds 1 1009 87 10000 1.44 194 20:32 09.01.2022
3785 Clouds 2 1008 89 10000 1.22 207 19:44 09.01.2022
3786 Clouds 2 1007 93 10000 0.41 250 19:23 09.01.2022
3787 Clouds 3 1007 93 10000 0.41 250 18:51 09.01.2022
3788 Clouds 3 1007 93 10000 0.41 250 18:33 09.01.2022
3789 Clouds 4 1006 92 10000 0.58 251 17:31 09.01.2022
3790 Clouds 4 1006 92 10000 1.2 243 16:53 09.01.2022
3791 Clouds 4 1005 87 10000 2.35 250 15:57 09.01.2022
3792 Clouds 5 1005 87 10000 2.35 250 15:35 09.01.2022
3793 Clouds 5 1004 83 10000 3.57 251 14:40 09.01.2022
3794 Clouds 5 1004 82 10000 4.12 250 13:50 09.01.2022
3795 Clouds 5 1004 83 10000 5.12 248 13:22 09.01.2022
3796 Clouds 5 1004 88 10000 4.85 239 11:54 09.01.2022
3797 Clouds 4 1004 86 10000 5.09 245 10:53 09.01.2022
3798 Clouds 4 1003 84 10000 5.44 251 09:47 09.01.2022
3799 Clouds 4 1002 84 10000 5.8 259 08:51 09.01.2022
3800 Clouds 4 998 90 10000 8.21 278 05:38 09.01.2022
3801 Clouds 4 991 96 3930 7.46 200 01:24 09.01.2022
3802 Rain 4 992 97 464 6.97 191 23:47 08.01.2022
3803 Rain 4 994 97 78 7.33 184 23:26 08.01.2022
3804 Rain 4 994 97 78 7.33 184 22:30 08.01.2022
3805 Clouds 4 998 97 94 7.46 182 21:26 08.01.2022
3806 Rain 4 998 97 94 7.46 182 20:42 08.01.2022
3807 Rain 4 1000 97 177 7.45 182 20:21 08.01.2022
3808 Rain 3 1001 97 63 7.42 185 18:45 08.01.2022
3809 Clouds 3 1006 97 36 6.63 184 17:23 08.01.2022
3810 Rain 3 1008 97 55 6.62 186 15:58 08.01.2022
3811 Rain 3 1009 97 739 6.4 198 14:46 08.01.2022
3812 Clouds 3 1013 92 10000 5.89 208 13:29 08.01.2022
3813 Clouds 2 1014 95 10000 4.88 200 11:30 08.01.2022
3814 Clouds 2 1015 95 10000 4.7 212 10:31 08.01.2022
3815 Clouds 2 1015 92 10000 3.95 215 09:54 08.01.2022
3816 Clouds 2 1015 89 10000 3.22 240 09:28 08.01.2022
3817 Snow 2 1011 97 6573 4.25 326 04:25 08.01.2022
3818 Rain 2 1010 100 30 2.05 163 00:58 08.01.2022
3819 Rain 3 1012 99 45 3.19 191 22:54 07.01.2022
3820 Rain 3 1013 98 125 3.9 194 21:34 07.01.2022
3821 Clouds 3 1014 94 10000 4.28 226 20:23 07.01.2022
3822 Clouds 3 1014 88 10000 4.99 237 19:26 07.01.2022
3823 Rain 3 1014 91 10000 5.87 259 18:45 07.01.2022
3824 Clouds 3 1013 97 60 6.03 221 18:18 07.01.2022
3825 Clouds 3 1014 97 30 5.76 214 17:23 07.01.2022
3826 Clouds 3 1014 97 28 5.1 211 14:55 07.01.2022
3827 Clouds 3 1015 97 33 4.8 213 13:52 07.01.2022
3828 Clouds 2 1015 97 27 4.84 212 12:50 07.01.2022
3829 Snow 2 1016 96 117 5.53 208 10:21 07.01.2022
3830 Clouds 1 1019 81 10000 4.88 205 02:59 07.01.2022
3831 Clouds 1 1019 81 10000 4.88 205 02:59 07.01.2022
3832 Clouds 1 1019 82 10000 4.49 204 02:22 07.01.2022
3833 Clouds 1 1019 82 10000 4.49 204 01:48 07.01.2022
3834 Clouds 1 1020 82 10000 4.39 204 01:25 07.01.2022
3835 Clouds 1 1020 83 10000 4.58 204 00:30 07.01.2022
3836 Clouds 1 1020 81 10000 3.66 200 22:33 06.01.2022
3837 Clouds 1 1021 86 10000 2.63 195 20:43 06.01.2022
3838 Clouds 1 1021 84 10000 2.57 206 19:58 06.01.2022
3839 Clouds 2 1021 84 10000 2.57 206 19:36 06.01.2022
3840 Clouds 3 1021 83 10000 1.8 210 17:51 06.01.2022
3841 Clouds 3 1021 83 10000 1.88 247 17:21 06.01.2022
3842 Clouds 4 1021 83 10000 1.88 247 16:32 06.01.2022
3843 Clouds 5 1020 79 10000 1.85 258 15:44 06.01.2022
3844 Clouds 5 1020 73 10000 2.15 273 15:21 06.01.2022
3845 Clouds 5 1020 70 10000 2.59 275 14:20 06.01.2022
3846 Clouds 5 1020 70 10000 2.59 275 13:33 06.01.2022
3847 Clouds 4 1020 72 10000 2.67 278 12:20 06.01.2022
3848 Clouds 4 1021 75 10000 2.58 288 11:29 06.01.2022
3849 Clouds 2 1021 82 10000 2.46 289 09:56 06.01.2022
3850 Clouds 3 1018 94 10000 1.28 242 06:38 06.01.2022
3851 Clouds 4 1015 89 9822 3.71 317 00:34 06.01.2022
3852 Clouds 4 1015 88 10000 4.95 308 23:22 05.01.2022
3853 Clouds 4 1015 88 10000 4.95 308 22:48 05.01.2022
3854 Clouds 4 1014 91 10000 4.73 296 22:26 05.01.2022
3855 Clouds 4 1014 91 10000 4.99 288 21:28 05.01.2022
3856 Clouds 3 1014 91 10000 4.99 288 20:30 05.01.2022
3857 Clouds 3 1014 86 10000 5.24 284 19:42 05.01.2022
3858 Clouds 3 1012 84 10000 4.94 273 18:22 05.01.2022
3859 Clouds 3 1012 84 10000 5.12 272 16:57 05.01.2022
3860 Clouds 3 1011 84 10000 5.45 264 16:21 05.01.2022
3861 Clouds 3 1011 82 10000 5.5 262 15:20 05.01.2022
3862 Clouds 3 1011 80 10000 5.69 259 13:37 05.01.2022
3863 Clouds 3 1011 77 10000 5.99 265 12:46 05.01.2022
3864 Clouds 2 1009 83 10000 5.85 268 08:47 05.01.2022
3865 Clouds 2 1008 88 10000 5.28 263 07:31 05.01.2022
3866 Clouds 5 1001 88 10000 5.09 298 01:59 05.01.2022
3867 Clouds 6 1000 88 10000 6.45 244 23:50 04.01.2022
3868 Clouds 6 1000 90 10000 6.19 235 23:26 04.01.2022
3869 Clouds 6 1000 91 10000 5.97 223 22:21 04.01.2022
3870 Rain 6 1000 93 10000 4.87 214 20:50 04.01.2022
3871 Clouds 6 1000 94 10000 3.65 225 19:19 04.01.2022
3872 Clouds 7 1000 93 7284 4.99 241 17:38 04.01.2022
3873 Clouds 6 1000 90 10000 4.56 239 16:40 04.01.2022
3874 Clouds 6 1000 90 10000 4.56 239 16:40 04.01.2022
3875 Clouds 7 1000 90 10000 4.31 247 16:21 04.01.2022
3876 Rain 6 999 90 10000 3.32 245 14:52 04.01.2022
3877 Rain 7 999 90 10000 3.32 245 14:33 04.01.2022
3878 Rain 6 999 92 10000 0.25 271 13:26 04.01.2022
3879 Rain 7 997 95 6062 3.72 343 10:40 04.01.2022
3880 Rain 7 996 97 2978 2.2 312 08:59 04.01.2022
3881 Rain 7 997 96 4516 4.57 234 08:25 04.01.2022
3882 Rain 10 1003 92 10000 7.71 221 01:51 04.01.2022
3883 Rain 9 1004 92 10000 8.2 230 00:40 04.01.2022
3884 Rain 10 1007 96 7641 3.41 213 22:51 03.01.2022
3885 Rain 9 1008 92 10000 4.73 231 21:42 03.01.2022
3886 Rain 10 1009 90 8916 7.46 235 21:24 03.01.2022
3887 Rain 10 1010 93 10000 6.72 223 19:47 03.01.2022
3888 Rain 10 1011 91 10000 5.41 220 18:47 03.01.2022
3889 Rain 10 1011 88 10000 7.22 233 18:24 03.01.2022
3890 Rain 10 1012 87 10000 7.32 234 16:58 03.01.2022
3891 Rain 10 1013 83 10000 8.43 236 14:56 03.01.2022
3892 Clouds 10 1013 83 10000 8.43 236 14:30 03.01.2022
3893 Clouds 10 1015 82 10000 7.24 236 12:39 03.01.2022
3894 Clouds 10 1016 83 10000 7.27 241 11:35 03.01.2022
3895 Clouds 10 1017 88 10000 6.72 236 10:26 03.01.2022
3896 Clouds 10 1017 86 10000 6.9 238 08:47 03.01.2022
3897 Clouds 9 1017 88 10000 6.5 237 07:34 03.01.2022
3898 Rain 11 1017 80 10000 9.02 247 23:55 02.01.2022
3899 Rain 11 1017 83 10000 9.15 237 23:21 02.01.2022
3900 Clouds 12 1017 83 10000 9.15 237 22:53 02.01.2022
3901 Clouds 12 1017 84 10000 8.72 231 21:39 02.01.2022
3902 Clouds 12 1017 84 10000 8.19 228 20:33 02.01.2022
3903 Clouds 12 1017 84 10000 7.82 231 19:55 02.01.2022
3904 Clouds 12 1017 86 10000 7.69 233 19:30 02.01.2022
3905 Clouds 12 1018 87 10000 7.08 231 18:44 02.01.2022
3906 Clouds 12 1017 87 10000 6.09 232 17:54 02.01.2022
3907 Clouds 12 1017 87 10000 6.09 232 17:36 02.01.2022
3908 Clouds 12 1018 85 10000 6.32 232 17:18 02.01.2022
3909 Clouds 11 1017 83 10000 5.86 231 16:25 02.01.2022
3910 Clouds 11 1017 74 10000 6.26 229 14:22 02.01.2022
3911 Clouds 10 1018 72 10000 5.42 214 12:49 02.01.2022
3912 Clouds 9 1018 73 10000 4.34 202 11:58 02.01.2022
3913 Clouds 8 1019 73 10000 5.4 204 11:26 02.01.2022
3914 Clouds 8 1019 73 10000 5.4 204 10:46 02.01.2022
3915 Clouds 7 1019 75 10000 4.03 198 09:45 02.01.2022
3916 Clouds 7 1021 85 10000 2.05 185 05:21 02.01.2022
3917 Clouds 8 1022 91 10000 2.1 179 01:41 02.01.2022
3918 Clouds 9 1024 91 10000 2.19 197 23:39 01.01.2022
3919 Clouds 9 1024 92 10000 2.12 178 22:57 01.01.2022
3920 Clouds 9 1024 93 10000 2.1 179 22:22 01.01.2022
3921 Clouds 9 1024 93 10000 2.1 179 21:43 01.01.2022
3922 Clouds 10 1024 93 10000 2.02 181 20:55 01.01.2022
3923 Clouds 10 1025 93 10000 2.13 174 19:58 01.01.2022
3924 Clouds 10 1025 94 10000 1.74 183 19:26 01.01.2022
3925 Clouds 11 1025 93 10000 1.75 176 17:59 01.01.2022
3926 Clouds 11 1025 94 10000 1.71 176 16:41 01.01.2022
3927 Clouds 12 1025 93 10000 1.61 177 16:19 01.01.2022
3928 Clouds 12 1025 88 10000 1.48 192 15:27 01.01.2022
3929 Clouds 12 1025 85 10000 2.17 195 13:59 01.01.2022
3930 Clouds 11 1026 85 10000 2.34 190 12:50 01.01.2022
3931 Clouds 11 1026 87 10000 2.08 200 11:58 01.01.2022
3932 Clouds 11 1027 90 10000 2.09 187 11:23 01.01.2022
3933 Clouds 11 1027 90 10000 2.09 187 10:40 01.01.2022
3934 Clouds 10 1027 96 10000 1.89 184 09:46 01.01.2022
3935 Clouds 10 1027 96 10000 2.43 189 08:26 01.01.2022
3936 Clouds 11 1027 96 10000 2.43 189 07:55 01.01.2022
3937 Clouds 11 1027 96 10000 2.43 189 07:34 01.01.2022
3938 Clouds 11 1026 96 10000 2.25 187 06:42 01.01.2022
3939 Clouds 11 1026 94 10000 2.07 184 04:38 01.01.2022
3940 Clouds 11 1026 94 10000 1.87 199 03:38 01.01.2022
3941 Clouds 11 1026 94 10000 2.67 202 23:52 31.12.2021
3942 Clouds 11 1026 95 10000 2.73 226 21:54 31.12.2021
3943 Clouds 11 1025 94 10000 3.56 225 20:48 31.12.2021
3944 Clouds 11 1025 92 10000 3.84 218 19:31 31.12.2021
3945 Clouds 10 1024 94 10000 2.84 221 18:46 31.12.2021
3946 Clouds 11 1024 93 10000 3.54 214 17:45 31.12.2021
3947 Clouds 11 1023 90 10000 3.85 225 17:19 31.12.2021
3948 Clouds 11 1023 90 10000 3.85 225 16:46 31.12.2021
3949 Clouds 11 1022 87 10000 4.05 226 15:59 31.12.2021
3950 Clouds 11 1022 87 10000 4.05 226 15:40 31.12.2021
3951 Clouds 12 1021 83 10000 4.19 217 15:19 31.12.2021
3952 Clouds 12 1021 83 10000 4.19 217 14:33 31.12.2021
3953 Clouds 12 1022 81 10000 3.76 222 13:44 31.12.2021
3954 Clouds 11 1022 83 10000 3.35 223 12:49 31.12.2021
3955 Clouds 11 1023 82 10000 3.14 215 12:19 31.12.2021
3956 Clouds 11 1023 82 10000 3.14 215 11:33 31.12.2021
3957 Clouds 10 1022 88 10000 2.82 195 10:48 31.12.2021
3958 Clouds 9 1022 92 10000 2.26 201 10:25 31.12.2021
3959 Clouds 9 1022 92 10000 2.26 201 09:34 31.12.2021
3960 Clear 9 1022 95 10000 2.3 180 08:50 31.12.2021
3961 Clear 9 1022 95 10000 2.48 190 07:49 31.12.2021
3962 Clear 12 1023 94 10000 3 212 01:38 31.12.2021
3963 Clouds 13 1023 92 10000 4.16 224 23:18 30.12.2021
3964 Clouds 13 1022 91 10000 4.57 225 22:27 30.12.2021
3965 Clouds 13 1022 91 10000 4.57 225 21:39 30.12.2021
3966 Clouds 13 1022 91 10000 4.42 221 20:59 30.12.2021
3967 Clouds 13 1022 91 10000 4.42 221 20:38 30.12.2021
3968 Clouds 13 1022 92 10000 4.69 220 19:53 30.12.2021
3969 Clouds 13 1022 93 10000 4.9 222 19:28 30.12.2021
3970 Clouds 13 1021 93 10000 4.76 221 18:26 30.12.2021
3971 Clouds 13 1021 92 10000 5.01 227 16:50 30.12.2021
3972 Clouds 13 1021 91 10000 5.52 236 15:53 30.12.2021
3973 Clouds 14 1020 89 10000 6.3 242 14:55 30.12.2021
3974 Clouds 14 1020 89 10000 6.3 242 14:36 30.12.2021
3975 Clouds 14 1020 95 10000 6.15 238 13:25 30.12.2021
3976 Clouds 14 1020 95 10000 6.15 238 13:25 30.12.2021
3977 Clouds 14 1020 96 10000 5.68 237 11:57 30.12.2021
3978 Clouds 14 1019 97 6473 5.89 232 10:35 30.12.2021
3979 Clouds 13 1019 98 252 5.5 234 09:47 30.12.2021
3980 Clouds 14 1017 97 4337 5.35 225 06:59 30.12.2021
3981 Clouds 13 1016 97 10000 4.09 228 05:27 30.12.2021
3982 Clouds 13 1016 96 10000 3.59 232 03:41 30.12.2021
3983 Clouds 12 1016 92 10000 3.02 229 02:32 30.12.2021
3984 Clouds 13 1014 85 10000 5.87 262 23:39 29.12.2021
3985 Clouds 13 1013 88 10000 6.07 261 22:59 29.12.2021
3986 Clouds 13 1012 89 10000 6.43 261 22:18 29.12.2021
3987 Clouds 13 1010 89 10000 6.36 262 21:19 29.12.2021
3988 Clouds 12 1010 89 10000 6.36 262 20:30 29.12.2021
3989 Clouds 12 1010 89 10000 6.36 262 20:30 29.12.2021
3990 Clouds 12 1010 89 10000 6.36 262 20:30 29.12.2021
3991 Clouds 12 1010 89 10000 6.36 262 20:30 29.12.2021
3992 Clouds 12 1009 96 9108 5.81 258 19:43 29.12.2021
3993 Clouds 10 1010 98 138 4.63 230 18:44 29.12.2021
3994 Clouds 9 1009 97 2854 4.18 203 17:52 29.12.2021
3995 Clouds 9 1010 97 4696 3.49 186 17:27 29.12.2021
3996 Clouds 9 1009 97 3889 3.4 186 16:23 29.12.2021
3997 Rain 9 1009 97 3889 3.4 186 15:42 29.12.2021
3998 Clouds 9 1010 97 7280 3.27 191 13:53 29.12.2021
3999 Rain 9 1011 96 10000 3.35 203 12:36 29.12.2021
4000 Clouds 9 1010 95 10000 3.27 209 11:27 29.12.2021
4001 Clouds 8 1010 95 10000 3.22 227 09:56 29.12.2021
4002 Clouds 8 1009 91 10000 3.9 240 07:51 29.12.2021
4003 Clouds 9 1009 87 10000 4.7 257 06:38 29.12.2021
4004 Clouds 9 1008 87 10000 5.44 258 05:59 29.12.2021
4005 Clouds 9 1008 87 10000 5.44 258 05:36 29.12.2021
4006 Clouds 9 1006 89 10000 6.24 256 02:40 29.12.2021
4007 Clouds 9 1003 90 10000 7.37 263 00:22 29.12.2021
4008 Clouds 9 1003 90 10000 7.37 263 23:34 28.12.2021
4009 Clouds 9 1001 90 10000 7.56 263 22:42 28.12.2021
4010 Clouds 9 1000 90 10000 8.79 259 22:24 28.12.2021
4011 Clouds 9 1000 90 10000 8.79 259 21:37 28.12.2021
4012 Clouds 9 999 87 10000 9.54 252 20:39 28.12.2021
4013 Rain 9 997 83 10000 10.46 239 19:25 28.12.2021
4014 Clouds 9 998 81 10000 10.99 238 18:39 28.12.2021
4015 Clouds 9 998 81 10000 9.66 238 17:59 28.12.2021
4016 Clouds 9 998 78 10000 9.13 241 16:34 28.12.2021
4017 Rain 9 997 77 10000 8.68 247 15:50 28.12.2021
4018 Rain 9 997 76 10000 8.65 251 15:22 28.12.2021
4019 Rain 9 997 76 10000 8.65 251 14:50 28.12.2021
4020 Clouds 10 996 86 4760 8.69 261 14:21 28.12.2021
4021 Clouds 10 996 86 4760 8.69 261 13:42 28.12.2021
4022 Clouds 10 996 89 10000 7.4 230 13:24 28.12.2021
4023 Clouds 10 997 86 10000 8.19 229 12:49 28.12.2021
4024 Clouds 10 998 88 10000 8.23 234 11:46 28.12.2021
4025 Clouds 8 996 95 10000 5.5 225 08:53 28.12.2021
4026 Clouds 9 996 92 10000 5.58 195 06:58 28.12.2021
4027 Clouds 9 1001 94 10000 5.01 194 00:59 28.12.2021
4028 Clouds 9 1001 95 10000 4.97 208 23:26 27.12.2021
4029 Clouds 9 1001 95 10000 4.65 215 21:46 27.12.2021
4030 Clouds 8 1001 97 10000 3.31 203 21:24 27.12.2021
4031 Clouds 8 1001 96 10000 3.42 188 20:24 27.12.2021
4032 Clouds 8 1001 96 10000 3.42 188 19:43 27.12.2021
4033 Clouds 8 1000 94 10000 3.95 170 18:54 27.12.2021
4034 Clouds 8 1000 94 7913 3.95 168 17:50 27.12.2021
4035 Clouds 8 1000 92 10000 4.49 172 16:57 27.12.2021
4036 Clouds 8 1000 88 10000 4.29 168 15:53 27.12.2021
4037 Clouds 8 1000 84 10000 4.57 180 14:34 27.12.2021
4038 Clouds 8 1000 82 10000 4.57 180 13:58 27.12.2021
4039 Clouds 8 1001 87 10000 2.99 153 12:47 27.12.2021
4040 Clouds 7 1002 94 10000 1.92 136 10:36 27.12.2021
4041 Clouds 7 1002 98 6917 1.79 143 10:18 27.12.2021
4042 Clouds 6 1002 98 8265 1.68 146 08:41 27.12.2021
4043 Clouds 6 1002 98 9629 1.77 138 07:33 27.12.2021
4044 Clouds 5 1004 99 2855 1.42 160 02:29 27.12.2021
4045 Clouds 4 1005 98 7926 1.55 159 00:29 27.12.2021
4046 Clouds 4 1005 98 7926 1.55 159 23:42 26.12.2021
4047 Clouds 4 1005 98 10000 1.2 172 23:18 26.12.2021
4048 Clouds 4 1005 98 10000 1.11 142 21:33 26.12.2021
4049 Clouds 4 1005 96 10000 1.35 123 19:54 26.12.2021
4050 Rain 4 1006 96 10000 1.14 107 18:39 26.12.2021
4051 Clouds 4 1006 95 10000 1.17 94 18:19 26.12.2021
4052 Clouds 4 1006 93 10000 1.15 89 15:35 26.12.2021
4053 Clouds 4 1007 92 10000 1.16 92 13:43 26.12.2021
4054 Clouds 4 1007 92 10000 1.02 90 13:21 26.12.2021
4055 Clouds 3 1008 92 10000 0.88 102 12:35 26.12.2021
4056 Clouds 3 1008 93 10000 0.84 99 11:20 26.12.2021
4057 Clouds 2 1008 93 10000 0.9 91 09:31 26.12.2021
4058 Clouds 2 1008 93 10000 0.57 96 08:45 26.12.2021
4059 Clouds 2 1007 93 10000 0.64 76 08:26 26.12.2021
4060 Clouds 3 1007 92 10000 1.31 66 01:50 26.12.2021
4061 Clouds 3 1007 90 10000 1.43 67 00:40 26.12.2021
4062 Clouds 3 1008 91 10000 1.39 67 23:37 25.12.2021
4063 Clouds 3 1008 92 10000 1.45 60 22:38 25.12.2021
4064 Clouds 3 1007 92 10000 1.16 57 22:20 25.12.2021
4065 Clouds 3 1007 93 10000 1.75 49 20:27 25.12.2021
4066 Clouds 4 1007 93 10000 2.2 36 19:19 25.12.2021
4067 Clouds 4 1007 92 10000 1.86 39 18:39 25.12.2021
4068 Clouds 6 1007 93 10000 2.12 30 16:51 25.12.2021
4069 Clouds 7 1006 94 10000 2.29 34 15:48 25.12.2021
4070 Clouds 8 1006 94 10000 1.88 24 14:24 25.12.2021
4071 Clouds 8 1006 94 10000 1.82 36 12:42 25.12.2021
4072 Clouds 8 1006 98 10000 1.04 355 11:21 25.12.2021
4073 Clouds 8 1005 98 8676 0.59 308 09:49 25.12.2021
4074 Clouds 8 1004 99 876 1.32 238 07:39 25.12.2021
4075 Clouds 7 1004 99 182 1.1 143 01:45 25.12.2021
4076 Clouds 7 1006 99 242 1.31 191 00:27 25.12.2021
4077 Clouds 8 1006 99 365 1.39 196 22:28 24.12.2021
4078 Clouds 8 1007 99 391 1.21 222 19:36 24.12.2021
4079 Clouds 8 1006 99 360 1.18 211 19:18 24.12.2021
4080 Clouds 8 1007 99 268 1.82 208 16:50 24.12.2021
4081 Clouds 8 1007 99 224 1.44 217 15:54 24.12.2021
4082 Clouds 8 1007 99 224 1.44 217 15:34 24.12.2021
4083 Clouds 8 1007 98 151 2.3 231 14:40 24.12.2021
4084 Clouds 8 1007 98 249 2.77 217 14:19 24.12.2021
4085 Clouds 8 1007 98 249 2.77 217 13:34 24.12.2021
4086 Clouds 8 1008 98 310 2.82 218 12:47 24.12.2021
4087 Clouds 8 1008 98 293 2.34 216 11:52 24.12.2021
4088 Clouds 7 1009 98 293 2.94 231 11:25 24.12.2021
4089 Clouds 7 1009 98 293 2.94 231 10:46 24.12.2021
4090 Clouds 7 1009 98 332 3.19 227 09:33 24.12.2021
4091 Clouds 7 1009 98 434 3.54 221 08:23 24.12.2021
4092 Clouds 7 1009 98 434 3.54 221 07:47 24.12.2021
4093 Clouds 8 1009 97 6829 4.58 220 02:52 24.12.2021
4094 Clouds 7 1011 96 10000 4.68 218 23:56 23.12.2021
4095 Clouds 6 1011 97 9873 4.49 218 23:22 23.12.2021
4096 Clouds 6 1011 97 9873 4.49 218 22:37 23.12.2021
4097 Clouds 6 1012 96 10000 4.26 213 22:19 23.12.2021
4098 Clouds 6 1012 96 10000 4.33 220 20:59 23.12.2021
4099 Clouds 6 1012 95 10000 4.15 215 20:19 23.12.2021
4100 Clouds 5 1012 92 10000 4.12 219 18:36 23.12.2021
4101 Clouds 5 1012 88 10000 4.48 220 17:57 23.12.2021
4102 Clouds 4 1012 81 10000 4.37 216 16:47 23.12.2021
4103 Clouds 4 1012 74 10000 4.46 213 16:24 23.12.2021
4104 Clouds 4 1012 74 10000 4.46 213 15:31 23.12.2021
4105 Clouds 4 1012 74 10000 4.46 213 15:31 23.12.2021
4106 Clouds 3 1013 69 10000 4.17 208 14:54 23.12.2021
4107 Clouds 3 1013 69 10000 4.17 208 14:36 23.12.2021
4108 Clouds 3 1015 64 10000 3.55 206 13:19 23.12.2021
4109 Clouds 0 1016 65 10000 2.8 192 10:54 23.12.2021
4110 Clouds -1 1016 65 10000 2.23 182 09:47 23.12.2021
4111 Clouds -2 1017 66 10000 1.9 192 09:19 23.12.2021
4112 Clouds -2 1017 65 10000 1.91 180 06:59 23.12.2021
4113 Clouds -3 1018 59 10000 1.66 185 04:36 23.12.2021
4114 Clouds -3 1021 61 10000 1.18 172 23:33 22.12.2021
4115 Clouds -3 1022 61 10000 1.33 150 22:49 22.12.2021
4116 Clouds -3 1022 64 10000 0.78 139 21:57 22.12.2021
4117 Clouds -3 1022 65 10000 0.95 135 21:29 22.12.2021
4118 Clouds -3 1022 65 10000 0.95 135 20:51 22.12.2021
4119 Clouds -3 1022 65 10000 0.95 135 20:33 22.12.2021
4120 Clouds -3 1023 68 10000 0.94 125 19:35 22.12.2021
4121 Clouds -2 1024 67 10000 0.97 104 18:18 22.12.2021
4122 Clouds -1 1024 67 10000 0.97 104 17:35 22.12.2021
4123 Clouds 2 1024 61 10000 0.97 71 15:46 22.12.2021
4124 Clouds 2 1024 50 10000 1.22 77 13:46 22.12.2021
4125 Clouds 1 1025 51 10000 1.38 54 12:44 22.12.2021
4126 Clouds -1 1026 62 10000 1.33 58 10:48 22.12.2021
4127 Clouds -2 1026 74 10000 1.32 52 09:40 22.12.2021
4128 Clouds -3 1026 86 10000 1.7 65 07:55 22.12.2021
4129 Clouds -3 1027 86 10000 1.67 53 05:51 22.12.2021
4130 Clouds -3 1027 86 10000 1.67 53 05:31 22.12.2021
4131 Clouds -4 1026 86 10000 1.69 56 04:55 22.12.2021
4132 Clouds -3 1026 86 10000 1.69 56 04:31 22.12.2021
4133 Clouds -3 1026 87 10000 1.67 62 03:34 22.12.2021
4134 Clouds -2 1026 87 10000 1.74 56 02:25 22.12.2021
4135 Clear -2 1027 88 10000 1.54 59 23:47 21.12.2021
4136 Clear -2 1027 86 10000 1.55 55 22:29 21.12.2021
4137 Clear -2 1027 86 10000 1.55 55 21:53 21.12.2021
4138 Clear -2 1026 85 10000 1.42 63 21:26 21.12.2021
4139 Clear -1 1026 83 10000 1.58 68 20:24 21.12.2021
4140 Clear -1 1026 83 10000 1.58 68 19:52 21.12.2021
4141 Clear -1 1026 83 10000 1.58 68 19:31 21.12.2021
4142 Clear 0 1025 76 10000 1.52 76 18:23 21.12.2021
4143 Clear 0 1025 76 10000 1.52 76 17:52 21.12.2021
4144 Clear 2 1025 73 10000 1.64 67 16:47 21.12.2021
4145 Clear 3 1024 65 10000 2 56 15:34 21.12.2021
4146 Clear 3 1024 52 10000 2.66 64 13:55 21.12.2021
4147 Clear 3 1024 52 10000 2.66 64 13:37 21.12.2021
4148 Clear 2 1025 58 10000 2.46 68 12:25 21.12.2021
4149 Clear 0 1026 65 10000 2.09 59 10:38 21.12.2021
4150 Clear -1 1026 75 10000 1.83 47 09:42 21.12.2021
4151 Clear -2 1026 83 10000 1.93 49 08:55 21.12.2021
4152 Clear -2 1026 84 10000 1.93 49 07:43 21.12.2021
4153 Clear -2 1026 84 10000 1.99 51 07:20 21.12.2021
4154 Clear -1 1026 83 10000 2.02 50 03:24 21.12.2021
4155 Clouds -1 1027 83 10000 2.15 48 01:20 21.12.2021
4156 Clouds -1 1027 83 10000 2.08 48 23:54 20.12.2021
4157 Clouds 0 1027 84 10000 2 50 22:35 20.12.2021
4158 Clouds 0 1027 85 10000 2.11 54 21:52 20.12.2021
4159 Clouds 0 1027 86 10000 2.19 55 21:24 20.12.2021
4160 Clouds 0 1027 86 10000 2.19 55 20:54 20.12.2021
4161 Clouds 0 1027 87 10000 2.15 58 20:19 20.12.2021
4162 Clouds 1 1027 87 10000 2.15 58 19:38 20.12.2021
4163 Clouds 1 1027 85 10000 2.17 60 19:19 20.12.2021
4164 Clouds 2 1027 88 10000 2.24 57 18:32 20.12.2021
4165 Clouds 2 1027 85 10000 2.25 59 17:49 20.12.2021
4166 Clouds 4 1027 79 10000 2.38 58 16:47 20.12.2021
4167 Clouds 6 1026 71 10000 2.5 55 15:57 20.12.2021
4168 Clouds 5 1026 71 10000 2.5 55 15:35 20.12.2021
4169 Clouds 6 1026 56 10000 2.95 63 13:49 20.12.2021
4170 Clouds 6 1026 57 10000 3.39 69 12:30 20.12.2021
4171 Clouds 5 1027 62 10000 3.71 59 10:46 20.12.2021
4172 Clouds 5 1027 66 10000 3.97 54 09:40 20.12.2021
4173 Clouds 5 1027 70 10000 3.78 49 08:50 20.12.2021
4174 Clouds 5 1027 70 10000 3.78 49 08:32 20.12.2021
4175 Clouds 5 1026 71 10000 3.78 44 07:35 20.12.2021
4176 Clouds 5 1026 71 10000 4.01 37 06:39 20.12.2021
4177 Clouds 5 1028 82 10000 2.79 26 00:26 20.12.2021
4178 Clouds 5 1028 84 10000 2.87 32 23:28 19.12.2021
4179 Clouds 5 1028 84 10000 2.87 32 22:44 19.12.2021
4180 Clouds 5 1028 89 10000 2.58 36 21:32 19.12.2021
4181 Clouds 5 1028 95 10000 2.16 30 20:44 19.12.2021
4182 Clouds 5 1028 95 10000 2 7 20:23 19.12.2021
4183 Clouds 5 1028 95 10000 2 7 19:42 19.12.2021
4184 Clouds 5 1028 94 10000 1.73 354 18:46 19.12.2021
4185 Clouds 6 1028 92 10000 1.45 350 17:54 19.12.2021
4186 Clouds 6 1028 92 10000 1.45 350 17:35 19.12.2021
4187 Clouds 6 1028 91 10000 1.31 9 16:45 19.12.2021
4188 Clouds 6 1028 89 10000 1.22 8 15:56 19.12.2021
4189 Clouds 7 1028 83 10000 1.36 11 15:25 19.12.2021
4190 Clouds 7 1028 83 10000 1.36 11 14:48 19.12.2021
4191 Clouds 6 1029 79 10000 1.96 14 13:38 19.12.2021
4192 Clouds 6 1030 80 10000 2.27 17 12:59 19.12.2021
4193 Clouds 6 1030 80 10000 2.27 17 12:32 19.12.2021
4194 Clouds 5 1031 83 10000 2.01 12 11:38 19.12.2021
4195 Clouds 5 1032 86 10000 1.4 24 10:51 19.12.2021
4196 Clouds 5 1033 91 10000 1.41 40 10:23 19.12.2021
4197 Clouds 4 1033 91 10000 2.05 37 08:55 19.12.2021
4198 Clouds 4 1033 90 10000 2.4 38 07:35 19.12.2021
4199 Clouds 4 1035 91 10000 1.89 43 02:30 19.12.2021
4200 Clouds 4 1036 91 10000 2.37 42 00:55 19.12.2021
4201 Clouds 4 1036 92 10000 2.9 47 23:31 18.12.2021
4202 Clouds 4 1036 96 10000 2.19 32 22:30 18.12.2021
4203 Clouds 4 1036 96 10000 2.33 36 21:54 18.12.2021
4204 Clouds 4 1036 96 10000 2.33 36 21:33 18.12.2021
4205 Clouds 4 1036 96 10000 2.06 46 20:43 18.12.2021
4206 Clouds 4 1036 96 10000 2.35 39 19:50 18.12.2021
4207 Clear 4 1036 97 10000 2.61 36 19:19 18.12.2021
4208 Clouds 5 1036 95 10000 2.76 35 18:18 18.12.2021
4209 Clouds 5 1036 95 10000 2.76 35 17:46 18.12.2021
4210 Clouds 5 1036 92 10000 2.54 38 16:23 18.12.2021
4211 Clouds 5 1036 86 10000 2.62 39 15:26 18.12.2021
4212 Clear 5 1036 81 10000 2.91 47 14:22 18.12.2021
4213 Clear 5 1037 79 10000 2.63 48 13:18 18.12.2021
4214 Clear 4 1038 87 10000 2.41 52 10:52 18.12.2021
4215 Clear 4 1038 92 10000 2 51 09:37 18.12.2021
4216 Clear 4 1039 95 10000 2.27 48 08:42 18.12.2021
4217 Clear 4 1038 94 10000 2.26 42 08:18 18.12.2021
4218 Clear 5 1038 94 10000 2.19 47 01:48 18.12.2021
4219 Clear 4 1038 94 10000 2.27 53 00:27 18.12.2021
4220 Clear 5 1038 94 10000 2.27 53 23:37 17.12.2021
4221 Clouds 6 1039 93 10000 2.07 60 21:56 17.12.2021
4222 Clouds 7 1039 93 10000 2.35 61 20:51 17.12.2021
4223 Clouds 7 1039 93 10000 2.35 61 20:31 17.12.2021
4224 Clouds 7 1039 94 10000 2.95 55 18:58 17.12.2021
4225 Clear 7 1038 95 10000 2.53 48 18:38 17.12.2021
4226 Clear 7 1038 95 10000 2.89 47 17:26 17.12.2021
4227 Clear 7 1038 95 10000 2.89 47 16:44 17.12.2021
4228 Clear 7 1038 93 10000 2.6 41 16:19 17.12.2021
4229 Clear 8 1038 85 10000 2.45 38 15:20 17.12.2021
4230 Clear 8 1038 85 10000 2.45 38 14:38 17.12.2021
4231 Clouds 8 1038 82 10000 2.53 48 12:46 17.12.2021
4232 Clouds 8 1039 89 10000 2.03 34 11:27 17.12.2021
4233 Clouds 7 1039 95 10000 1.85 32 09:59 17.12.2021
4234 Clouds 7 1039 97 10000 1.78 45 08:58 17.12.2021
4235 Clouds 7 1038 97 10000 1.85 49 08:29 17.12.2021
4236 Clear 8 1038 96 10000 2.09 39 05:41 17.12.2021
4237 Clear 8 1038 96 10000 2 51 02:52 17.12.2021
4238 Clouds 8 1039 95 10000 2.02 47 23:23 16.12.2021
4239 Clouds 8 1039 95 10000 1.89 45 22:24 16.12.2021
4240 Clouds 8 1039 95 10000 1.89 45 22:24 16.12.2021
4241 Clouds 8 1039 95 10000 1.89 45 22:24 16.12.2021
4242 Clouds 8 1039 95 10000 1.89 45 21:47 16.12.2021
4243 Clouds 8 1038 94 10000 1.45 48 21:25 16.12.2021
4244 Clouds 9 1038 92 10000 1.47 51 20:28 16.12.2021
4245 Clouds 8 1038 92 10000 1.47 51 19:42 16.12.2021
4246 Clear 9 1038 92 10000 1.72 48 18:38 16.12.2021
4247 Clear 9 1038 90 10000 1.62 49 17:55 16.12.2021
4248 Clear 9 1037 88 10000 1.34 67 17:28 16.12.2021
4249 Clear 9 1037 84 10000 1.62 51 16:21 16.12.2021
4250 Clear 10 1037 77 10000 1.74 48 14:50 16.12.2021
4251 Clouds 10 1037 70 10000 2.03 42 13:25 16.12.2021
4252 Clouds 9 1037 77 10000 1.09 46 11:20 16.12.2021
4253 Clouds 8 1037 77 10000 1.09 46 10:58 16.12.2021
4254 Clouds 8 1036 82 10000 1.14 57 10:20 16.12.2021
4255 Clouds 7 1036 83 10000 0.83 66 07:48 16.12.2021
4256 Clouds 7 1035 83 10000 0.77 71 06:21 16.12.2021
4257 Clouds 7 1035 88 10000 0.67 108 00:54 16.12.2021
4258 Clouds 7 1035 88 10000 0.99 133 23:33 15.12.2021
4259 Clouds 7 1035 88 10000 0.73 141 22:43 15.12.2021
4260 Clouds 7 1035 89 10000 0.35 175 21:56 15.12.2021
4261 Clouds 7 1035 88 10000 0.1 246 21:27 15.12.2021
4262 Clouds 8 1034 88 10000 0.41 149 20:18 15.12.2021
4263 Clouds 8 1034 88 10000 0.41 149 19:50 15.12.2021
4264 Clouds 8 1034 88 10000 0.97 122 18:37 15.12.2021
4265 Clouds 8 1033 87 10000 1.14 122 17:54 15.12.2021
4266 Clouds 8 1033 87 10000 1.14 122 17:36 15.12.2021
4267 Clouds 8 1033 86 10000 1.02 26 16:28 15.12.2021
4268 Clouds 9 1033 86 10000 1.02 26 15:47 15.12.2021
4269 Clouds 9 1033 84 10000 1 4 15:27 15.12.2021
4270 Clouds 9 1032 80 10000 0.68 357 14:29 15.12.2021
4271 Clouds 8 1032 81 10000 0.54 359 12:46 15.12.2021
4272 Clouds 6 1033 87 10000 0.13 334 10:42 15.12.2021
4273 Clouds 5 1033 93 10000 0.65 135 08:55 15.12.2021
4274 Clouds 6 1033 94 10000 0.46 115 07:43 15.12.2021
4275 Clouds 6 1032 94 10000 0.16 49 01:35 15.12.2021
4276 Clouds 6 1032 94 10000 0.05 11 23:42 14.12.2021
4277 Clouds 7 1031 94 10000 0.31 296 22:49 14.12.2021
4278 Clouds 7 1031 94 10000 0.56 186 22:25 14.12.2021
4279 Clouds 7 1031 94 10000 0.47 177 20:55 14.12.2021
4280 Clouds 7 1031 94 10000 0.78 150 19:44 14.12.2021
4281 Clouds 7 1031 94 10000 0.66 139 19:20 14.12.2021
4282 Clouds 7 1030 96 10000 0.77 116 18:29 14.12.2021
4283 Clouds 7 1030 96 10000 0.77 116 17:33 14.12.2021
4284 Clouds 7 1030 96 10000 0.58 349 16:42 14.12.2021
4285 Clouds 7 1030 95 10000 0.54 286 15:41 14.12.2021
4286 Clouds 7 1029 89 10000 0.82 275 13:32 14.12.2021
4287 Clouds 6 1029 89 10000 0.86 304 12:26 14.12.2021
4288 Clouds 6 1029 91 10000 0.64 287 11:24 14.12.2021
4289 Clouds 6 1029 95 10000 0.83 262 10:25 14.12.2021
4290 Clouds 6 1029 95 10000 0.83 262 09:53 14.12.2021
4291 Clouds 6 1029 97 10000 0.67 265 08:28 14.12.2021
4292 Clouds 6 1029 97 10000 0.67 265 07:59 14.12.2021
4293 Clouds 6 1028 95 10000 1.58 201 05:52 14.12.2021
4294 Clouds 7 1029 94 10000 0.69 154 23:39 13.12.2021
4295 Clear 7 1029 93 10000 0.58 150 21:54 13.12.2021
4296 Clear 7 1029 93 10000 0.58 150 21:34 13.12.2021
4297 Clear 7 1029 93 10000 0.81 141 20:50 13.12.2021
4298 Clear 7 1029 92 10000 0.76 135 19:59 13.12.2021
4299 Clouds 7 1029 91 10000 0.7 115 19:20 13.12.2021
4300 Clouds 7 1029 86 10000 0.9 83 17:26 13.12.2021
4301 Clouds 8 1029 83 10000 0.83 80 16:20 13.12.2021
4302 Clouds 8 1029 83 10000 0.83 80 15:38 13.12.2021
4303 Clouds 8 1029 78 10000 0.15 238 13:52 13.12.2021
4304 Clouds 8 1029 83 10000 0.47 89 13:18 13.12.2021
4305 Clouds 8 1029 83 10000 0.09 344 12:36 13.12.2021
4306 Clouds 7 1029 86 10000 0.05 168 11:40 13.12.2021
4307 Clouds 7 1030 90 10000 0.28 133 11:19 13.12.2021
4308 Clouds 7 1029 93 10000 0.42 167 10:21 13.12.2021
4309 Clouds 6 1029 95 10000 0.7 177 08:31 13.12.2021
4310 Clouds 6 1028 98 10000 1.41 214 05:37 13.12.2021
4311 Clouds 6 1028 98 10000 1.43 203 03:32 13.12.2021
4312 Clouds 6 1028 99 4132 1.68 201 23:43 12.12.2021
4313 Clouds 6 1028 99 3836 1.97 202 21:56 12.12.2021
4314 Clouds 6 1028 99 7017 2.2 197 20:46 12.12.2021
4315 Clouds 6 1028 98 10000 2.39 198 19:33 12.12.2021
4316 Clouds 6 1027 97 10000 2.68 196 17:54 12.12.2021
4317 Clouds 6 1027 95 10000 2.96 199 16:29 12.12.2021
4318 Clouds 5 1027 95 10000 2.96 199 15:53 12.12.2021
4319 Clouds 6 1027 93 10000 3.17 202 15:28 12.12.2021
4320 Clouds 5 1027 93 10000 3.17 202 14:42 12.12.2021
4321 Clouds 5 1027 92 10000 3.52 207 13:47 12.12.2021
4322 Clouds 5 1026 92 10000 4.01 209 12:47 12.12.2021
4323 Clouds 4 1026 91 10000 4.51 208 11:45 12.12.2021
4324 Clouds 4 1026 91 10000 4.51 208 11:45 12.12.2021
4325 Clouds 4 1026 91 10000 5.01 205 11:25 12.12.2021
4326 Clouds 4 1026 91 10000 5.01 205 10:43 12.12.2021
4327 Clouds 4 1026 92 10000 4.82 200 09:48 12.12.2021
4328 Clouds 4 1026 93 10000 4.28 198 08:42 12.12.2021
4329 Rain 3 1026 95 9889 3.67 187 06:55 12.12.2021
4330 Clouds 3 1026 94 10000 3.43 188 05:28 12.12.2021
4331 Clouds 3 1026 94 10000 3.52 193 04:18 12.12.2021
4332 Clouds 3 1025 93 10000 2.94 200 00:45 12.12.2021
4333 Clouds 3 1025 90 10000 2.49 199 22:56 11.12.2021
4334 Clouds 3 1025 87 10000 2.54 219 22:20 11.12.2021
4335 Clouds 3 1024 84 10000 3.15 237 21:26 11.12.2021
4336 Clouds 3 1024 86 10000 2.55 234 19:50 11.12.2021
4337 Clouds 3 1023 88 10000 2.23 239 19:21 11.12.2021
4338 Clouds 3 1023 89 10000 1.94 248 18:42 11.12.2021
4339 Clouds 3 1022 91 10000 1.87 259 17:48 11.12.2021
4340 Clouds 4 1020 93 10000 2.73 268 15:58 11.12.2021
4341 Clouds 4 1020 93 10000 2.73 268 15:40 11.12.2021
4342 Clouds 4 1019 89 10000 2.55 269 14:35 11.12.2021
4343 Clouds 3 1017 99 78 1.68 240 12:29 11.12.2021
4344 Clouds 2 1017 99 24 1.69 225 10:50 11.12.2021
4345 Clouds 2 1016 99 25 1.58 231 09:43 11.12.2021
4346 Clouds 2 1009 99 132 1.74 291 03:58 11.12.2021
4347 Clouds 2 1005 99 73 3.12 296 00:48 11.12.2021
4348 Rain 2 1003 99 23 3.36 296 23:44 10.12.2021
4349 Clouds 2 1002 99 23 3.25 298 22:39 10.12.2021
4350 Clouds 2 1000 99 23 2.84 296 21:41 10.12.2021
4351 Clouds 2 998 98 25 3.81 268 20:28 10.12.2021
4352 Rain 3 996 98 32 4.34 278 19:19 10.12.2021
4353 Clouds 3 995 98 30 5.57 278 17:46 10.12.2021
4354 Clouds 3 994 97 50 4.37 271 16:39 10.12.2021
4355 Clouds 2 993 98 26 2.66 259 15:45 10.12.2021
4356 Clouds 2 992 99 34 1.68 226 15:27 10.12.2021
4357 Clouds 2 992 99 34 1.68 226 14:49 10.12.2021
4358 Clouds 2 991 98 53 1.84 152 13:50 10.12.2021
4359 Rain 2 991 97 112 3.8 142 12:56 10.12.2021
4360 Rain 2 991 95 915 5.66 140 11:43 10.12.2021
4361 Snow 2 992 92 2893 6.1 140 11:19 10.12.2021
4362 Snow 2 992 92 2893 6.1 140 11:19 10.12.2021
4363 Rain 2 992 92 2547 5.72 139 09:53 10.12.2021
4364 Clouds 2 993 86 3431 4.59 145 08:23 10.12.2021
4365 Clouds 3 996 87 10000 3.88 155 04:58 10.12.2021
4366 Clouds 3 999 91 10000 3.5 163 02:47 10.12.2021
4367 Clouds 3 1004 94 10000 3.93 184 23:43 09.12.2021
4368 Clouds 3 1005 94 10000 4.04 196 22:44 09.12.2021
4369 Clouds 3 1006 94 10000 4.15 207 22:23 09.12.2021
4370 Clouds 3 1006 94 10000 4.15 207 22:23 09.12.2021
4371 Clouds 3 1006 94 10000 4.15 207 21:40 09.12.2021
4372 Clouds 3 1007 96 10000 4.27 213 20:40 09.12.2021
4373 Clouds 3 1007 98 67 3.97 209 19:46 09.12.2021
4374 Clouds 3 1007 98 34 3.86 215 19:21 09.12.2021
4375 Clouds 3 1007 98 39 3.62 230 18:25 09.12.2021
4376 Clouds 3 1007 98 39 3.62 230 17:51 09.12.2021
4377 Clouds 3 1007 98 63 3.36 224 17:25 09.12.2021
4378 Clouds 3 1007 98 63 3.36 224 16:51 09.12.2021
4379 Clouds 3 1007 98 27 3.27 210 15:31 09.12.2021
4380 Clouds 3 1007 98 24 3.5 206 14:43 09.12.2021
4381 Clouds 3 1007 88 10000 4.93 215 13:18 09.12.2021
4382 Clouds 3 1007 88 10000 4.93 215 12:34 09.12.2021
4383 Clouds 3 1008 86 10000 3.82 213 10:50 09.12.2021
4384 Clouds 2 1007 97 10000 2.4 195 08:49 09.12.2021
4385 Clouds 2 1007 97 10000 2.32 190 06:19 09.12.2021
4386 Clouds 1 1006 97 10000 2.24 210 02:49 09.12.2021
4387 Clouds 2 1005 96 10000 1.96 217 23:43 08.12.2021
4388 Clouds 2 1004 96 10000 1.84 192 23:21 08.12.2021
4389 Clouds 2 1004 96 10000 1.84 192 22:46 08.12.2021
4390 Clouds 2 1004 95 10000 1.98 178 21:40 08.12.2021
4391 Clouds 2 1003 94 10000 1.72 233 20:59 08.12.2021
4392 Clouds 2 1003 91 10000 2.18 222 19:58 08.12.2021
4393 Clouds 2 1003 91 10000 2.18 222 19:58 08.12.2021
4394 Clouds 3 1003 91 10000 2.18 222 19:33 08.12.2021
4395 Clouds 3 1002 87 10000 2.15 209 18:40 08.12.2021
4396 Clouds 4 1001 90 10000 1.98 211 17:34 08.12.2021
4397 Clouds 6 1001 87 10000 2.4 217 15:49 08.12.2021
4398 Clouds 6 1000 84 10000 2.88 214 15:28 08.12.2021
4399 Clouds 6 1000 84 10000 2.88 214 14:30 08.12.2021
4400 Clouds 6 1001 83 10000 3.74 193 11:19 08.12.2021
4401 Clouds 5 1001 83 10000 3.74 193 10:31 08.12.2021
4402 Clouds 5 1001 83 10000 3.74 193 10:31 08.12.2021
4403 Clouds 5 999 91 10000 3.73 232 08:55 08.12.2021
4404 Clouds 5 999 87 10000 4.72 218 07:25 08.12.2021
4405 Clouds 6 999 88 10000 5.67 229 04:24 08.12.2021
4406 Clouds 4 998 91 7471 7.86 168 23:33 07.12.2021
4407 Clouds 4 1001 77 10000 6.56 158 21:51 07.12.2021
4408 Clouds 4 1002 78 10000 4.98 153 21:23 07.12.2021
4409 Clouds 4 1003 82 10000 4.52 144 20:20 07.12.2021
4410 Clouds 4 1005 85 10000 4.37 156 18:43 07.12.2021
4411 Clouds 4 1006 85 10000 3.87 155 17:53 07.12.2021
4412 Clouds 4 1008 87 10000 4.59 168 17:19 07.12.2021
4413 Clouds 5 1008 87 10000 4.59 168 16:31 07.12.2021
4414 Clouds 5 1009 87 10000 4.13 173 15:34 07.12.2021
4415 Clouds 5 1011 88 10000 4.05 181 14:23 07.12.2021
4416 Clouds 4 1012 89 10000 3.61 196 12:55 07.12.2021
4417 Clouds 4 1013 83 10000 4.2 219 11:52 07.12.2021
4418 Clouds 4 1014 86 10000 3.58 232 10:36 07.12.2021
4419 Clouds 3 1014 92 10000 3.71 235 08:39 07.12.2021
4420 Clouds 3 1012 90 10000 3.64 247 06:21 07.12.2021
4421 Clouds 3 1012 90 10000 3.64 247 05:39 07.12.2021
4422 Clouds 3 1009 97 49 6.15 214 23:58 06.12.2021
4423 Rain 3 1009 97 47 5.4 192 22:58 06.12.2021
4424 Clouds 3 1009 97 47 5.4 192 22:38 06.12.2021
4425 Clouds 3 1010 97 185 5.25 185 21:54 06.12.2021
4426 Rain 3 1011 93 8977 5.01 180 20:44 06.12.2021
4427 Rain 3 1012 87 10000 5.35 188 20:26 06.12.2021
4428 Clouds 3 1012 87 10000 4.99 189 19:23 06.12.2021
4429 Clouds 3 1013 90 10000 3.91 183 18:29 06.12.2021
4430 Clouds 2 1013 90 10000 3.91 183 17:51 06.12.2021
4431 Clouds 2 1014 89 10000 3.18 182 16:56 06.12.2021
4432 Clouds 2 1014 75 10000 5 202 15:49 06.12.2021
4433 Clouds 3 1015 79 10000 3.97 208 13:47 06.12.2021
4434 Clouds 3 1015 78 10000 3.32 206 12:40 06.12.2021
4435 Clouds 2 1016 81 10000 2.43 206 11:54 06.12.2021
4436 Clouds 2 1016 88 10000 1.18 209 09:37 06.12.2021
4437 Clouds 2 1015 94 10000 0.79 253 06:59 06.12.2021
4438 Clouds 3 1012 87 10000 0.86 17 00:33 06.12.2021
4439 Clouds 3 1009 89 10000 1.12 137 21:54 05.12.2021
4440 Clouds 3 1008 93 10000 1.07 146 21:25 05.12.2021
4441 Clouds 3 1008 94 10000 1.12 122 20:20 05.12.2021
4442 Clouds 3 1008 94 10000 1.12 122 19:57 05.12.2021
4443 Clouds 3 1007 93 10000 1.32 127 19:22 05.12.2021
4444 Clouds 3 1006 95 6321 1.66 126 18:25 05.12.2021
4445 Clouds 4 1006 95 6321 1.66 126 17:49 05.12.2021
4446 Clouds 4 1005 92 10000 1.94 147 16:58 05.12.2021
4447 Clouds 4 1004 89 10000 2.09 164 16:28 05.12.2021
4448 Clouds 4 1004 89 10000 2.09 164 15:58 05.12.2021
4449 Clouds 5 1004 87 10000 2.57 181 14:47 05.12.2021
4450 Clouds 4 1003 87 10000 3.38 190 14:29 05.12.2021
4451 Clouds 5 1003 87 10000 3.38 190 13:32 05.12.2021
4452 Clouds 5 1003 92 4293 3.28 192 12:41 05.12.2021
4453 Clouds 4 1004 98 31 2.76 184 12:23 05.12.2021
4454 Clouds 4 1004 98 31 2.76 184 11:41 05.12.2021
4455 Clouds 4 1003 96 1066 4 187 10:21 05.12.2021
4456 Clouds 3 1003 96 1066 4 187 09:35 05.12.2021
4457 Clouds 4 1003 95 10000 4.18 216 04:57 05.12.2021
4458 Clouds 4 1004 94 10000 4.77 221 01:23 05.12.2021
4459 Clouds 4 1003 93 10000 4.12 237 22:44 04.12.2021
4460 Clouds 4 1003 93 10000 4.37 241 21:37 04.12.2021
4461 Clouds 5 1002 91 10000 4.59 249 20:46 04.12.2021
4462 Clouds 4 1002 87 10000 5.29 264 19:43 04.12.2021
4463 Clouds 5 1001 87 10000 5.92 273 19:23 04.12.2021
4464 Clouds 5 999 88 10000 6.24 282 17:52 04.12.2021
4465 Clouds 6 999 88 10000 6.24 282 17:32 04.12.2021
4466 Clouds 6 997 95 10000 5.78 288 16:47 04.12.2021
4467 Clouds 6 995 91 10000 5.55 277 16:27 04.12.2021
4468 Clouds 5 996 98 6792 1.94 184 12:57 04.12.2021
4469 Clouds 4 997 97 10000 1.03 159 11:40 04.12.2021
4470 Clouds 4 998 97 10000 0.54 143 11:18 04.12.2021
4471 Clouds 3 998 97 10000 0.58 91 09:44 04.12.2021
4472 Clouds 3 998 97 10000 1.17 87 08:35 04.12.2021
4473 Clouds 2 1000 98 2811 1.86 140 05:18 04.12.2021
4474 Rain 2 1000 98 2811 1.86 140 04:39 04.12.2021
4475 Clouds 3 1005 94 10000 4.97 185 23:48 03.12.2021
4476 Clouds 3 1006 94 7133 5.57 195 22:54 03.12.2021
4477 Clouds 3 1007 94 10000 5.79 193 21:58 03.12.2021
4478 Clouds 3 1008 95 2668 6.11 195 21:24 03.12.2021
4479 Clouds 3 1008 95 2668 6.11 195 20:43 03.12.2021
4480 Clouds 2 1009 93 10000 6.43 200 19:29 03.12.2021
4481 Rain 2 1010 91 10000 6.35 204 18:24 03.12.2021
4482 Clouds 3 1010 91 10000 6.35 204 17:33 03.12.2021
4483 Clouds 2 1013 83 10000 7.04 218 13:48 03.12.2021
4484 Clouds 2 1013 88 10000 6.04 213 12:51 03.12.2021
4485 Clouds 2 1015 89 10000 5.14 216 11:24 03.12.2021
4486 Snow 2 1015 85 10000 4.82 227 09:44 03.12.2021
4487 Clouds 1 1014 89 10000 4.01 233 08:23 03.12.2021
4488 Clouds 1 1015 93 10000 3.06 227 07:29 03.12.2021
4489 Clouds 1 1013 96 10000 1.41 236 01:56 03.12.2021
4490 Clouds 0 1013 93 10000 0.89 244 00:47 03.12.2021
4491 Clouds 1 1013 93 10000 1.31 281 23:44 02.12.2021
4492 Clouds 1 1011 90 10000 1.51 287 21:42 02.12.2021
4493 Clouds 1 1011 87 10000 1.9 296 20:57 02.12.2021
4494 Clouds 1 1011 87 10000 1.9 296 20:37 02.12.2021
4495 Clouds 2 1009 79 10000 4.25 344 19:25 02.12.2021
4496 Clouds 3 1007 92 10000 3.19 323 17:43 02.12.2021
4497 Clouds 3 1005 85 10000 3.44 276 15:42 02.12.2021
4498 Clouds 4 1004 85 10000 3.8 286 14:59 02.12.2021
4499 Clouds 3 1004 81 10000 5.11 293 13:58 02.12.2021
4500 Clouds 4 1004 88 4611 4.51 287 12:52 02.12.2021
4501 Clouds 4 1003 75 10000 4.88 299 12:18 02.12.2021
4502 Clouds 4 1002 84 10000 4.22 322 09:41 02.12.2021
4503 Clouds 4 1001 88 3265 5.94 290 08:52 02.12.2021
4504 Rain 4 1000 90 10000 3.7 270 04:54 02.12.2021
4505 Clouds 5 1001 90 10000 4.24 243 00:53 02.12.2021
4506 Clouds 6 1001 91 10000 5.13 244 23:28 01.12.2021
4507 Clouds 6 1000 90 10000 5.52 249 22:24 01.12.2021
4508 Clouds 6 1000 88 10000 5.44 252 20:53 01.12.2021
4509 Clouds 6 999 88 10000 5.58 261 19:58 01.12.2021
4510 Clouds 6 998 90 10000 5.44 263 19:28 01.12.2021
4511 Clouds 6 997 93 10000 5.57 258 17:50 01.12.2021
4512 Clouds 7 997 91 10000 5.48 249 16:58 01.12.2021
4513 Rain 8 996 87 10000 6.47 254 14:59 01.12.2021
4514 Clouds 8 996 93 10000 8.43 241 13:49 01.12.2021
4515 Clouds 8 996 95 10000 7.84 224 12:51 01.12.2021
4516 Clouds 7 998 94 6901 8.82 215 10:43 01.12.2021
4517 Rain 7 999 93 7169 9.45 213 09:32 01.12.2021
4518 Rain 6 1000 93 7865 8.95 211 08:40 01.12.2021
4519 Clouds 6 1001 92 10000 9 211 07:38 01.12.2021
4520 Clouds 6 1002 92 10000 9.13 211 07:19 01.12.2021
4521 Clouds 6 1007 94 10000 8.05 216 03:47 01.12.2021
4522 Clouds 6 1008 95 10000 7.71 215 02:34 01.12.2021
4523 Rain 6 1011 96 10000 7.34 224 23:57 30.11.2021
4524 Rain 6 1012 97 9985 7.45 229 23:28 30.11.2021
4525 Clouds 6 1012 97 8053 7.51 231 22:22 30.11.2021
4526 Clouds 6 1012 96 10000 7.56 238 20:46 30.11.2021
4527 Rain 6 1012 96 10000 7.37 240 20:23 30.11.2021
4528 Rain 6 1012 96 10000 7.37 240 19:38 30.11.2021
4529 Clouds 6 1012 97 10000 6.99 239 18:51 30.11.2021
4530 Clouds 5 1012 97 8661 7.53 239 17:21 30.11.2021
4531 Clouds 5 1012 97 8014 7.46 241 15:54 30.11.2021
4532 Clouds 5 1012 96 10000 7.62 240 14:31 30.11.2021
4533 Clouds 5 1012 96 10000 7.92 240 13:40 30.11.2021
4534 Rain 5 1013 96 9699 8.07 240 12:53 30.11.2021
4535 Clouds 4 1013 96 6608 8.3 242 11:55 30.11.2021
4536 Clouds 4 1013 96 7760 8.57 240 11:25 30.11.2021
4537 Clouds 4 1013 96 7760 8.57 240 10:36 30.11.2021
4538 Clouds 3 1013 96 6797 8.71 236 08:56 30.11.2021
4539 Clouds 3 1013 96 6797 8.71 236 08:32 30.11.2021
4540 Rain 3 1013 97 66 8.63 233 07:50 30.11.2021
4541 Rain 2 1014 97 50 8.27 229 06:36 30.11.2021
4542 Clouds 3 1017 94 10000 5.71 243 01:47 30.11.2021
4543 Clouds 3 1017 95 10000 4.56 238 01:27 30.11.2021
4544 Clouds 3 1016 92 10000 4.39 244 23:36 29.11.2021
4545 Clouds 3 1016 92 10000 4.28 252 23:18 29.11.2021
4546 Clouds 3 1016 92 10000 4.28 252 22:37 29.11.2021
4547 Clouds 3 1016 91 10000 3.96 262 21:54 29.11.2021
4548 Clouds 3 1015 93 10000 3.79 275 21:20 29.11.2021
4549 Clouds 3 1015 93 10000 3.79 275 20:46 29.11.2021
4550 Clouds 3 1015 95 3111 4.02 266 19:58 29.11.2021
4551 Clouds 3 1015 95 3111 4.02 266 19:40 29.11.2021
4552 Clouds 3 1014 94 5561 3.35 255 18:59 29.11.2021
4553 Clouds 2 1014 93 10000 3.94 257 18:41 29.11.2021
4554 Clouds 3 1012 90 10000 4.52 283 17:21 29.11.2021
4555 Clouds 3 1012 90 10000 4.52 283 16:45 29.11.2021
4556 Clouds 3 1012 87 10000 5.37 289 16:24 29.11.2021
4557 Clouds 3 1011 85 10000 5.25 264 14:46 29.11.2021
4558 Clouds 4 1010 81 10000 5.12 268 13:52 29.11.2021
4559 Clouds 3 1010 80 10000 5.13 279 12:59 29.11.2021
4560 Clouds 3 1010 82 10000 4.64 279 12:19 29.11.2021
4561 Clouds 2 1010 86 10000 3.87 278 11:28 29.11.2021
4562 Clouds 2 1010 92 10000 2.8 274 09:59 29.11.2021
4563 Clouds 0 1009 95 10000 1.76 258 07:47 29.11.2021
4564 Clouds 0 1007 95 10000 1.45 265 05:51 29.11.2021
4565 Clouds 1 1003 96 7665 1.33 285 01:24 29.11.2021
4566 Clouds 2 1003 96 2431 1.08 277 23:59 28.11.2021
4567 Clouds 2 1003 96 2431 1.08 277 23:40 28.11.2021
4568 Clouds 2 1002 99 377 0.97 291 22:20 28.11.2021
4569 Clouds 2 1002 99 377 0.97 291 21:39 28.11.2021
4570 Clouds 2 1001 98 259 1.23 319 20:44 28.11.2021
4571 Clouds 2 1001 97 1937 1.16 325 19:51 28.11.2021
4572 Clouds 2 1000 95 10000 1.42 335 18:40 28.11.2021
4573 Clouds 2 999 98 102 0.74 322 18:22 28.11.2021
4574 Clouds 2 999 98 102 0.74 322 17:45 28.11.2021
4575 Clouds 2 999 95 4517 0.72 311 17:18 28.11.2021
4576 Clouds 3 998 92 10000 0.63 268 16:28 28.11.2021
4577 Clouds 3 998 92 10000 0.63 268 15:51 28.11.2021
4578 Clouds 3 998 87 10000 0.73 272 14:56 28.11.2021
4579 Clouds 3 998 86 10000 0.62 232 14:29 28.11.2021
4580 Clouds 3 998 86 10000 0.63 301 12:54 28.11.2021
4581 Clouds 3 998 91 10000 0.42 313 11:56 28.11.2021
4582 Clouds 2 998 95 3894 0.76 325 10:37 28.11.2021
4583 Clouds 2 998 96 886 1.13 324 10:18 28.11.2021
4584 Clouds 2 998 96 886 1.13 324 09:36 28.11.2021
4585 Clouds 2 996 98 167 1.07 186 05:23 28.11.2021
4586 Clouds 2 996 98 57 2.69 198 22:58 27.11.2021
4587 Clouds 2 995 98 66 2.86 187 20:33 27.11.2021
4588 Rain 2 994 98 132 2.68 168 18:47 27.11.2021
4589 Clouds 3 993 94 10000 3.71 188 16:31 27.11.2021
4590 Clouds 4 993 89 10000 3.58 189 15:32 27.11.2021
4591 Clouds 3 992 85 10000 4.09 202 13:46 27.11.2021
4592 Clouds 3 992 84 10000 4.49 219 12:29 27.11.2021
4593 Clouds 2 992 87 10000 3.87 220 10:32 27.11.2021
4594 Clouds 2 991 91 10000 2.92 222 09:43 27.11.2021
4595 Clouds 2 989 97 6630 2.53 238 07:44 27.11.2021
4596 Rain 2 987 99 45 3.2 198 04:57 27.11.2021
4597 Rain 2 987 98 39 4.73 201 01:53 27.11.2021
4598 Snow 2 988 98 36 5.89 205 23:35 26.11.2021
4599 Snow 2 990 97 37 6.53 199 22:25 26.11.2021
4600 Snow 2 990 97 37 6.53 199 21:35 26.11.2021
4601 Rain 2 990 97 40 6.69 195 20:46 26.11.2021
4602 Rain 2 991 97 54 7.3 192 20:19 26.11.2021
4603 Rain 3 991 97 54 7.3 192 19:47 26.11.2021
4604 Rain 3 992 96 79 7.16 195 18:33 26.11.2021
4605 Clouds 3 995 87 10000 7.2 206 17:23 26.11.2021
4606 Rain 3 996 88 10000 6.58 205 15:57 26.11.2021
4607 Rain 4 998 87 10000 6.09 216 13:36 26.11.2021
4608 Clouds 3 999 85 10000 5.54 227 12:40 26.11.2021
4609 Clouds 3 1002 89 10000 4.69 228 10:38 26.11.2021
4610 Clouds 3 1004 95 6904 2.73 199 08:59 26.11.2021
4611 Clouds 3 1004 95 6904 2.73 199 08:39 26.11.2021
4612 Clouds 3 1005 94 10000 2.34 196 08:19 26.11.2021
4613 Clouds 2 1006 97 10000 2.04 203 06:28 26.11.2021
4614 Clouds 2 1007 96 10000 1.86 212 04:52 26.11.2021
4615 Clouds 1 1008 95 10000 1.26 214 03:26 26.11.2021
4616 Clouds 2 1011 88 10000 0.53 273 23:28 25.11.2021
4617 Clouds 3 1011 84 10000 0.5 251 21:51 25.11.2021
4618 Clouds 4 1012 82 10000 0.68 271 20:40 25.11.2021
4619 Clouds 4 1012 80 10000 0.47 231 18:50 25.11.2021
4620 Clouds 4 1011 79 10000 0.26 239 18:00 25.11.2021
4621 Clouds 4 1011 84 10000 0.38 118 17:26 25.11.2021
4622 Clouds 4 1011 84 10000 0.38 118 16:41 25.11.2021
4623 Clouds 5 1011 79 10000 0.49 85 15:58 25.11.2021
4624 Clouds 5 1011 68 10000 1.96 21 14:24 25.11.2021
4625 Clouds 4 1011 65 10000 2.2 20 12:55 25.11.2021
4626 Clouds 3 1012 69 10000 2.47 4 11:55 25.11.2021
4627 Clouds 3 1012 74 10000 1.82 11 10:31 25.11.2021
4628 Clouds 2 1012 95 10000 1.46 47 06:36 25.11.2021
4629 Clear 2 1013 96 10000 0.62 78 02:56 25.11.2021
4630 Clear 2 1015 95 10000 0.81 37 23:40 24.11.2021
4631 Clear 1 1016 94 10000 1.4 57 22:29 24.11.2021
4632 Clear 2 1016 94 10000 1.4 57 21:48 24.11.2021
4633 Clear 2 1016 94 10000 1.52 60 21:21 24.11.2021
4634 Clear 2 1017 93 10000 1.55 60 20:27 24.11.2021
4635 Clear 2 1017 93 10000 1.55 60 19:36 24.11.2021
4636 Clear 3 1018 90 10000 1.27 89 18:19 24.11.2021
4637 Clear 5 1018 81 10000 1.39 81 16:21 24.11.2021
4638 Clear 7 1019 71 10000 1.97 74 14:58 24.11.2021
4639 Clear 7 1019 66 10000 2.62 78 14:22 24.11.2021
4640 Clear 7 1019 66 10000 2.53 72 13:35 24.11.2021
4641 Clear 6 1021 70 10000 2.51 74 11:34 24.11.2021
4642 Clear 6 1023 76 10000 2.2 64 10:58 24.11.2021
4643 Clear 5 1023 76 10000 2.2 64 10:36 24.11.2021
4644 Clear 4 1023 83 10000 1.88 58 09:35 24.11.2021
4645 Clear 3 1025 93 10000 1.99 59 07:41 24.11.2021
4646 Clouds 3 1025 92 10000 1.64 70 05:41 24.11.2021
4647 Clouds 4 1026 92 10000 2.03 60 03:44 24.11.2021
4648 Clouds 4 1028 95 10000 1.63 65 23:35 23.11.2021
4649 Clouds 5 1029 95 10000 1.94 57 22:39 23.11.2021
4650 Clouds 5 1029 95 10000 2.21 53 21:45 23.11.2021
4651 Clouds 6 1029 95 10000 2.48 44 20:36 23.11.2021
4652 Clouds 6 1029 95 10000 2.37 44 19:36 23.11.2021
4653 Clear 5 1029 94 10000 2.05 52 18:35 23.11.2021
4654 Clear 6 1029 92 10000 2.16 47 17:57 23.11.2021
4655 Clear 6 1028 89 10000 2.22 49 16:37 23.11.2021
4656 Clear 8 1028 69 10000 3.29 45 15:27 23.11.2021
4657 Clear 8 1028 69 10000 3.29 45 14:56 23.11.2021
4658 Clear 7 1029 65 10000 3.51 42 13:33 23.11.2021
4659 Clouds 4 1030 69 10000 2.7 46 10:40 23.11.2021
4660 Clear 2 1031 76 10000 2.36 37 09:48 23.11.2021
4661 Clear 1 1031 85 10000 1.87 41 08:43 23.11.2021
4662 Clear 0 1030 92 10000 2.39 38 05:57 23.11.2021
4663 Clear 0 1029 93 10000 2.44 34 03:39 23.11.2021
4664 Clear 1 1030 93 10000 2.56 34 23:43 22.11.2021
4665 Clear 1 1030 93 10000 2.62 34 23:20 22.11.2021
4666 Clear 2 1030 93 10000 2.62 34 22:32 22.11.2021
4667 Clear 2 1029 92 10000 2.48 41 21:45 22.11.2021
4668 Clear 2 1029 92 10000 2.71 34 21:26 22.11.2021
4669 Clear 2 1029 92 10000 2.71 34 20:49 22.11.2021
4670 Clear 2 1029 92 10000 2.71 34 20:49 22.11.2021
4671 Clouds 3 1027 90 10000 3.17 28 19:26 22.11.2021
4672 Clouds 4 1027 90 10000 3.17 28 18:58 22.11.2021
4673 Clouds 4 1027 88 10000 2.99 29 18:35 22.11.2021
4674 Clouds 5 1026 78 10000 4.84 55 16:56 22.11.2021
4675 Clouds 7 1025 71 10000 5.3 50 15:42 22.11.2021
4676 Clouds 7 1024 71 10000 6.17 46 12:56 22.11.2021
4677 Clouds 6 1024 76 10000 6.25 49 11:41 22.11.2021
4678 Clouds 6 1024 81 10000 6.56 48 10:38 22.11.2021
4679 Clouds 6 1022 92 10000 4.5 35 09:24 22.11.2021
4680 Clouds 5 1022 92 10000 4.5 35 08:36 22.11.2021
4681 Clouds 6 1019 97 10000 2.63 20 04:32 22.11.2021
4682 Rain 6 1016 96 10000 1.89 18 23:23 21.11.2021
4683 Rain 6 1016 96 10000 1.89 18 22:46 21.11.2021
4684 Clouds 6 1015 96 10000 1.68 24 21:48 21.11.2021
4685 Clouds 6 1015 96 10000 1.59 24 20:41 21.11.2021
4686 Clouds 6 1014 96 10000 1.88 22 19:46 21.11.2021
4687 Clouds 6 1013 97 10000 1.71 23 17:59 21.11.2021
4688 Clouds 6 1013 97 10000 1.71 23 17:37 21.11.2021
4689 Rain 6 1012 93 10000 1.26 207 15:28 21.11.2021
4690 Clouds 7 1012 93 10000 1.26 207 14:45 21.11.2021
4691 Clouds 6 1012 91 10000 1.26 224 13:40 21.11.2021
4692 Clouds 6 1013 89 10000 1.42 236 12:35 21.11.2021
4693 Clouds 6 1013 88 10000 1.71 220 11:42 21.11.2021
4694 Clouds 6 1014 88 10000 1.75 216 11:23 21.11.2021
4695 Clouds 6 1014 88 10000 1.49 208 10:18 21.11.2021
4696 Clouds 5 1014 94 10000 1.67 197 08:42 21.11.2021
4697 Clouds 5 1014 95 10000 1.45 205 08:22 21.11.2021
4698 Clouds 5 1014 95 10000 1.45 205 07:43 21.11.2021
4699 Clouds 5 1014 97 10000 1.46 221 05:53 21.11.2021
4700 Clouds 5 1015 97 10000 1.68 205 05:25 21.11.2021
4701 Clouds 5 1016 96 10000 1.59 206 03:19 21.11.2021
4702 Clouds 5 1016 96 10000 1.59 206 02:51 21.11.2021
4703 Clear 6 1017 96 10000 1.52 205 00:59 21.11.2021
4704 Clear 6 1018 95 10000 1.5 197 23:47 20.11.2021
4705 Clear 6 1019 94 10000 1.17 207 21:41 20.11.2021
4706 Clear 6 1020 94 10000 1.43 210 21:23 20.11.2021
4707 Clear 7 1020 93 10000 1.13 196 18:46 20.11.2021
4708 Clear 7 1021 92 10000 1.75 215 18:26 20.11.2021
4709 Clear 7 1021 92 10000 1.75 215 17:57 20.11.2021
4710 Clear 9 1021 90 10000 0.9 180 16:57 20.11.2021
4711 Clear 11 1023 76 10000 1.1 250 14:48 20.11.2021
4712 Clear 11 1024 74 10000 0.62 257 14:27 20.11.2021
4713 Clouds 10 1026 76 10000 0.29 226 12:23 20.11.2021
4714 Clouds 10 1027 80 10000 0.13 223 11:18 20.11.2021
4715 Clouds 8 1028 85 10000 0.2 95 09:51 20.11.2021
4716 Clouds 7 1028 94 10000 0.74 152 07:47 20.11.2021
4717 Clouds 8 1029 93 10000 0.79 158 05:29 20.11.2021
4718 Clouds 8 1029 93 10000 0.79 158 04:51 20.11.2021
4719 Clouds 9 1030 91 10000 0.61 138 03:24 20.11.2021
4720 Clouds 9 1030 92 10000 1 159 00:41 20.11.2021
4721 Clouds 9 1030 90 10000 1.01 142 23:43 19.11.2021
4722 Clouds 9 1031 87 10000 0.81 154 22:52 19.11.2021
4723 Clouds 9 1031 89 10000 0.32 204 21:21 19.11.2021
4724 Clouds 9 1031 89 10000 0.32 204 20:37 19.11.2021
4725 Clouds 9 1031 92 10000 0.39 240 19:56 19.11.2021
4726 Clouds 9 1031 92 10000 0.39 240 19:34 19.11.2021
4727 Clouds 9 1031 92 10000 1.07 212 18:43 19.11.2021
4728 Clouds 9 1031 91 10000 1.63 197 17:38 19.11.2021
4729 Clouds 10 1031 89 10000 1.37 212 16:22 19.11.2021
4730 Clouds 10 1032 85 10000 1.78 235 14:19 19.11.2021
4731 Clouds 8 1033 90 10000 2.2 211 10:52 19.11.2021
4732 Clouds 8 1033 92 10000 2.01 210 10:23 19.11.2021
4733 Clouds 7 1033 94 10000 2.01 202 08:32 19.11.2021
4734 Clouds 7 1032 97 10000 1.71 213 04:55 19.11.2021
4735 Clouds 7 1032 97 10000 2.19 206 03:19 19.11.2021
4736 Clouds 7 1032 96 10000 2.17 201 23:53 18.11.2021
4737 Clouds 7 1032 96 10000 1.93 217 22:43 18.11.2021
4738 Clouds 7 1032 95 10000 1.98 209 20:56 18.11.2021
4739 Clouds 7 1032 95 10000 1.98 209 20:37 18.11.2021
4740 Clouds 7 1032 95 10000 1.4 233 20:19 18.11.2021
4741 Clouds 7 1032 95 10000 1.4 233 19:36 18.11.2021
4742 Clouds 7 1032 94 10000 1.9 228 18:37 18.11.2021
4743 Clouds 7 1031 92 10000 2.21 226 17:52 18.11.2021
4744 Clouds 7 1031 90 10000 2.44 224 16:47 18.11.2021
4745 Clouds 7 1030 82 10000 2.41 230 15:56 18.11.2021
4746 Clouds 8 1030 74 10000 3.04 243 14:57 18.11.2021
4747 Clouds 8 1031 75 10000 2.8 244 12:55 18.11.2021
4748 Clouds 7 1031 77 10000 1.98 247 11:44 18.11.2021
4749 Clouds 7 1031 82 10000 1.98 230 11:25 18.11.2021
4750 Clouds 6 1031 87 10000 1.75 209 10:24 18.11.2021
4751 Clouds 5 1031 93 10000 1.55 198 08:30 18.11.2021
4752 Clouds 5 1030 94 10000 0.93 192 06:49 18.11.2021
4753 Clouds 6 1030 93 10000 0.89 225 05:46 18.11.2021
4754 Clouds 6 1029 85 10000 1.45 280 01:26 18.11.2021
4755 Clouds 7 1028 92 10000 1.29 219 23:46 17.11.2021
4756 Clouds 7 1028 94 10000 1.01 264 22:40 17.11.2021
4757 Clouds 7 1028 96 10000 1.46 219 22:19 17.11.2021
4758 Clouds 7 1028 96 10000 1.46 219 21:36 17.11.2021
4759 Clouds 7 1027 92 10000 1.76 211 20:18 17.11.2021
4760 Clouds 7 1025 91 10000 2.15 208 17:36 17.11.2021
4761 Clouds 7 1024 87 10000 2.53 217 16:28 17.11.2021
4762 Clouds 7 1024 82 10000 2.83 223 13:49 17.11.2021
4763 Clouds 7 1024 80 10000 3.21 228 12:38 17.11.2021
4764 Clouds 6 1024 79 10000 2.6 212 11:28 17.11.2021
4765 Clouds 5 1024 79 10000 2.11 232 09:58 17.11.2021
4766 Clouds 5 1023 83 10000 1.88 208 09:23 17.11.2021
4767 Clouds 5 1023 85 10000 1.62 222 07:41 17.11.2021
4768 Clouds 5 1021 85 10000 1.33 241 02:56 17.11.2021
4769 Clouds 5 1021 86 10000 1.27 245 00:46 17.11.2021
4770 Clouds 5 1021 87 10000 1.35 223 22:41 16.11.2021
4771 Clouds 6 1022 87 10000 1.08 218 20:20 16.11.2021
4772 Clouds 6 1022 87 10000 1.08 218 19:57 16.11.2021
4773 Clouds 6 1021 87 10000 0.86 210 18:53 16.11.2021
4774 Clouds 6 1021 87 10000 0.7 214 18:29 16.11.2021
4775 Clouds 6 1021 87 10000 0.7 214 17:31 16.11.2021
4776 Clouds 6 1021 86 10000 0.53 240 16:32 16.11.2021
4777 Clouds 6 1021 84 10000 0.42 243 15:49 16.11.2021
4778 Clouds 7 1021 81 10000 0.29 282 14:31 16.11.2021
4779 Clouds 6 1023 82 10000 0.75 7 11:22 16.11.2021
4780 Clouds 6 1024 87 10000 0.72 27 09:45 16.11.2021
4781 Clouds 6 1024 96 10000 0.89 27 08:25 16.11.2021
4782 Clouds 6 1024 96 10000 0.89 27 07:31 16.11.2021
4783 Clouds 6 1023 95 10000 1.59 45 01:38 16.11.2021
4784 Clouds 6 1023 92 10000 1.94 22 22:52 15.11.2021
4785 Clouds 6 1023 92 10000 1.94 22 22:30 15.11.2021
4786 Clouds 6 1023 90 10000 1.97 17 21:53 15.11.2021
4787 Clouds 6 1023 89 10000 1.82 17 21:28 15.11.2021
4788 Clouds 6 1023 89 10000 1.98 24 19:42 15.11.2021
4789 Clouds 7 1023 90 10000 2.05 29 18:33 15.11.2021
4790 Clouds 7 1022 84 10000 3.61 40 16:20 15.11.2021
4791 Clouds 7 1022 84 10000 3.61 40 15:41 15.11.2021
4792 Clouds 7 1022 83 10000 3.74 35 15:23 15.11.2021
4793 Clouds 8 1022 75 10000 4.09 51 13:29 15.11.2021
4794 Clouds 8 1023 82 10000 4.32 50 11:21 15.11.2021
4795 Clouds 8 1024 86 10000 4.35 49 09:28 15.11.2021
4796 Clouds 8 1024 89 10000 4.06 52 07:52 15.11.2021
4797 Clouds 7 1024 98 10000 2.45 35 05:21 15.11.2021
4798 Clouds 9 1024 96 10000 2.59 41 23:57 14.11.2021
4799 Clouds 9 1024 96 10000 2.53 40 22:37 14.11.2021
4800 Clouds 9 1023 94 10000 2.58 41 19:59 14.11.2021
4801 Clouds 9 1023 90 10000 3.19 49 19:18 14.11.2021
4802 Clouds 9 1023 90 10000 3.19 49 18:54 14.11.2021
4803 Clouds 9 1023 90 10000 3.19 49 18:36 14.11.2021
4804 Clouds 9 1022 87 10000 3.99 58 18:18 14.11.2021
4805 Clouds 9 1022 87 10000 3.99 58 17:57 14.11.2021
4806 Clouds 9 1022 87 10000 3.99 58 17:39 14.11.2021
4807 Clouds 9 1022 83 10000 4.17 59 17:21 14.11.2021
4808 Clouds 9 1022 83 10000 4.17 59 16:49 14.11.2021
4809 Clouds 10 1021 82 10000 4.6 62 16:21 14.11.2021
4810 Clouds 10 1021 82 10000 4.6 62 15:46 14.11.2021
4811 Clouds 10 1021 83 10000 4.26 62 15:18 14.11.2021
4812 Clouds 10 1021 83 10000 4.26 62 14:32 14.11.2021
4813 Clouds 10 1020 84 10000 3.95 61 13:59 14.11.2021
4814 Clouds 10 1020 84 10000 3.95 61 13:40 14.11.2021
4815 Clouds 9 1020 88 10000 3.31 55 12:45 14.11.2021
4816 Clouds 9 1020 88 10000 3.53 63 12:18 14.11.2021
4817 Clouds 9 1020 89 10000 3.27 67 10:52 14.11.2021
4818 Clouds 9 1019 91 10000 3.33 63 10:27 14.11.2021
4819 Clouds 8 1019 95 10000 2.69 53 08:58 14.11.2021
4820 Clouds 8 1018 96 10000 2.58 47 08:23 14.11.2021
4821 Clouds 9 1016 97 10000 1.2 44 04:46 14.11.2021
4822 Clouds 9 1016 99 6320 0.76 194 22:28 13.11.2021
4823 Clouds 9 1016 99 6320 0.76 194 22:28 13.11.2021
4824 Clouds 9 1016 99 6320 0.76 194 21:58 13.11.2021
4825 Clouds 9 1015 98 10000 1.33 225 21:29 13.11.2021
4826 Clouds 9 1015 98 10000 1.74 214 20:25 13.11.2021
4827 Clouds 9 1015 99 8853 2 205 18:53 13.11.2021
4828 Clouds 9 1015 98 6165 1.93 212 18:26 13.11.2021
4829 Clouds 10 1014 98 7327 1.94 216 17:23 13.11.2021
4830 Clouds 10 1014 97 6246 2.11 237 15:42 13.11.2021
4831 Clouds 10 1014 98 460 2.42 231 14:39 13.11.2021
4832 Clouds 10 1014 98 423 2.95 224 13:46 13.11.2021
4833 Clouds 9 1013 98 632 3.33 225 12:41 13.11.2021
4834 Clouds 9 1014 98 5975 3.62 215 11:46 13.11.2021
4835 Clouds 8 1014 98 3023 4.09 213 10:57 13.11.2021
4836 Clouds 7 1014 97 3607 4.54 205 10:29 13.11.2021
4837 Clouds 6 1014 97 3607 4.54 205 09:42 13.11.2021
4838 Clouds 6 1014 98 2551 4.34 202 09:22 13.11.2021
4839 Clouds 6 1014 98 2551 4.34 202 08:41 13.11.2021
4840 Rain 5 1014 97 10000 3.77 197 07:26 13.11.2021
4841 Clouds 4 1014 87 10000 3.21 188 04:40 13.11.2021
4842 Clouds 3 1015 78 10000 2.61 178 02:41 13.11.2021
4843 Clouds 2 1017 74 10000 1.89 195 23:33 12.11.2021
4844 Clouds 2 1018 72 10000 1.74 210 21:54 12.11.2021
4845 Clouds 3 1017 69 10000 2.01 192 20:46 12.11.2021
4846 Clouds 2 1017 68 10000 2.39 177 19:32 12.11.2021
4847 Clouds 3 1017 71 10000 2.23 177 18:57 12.11.2021
4848 Clouds 3 1017 70 10000 1.55 217 18:18 12.11.2021
4849 Clouds 3 1017 70 10000 1.55 217 18:18 12.11.2021
4850 Clouds 3 1017 63 10000 1.41 205 15:54 12.11.2021
4851 Clear 4 1019 46 10000 2.21 229 13:27 12.11.2021
4852 Clear 3 1020 51 10000 1.56 193 11:24 12.11.2021
4853 Clear 3 1020 51 10000 1.56 193 11:24 12.11.2021
4854 Clear 2 1021 58 10000 1.46 189 10:20 12.11.2021
4855 Clear 2 1021 58 10000 1.46 189 10:20 12.11.2021
4856 Clear 1 1021 69 10000 0.91 161 08:55 12.11.2021
4857 Clear 0 1022 82 10000 0.39 125 06:37 12.11.2021
4858 Clear 1 1024 81 10000 0.79 63 00:21 12.11.2021
4859 Clear 1 1024 81 10000 0.85 71 23:27 11.11.2021
4860 Clear 1 1025 80 10000 0.93 60 22:21 11.11.2021
4861 Clear 2 1025 79 10000 0.98 72 21:26 11.11.2021
4862 Clear 2 1025 78 10000 1.02 78 19:56 11.11.2021
4863 Clear 4 1024 78 10000 0.79 92 18:40 11.11.2021
4864 Clear 5 1024 77 10000 0.73 83 17:41 11.11.2021
4865 Clear 10 1024 66 10000 0.53 319 15:41 11.11.2021
4866 Clear 9 1024 56 10000 0.46 318 14:42 11.11.2021
4867 Clear 9 1024 53 10000 0.51 26 14:22 11.11.2021
4868 Clear 9 1024 53 10000 0.51 26 13:35 11.11.2021
4869 Clear 7 1025 59 10000 0.77 347 12:27 11.11.2021
4870 Clear 4 1026 69 10000 0.14 247 09:59 11.11.2021
4871 Clear 2 1026 78 10000 0.89 346 09:23 11.11.2021
4872 Clear 0 1026 85 10000 0.34 42 07:34 11.11.2021
4873 Clouds 1 1025 88 10000 0.74 39 00:40 11.11.2021
4874 Clouds 2 1025 87 10000 0.53 47 22:46 10.11.2021
4875 Clouds 2 1026 86 10000 0.71 78 21:56 10.11.2021
4876 Clouds 3 1025 86 10000 0.46 57 21:18 10.11.2021
4877 Clouds 3 1025 86 10000 0.46 57 20:35 10.11.2021
4878 Clouds 3 1025 86 10000 0.8 98 19:46 10.11.2021
4879 Clouds 6 1024 83 10000 0.48 52 17:39 10.11.2021
4880 Clouds 8 1024 77 10000 0.79 257 16:21 10.11.2021
4881 Clouds 9 1024 68 10000 0.36 226 14:25 10.11.2021
4882 Clouds 8 1024 68 10000 0.36 226 13:40 10.11.2021
4883 Clouds 7 1025 69 10000 0.98 277 12:40 10.11.2021
4884 Clouds 3 1026 77 10000 0.57 297 10:20 10.11.2021
4885 Clouds 1 1026 84 10000 0.32 195 08:45 10.11.2021
4886 Clouds 1 1026 89 10000 0.72 141 07:22 10.11.2021
4887 Clouds 1 1025 90 10000 0.87 75 05:59 10.11.2021
4888 Clouds 2 1026 90 10000 1.16 57 04:59 10.11.2021
4889 Clouds 3 1027 91 10000 1.09 87 22:54 09.11.2021
4890 Clear 4 1027 90 10000 1.97 39 21:47 09.11.2021
4891 Clouds 5 1027 88 10000 1.06 99 20:26 09.11.2021
4892 Clouds 6 1026 88 10000 1.66 69 19:20 09.11.2021
4893 Clouds 8 1026 84 10000 2.29 47 17:30 09.11.2021
4894 Clouds 10 1026 70 10000 2.56 80 15:38 09.11.2021
4895 Clouds 10 1026 59 10000 3.34 82 14:24 09.11.2021
4896 Clouds 10 1026 58 10000 3.04 76 12:50 09.11.2021
4897 Clouds 8 1027 60 10000 2.73 79 11:38 09.11.2021
4898 Clouds 8 1027 60 10000 2.73 79 11:38 09.11.2021
4899 Clouds 8 1027 60 10000 2.75 79 11:38 09.11.2021
4900 Clouds 6 1028 66 10000 2 86 10:44 09.11.2021
4901 Clouds 3 1028 80 10000 1.13 80 09:24 09.11.2021
4902 Clouds 2 1028 85 10000 1.33 79 08:19 09.11.2021
4903 Clouds 2 1027 86 10000 0.98 59 05:47 09.11.2021
4904 Clouds 3 1026 84 10000 0.72 111 02:22 09.11.2021
4905 Clouds 3 1026 84 10000 0.72 111 01:43 09.11.2021
4906 Clouds 4 1026 78 10000 0.85 159 23:58 08.11.2021
4907 Clouds 5 1026 75 10000 0.79 137 22:49 08.11.2021
4908 Clouds 6 1025 73 10000 0.96 152 21:55 08.11.2021
4909 Clouds 6 1025 76 10000 0.66 123 20:53 08.11.2021
4910 Clouds 6 1025 77 10000 0.92 147 19:51 08.11.2021
4911 Clouds 7 1025 78 10000 1.02 155 18:30 08.11.2021
4912 Clouds 9 1023 72 10000 0.15 175 16:22 08.11.2021
4913 Clouds 10 1023 64 10000 0.57 299 15:25 08.11.2021
4914 Clouds 10 1023 64 10000 0.57 299 14:40 08.11.2021
4915 Clouds 10 1023 63 10000 0.75 309 13:33 08.11.2021
4916 Clouds 8 1024 70 10000 0.57 254 11:56 08.11.2021
4917 Clouds 8 1024 75 10000 0.5 258 11:20 08.11.2021
4918 Clouds 6 1024 81 10000 0.57 189 09:45 08.11.2021
4919 Clouds 4 1024 88 10000 0.47 127 08:54 08.11.2021
4920 Clouds 4 1024 93 10000 0.48 103 07:35 08.11.2021
4921 Clouds 4 1022 91 10000 0.81 193 04:42 08.11.2021
4922 Clouds 5 1022 91 10000 0.97 236 03:28 08.11.2021
4923 Clouds 6 1021 88 10000 1.7 259 23:46 07.11.2021
4924 Clouds 6 1021 88 10000 1.78 256 22:20 07.11.2021
4925 Clouds 7 1021 89 10000 1.99 267 21:20 07.11.2021
4926 Clouds 7 1021 91 10000 2.64 280 19:54 07.11.2021
4927 Clouds 8 1019 83 10000 2.87 265 18:22 07.11.2021
4928 Clouds 9 1019 83 10000 3.42 278 16:54 07.11.2021
4929 Clouds 9 1019 86 10000 3.68 275 15:54 07.11.2021
4930 Clouds 9 1019 90 10000 4.29 259 14:34 07.11.2021
4931 Clouds 9 1019 91 10000 4.74 240 13:54 07.11.2021
4932 Clouds 8 1020 92 10000 4.92 238 11:49 07.11.2021
4933 Clouds 7 1020 92 10000 4.9 220 09:58 07.11.2021
4934 Clouds 6 1020 91 10000 5 220 08:45 07.11.2021
4935 Clouds 6 1023 84 10000 4.37 212 02:46 07.11.2021
4936 Clouds 6 1025 84 10000 3.48 205 23:42 06.11.2021
4937 Clouds 6 1026 83 10000 3.2 211 22:52 06.11.2021
4938 Clouds 6 1027 80 10000 3.07 218 21:36 06.11.2021
4939 Clouds 6 1027 85 10000 2.76 206 20:52 06.11.2021
4940 Clouds 7 1027 87 10000 2.71 205 19:36 06.11.2021
4941 Clouds 8 1027 78 10000 2.76 219 17:18 06.11.2021
4942 Clouds 10 1027 68 10000 2.77 237 15:39 06.11.2021
4943 Clouds 11 1029 59 10000 3.37 254 13:39 06.11.2021
4944 Clouds 10 1029 64 10000 3 251 12:38 06.11.2021
4945 Clouds 6 1031 79 10000 1.17 254 09:49 06.11.2021
4946 Clouds 4 1031 92 10000 0.57 237 08:24 06.11.2021
4947 Clouds 6 1029 81 10000 1.09 222 03:22 06.11.2021
4948 Clouds 6 1029 75 10000 0.99 313 23:40 05.11.2021
4949 Clouds 6 1029 72 10000 0.77 311 22:52 05.11.2021
4950 Clouds 6 1029 72 10000 0.77 301 21:55 05.11.2021
4951 Clouds 7 1027 72 10000 0.69 279 20:25 05.11.2021
4952 Clouds 7 1027 72 10000 0.69 279 19:50 05.11.2021
4953 Clouds 8 1027 85 10000 0.48 284 18:42 05.11.2021
4954 Clouds 9 1027 82 10000 0.91 268 17:42 05.11.2021
4955 Clouds 10 1026 79 10000 1.38 231 16:37 05.11.2021
4956 Clouds 10 1024 73 10000 1.4 307 14:18 05.11.2021
4957 Clouds 9 1024 77 10000 1.65 334 11:45 05.11.2021
4958 Clouds 7 1022 92 10000 1.22 339 09:22 05.11.2021
4959 Clouds 7 1021 92 10000 1.07 327 07:48 05.11.2021
4960 Clouds 7 1019 92 10000 0.69 320 05:36 05.11.2021
4961 Clouds 7 1016 91 10000 1.5 253 02:28 05.11.2021
4962 Clouds 7 1016 91 10000 1.5 253 01:59 05.11.2021
4963 Rain 7 1015 95 10000 2.06 226 23:45 04.11.2021
4964 Rain 7 1014 93 10000 2.93 215 22:21 04.11.2021
4965 Rain 7 1014 93 10000 2.93 215 21:54 04.11.2021
4966 Clouds 7 1013 92 10000 3.45 217 21:22 04.11.2021
4967 Clouds 7 1012 91 10000 3.52 221 20:25 04.11.2021
4968 Clouds 7 1012 91 10000 3.52 221 19:49 04.11.2021
4969 Rain 7 1012 91 10000 3.18 221 19:25 04.11.2021
4970 Rain 7 1011 91 10000 2.99 230 18:23 04.11.2021
4971 Rain 7 1010 91 10000 3.64 236 17:26 04.11.2021
4972 Clouds 8 1010 88 10000 4.26 241 15:42 04.11.2021
4973 Clouds 8 1008 81 10000 3.74 261 13:45 04.11.2021
4974 Clouds 7 1007 86 10000 3.38 270 10:22 04.11.2021
4975 Clouds 6 1006 87 10000 2.25 276 08:31 04.11.2021
4976 Clouds 6 1006 88 10000 1.96 285 07:36 04.11.2021
4977 Clouds 6 1005 92 10000 2.11 274 06:40 04.11.2021
4978 Clouds 6 1003 93 10000 1.5 336 23:18 03.11.2021
4979 Rain 6 1003 94 10000 1.86 333 22:22 03.11.2021
4980 Clouds 6 1003 94 10000 1.86 333 21:36 03.11.2021
4981 Clouds 6 1002 96 10000 2.16 330 20:44 03.11.2021
4982 Clouds 7 1002 97 9000 1.69 303 20:25 03.11.2021
4983 Clouds 7 1001 97 10000 0.68 295 19:29 03.11.2021
4984 Clouds 8 1000 95 8083 0.3 319 18:26 03.11.2021
4985 Clouds 8 1000 95 8083 0.3 319 17:41 03.11.2021
4986 Clouds 9 1000 92 10000 0.75 258 16:46 03.11.2021
4987 Clouds 9 999 88 10000 1.79 216 15:49 03.11.2021
4988 Clouds 9 999 83 10000 3.08 212 15:29 03.11.2021
4989 Rain 9 999 85 10000 3.88 207 13:29 03.11.2021
4990 Clouds 8 1000 89 10000 2.82 181 11:34 03.11.2021
4991 Rain 7 1000 95 10000 2.09 122 10:50 03.11.2021
4992 Rain 7 999 94 10000 2.89 102 09:46 03.11.2021
4993 Rain 7 1000 94 10000 3.99 95 08:53 03.11.2021
4994 Rain 6 999 94 10000 4.64 80 07:40 03.11.2021
4995 Rain 7 1000 95 7756 3.94 73 06:32 03.11.2021
4996 Rain 7 1001 93 10000 2.26 103 04:23 03.11.2021
4997 Clouds 6 1001 90 10000 1.27 108 00:58 03.11.2021
4998 Clouds 6 1002 90 10000 1.29 128 23:21 02.11.2021
4999 Clouds 7 1003 91 10000 1.36 151 21:57 02.11.2021
5000 Clouds 7 1003 93 10000 1.79 188 20:43 02.11.2021
5001 Clouds 7 1003 94 10000 1.87 207 19:58 02.11.2021
5002 Clouds 8 1003 93 10000 3.5 221 19:27 02.11.2021
5003 Rain 8 1003 93 10000 3.5 221 18:35 02.11.2021
5004 Clouds 8 1003 95 10000 3.43 209 17:46 02.11.2021
5005 Clouds 8 1002 95 10000 2.98 212 17:21 02.11.2021
5006 Rain 9 1002 91 10000 4.01 225 15:58 02.11.2021
5007 Clouds 10 1002 91 10000 4.13 220 14:57 02.11.2021
5008 Clouds 9 1002 93 10000 4.01 217 13:31 02.11.2021
5009 Clouds 9 1002 90 10000 4.66 212 12:59 02.11.2021
5010 Rain 9 1002 89 10000 3.93 211 12:18 02.11.2021
5011 Rain 9 1002 94 10000 3.19 189 11:26 02.11.2021
5012 Rain 9 1002 94 10000 3.19 189 10:38 02.11.2021
5013 Rain 9 1002 94 10000 2.43 188 10:18 02.11.2021
5014 Clouds 8 1002 95 10000 1.72 194 07:47 02.11.2021
5015 Clouds 7 1002 98 10000 2.02 181 06:29 02.11.2021
5016 Clouds 7 1002 97 10000 2.32 189 03:27 02.11.2021
5017 Clouds 8 1002 96 10000 2.92 193 00:25 02.11.2021
5018 Rain 8 1003 95 10000 3.08 187 22:19 01.11.2021
5019 Clouds 8 1003 94 10000 3.06 187 20:46 01.11.2021
5020 Clouds 8 1003 94 10000 2.73 180 20:26 01.11.2021
5021 Clouds 9 1003 94 10000 2.73 180 19:43 01.11.2021
5022 Clouds 9 1003 94 10000 2.55 178 18:50 01.11.2021
5023 Clouds 9 1003 92 10000 2.45 187 17:56 01.11.2021
5024 Clouds 11 1002 85 10000 3.21 216 16:58 01.11.2021
5025 Clouds 11 1002 85 10000 3.21 216 16:32 01.11.2021
5026 Clouds 12 1002 79 10000 4.18 225 15:40 01.11.2021
5027 Clouds 12 1002 76 10000 4.6 233 15:19 01.11.2021
5028 Clouds 12 1002 76 10000 4.6 233 14:39 01.11.2021
5029 Clouds 12 1002 77 10000 5.56 236 14:19 01.11.2021
5030 Clouds 12 1002 77 10000 5.56 236 14:19 01.11.2021
5031 Clouds 12 1003 78 10000 6.31 232 12:50 01.11.2021
5032 Clouds 12 1004 81 10000 6.28 222 11:39 01.11.2021
5033 Clouds 11 1004 85 10000 5.69 204 10:21 01.11.2021
5034 Clouds 10 1004 91 10000 4.81 206 08:23 01.11.2021
5035 Clouds 10 1004 91 10000 4.81 206 07:47 01.11.2021
5036 Clouds 11 1002 93 10000 4.49 221 03:55 01.11.2021
5037 Clouds 11 1002 93 10000 4.49 221 03:33 01.11.2021
5038 Clouds 11 1002 94 10000 3.38 225 23:58 31.10.2021
5039 Rain 15 1000 89 10000 7.54 219 20:59 31.10.2021
5040 Clouds 16 1000 89 10000 6.28 193 20:24 31.10.2021
5041 Clouds 17 1000 86 10000 6.99 185 18:43 31.10.2021
5042 Clouds 17 1000 81 10000 7.25 177 18:21 31.10.2021
5043 Clouds 17 1001 79 10000 7.23 182 16:48 31.10.2021
5044 Clouds 17 1001 78 10000 7.05 181 14:53 31.10.2021
5045 Clouds 16 1004 82 10000 5.9 170 12:58 31.10.2021
5046 Clouds 16 1005 84 10000 5.68 178 12:19 31.10.2021
5047 Clouds 14 1006 87 10000 5.36 177 10:51 31.10.2021
5048 Clouds 13 1008 93 10000 3.44 173 09:26 31.10.2021
5049 Clouds 12 1008 93 10000 3.44 173 08:46 31.10.2021
5050 Clouds 12 1009 96 10000 3.47 201 02:59 31.10.2021
5051 Clouds 13 1008 96 10000 4.94 210 23:43 30.10.2021
5052 Rain 13 1007 96 10000 4.53 193 21:50 30.10.2021
5053 Clouds 13 1006 95 10000 4.55 184 21:26 30.10.2021
5054 Clouds 12 1006 95 10000 4.37 179 19:40 30.10.2021
5055 Clouds 12 1005 92 10000 5.65 176 17:48 30.10.2021
5056 Clouds 12 1005 90 10000 7.15 176 15:41 30.10.2021
5057 Rain 12 1005 92 7730 4.91 157 13:59 30.10.2021
5058 Rain 11 1005 92 7732 4.91 157 13:38 30.10.2021
5059 Rain 11 1006 90 8370 4.54 161 13:20 30.10.2021
5060 Rain 11 1005 85 10000 4.08 127 11:49 30.10.2021
5061 Rain 11 1006 86 10000 3.79 136 10:44 30.10.2021
5062 Rain 11 1006 91 10000 2.1 164 08:56 30.10.2021
5063 Rain 11 1006 87 10000 2.28 177 07:56 30.10.2021
5064 Rain 11 1007 77 10000 2.49 147 05:46 30.10.2021
5065 Clouds 12 1008 70 10000 3.16 162 02:59 30.10.2021
5066 Clouds 13 1011 81 10000 3.17 176 23:21 29.10.2021
5067 Clouds 13 1011 81 10000 3.17 176 22:35 29.10.2021
5068 Clouds 13 1011 74 10000 4.13 203 21:18 29.10.2021
5069 Clouds 14 1011 74 10000 4.13 203 20:32 29.10.2021
5070 Clouds 14 1009 75 10000 2.8 163 19:26 29.10.2021
5071 Clouds 16 1009 70 10000 3.38 175 17:48 29.10.2021
5072 Clouds 18 1009 58 10000 4.87 187 15:50 29.10.2021
5073 Clouds 16 1010 53 10000 6.05 179 13:19 29.10.2021
5074 Clouds 11 1011 57 10000 5.13 180 10:49 29.10.2021
5075 Clouds 10 1011 57 10000 5.13 180 10:30 29.10.2021
5076 Clear 7 1014 83 10000 1.96 136 02:47 29.10.2021
5077 Clouds 7 1015 85 10000 1.59 138 00:32 29.10.2021
5078 Clouds 8 1016 87 10000 1.71 136 22:34 28.10.2021
5079 Clouds 8 1016 88 10000 1.78 135 21:20 28.10.2021
5080 Clouds 8 1016 88 10000 1.81 133 20:19 28.10.2021
5081 Clear 10 1016 86 10000 1.94 142 18:47 28.10.2021
5082 Clear 11 1016 80 10000 2.23 154 17:52 28.10.2021
5083 Clear 13 1016 69 10000 2.59 175 16:39 28.10.2021
5084 Clear 13 1017 60 10000 3.63 189 14:59 28.10.2021
5085 Clear 11 1018 61 10000 3.79 186 13:35 28.10.2021
5086 Clear 10 1018 64 10000 3.48 184 12:50 28.10.2021
5087 Clear 9 1019 67 10000 2.84 181 11:51 28.10.2021
5088 Clear 9 1020 74 10000 1.89 170 10:47 28.10.2021
5089 Clear 8 1021 84 10000 1.35 162 09:37 28.10.2021
5090 Clear 8 1021 92 10000 1.29 146 08:37 28.10.2021
5091 Clouds 8 1021 92 10000 1.21 134 07:47 28.10.2021
5092 Clouds 8 1021 92 10000 0.89 133 04:19 28.10.2021
5093 Clouds 10 1024 91 10000 1.1 130 23:26 27.10.2021
5094 Clouds 10 1024 91 10000 1.1 130 22:30 27.10.2021
5095 Clouds 9 1024 91 10000 1.1 134 21:32 27.10.2021
5096 Clouds 10 1024 91 10000 1.03 139 20:49 27.10.2021
5097 Clouds 11 1023 90 10000 1.07 150 19:52 27.10.2021
5098 Clouds 11 1023 90 10000 1.07 150 19:32 27.10.2021
5099 Clouds 12 1023 89 10000 0.86 189 18:39 27.10.2021
5100 Clouds 13 1023 69 10000 2.22 208 16:26 27.10.2021
5101 Clouds 14 1023 69 10000 2.22 208 15:30 27.10.2021
5102 Clouds 14 1024 68 10000 2.27 214 14:39 27.10.2021
5103 Clouds 12 1026 80 10000 1.84 205 11:21 27.10.2021
5104 Clouds 11 1026 80 10000 1.84 205 10:58 27.10.2021
5105 Clouds 11 1027 87 10000 1.48 204 09:45 27.10.2021
5106 Clouds 11 1026 95 10000 2.21 175 07:53 27.10.2021
5107 Clouds 11 1026 95 10000 2.11 178 06:53 27.10.2021
5108 Clouds 11 1026 94 10000 2.27 194 01:45 27.10.2021
5109 Clouds 11 1026 95 10000 2.4 189 00:56 27.10.2021
5110 Clouds 11 1026 95 10000 2.24 196 00:26 27.10.2021
5111 Clouds 11 1026 95 10000 2.24 196 23:41 26.10.2021
5112 Clouds 10 1026 95 10000 2.32 195 22:37 26.10.2021
5113 Clouds 11 1026 94 10000 2.24 206 21:57 26.10.2021
5114 Clouds 11 1025 94 10000 2.3 218 20:36 26.10.2021
5115 Clouds 11 1024 90 10000 2.27 216 19:26 26.10.2021
5116 Clouds 12 1024 90 10000 2.27 216 18:41 26.10.2021
5117 Clouds 14 1023 66 10000 4.29 245 16:28 26.10.2021
5118 Clouds 14 1022 65 10000 4.66 244 14:30 26.10.2021
5119 Clouds 12 1023 80 10000 3.72 239 11:34 26.10.2021
5120 Clouds 11 1023 93 10000 2.4 227 10:20 26.10.2021
5121 Clouds 11 1021 98 10000 2.41 194 07:25 26.10.2021
5122 Clouds 11 1021 98 10000 2.41 194 06:40 26.10.2021
5123 Clouds 11 1021 97 10000 2.41 203 23:50 25.10.2021
5124 Clouds 11 1021 94 10000 2.29 195 22:53 25.10.2021
5125 Clouds 11 1021 94 10000 2.14 201 22:19 25.10.2021
5126 Clouds 11 1021 94 10000 2.14 201 21:39 25.10.2021
5127 Rain 11 1020 89 10000 2.05 220 19:53 25.10.2021
5128 Rain 11 1020 88 10000 2.14 212 19:25 25.10.2021
5129 Clouds 12 1020 88 10000 2.14 212 18:59 25.10.2021
5130 Clouds 12 1019 83 10000 2.41 204 18:19 25.10.2021
5131 Clouds 15 1019 64 10000 3.91 216 16:18 25.10.2021
5132 Clouds 15 1020 58 10000 3.86 214 14:28 25.10.2021
5133 Clouds 11 1021 59 10000 3.31 217 12:30 25.10.2021
5134 Clear 6 1022 76 10000 1.81 192 10:23 25.10.2021
5135 Clear 3 1022 86 10000 1.76 179 08:35 25.10.2021
5136 Clouds 4 1022 87 10000 1.91 179 06:25 25.10.2021
5137 Clear 5 1023 90 10000 1.92 181 02:31 25.10.2021
5138 Clear 5 1023 88 10000 1.89 177 00:46 25.10.2021
5139 Clear 5 1023 86 10000 1.85 176 23:47 24.10.2021
5140 Clear 6 1023 84 10000 1.85 169 22:56 24.10.2021
5141 Clear 6 1023 84 10000 1.85 169 22:36 24.10.2021
5142 Clear 6 1023 83 10000 1.99 160 22:18 24.10.2021
5143 Clear 7 1023 81 10000 1.78 152 20:45 24.10.2021
5144 Clear 7 1023 81 10000 1.69 141 20:26 24.10.2021
5145 Clear 9 1023 79 10000 1.75 145 18:53 24.10.2021
5146 Clear 11 1022 72 10000 2.09 164 17:58 24.10.2021
5147 Clear 13 1022 60 10000 2.64 176 17:18 24.10.2021
5148 Clear 14 1023 53 10000 3.3 176 15:47 24.10.2021
5149 Clear 12 1024 50 10000 3.33 165 13:52 24.10.2021
5150 Clear 11 1024 51 10000 2.7 160 12:41 24.10.2021
5151 Clear 11 1024 51 10000 2.7 160 12:41 24.10.2021
5152 Clear 9 1025 55 10000 1.94 149 11:43 24.10.2021
5153 Clear 7 1026 64 10000 1.26 123 10:47 24.10.2021
5154 Clear 5 1026 74 10000 0.99 90 09:54 24.10.2021
5155 Clear 3 1027 91 10000 1.76 69 05:35 24.10.2021
5156 Clear 5 1029 88 10000 1.57 72 00:53 24.10.2021
5157 Clear 5 1029 88 10000 1.63 81 23:34 23.10.2021
5158 Clear 6 1029 84 10000 1.66 94 21:58 23.10.2021
5159 Clouds 8 1029 81 10000 1.59 91 19:54 23.10.2021
5160 Clouds 10 1028 78 10000 1.57 101 18:59 23.10.2021
5161 Clouds 11 1027 73 10000 1.51 78 18:26 23.10.2021
5162 Clouds 12 1027 73 10000 1.51 78 17:43 23.10.2021
5163 Clouds 13 1027 59 10000 1.4 31 16:22 23.10.2021
5164 Clear 12 1028 60 10000 1.25 344 14:22 23.10.2021
5165 Clouds 8 1026 88 10000 1.49 216 03:33 23.10.2021
5166 Clouds 8 1025 83 10000 2.06 229 00:19 23.10.2021
5167 Clouds 9 1025 82 10000 2.03 239 22:53 22.10.2021
5168 Clouds 9 1023 80 10000 3.55 248 19:53 22.10.2021
5169 Clouds 9 1022 78 10000 4.04 265 18:44 22.10.2021
5170 Clouds 10 1021 76 10000 4.74 266 17:43 22.10.2021
5171 Clouds 10 1020 67 10000 6.74 264 15:26 22.10.2021
5172 Clouds 10 1020 68 10000 7.33 263 13:52 22.10.2021
5173 Clear 7 1021 79 10000 5.6 246 11:24 22.10.2021
5174 Clear 5 1021 79 10000 5.6 246 10:41 22.10.2021
5175 Clear 4 1020 84 10000 3.97 238 09:56 22.10.2021
5176 Clear 3 1020 92 10000 3.12 228 08:36 22.10.2021
5177 Clear 4 1020 95 10000 2.32 219 07:22 22.10.2021
5178 Clear 4 1019 94 10000 2.13 222 02:57 22.10.2021
5179 Clouds 5 1017 91 10000 1.17 242 23:57 21.10.2021
5180 Clouds 5 1017 91 10000 1.17 242 23:38 21.10.2021
5181 Clouds 6 1016 93 10000 1.03 297 22:21 21.10.2021
5182 Clouds 7 1015 89 10000 3.56 324 20:42 21.10.2021
5183 Clouds 8 1013 88 10000 2.9 309 20:19 21.10.2021
5184 Clouds 8 1012 87 10000 4.09 274 19:29 21.10.2021
5185 Rain 8 1012 87 10000 4.09 274 18:52 21.10.2021
5186 Rain 9 1011 89 10000 7.11 299 18:19 21.10.2021
5187 Rain 10 1011 89 10000 7.11 299 17:39 21.10.2021
5188 Rain 12 1008 70 10000 9.34 238 16:18 21.10.2021
5189 Clouds 13 1009 70 10000 9.26 234 15:21 21.10.2021
5190 Clouds 13 1009 70 10000 9.26 234 14:39 21.10.2021
5191 Clouds 12 1009 77 10000 9.49 238 13:20 21.10.2021
5192 Clouds 11 1009 80 10000 9.28 242 11:27 21.10.2021
5193 Rain 10 1005 84 10000 10.66 260 08:59 21.10.2021
5194 Rain 11 998 80 10000 14.51 228 07:29 21.10.2021
5195 Clouds 13 998 76 10000 11.45 227 03:49 21.10.2021
5196 Clouds 16 1002 83 10000 8.61 206 23:31 20.10.2021
5197 Clouds 16 1004 83 10000 6.37 207 22:21 20.10.2021
5198 Clouds 16 1004 83 10000 6.37 207 21:43 20.10.2021
5199 Clouds 16 1005 86 10000 8.53 215 20:56 20.10.2021
5200 Clouds 16 1005 86 10000 8.53 215 20:35 20.10.2021
5201 Clouds 16 1006 92 10000 7.42 217 19:59 20.10.2021
5202 Clouds 16 1006 93 10000 6.39 212 18:56 20.10.2021
5203 Clouds 16 1007 90 10000 6.69 220 17:51 20.10.2021
5204 Clouds 16 1009 86 10000 7.14 235 15:44 20.10.2021
5205 Clouds 16 1011 69 10000 7.9 223 12:33 20.10.2021
5206 Clouds 13 1014 80 10000 4.84 191 09:19 20.10.2021
5207 Clouds 12 1015 75 10000 3.67 188 05:23 20.10.2021
5208 Clouds 13 1018 78 10000 3.48 184 00:53 20.10.2021
5209 Clouds 13 1019 79 10000 3.47 190 00:26 20.10.2021
5210 Clear 14 1019 83 10000 3.23 183 21:47 19.10.2021
5211 Clear 14 1019 84 10000 3.02 179 21:27 19.10.2021
5212 Clouds 14 1020 85 10000 2.94 179 20:25 19.10.2021
5213 Clouds 15 1020 86 10000 3 179 19:45 19.10.2021
5214 Clouds 16 1020 85 10000 2.93 186 19:23 19.10.2021
5215 Clouds 18 1020 78 10000 3.42 204 18:23 19.10.2021
5216 Clouds 18 1020 78 10000 3.42 204 18:23 19.10.2021
5217 Clouds 20 1020 72 10000 4.99 218 16:24 19.10.2021
5218 Clouds 19 1021 73 10000 5.24 218 15:20 19.10.2021
5219 Clouds 17 1021 73 10000 5.24 218 14:31 19.10.2021
5220 Clouds 16 1021 83 10000 4.15 208 13:49 19.10.2021
5221 Clouds 14 1022 87 10000 4.67 203 11:37 19.10.2021
5222 Clouds 13 1022 91 10000 4.44 198 10:51 19.10.2021
5223 Clouds 12 1022 94 10000 4.43 197 09:35 19.10.2021
5224 Clouds 12 1022 96 10000 4.86 201 08:53 19.10.2021
5225 Clouds 9 1024 80 10000 1.15 176 00:28 19.10.2021
5226 Clouds 9 1024 80 10000 1.15 176 23:56 18.10.2021
5227 Clouds 9 1024 78 10000 2.02 177 23:21 18.10.2021
5228 Clouds 9 1024 78 10000 2.02 177 22:55 18.10.2021
5229 Clouds 9 1024 76 10000 1.95 158 21:58 18.10.2021
5230 Clouds 10 1024 76 10000 1.49 165 20:46 18.10.2021
5231 Clouds 10 1023 72 10000 1.6 162 20:21 18.10.2021
5232 Clouds 11 1023 72 10000 1.6 162 19:31 18.10.2021
5233 Clouds 12 1023 71 10000 2.15 160 18:58 18.10.2021
5234 Clouds 15 1023 61 10000 1.78 194 16:33 18.10.2021
5235 Clouds 15 1023 48 10000 2.49 194 14:41 18.10.2021
5236 Clouds 11 1025 56 10000 1.56 185 11:53 18.10.2021
5237 Clouds 7 1025 75 10000 0.71 164 09:47 18.10.2021
5238 Clear 4 1025 89 10000 0.85 114 07:46 18.10.2021
5239 Clouds 7 1023 84 10000 0.85 143 00:29 18.10.2021
5240 Clouds 8 1023 81 10000 0.7 137 22:30 17.10.2021
5241 Clouds 8 1023 80 10000 0.62 165 21:44 17.10.2021
5242 Clouds 8 1022 78 10000 0.53 131 20:56 17.10.2021
5243 Clouds 9 1022 77 10000 0.35 129 20:21 17.10.2021
5244 Clouds 10 1021 77 10000 0.07 229 19:38 17.10.2021
5245 Clouds 11 1021 74 10000 0.38 298 18:34 17.10.2021
5246 Clouds 13 1020 60 10000 1.17 281 16:47 17.10.2021
5247 Clouds 13 1019 58 10000 1.35 207 14:40 17.10.2021
5248 Clouds 13 1020 59 10000 1.33 190 14:21 17.10.2021
5249 Clouds 12 1020 59 10000 1.33 190 13:33 17.10.2021
5250 Clouds 11 1021 66 10000 0.63 170 11:49 17.10.2021
5251 Clouds 10 1021 79 10000 0.3 138 10:19 17.10.2021
5252 Clouds 9 1021 87 10000 0.51 166 09:21 17.10.2021
5253 Clouds 9 1021 91 10000 0.47 105 06:52 17.10.2021
5254 Clouds 9 1022 83 10000 1.26 26 00:49 17.10.2021
5255 Clouds 9 1022 89 10000 1.51 30 23:31 16.10.2021
5256 Clouds 9 1021 83 10000 1.04 143 21:28 16.10.2021
5257 Clouds 10 1021 83 10000 1.04 143 20:30 16.10.2021
5258 Clouds 10 1021 82 10000 0.83 120 19:42 16.10.2021
5259 Clouds 11 1021 78 10000 0.96 10 19:20 16.10.2021
5260 Clouds 11 1021 78 10000 0.96 10 18:45 16.10.2021
5261 Clouds 12 1020 70 10000 1 356 18:26 16.10.2021
5262 Clouds 13 1020 70 10000 1 356 17:49 16.10.2021
5263 Clouds 13 1020 61 10000 1.2 332 17:20 16.10.2021
5264 Clouds 13 1021 60 10000 0.66 192 13:45 16.10.2021
5265 Clear 9 1022 77 10000 1.41 58 11:26 16.10.2021
5266 Clear 6 1023 85 10000 1.37 47 09:45 16.10.2021
5267 Clear 5 1023 95 10000 1.54 45 06:48 16.10.2021
5268 Clouds 7 1022 94 10000 1.71 49 01:24 16.10.2021
5269 Clouds 9 1022 93 10000 2.12 24 23:27 15.10.2021
5270 Clouds 10 1022 90 10000 2.15 11 22:22 15.10.2021
5271 Clouds 10 1022 90 10000 2.15 11 21:51 15.10.2021
5272 Clouds 10 1021 89 10000 2.02 12 21:20 15.10.2021
5273 Clouds 11 1021 89 10000 2.02 12 20:44 15.10.2021
5274 Rain 12 1020 92 10000 2.32 12 19:23 15.10.2021
5275 Clouds 12 1020 92 10000 2.32 12 18:38 15.10.2021
5276 Clouds 15 1018 72 10000 2.62 271 16:28 15.10.2021
5277 Clouds 15 1018 67 10000 3.47 268 15:22 15.10.2021
5278 Clouds 12 1019 63 10000 3.5 250 12:31 15.10.2021
5279 Clouds 10 1019 70 10000 2.5 234 11:20 15.10.2021
5280 Clouds 10 1019 70 10000 2.5 234 10:42 15.10.2021
5281 Clouds 6 1019 87 10000 2.05 203 08:58 15.10.2021
5282 Clouds 6 1020 94 10000 2.05 209 05:31 15.10.2021
5283 Clouds 7 1022 93 10000 1.84 202 00:44 15.10.2021
5284 Clouds 7 1023 92 10000 1.87 201 23:49 14.10.2021
5285 Clouds 8 1023 92 10000 1.73 202 22:50 14.10.2021
5286 Clouds 9 1023 91 10000 1.85 203 21:43 14.10.2021
5287 Clouds 9 1024 89 10000 2.02 206 20:38 14.10.2021
5288 Clouds 10 1024 86 10000 2.25 201 20:18 14.10.2021
5289 Clouds 11 1024 86 10000 2.25 201 19:32 14.10.2021
5290 Clouds 15 1023 64 10000 2.59 238 17:26 14.10.2021
5291 Clouds 16 1023 64 10000 2.59 238 16:49 14.10.2021
5292 Clouds 16 1024 61 10000 2.7 251 15:35 14.10.2021
5293 Clouds 15 1025 61 10000 2.38 255 14:41 14.10.2021
5294 Clouds 14 1026 63 10000 2.48 253 13:37 14.10.2021
5295 Clouds 12 1027 65 10000 2.59 249 11:44 14.10.2021
5296 Clouds 9 1028 77 10000 1.71 218 09:55 14.10.2021
5297 Clouds 7 1027 84 10000 1.21 224 06:55 14.10.2021
5298 Clouds 7 1028 91 10000 0.56 230 00:58 14.10.2021
5299 Clouds 7 1028 90 10000 0.44 199 00:25 14.10.2021
5300 Clouds 8 1028 88 10000 0.28 251 21:58 13.10.2021
5301 Clouds 9 1028 88 10000 0.28 251 21:32 13.10.2021
5302 Clouds 9 1027 85 10000 0.59 270 19:58 13.10.2021
5303 Clouds 10 1027 79 10000 0.76 287 18:54 13.10.2021
5304 Clouds 11 1027 79 10000 0.76 287 18:34 13.10.2021
5305 Clouds 12 1026 61 10000 1.26 329 15:32 13.10.2021
5306 Clouds 12 1026 63 10000 0.88 317 14:45 13.10.2021
5307 Clouds 12 1026 71 10000 0.55 290 14:21 13.10.2021
5308 Clouds 11 1026 78 10000 0.42 269 12:22 13.10.2021
5309 Clouds 9 1026 78 10000 0.42 269 11:34 13.10.2021
5310 Clouds 5 1026 86 10000 0.5 238 08:42 13.10.2021
5311 Clouds 5 1025 92 10000 0.62 328 06:51 13.10.2021
5312 Clouds 6 1023 93 10000 1.22 330 02:28 13.10.2021
5313 Clouds 6 1023 93 10000 1.22 330 01:43 13.10.2021
5314 Clouds 8 1022 94 10000 1.55 340 23:30 12.10.2021
5315 Clouds 8 1022 94 10000 1.55 340 23:30 12.10.2021
5316 Clouds 9 1022 94 10000 1.8 349 22:46 12.10.2021
5317 Clouds 10 1021 94 10000 2.77 359 21:50 12.10.2021
5318 Clouds 10 1020 93 10000 2.89 7 20:41 12.10.2021
5319 Clouds 10 1020 94 10000 2.78 343 20:18 12.10.2021
5320 Rain 11 1019 95 10000 2.44 287 18:36 12.10.2021
5321 Rain 11 1019 92 10000 4.02 288 17:57 12.10.2021
5322 Clouds 12 1019 90 10000 3.35 263 16:39 12.10.2021
5323 Clouds 12 1019 89 10000 4 283 15:58 12.10.2021
5324 Clouds 12 1020 84 10000 3.94 290 14:46 12.10.2021
5325 Clouds 12 1020 87 10000 4.49 279 13:44 12.10.2021
5326 Clouds 12 1021 89 10000 3.59 268 12:40 12.10.2021
5327 Clouds 10 1023 90 10000 2.35 266 09:59 12.10.2021
5328 Clouds 9 1023 94 10000 1.55 248 08:44 12.10.2021
5329 Clouds 9 1023 97 10000 1.45 241 07:54 12.10.2021
5330 Clouds 9 1024 97 10000 0.77 238 05:31 12.10.2021
5331 Rain 8 1024 97 10000 0.87 284 04:33 12.10.2021
5332 Clouds 8 1027 95 10000 0.83 306 00:28 12.10.2021
5333 Clouds 9 1027 95 10000 0.83 306 23:41 11.10.2021
5334 Clouds 9 1027 94 10000 0.59 239 22:59 11.10.2021
5335 Clouds 10 1027 93 10000 0.67 267 21:46 11.10.2021
5336 Clouds 10 1027 93 10000 0.67 267 21:46 11.10.2021
5337 Clouds 10 1027 91 10000 0.74 282 21:18 11.10.2021
5338 Clouds 11 1027 89 10000 0.95 312 19:46 11.10.2021
5339 Clouds 13 1026 79 10000 1.46 332 18:44 11.10.2021
5340 Clouds 13 1026 74 10000 2.33 349 17:59 11.10.2021
5341 Clouds 14 1026 65 10000 3.72 345 16:39 11.10.2021
5342 Clouds 14 1026 57 10000 3.32 345 15:51 11.10.2021
5343 Clouds 14 1026 57 10000 3.32 345 15:32 11.10.2021
5344 Clouds 15 1026 65 10000 2.6 334 14:46 11.10.2021
5345 Clouds 14 1026 67 10000 2.36 330 13:38 11.10.2021
5346 Clouds 12 1027 78 10000 2.05 350 11:52 11.10.2021
5347 Clouds 11 1027 83 10000 0.98 344 10:48 11.10.2021
5348 Clouds 9 1027 82 10000 0.74 333 09:44 11.10.2021
5349 Clouds 6 1027 93 10000 0.32 51 07:29 11.10.2021
5350 Clouds 6 1027 83 10000 0.92 24 01:41 11.10.2021
5351 Clouds 6 1027 83 10000 0.84 5 00:50 11.10.2021
5352 Clouds 7 1027 80 10000 0.63 13 00:28 11.10.2021
5353 Clear 8 1027 74 10000 0.42 63 21:57 10.10.2021
5354 Clear 8 1027 74 10000 0.42 63 21:35 10.10.2021
5355 Clear 9 1026 71 10000 0.38 105 20:48 10.10.2021
5356 Clouds 10 1026 65 10000 0.81 111 20:22 10.10.2021
5357 Clouds 10 1026 65 10000 0.81 111 19:59 10.10.2021
5358 Clouds 10 1026 65 10000 0.81 111 19:38 10.10.2021
5359 Clouds 13 1026 62 10000 0.42 46 18:37 10.10.2021
5360 Clouds 16 1025 46 10000 1 18 17:19 10.10.2021
5361 Clouds 16 1025 44 10000 1.64 1 15:47 10.10.2021
5362 Clouds 16 1025 46 10000 2.12 349 14:42 10.10.2021
5363 Clouds 15 1025 46 10000 1.5 354 13:34 10.10.2021
5364 Clouds 14 1026 50 10000 1.19 73 12:40 10.10.2021
5365 Clouds 10 1027 60 10000 1.29 38 10:55 10.10.2021
5366 Clouds 7 1027 69 10000 1.42 31 09:31 10.10.2021
5367 Clouds 7 1027 69 10000 1.42 31 09:31 10.10.2021
5368 Clouds 5 1027 79 10000 1.25 43 08:54 10.10.2021
5369 Clouds 4 1027 82 10000 1.51 53 07:53 10.10.2021
5370 Clouds 6 1028 74 10000 1.82 43 03:28 10.10.2021
5371 Clouds 7 1028 71 10000 1.75 51 01:28 10.10.2021
5372 Clouds 8 1028 71 10000 1.75 51 00:37 10.10.2021
5373 Clouds 8 1028 67 10000 1.74 48 23:22 09.10.2021
5374 Clouds 9 1028 65 10000 1.81 56 21:52 09.10.2021
5375 Clouds 10 1028 64 10000 1.74 66 21:29 09.10.2021
5376 Clear 12 1027 63 10000 1.84 74 19:46 09.10.2021
5377 Clear 13 1027 61 10000 2.14 70 19:22 09.10.2021
5378 Clear 15 1027 61 10000 2.14 70 18:33 09.10.2021
5379 Clear 17 1026 54 10000 2.94 69 17:43 09.10.2021
5380 Clear 18 1026 42 10000 4.56 78 16:19 09.10.2021
5381 Clear 16 1027 44 10000 4.84 81 13:47 09.10.2021
5382 Clear 16 1027 48 10000 4.62 78 13:24 09.10.2021
5383 Clear 14 1027 56 10000 4.34 73 11:58 09.10.2021
5384 Clear 11 1028 66 10000 3.57 70 10:43 09.10.2021
5385 Clear 10 1028 78 10000 2.44 55 09:54 09.10.2021
5386 Clear 7 1028 89 10000 1.92 47 08:33 09.10.2021
5387 Clear 8 1028 94 10000 2.2 52 07:49 09.10.2021
5388 Clear 8 1028 94 10000 2.2 52 07:49 09.10.2021
5389 Clear 8 1028 94 10000 2.2 52 07:49 09.10.2021
5390 Clear 8 1028 95 10000 2.3 49 06:22 09.10.2021
5391 Clear 9 1027 95 10000 2.21 50 04:31 09.10.2021
5392 Clear 9 1028 96 10000 2.34 41 02:43 09.10.2021
5393 Clear 11 1028 95 10000 2.3 49 23:58 08.10.2021
5394 Clear 11 1028 95 10000 2.3 49 23:31 08.10.2021
5395 Clear 12 1028 94 10000 2.18 46 22:42 08.10.2021
5396 Clear 12 1028 93 10000 2.01 48 21:44 08.10.2021
5397 Clear 13 1027 86 10000 2.37 49 19:47 08.10.2021
5398 Clear 16 1026 69 10000 3.86 46 18:19 08.10.2021
5399 Clear 18 1027 62 10000 4.44 46 16:54 08.10.2021
5400 Clear 18 1027 57 10000 4.99 46 16:24 08.10.2021
5401 Clear 18 1027 56 10000 4.94 45 14:56 08.10.2021
5402 Clear 17 1028 58 10000 4.48 48 13:45 08.10.2021
5403 Clear 15 1029 66 10000 3.56 54 11:41 08.10.2021
5404 Clear 13 1029 72 10000 2.9 48 10:42 08.10.2021
5405 Clear 12 1030 81 10000 2.42 38 09:47 08.10.2021
5406 Clear 8 1029 95 10000 2.12 33 03:38 08.10.2021
5407 Clear 9 1029 92 10000 1.49 58 23:24 07.10.2021
5408 Clear 10 1029 92 10000 1.49 58 22:35 07.10.2021
5409 Clear 10 1029 89 10000 1.58 88 21:28 07.10.2021
5410 Clear 11 1029 89 10000 1.58 88 20:39 07.10.2021
5411 Clouds 12 1028 84 10000 1.87 88 19:32 07.10.2021
5412 Clouds 14 1027 75 10000 1.96 68 18:41 07.10.2021
5413 Clouds 16 1027 70 10000 1.99 50 17:32 07.10.2021
5414 Clouds 16 1027 63 10000 2.43 48 16:42 07.10.2021
5415 Clouds 16 1027 64 10000 2.05 49 14:55 07.10.2021
5416 Clouds 15 1027 68 10000 1.67 9 13:43 07.10.2021
5417 Clouds 15 1027 78 10000 1.25 356 12:54 07.10.2021
5418 Clouds 13 1027 87 10000 0.9 6 10:59 07.10.2021
5419 Clouds 12 1027 87 10000 0.9 6 10:40 07.10.2021
5420 Clouds 11 1027 90 10000 0.65 353 09:43 07.10.2021
5421 Clouds 10 1026 93 10000 0.39 309 08:54 07.10.2021
5422 Clouds 10 1026 93 10000 0.42 267 07:58 07.10.2021
5423 Clouds 10 1026 93 10000 0.42 267 07:38 07.10.2021
5424 Clouds 10 1026 95 10000 0.48 232 06:38 07.10.2021
5425 Clouds 11 1024 97 10000 1.79 230 00:48 07.10.2021
5426 Clouds 11 1023 94 10000 2.13 240 23:20 06.10.2021
5427 Clouds 11 1023 94 10000 2.13 240 22:31 06.10.2021
5428 Clouds 11 1022 94 10000 2.99 251 21:26 06.10.2021
5429 Clouds 11 1022 94 10000 2.7 260 20:28 06.10.2021
5430 Clouds 11 1021 91 10000 3.3 266 19:21 06.10.2021
5431 Clouds 12 1020 93 10000 3.51 241 17:27 06.10.2021
5432 Rain 12 1020 91 10000 4.28 253 15:43 06.10.2021
5433 Rain 12 1019 91 10000 5.72 251 14:43 06.10.2021
5434 Clouds 12 1019 87 10000 6.68 227 13:25 06.10.2021
5435 Clouds 12 1019 87 10000 6.68 227 12:47 06.10.2021
5436 Rain 11 1018 91 10000 6.01 229 12:26 06.10.2021
5437 Rain 11 1018 91 10000 6.01 229 11:35 06.10.2021
5438 Rain 11 1018 91 10000 6.01 229 11:35 06.10.2021
5439 Clouds 11 1017 90 10000 6.2 228 09:40 06.10.2021
5440 Clouds 10 1017 89 10000 5.83 232 08:59 06.10.2021
5441 Clouds 10 1017 89 10000 5.83 232 08:31 06.10.2021
5442 Clouds 10 1015 93 10000 5.43 228 06:18 06.10.2021
5443 Clouds 10 1014 92 10000 5.57 234 02:52 06.10.2021
5444 Clouds 11 1013 93 10000 5.14 231 00:24 06.10.2021
5445 Clouds 11 1013 93 10000 5.14 231 23:51 05.10.2021
5446 Clouds 11 1013 93 10000 5.14 231 23:30 05.10.2021
5447 Clouds 11 1012 92 10000 4.91 230 22:35 05.10.2021
5448 Clouds 11 1012 91 10000 4.73 228 21:57 05.10.2021
5449 Clear 11 1011 93 10000 3.99 220 21:20 05.10.2021
5450 Clear 11 1011 93 10000 3.99 220 20:31 05.10.2021
5451 Clouds 12 1010 95 10000 4.5 230 19:51 05.10.2021
5452 Clouds 12 1009 91 10000 6.03 235 19:25 05.10.2021
5453 Rain 13 1008 94 10000 7.19 214 18:21 05.10.2021
5454 Rain 15 1007 89 7216 5.53 195 15:36 05.10.2021
5455 Clouds 16 1008 64 10000 6.61 191 13:55 05.10.2021
5456 Clouds 17 1008 65 10000 6.17 188 13:26 05.10.2021
5457 Clouds 16 1008 65 10000 6.17 188 12:35 05.10.2021
5458 Clouds 14 1009 70 10000 5.8 183 11:41 05.10.2021
5459 Clouds 13 1010 75 10000 5.01 189 10:38 05.10.2021
5460 Clouds 10 1011 89 10000 2.22 150 08:36 05.10.2021
5461 Clouds 10 1016 94 10000 1.59 145 01:47 05.10.2021
5462 Clouds 10 1017 93 10000 1.57 150 22:57 04.10.2021
5463 Clouds 11 1017 93 10000 1.74 150 21:38 04.10.2021
5464 Clouds 14 1018 87 10000 2.51 161 18:54 04.10.2021
5465 Clouds 16 1018 78 10000 3.31 176 17:32 04.10.2021
5466 Clouds 17 1018 73 10000 4.25 188 15:59 04.10.2021
5467 Clouds 17 1019 76 10000 4.21 182 15:29 04.10.2021
5468 Clouds 16 1019 76 10000 4.21 182 14:34 04.10.2021
5469 Clouds 16 1019 79 10000 4 184 13:47 04.10.2021
5470 Clouds 15 1020 83 10000 3.6 176 12:51 04.10.2021
5471 Clouds 13 1020 88 10000 3.51 174 11:34 04.10.2021
5472 Clouds 13 1019 82 10000 3.54 185 10:47 04.10.2021
5473 Clouds 12 1019 89 10000 2.8 179 09:47 04.10.2021
5474 Clouds 12 1019 91 10000 2.92 187 08:30 04.10.2021
5475 Clouds 11 1018 93 10000 2.7 181 06:51 04.10.2021
5476 Clouds 12 1015 95 10000 2.96 204 23:42 03.10.2021
5477 Clouds 12 1014 95 10000 2.77 219 22:32 03.10.2021
5478 Clouds 12 1014 95 10000 2.25 225 21:36 03.10.2021
5479 Clouds 13 1013 95 10000 3.02 241 20:50 03.10.2021
5480 Clouds 14 1011 94 10000 4.56 231 19:54 03.10.2021
5481 Rain 15 1010 94 10000 6.33 221 18:31 03.10.2021
5482 Clouds 16 1007 92 10000 6.33 226 17:40 03.10.2021
5483 Clouds 17 1005 94 8188 6.01 203 15:45 03.10.2021
5484 Rain 18 1004 90 7930 7.69 224 14:39 03.10.2021
5485 Rain 18 1003 77 10000 8.29 192 13:40 03.10.2021
5486 Clouds 19 1003 70 8550 8.23 196 13:20 03.10.2021
5487 Rain 17 1002 58 10000 7.96 197 11:49 03.10.2021
5488 Rain 17 1001 49 10000 8.35 182 10:35 03.10.2021
5489 Rain 17 1001 50 10000 9.25 183 08:33 03.10.2021
5490 Rain 17 1003 60 10000 7.28 192 00:26 03.10.2021
5491 Rain 16 1004 71 10000 6.3 179 22:23 02.10.2021
5492 Rain 16 1004 67 10000 6.22 187 20:55 02.10.2021
5493 Clouds 17 1006 67 10000 6.11 174 18:59 02.10.2021
5494 Clouds 17 1006 67 10000 6.11 174 18:31 02.10.2021
5495 Clouds 18 1006 65 10000 6.07 176 17:38 02.10.2021
5496 Clouds 18 1008 64 10000 5.59 181 16:46 02.10.2021
5497 Clouds 17 1010 66 10000 6.05 202 14:42 02.10.2021
5498 Clouds 15 1026 52 10000 3.63 230 15:41 30.09.2021
5499 Clouds 15 1026 52 10000 3.63 230 15:41 30.09.2021
5500 Clouds 15 1026 52 10000 3.86 231 14:42 30.09.2021
5501 Clouds 13 1029 66 10000 3.71 222 12:27 30.09.2021
5502 Clouds 11 1029 66 10000 3.71 222 11:31 30.09.2021
5503 Clouds 9 1029 74 10000 2.99 212 10:36 30.09.2021
5504 Clouds 6 1029 89 10000 1.96 198 08:54 30.09.2021
5505 Clouds 5 1030 96 10000 2.02 196 08:22 30.09.2021
5506 Clear 5 1029 96 10000 2.08 198 05:53 30.09.2021
5507 Clear 6 1028 94 10000 2.23 206 02:59 30.09.2021
5508 Clear 7 1028 91 10000 2.02 220 00:40 30.09.2021
5509 Clear 8 1027 85 10000 2.26 230 23:21 29.09.2021
5510 Clear 8 1026 83 10000 2.24 234 21:55 29.09.2021
5511 Clear 10 1025 81 10000 2.09 246 20:57 29.09.2021
5512 Clouds 10 1024 76 10000 2.5 260 20:22 29.09.2021
5513 Clouds 12 1023 68 10000 4.24 268 19:28 29.09.2021
5514 Clouds 13 1022 64 10000 5.64 268 18:22 29.09.2021
5515 Clouds 14 1021 64 10000 6.16 269 16:56 29.09.2021
5516 Clouds 15 1021 64 10000 6.16 269 16:32 29.09.2021
5517 Clouds 15 1020 65 10000 6.9 270 15:45 29.09.2021
5518 Clouds 15 1020 71 10000 7.41 262 14:38 29.09.2021
5519 Clouds 14 1020 72 10000 7.29 259 13:36 29.09.2021
5520 Clouds 13 1019 82 10000 5.18 263 12:41 29.09.2021
5521 Clouds 13 1018 85 10000 6.1 212 11:26 29.09.2021
5522 Clouds 13 1018 85 10000 6.1 212 10:38 29.09.2021
5523 Clouds 12 1018 79 10000 5.16 202 09:47 29.09.2021
5524 Clouds 11 1017 81 10000 4.12 195 08:44 29.09.2021
5525 Clouds 9 1018 89 10000 3.05 181 06:53 29.09.2021
5526 Clouds 10 1019 85 10000 1.89 172 02:40 29.09.2021
5527 Clouds 11 1020 76 10000 1 133 23:21 28.09.2021
5528 Clouds 11 1021 76 10000 1.43 120 22:22 28.09.2021
5529 Clouds 12 1020 77 10000 0.99 122 21:25 28.09.2021
5530 Clouds 13 1020 76 10000 1.24 144 20:27 28.09.2021
5531 Clouds 14 1020 73 10000 1.3 137 19:42 28.09.2021
5532 Clouds 15 1020 71 10000 1.76 161 18:44 28.09.2021
5533 Clouds 17 1020 65 10000 1.23 165 17:53 28.09.2021
5534 Clouds 17 1022 52 10000 0.39 150 15:21 28.09.2021
5535 Clouds 16 1023 53 10000 0.43 111 13:30 28.09.2021
5536 Clouds 15 1023 60 10000 0.37 150 12:30 28.09.2021
5537 Clouds 14 1024 70 10000 0.22 146 11:57 28.09.2021
5538 Clouds 14 1024 70 10000 0.22 146 11:39 28.09.2021
5539 Clouds 13 1025 81 10000 0.98 224 10:49 28.09.2021
5540 Clouds 12 1025 90 10000 0.59 151 09:45 28.09.2021
5541 Clouds 11 1025 95 10000 0.85 174 08:57 28.09.2021
5542 Clouds 11 1025 95 10000 0.85 174 08:34 28.09.2021
5543 Clouds 11 1025 96 10000 1.37 205 06:51 28.09.2021
5544 Clouds 11 1025 94 10000 1.59 208 05:27 28.09.2021
5545 Clouds 12 1024 94 10000 1.14 239 01:22 28.09.2021
5546 Clouds 12 1023 91 10000 1.31 247 00:24 28.09.2021
5547 Clouds 12 1023 91 10000 1.31 247 23:32 27.09.2021
5548 Clouds 12 1023 90 10000 1.47 269 22:55 27.09.2021
5549 Clouds 13 1022 88 10000 2.28 274 21:44 27.09.2021
5550 Rain 13 1020 86 10000 4.73 305 20:44 27.09.2021
5551 Rain 15 1018 84 10000 4.51 229 19:53 27.09.2021
5552 Rain 17 1017 83 10000 3.17 200 19:27 27.09.2021
5553 Clouds 17 1017 83 10000 3.17 200 18:49 27.09.2021
5554 Clouds 19 1017 81 10000 3.4 212 17:29 27.09.2021
5555 Clouds 20 1017 81 10000 3.4 212 16:49 27.09.2021
5556 Clouds 20 1017 73 10000 5.13 223 15:44 27.09.2021
5557 Clouds 20 1017 72 10000 5.84 214 15:18 27.09.2021
5558 Clouds 18 1017 80 10000 5.09 211 13:32 27.09.2021
5559 Clouds 17 1017 76 10000 5.19 212 11:40 27.09.2021
5560 Clouds 16 1017 85 10000 4.66 209 10:36 27.09.2021
5561 Clouds 15 1017 92 10000 2.32 177 08:59 27.09.2021
5562 Clouds 14 1017 96 10000 2.08 168 05:22 27.09.2021
5563 Clear 14 1018 97 10000 2.18 179 03:21 27.09.2021
5564 Clouds 15 1018 92 10000 2.13 195 22:39 26.09.2021
5565 Clouds 15 1018 91 10000 2.05 196 21:53 26.09.2021
5566 Clouds 16 1018 91 10000 2.25 202 21:26 26.09.2021
5567 Clouds 16 1017 90 10000 2.46 202 20:23 26.09.2021
5568 Clouds 17 1017 90 10000 2.46 202 19:52 26.09.2021
5569 Clouds 19 1017 87 10000 2.5 207 18:48 26.09.2021
5570 Clouds 19 1016 81 10000 3.09 224 17:57 26.09.2021
5571 Clouds 19 1016 81 10000 3.09 224 17:36 26.09.2021
5572 Clouds 19 1016 75 10000 3.8 231 17:18 26.09.2021
5573 Clouds 19 1016 70 10000 4.47 220 16:21 26.09.2021
5574 Clouds 20 1017 83 10000 2.95 208 15:22 26.09.2021
5575 Clouds 18 1017 91 10000 2.29 198 13:59 26.09.2021
5576 Clouds 18 1017 91 10000 2.29 198 13:31 26.09.2021
5577 Clouds 18 1017 85 10000 3.8 224 12:26 26.09.2021
5578 Clouds 18 1017 85 10000 3.8 224 11:52 26.09.2021
5579 Clouds 18 1017 84 10000 3.96 222 10:52 26.09.2021
5580 Clouds 17 1017 88 10000 2.85 219 09:37 26.09.2021
5581 Clouds 15 1016 98 10000 1.88 183 08:20 26.09.2021
5582 Clouds 17 1016 88 8476 1.27 149 00:28 26.09.2021
5583 Clouds 17 1016 88 8476 1.27 149 23:41 25.09.2021
5584 Clouds 17 1015 80 10000 1.15 103 22:39 25.09.2021
5585 Clouds 17 1016 77 10000 1.38 113 22:18 25.09.2021
5586 Clouds 17 1016 77 10000 1.38 113 21:36 25.09.2021
5587 Clouds 18 1016 76 10000 1.39 114 20:52 25.09.2021
5588 Clouds 19 1016 75 10000 0.98 136 19:33 25.09.2021
5589 Clouds 22 1015 62 10000 0.53 174 18:28 25.09.2021
5590 Clouds 23 1015 46 10000 1.07 202 17:21 25.09.2021
5591 Clear 22 1016 44 10000 1.23 216 14:38 25.09.2021
5592 Clouds 21 1016 47 10000 0.89 212 13:55 25.09.2021
5593 Clouds 20 1017 52 10000 0.69 217 12:45 25.09.2021
5594 Clouds 17 1018 73 10000 0.52 169 11:27 25.09.2021
5595 Clear 14 1018 82 10000 0.36 150 10:18 25.09.2021
5596 Clear 12 1018 91 10000 0.44 129 08:55 25.09.2021
5597 Clear 11 1018 96 10000 0.59 138 07:47 25.09.2021
5598 Clear 12 1018 93 10000 1.15 176 00:52 25.09.2021
5599 Clear 14 1018 92 10000 1.11 202 22:18 24.09.2021
5600 Clear 14 1018 92 10000 1.11 202 21:34 24.09.2021
5601 Clear 16 1018 91 10000 0.66 216 20:32 24.09.2021
5602 Clouds 18 1017 88 10000 0.87 235 19:32 24.09.2021
5603 Clouds 20 1017 73 10000 1.78 276 18:21 24.09.2021
5604 Clouds 20 1017 73 10000 1.78 276 17:53 24.09.2021
5605 Clouds 20 1017 73 10000 1.78 276 17:34 24.09.2021
5606 Clouds 20 1017 65 10000 3.24 265 15:50 24.09.2021
5607 Clouds 18 1019 76 10000 2.98 231 13:27 24.09.2021
5608 Clouds 18 1019 76 10000 2.98 231 12:43 24.09.2021
5609 Clouds 17 1019 80 10000 2.57 222 12:25 24.09.2021
5610 Clouds 15 1020 82 10000 2.11 219 10:56 24.09.2021
5611 Clouds 14 1020 84 10000 1.93 217 09:57 24.09.2021
5612 Clouds 12 1020 88 10000 1.76 198 08:23 24.09.2021
5613 Clouds 11 1020 88 10000 1.76 198 07:30 24.09.2021
5614 Clouds 12 1019 95 10000 2.23 196 06:23 24.09.2021
5615 Clear 12 1019 95 10000 2.1 201 04:51 24.09.2021
5616 Clouds 14 1020 90 10000 1.63 224 22:44 23.09.2021
5617 Clouds 13 1020 88 10000 1.68 230 21:59 23.09.2021
5618 Clouds 14 1020 88 10000 1.68 230 21:37 23.09.2021
5619 Clouds 16 1020 86 10000 1.61 240 20:32 23.09.2021
5620 Clouds 20 1018 70 10000 2.73 265 18:56 23.09.2021
5621 Clouds 23 1018 50 10000 4.31 253 16:49 23.09.2021
5622 Clear 22 1019 46 10000 4.52 245 15:20 23.09.2021
5623 Clear 22 1019 46 10000 4.52 245 14:58 23.09.2021
5624 Clear 21 1020 53 10000 3.31 258 13:40 23.09.2021
5625 Clear 20 1021 57 10000 2.97 254 13:18 23.09.2021
5626 Clear 19 1021 57 10000 2.97 254 12:46 23.09.2021
5627 Clear 19 1021 60 10000 2.41 244 12:21 23.09.2021
5628 Clear 15 1022 65 10000 1.72 250 10:42 23.09.2021
5629 Clear 14 1022 70 10000 1.19 234 10:19 23.09.2021
5630 Clear 14 1022 70 10000 1.19 234 10:19 23.09.2021
5631 Clear 14 1022 70 10000 1.19 234 09:47 23.09.2021
5632 Clouds 8 1023 88 10000 0.19 182 06:32 23.09.2021
5633 Clouds 10 1026 85 10000 0.9 65 00:28 23.09.2021
5634 Clouds 12 1026 83 10000 0.9 109 22:54 22.09.2021
5635 Clouds 12 1026 83 10000 0.88 109 22:23 22.09.2021
5636 Clouds 13 1026 83 10000 0.88 109 21:46 22.09.2021
5637 Clouds 13 1026 83 10000 0.88 109 21:46 22.09.2021
5638 Clouds 13 1026 81 10000 0.82 104 20:58 22.09.2021
5639 Clouds 14 1026 81 10000 0.82 104 20:38 22.09.2021
5640 Clouds 17 1026 71 10000 1.21 87 19:27 22.09.2021
5641 Clouds 18 1026 71 10000 1.21 87 18:36 22.09.2021
5642 Clouds 20 1025 64 10000 1.26 70 17:39 22.09.2021
5643 Clouds 20 1026 52 10000 1.57 73 16:36 22.09.2021
5644 Clouds 19 1027 47 10000 1.82 73 14:37 22.09.2021
5645 Clouds 18 1029 51 10000 2.01 75 13:25 22.09.2021
5646 Clouds 18 1029 51 10000 2.01 75 13:25 22.09.2021
5647 Clouds 16 1029 55 10000 2.24 74 11:34 22.09.2021
5648 Clouds 13 1030 60 10000 1.99 56 10:37 22.09.2021
5649 Clouds 9 1030 75 10000 1.55 46 08:57 22.09.2021
5650 Clouds 8 1030 83 10000 1.79 49 07:50 22.09.2021
5651 Clouds 7 1030 85 10000 1.91 44 06:57 22.09.2021
5652 Clouds 7 1030 84 10000 1.96 41 05:51 22.09.2021
5653 Clouds 7 1030 84 10000 1.96 41 05:31 22.09.2021
5654 Clouds 8 1029 83 10000 1.52 37 03:43 22.09.2021
5655 Clouds 10 1031 80 10000 0.97 53 00:21 22.09.2021
5656 Clouds 11 1031 79 10000 1.14 60 22:49 21.09.2021
5657 Clouds 12 1031 78 10000 1.93 45 21:31 21.09.2021
5658 Clouds 14 1029 72 10000 2.1 48 19:42 21.09.2021
5659 Clouds 15 1028 68 10000 2.3 36 19:20 21.09.2021
5660 Clouds 17 1028 50 10000 3.02 41 16:59 21.09.2021
5661 Clouds 18 1028 50 10000 3.02 41 16:34 21.09.2021
5662 Clouds 18 1028 47 10000 3.4 48 15:35 21.09.2021
5663 Clouds 18 1028 46 10000 3.01 37 14:56 21.09.2021
5664 Clouds 17 1028 45 10000 3.26 38 13:56 21.09.2021
5665 Clouds 17 1028 45 10000 3.26 38 13:36 21.09.2021
5666 Clouds 16 1028 52 10000 3.68 51 11:44 21.09.2021
5667 Clouds 13 1028 74 10000 2.6 52 09:55 21.09.2021
5668 Clouds 12 1027 83 10000 2.35 31 07:59 21.09.2021
5669 Clouds 12 1026 94 10000 1.83 25 06:38 21.09.2021
5670 Clouds 14 1024 88 10000 1.36 58 23:58 20.09.2021
5671 Clouds 14 1023 91 10000 1.82 61 22:24 20.09.2021
5672 Clouds 15 1023 91 10000 1.82 61 21:37 20.09.2021
5673 Clouds 15 1022 89 10000 2.38 53 20:30 20.09.2021
5674 Clouds 17 1020 77 10000 2.96 47 19:29 20.09.2021
5675 Clouds 18 1019 72 10000 2.7 52 17:40 20.09.2021
5676 Clouds 19 1019 69 10000 2.19 60 16:43 20.09.2021
5677 Clouds 19 1019 70 10000 1.7 72 15:49 20.09.2021
5678 Clouds 18 1018 72 10000 1.15 98 15:23 20.09.2021
5679 Clouds 18 1018 55 10000 1.61 353 13:45 20.09.2021
5680 Clouds 17 1018 60 10000 1.31 352 12:35 20.09.2021
5681 Clouds 16 1018 72 10000 1.28 23 11:25 20.09.2021
5682 Clouds 14 1018 79 10000 1.26 18 09:59 20.09.2021
5683 Clouds 14 1018 79 10000 1.26 18 09:36 20.09.2021
5684 Clouds 13 1018 85 10000 1.04 3 09:18 20.09.2021
5685 Clouds 13 1017 89 10000 0.68 42 07:45 20.09.2021
5686 Clouds 14 1017 85 10000 1.22 124 00:36 20.09.2021
5687 Clouds 15 1016 80 10000 1.41 143 22:26 19.09.2021
5688 Clouds 15 1016 80 10000 1.44 143 21:43 19.09.2021
5689 Clouds 15 1015 77 10000 1.27 122 20:51 19.09.2021
5690 Clouds 17 1014 69 10000 1.33 92 19:32 19.09.2021
5691 Clouds 19 1014 68 10000 1.6 112 18:30 19.09.2021
5692 Clouds 20 1013 61 10000 1.98 91 17:23 19.09.2021
5693 Clouds 20 1013 61 10000 1.98 91 17:23 19.09.2021
5694 Clouds 20 1013 58 10000 1.96 60 15:59 19.09.2021
5695 Clouds 20 1013 58 10000 1.96 60 15:30 19.09.2021
5696 Clouds 20 1013 54 10000 1.83 38 14:48 19.09.2021
5697 Clouds 20 1014 58 10000 2.7 118 13:29 19.09.2021
5698 Clouds 19 1014 58 10000 2.69 118 12:52 19.09.2021
5699 Clouds 17 1013 66 10000 2.58 89 11:29 19.09.2021
5700 Clouds 16 1013 66 10000 2.58 89 10:56 19.09.2021
5701 Clouds 14 1013 75 10000 2.43 78 09:49 19.09.2021
5702 Clouds 12 1013 85 10000 2.24 64 08:41 19.09.2021
5703 Clouds 11 1014 95 10000 2.26 50 06:42 19.09.2021
5704 Clouds 14 1015 87 10000 1.81 71 23:57 18.09.2021
5705 Clouds 15 1015 83 10000 1.69 78 22:51 18.09.2021
5706 Clouds 16 1015 73 10000 1.74 94 20:58 18.09.2021
5707 Clouds 17 1015 73 10000 1.74 94 20:38 18.09.2021
5708 Clouds 18 1014 73 10000 2.05 90 19:41 18.09.2021
5709 Clouds 19 1014 72 10000 2.21 76 19:21 18.09.2021
5710 Clouds 21 1014 72 10000 2.21 76 18:37 18.09.2021
5711 Clouds 22 1014 63 10000 2.42 72 17:46 18.09.2021
5712 Clouds 22 1014 52 10000 2.6 80 16:34 18.09.2021
5713 Clouds 21 1015 50 10000 2.09 61 13:50 18.09.2021
5714 Clouds 21 1015 50 10000 2.09 61 13:30 18.09.2021
5715 Clouds 21 1016 53 10000 2.19 63 12:50 18.09.2021
5716 Clouds 20 1016 58 10000 2.18 61 11:42 18.09.2021
5717 Clouds 16 1016 64 10000 1.78 55 10:35 18.09.2021
5718 Clouds 14 1017 72 10000 1.5 46 09:52 18.09.2021
5719 Clouds 13 1017 81 10000 1.3 48 09:20 18.09.2021
5720 Clouds 10 1017 91 10000 1.25 56 06:54 18.09.2021
5721 Clouds 11 1017 90 10000 1.25 50 00:42 18.09.2021
5722 Clouds 11 1017 88 10000 1.2 49 23:53 17.09.2021
5723 Clouds 12 1017 87 10000 1.21 48 22:42 17.09.2021
5724 Clouds 13 1016 85 10000 1.02 52 22:21 17.09.2021
5725 Clouds 15 1016 83 10000 0.89 51 21:27 17.09.2021
5726 Clouds 18 1015 73 10000 1.47 350 19:29 17.09.2021
5727 Clouds 21 1015 63 10000 1.63 347 17:55 17.09.2021
5728 Clouds 21 1015 53 10000 1.78 334 16:27 17.09.2021
5729 Clouds 20 1016 53 10000 1.58 333 14:32 17.09.2021
5730 Clear 18 1017 57 10000 1.01 335 11:30 17.09.2021
5731 Clouds 13 1017 73 10000 0.24 57 09:24 17.09.2021
5732 Clouds 12 1018 81 10000 0.54 114 07:35 17.09.2021
5733 Clouds 12 1018 61 10000 0.32 289 03:58 17.09.2021
5734 Clouds 13 1018 69 10000 0.49 27 23:41 16.09.2021
5735 Clouds 15 1018 71 10000 0.63 29 22:33 16.09.2021
5736 Clouds 16 1018 72 10000 0.86 8 21:52 16.09.2021
5737 Clouds 16 1018 68 10000 1.21 352 21:27 16.09.2021
5738 Clouds 17 1018 68 10000 1.82 334 20:24 16.09.2021
5739 Clouds 19 1017 66 10000 2.99 324 18:28 16.09.2021
5740 Clouds 19 1017 66 10000 2.99 324 17:58 16.09.2021
5741 Clouds 19 1017 57 10000 3.09 322 15:24 16.09.2021
5742 Clouds 18 1017 57 10000 3.09 322 14:33 16.09.2021
5743 Clouds 18 1018 65 10000 2.65 335 12:59 16.09.2021
5744 Clouds 18 1018 65 10000 2.65 335 12:36 16.09.2021
5745 Clouds 17 1018 69 10000 2.79 339 11:44 16.09.2021
5746 Clouds 17 1018 69 10000 2.79 339 11:44 16.09.2021
5747 Clouds 16 1018 78 10000 2.86 342 10:40 16.09.2021
5748 Clouds 16 1018 86 10000 3.05 334 10:18 16.09.2021
5749 Clouds 14 1017 89 10000 2.19 327 08:43 16.09.2021
5750 Clouds 14 1017 92 10000 1.58 322 07:43 16.09.2021
5751 Clouds 15 1016 91 10000 1.18 328 06:55 16.09.2021
5752 Clouds 15 1016 91 10000 1.18 328 06:31 16.09.2021
5753 Clouds 16 1016 95 10000 1.39 330 02:57 16.09.2021
5754 Clouds 17 1015 97 10000 1.95 329 00:45 16.09.2021
5755 Clouds 18 1014 96 10000 1.37 325 22:52 15.09.2021
5756 Rain 19 1013 97 10000 1.36 296 21:56 15.09.2021
5757 Clouds 19 1013 97 10000 1.36 296 21:30 15.09.2021
5758 Rain 19 1012 96 10000 1.94 235 20:24 15.09.2021
5759 Rain 20 1012 94 10000 3.8 210 19:29 15.09.2021
5760 Clouds 21 1012 92 9135 3.86 217 18:25 15.09.2021
5761 Clouds 21 1012 88 10000 4.13 218 17:27 15.09.2021
5762 Clouds 22 1012 85 10000 4.12 208 16:27 15.09.2021
5763 Clouds 21 1012 90 10000 3.85 211 14:53 15.09.2021
5764 Clouds 21 1012 90 10000 3.85 211 14:33 15.09.2021
5765 Clouds 20 1012 98 10000 2.52 216 13:42 15.09.2021
5766 Clouds 20 1012 98 6706 1.99 196 13:23 15.09.2021
5767 Clouds 20 1012 97 10000 2.04 183 12:23 15.09.2021
5768 Clouds 20 1012 97 10000 2.04 183 11:49 15.09.2021
5769 Clouds 19 1012 98 10000 1.94 176 10:57 15.09.2021
5770 Rain 19 1012 98 10000 2.01 177 09:44 15.09.2021
5771 Clouds 18 1012 98 10000 2.55 185 08:41 15.09.2021
5772 Rain 18 1012 98 10000 1.87 179 06:28 15.09.2021
5773 Clouds 18 1013 93 10000 1.29 151 00:37 15.09.2021
5774 Clouds 19 1014 90 10000 1.33 141 21:59 14.09.2021
5775 Clouds 19 1014 89 10000 1.06 129 20:56 14.09.2021
5776 Clouds 20 1013 87 10000 1.3 155 19:58 14.09.2021
5777 Clouds 21 1013 86 10000 1.39 163 18:40 14.09.2021
5778 Clouds 22 1014 84 10000 1.29 158 17:29 14.09.2021
5779 Clouds 22 1014 72 10000 2.49 250 15:58 14.09.2021
5780 Clouds 22 1014 63 10000 4.88 223 14:32 14.09.2021
5781 Clouds 23 1014 58 10000 3.47 211 13:33 14.09.2021
5782 Clouds 20 1015 67 10000 1.07 144 10:57 14.09.2021
5783 Clouds 17 1015 75 10000 0.98 90 09:52 14.09.2021
5784 Clouds 16 1015 81 10000 0.5 70 09:18 14.09.2021
5785 Clouds 12 1015 92 10000 1.08 81 07:28 14.09.2021
5786 Clouds 15 1016 88 10000 1.34 74 00:57 14.09.2021
5787 Clouds 16 1017 86 10000 1.39 74 23:18 13.09.2021
5788 Clouds 17 1016 85 10000 1.57 96 22:27 13.09.2021
5789 Clouds 17 1016 85 10000 1.57 96 21:54 13.09.2021
5790 Clouds 17 1016 83 10000 1.36 99 21:19 13.09.2021
5791 Clouds 20 1016 78 10000 1.48 103 19:34 13.09.2021
5792 Clouds 22 1015 70 10000 1.21 81 18:43 13.09.2021
5793 Clouds 24 1016 52 10000 1.45 49 17:21 13.09.2021
5794 Clouds 24 1016 50 10000 1.41 19 15:55 13.09.2021
5795 Clouds 23 1016 49 10000 1.29 12 14:30 13.09.2021
5796 Clouds 20 1018 65 10000 1.55 40 11:21 13.09.2021
5797 Clouds 16 1018 73 10000 1.78 49 09:54 13.09.2021
5798 Clouds 14 1018 90 10000 1.16 46 07:57 13.09.2021
5799 Clouds 14 1019 85 10000 1.62 42 00:18 13.09.2021
5800 Clouds 15 1018 82 10000 1.7 29 22:42 12.09.2021
5801 Clouds 15 1018 78 10000 1.13 19 22:20 12.09.2021
5802 Clouds 17 1018 73 10000 0.52 36 20:41 12.09.2021
5803 Clouds 18 1017 69 10000 0.09 158 19:56 12.09.2021
5804 Clouds 20 1017 65 10000 0.4 286 19:29 12.09.2021
5805 Clouds 21 1017 65 10000 0.4 286 18:50 12.09.2021
5806 Clouds 23 1017 50 10000 2.08 285 16:58 12.09.2021
5807 Clouds 22 1017 50 10000 2.4 274 15:37 12.09.2021
5808 Clouds 22 1018 51 10000 2.39 265 14:37 12.09.2021
5809 Clouds 20 1019 58 10000 1.78 265 12:28 12.09.2021
5810 Clouds 16 1019 69 10000 0.81 262 10:19 12.09.2021
5811 Clouds 13 1019 78 10000 0.54 249 08:38 12.09.2021
5812 Clouds 11 1019 93 10000 0.98 179 04:59 12.09.2021
5813 Clear 13 1020 92 10000 0.27 148 00:46 12.09.2021
5814 Clear 15 1020 90 10000 0.53 224 22:35 11.09.2021
5815 Clear 16 1019 89 10000 1.02 226 21:38 11.09.2021
5816 Clouds 19 1018 82 10000 1.61 270 19:39 11.09.2021
5817 Clouds 22 1017 59 10000 2.76 268 17:56 11.09.2021
5818 Clouds 22 1017 53 10000 3.2 268 17:21 11.09.2021
5819 Clear 22 1018 53 10000 4.51 273 15:24 11.09.2021
5820 Clouds 21 1018 72 10000 3.94 253 13:22 11.09.2021
5821 Clouds 19 1019 82 10000 3.1 244 11:41 11.09.2021
5822 Clouds 18 1019 93 10000 1.92 231 09:50 11.09.2021
5823 Clouds 18 1018 95 10000 1.79 214 08:42 11.09.2021
5824 Rain 17 1018 97 10000 1.66 200 07:43 11.09.2021
5825 Clouds 18 1017 98 10000 2.19 193 02:52 11.09.2021
5826 Clouds 18 1016 95 10000 2.8 197 22:37 10.09.2021
5827 Clouds 18 1016 93 10000 2.36 191 21:57 10.09.2021
5828 Clouds 18 1016 93 10000 2.36 191 21:36 10.09.2021
5829 Clouds 20 1015 96 10000 2.61 191 19:30 10.09.2021
5830 Clouds 20 1015 96 10000 2.61 191 19:30 10.09.2021
5831 Clouds 21 1015 91 10000 3.06 203 17:54 10.09.2021
5832 Clouds 21 1014 82 10000 4.21 217 15:51 10.09.2021
5833 Clouds 21 1015 81 10000 3.81 212 13:26 10.09.2021
5834 Clouds 19 1015 84 10000 3.09 214 10:32 10.09.2021
5835 Clouds 18 1014 95 10000 1.65 179 07:52 10.09.2021
5836 Clouds 18 1014 97 10000 1.79 179 06:37 10.09.2021
5837 Clouds 19 1013 98 10000 2.5 186 23:59 09.09.2021
5838 Clouds 20 1013 92 10000 2.54 199 21:49 09.09.2021
5839 Clouds 21 1012 91 10000 2.31 195 20:48 09.09.2021
5840 Clouds 21 1012 91 10000 1.64 177 20:26 09.09.2021
5841 Clouds 23 1012 83 10000 1.92 189 18:46 09.09.2021
5842 Clouds 24 1012 77 10000 2.84 198 17:47 09.09.2021
5843 Clouds 24 1012 85 10000 2.85 205 16:28 09.09.2021
5844 Clouds 23 1012 87 10000 3.23 213 15:24 09.09.2021
5845 Clouds 22 1013 80 10000 4.01 228 12:24 09.09.2021
5846 Clouds 21 1013 81 10000 4.28 226 11:22 09.09.2021
5847 Clouds 19 1012 80 10000 2.73 213 09:36 09.09.2021
5848 Clear 16 1012 86 10000 1.66 188 07:45 09.09.2021
5849 Clouds 16 1012 84 10000 1.26 161 05:47 09.09.2021
5850 Clear 17 1013 75 10000 1.21 92 00:33 09.09.2021
5851 Clear 19 1013 69 10000 1.69 100 21:49 08.09.2021
5852 Clear 21 1013 67 10000 1.71 107 20:49 08.09.2021
5853 Clear 23 1013 64 10000 2.01 104 19:46 08.09.2021
5854 Clear 26 1013 58 10000 2.44 105 18:47 08.09.2021
5855 Clear 26 1013 48 10000 3.1 118 18:25 08.09.2021
5856 Clear 26 1013 48 10000 3.1 118 17:40 08.09.2021
5857 Clear 27 1014 39 10000 4.14 118 15:49 08.09.2021
5858 Clear 26 1015 39 10000 4.76 113 13:45 08.09.2021
5859 Clear 24 1016 41 10000 4.89 110 12:41 08.09.2021
5860 Clear 24 1016 46 10000 4.89 111 12:23 08.09.2021
5861 Clear 23 1017 51 10000 4.4 104 11:26 08.09.2021
5862 Clear 21 1017 51 10000 4.4 104 10:31 08.09.2021
5863 Clear 19 1017 61 10000 3.13 93 09:57 08.09.2021
5864 Clouds 15 1018 80 10000 2.04 55 07:47 08.09.2021
5865 Clouds 14 1018 81 10000 2 58 07:19 08.09.2021
5866 Clouds 18 1021 69 10000 1.61 71 23:32 07.09.2021
5867 Clouds 19 1021 70 10000 1.8 71 22:19 07.09.2021
5868 Clouds 19 1021 70 10000 1.8 71 22:19 07.09.2021
5869 Clouds 21 1021 69 10000 1.84 85 20:45 07.09.2021
5870 Clouds 24 1020 63 10000 1.98 80 19:27 07.09.2021
5871 Clouds 26 1020 63 10000 1.98 80 18:37 07.09.2021
5872 Clouds 27 1020 53 10000 2.17 57 17:38 07.09.2021
5873 Clouds 27 1021 42 10000 2.53 32 15:57 07.09.2021
5874 Clouds 26 1021 41 10000 2.16 28 14:54 07.09.2021
5875 Clouds 26 1022 43 10000 1.88 32 13:52 07.09.2021
5876 Clouds 24 1023 50 10000 1.52 46 12:20 07.09.2021
5877 Clouds 22 1024 55 10000 1.67 47 10:59 07.09.2021
5878 Clouds 22 1024 55 10000 1.67 47 10:59 07.09.2021
5879 Clouds 20 1024 62 10000 1.82 33 10:20 07.09.2021
5880 Clouds 14 1023 78 10000 1.74 45 07:48 07.09.2021
5881 Clouds 14 1023 80 10000 1.67 42 06:42 07.09.2021
5882 Clouds 16 1024 80 10000 1.14 58 02:43 07.09.2021
5883 Clouds 16 1024 81 10000 1.23 68 02:23 07.09.2021
5884 Clouds 17 1024 80 10000 1.82 51 00:21 07.09.2021
5885 Clouds 18 1024 80 10000 1.82 51 23:31 06.09.2021
5886 Clouds 18 1024 79 10000 2.06 45 22:53 06.09.2021
5887 Clouds 18 1024 76 10000 1.97 41 22:25 06.09.2021
5888 Clouds 21 1023 71 10000 1.73 39 20:37 06.09.2021
5889 Clouds 24 1022 63 10000 1.3 340 19:22 06.09.2021
5890 Clouds 26 1022 63 10000 1.3 340 18:36 06.09.2021
5891 Clouds 26 1022 57 10000 1.66 331 17:58 06.09.2021
5892 Clouds 26 1022 47 10000 2.14 346 17:24 06.09.2021
5893 Clouds 27 1022 45 10000 2.46 345 15:34 06.09.2021
5894 Clear 26 1022 45 10000 1.25 336 13:46 06.09.2021
5895 Clear 25 1023 48 10000 0.79 12 12:45 06.09.2021
5896 Clear 21 1023 59 10000 1.46 51 10:40 06.09.2021
5897 Clear 15 1023 81 10000 1.39 49 07:54 06.09.2021
5898 Clear 14 1022 82 10000 1.22 44 04:43 06.09.2021
5899 Clouds 17 1021 75 10000 0.96 62 23:26 05.09.2021
5900 Clouds 18 1021 75 10000 0.96 62 22:34 05.09.2021
5901 Clouds 18 1021 73 10000 1.09 59 21:57 05.09.2021
5902 Clouds 19 1021 70 10000 0.96 54 21:29 05.09.2021
5903 Clouds 23 1020 66 10000 0.7 42 19:50 05.09.2021
5904 Clouds 25 1019 64 10000 0.99 350 18:38 05.09.2021
5905 Clouds 27 1019 48 10000 2.22 357 17:22 05.09.2021
5906 Clouds 26 1019 46 10000 2.33 2 15:27 05.09.2021
5907 Clouds 25 1019 48 10000 2.05 2 13:54 05.09.2021
5908 Clear 23 1020 57 10000 1.37 39 11:57 05.09.2021
5909 Clear 21 1020 62 10000 1.32 44 10:47 05.09.2021
5910 Clear 20 1020 69 10000 1.24 39 10:23 05.09.2021
5911 Clear 20 1020 69 10000 1.24 39 10:23 05.09.2021
5912 Clear 18 1020 77 10000 1.09 44 09:21 05.09.2021
5913 Clear 14 1019 85 10000 1.08 49 07:31 05.09.2021
5914 Clear 15 1018 79 10000 1.08 55 00:48 05.09.2021
5915 Clear 15 1018 77 10000 1.17 65 00:21 05.09.2021
5916 Clear 16 1018 77 10000 1.17 65 23:32 04.09.2021
5917 Clear 17 1018 75 10000 1.29 71 22:35 04.09.2021
5918 Clear 18 1018 75 10000 1.33 92 21:55 04.09.2021
5919 Clear 23 1016 70 10000 0.82 71 19:41 04.09.2021
5920 Clear 25 1015 52 10000 1.5 353 18:19 04.09.2021
5921 Clear 26 1016 41 10000 1.75 3 15:53 04.09.2021
5922 Clear 24 1017 45 10000 1.58 34 12:48 04.09.2021
5923 Clear 22 1017 56 10000 1.33 48 11:19 04.09.2021
5924 Clear 16 1017 71 10000 1.21 46 08:58 04.09.2021
5925 Clear 14 1018 79 10000 1.1 58 02:32 04.09.2021
5926 Clear 15 1018 73 10000 1.35 73 00:24 04.09.2021
5927 Clear 16 1018 73 10000 1.35 73 23:31 03.09.2021
5928 Clear 18 1018 71 10000 1.52 86 21:53 03.09.2021
5929 Clear 18 1018 71 10000 1.52 86 21:33 03.09.2021
5930 Clear 20 1018 71 10000 1.72 91 20:41 03.09.2021
5931 Clear 23 1017 69 10000 1.6 78 19:46 03.09.2021
5932 Clear 25 1017 62 10000 1.55 73 18:55 03.09.2021
5933 Clear 26 1017 48 10000 1.26 71 17:40 03.09.2021
5934 Clear 26 1018 40 10000 1.07 114 16:25 03.09.2021
5935 Clear 25 1018 40 10000 1.53 129 14:47 03.09.2021
5936 Clear 22 1020 48 10000 3.03 99 11:57 03.09.2021
5937 Clear 18 1021 67 10000 2.26 76 10:26 03.09.2021
5938 Clear 15 1021 78 10000 1.96 55 08:44 03.09.2021
5939 Clear 12 1021 91 10000 1.94 51 07:39 03.09.2021
5940 Clear 15 1023 90 10000 2.09 53 00:44 03.09.2021
5941 Clear 16 1023 87 10000 2.13 62 22:55 02.09.2021
5942 Clear 17 1023 79 10000 2.38 70 21:25 02.09.2021
5943 Clear 22 1022 65 10000 3.35 69 19:27 02.09.2021
5944 Clear 24 1022 57 10000 3.81 73 17:31 02.09.2021
5945 Clear 24 1022 57 10000 3.81 73 17:30 02.09.2021
5946 Clear 23 1023 48 10000 4.06 88 15:48 02.09.2021
5947 Clear 22 1024 49 10000 4.31 94 13:56 02.09.2021
5948 Clear 21 1024 51 10000 4.25 87 12:36 02.09.2021
5949 Clear 19 1025 57 10000 4.12 79 11:33 02.09.2021
5950 Clear 15 1025 75 10000 2.97 59 09:38 02.09.2021
5951 Clear 11 1026 94 10000 2.05 41 07:45 02.09.2021
5952 Clear 11 1026 97 10000 2.18 49 06:57 02.09.2021
5953 Clear 12 1027 96 10000 2.2 47 02:51 02.09.2021
5954 Clear 12 1027 95 10000 2.17 49 01:55 02.09.2021
5955 Clear 12 1027 95 10000 2 52 01:19 02.09.2021
5956 Clear 13 1027 95 10000 2.14 51 23:35 01.09.2021
5957 Clear 14 1027 95 10000 2.38 46 22:34 01.09.2021
5958 Clear 15 1027 93 10000 2.55 45 21:34 01.09.2021
5959 Clouds 18 1025 79 10000 3.05 45 19:59 01.09.2021
5960 Clear 20 1025 60 10000 3.26 40 18:29 01.09.2021
5961 Clear 21 1025 60 10000 3.26 40 17:37 01.09.2021
5962 Clear 21 1025 58 10000 3.38 37 16:46 01.09.2021
5963 Clouds 21 1026 61 10000 3.93 41 15:25 01.09.2021
5964 Clouds 18 1027 69 10000 3.57 37 11:50 01.09.2021
5965 Clouds 17 1027 73 10000 3.39 39 10:55 01.09.2021
5966 Clouds 14 1027 87 10000 2.63 40 08:46 01.09.2021
5967 Clouds 13 1027 93 10000 1.51 43 07:51 01.09.2021
5968 Clouds 12 1026 88 10000 1.56 37 00:50 01.09.2021
5969 Clouds 14 1026 86 10000 1.4 32 22:30 31.08.2021
5970 Clouds 15 1025 81 10000 1.57 28 21:22 31.08.2021
5971 Clouds 18 1024 77 10000 1.23 16 19:45 31.08.2021
5972 Clouds 20 1024 69 10000 2.24 18 18:27 31.08.2021
5973 Clouds 21 1024 69 10000 2.24 18 17:36 31.08.2021
5974 Clouds 20 1023 61 10000 3.46 7 16:52 31.08.2021
5975 Clouds 20 1023 56 10000 3.91 9 16:24 31.08.2021
5976 Clouds 19 1023 57 10000 4.22 30 12:57 31.08.2021
5977 Clouds 18 1024 70 10000 4.09 42 11:27 31.08.2021
5978 Clouds 17 1024 70 10000 4.09 42 10:52 31.08.2021
5979 Clouds 17 1024 70 10000 4.09 42 10:52 31.08.2021
5980 Clouds 15 1023 81 10000 3.92 30 09:44 31.08.2021
5981 Clouds 14 1023 90 10000 2.77 25 08:38 31.08.2021
5982 Clear 13 1022 97 10000 1.8 22 05:58 31.08.2021
5983 Clear 14 1021 96 10000 1.78 13 01:36 31.08.2021
5984 Clouds 15 1021 96 10000 1.35 358 23:35 30.08.2021
5985 Clouds 16 1020 95 10000 1.7 4 21:43 30.08.2021
5986 Clouds 17 1020 94 10000 1.98 2 20:49 30.08.2021
5987 Clouds 18 1019 90 10000 2.27 359 20:19 30.08.2021
5988 Clouds 19 1018 84 10000 2.63 7 19:29 30.08.2021
5989 Clouds 19 1018 84 10000 2.63 7 19:29 30.08.2021
5990 Clouds 19 1018 84 10000 2.63 7 18:30 30.08.2021
5991 Clouds 20 1018 80 10000 3.39 16 17:44 30.08.2021
5992 Clouds 20 1018 77 10000 4.29 25 16:20 30.08.2021
5993 Clouds 20 1018 75 10000 4.23 23 15:23 30.08.2021
5994 Clouds 19 1018 73 9847 4.1 16 13:28 30.08.2021
5995 Clouds 19 1018 74 10000 3.73 11 12:24 30.08.2021
5996 Clouds 16 1018 89 10000 2.56 357 08:58 30.08.2021
5997 Clouds 15 1018 93 10000 1.43 328 22:27 29.08.2021
5998 Clouds 15 1018 93 10000 1.43 328 21:32 29.08.2021
5999 Clouds 16 1017 90 10000 2.65 328 19:59 29.08.2021
6000 Clouds 16 1018 91 10000 2.3 330 19:18 29.08.2021
6001 Clouds 16 1018 90 10000 2.88 334 17:42 29.08.2021
6002 Rain 16 1018 81 10000 3.92 332 15:47 29.08.2021
6003 Rain 16 1018 73 10000 4.68 330 14:18 29.08.2021
6004 Clouds 16 1018 73 10000 4.68 330 13:33 29.08.2021
6005 Clouds 16 1018 85 10000 2.95 329 12:31 29.08.2021
6006 Clouds 16 1018 81 10000 4.02 337 11:48 29.08.2021
6007 Clouds 16 1018 83 10000 3.93 342 10:52 29.08.2021
6008 Clouds 15 1018 83 10000 3.93 342 10:33 29.08.2021
6009 Clouds 15 1018 88 10000 3.08 338 09:54 29.08.2021
6010 Clouds 14 1019 95 10000 1.75 315 06:55 29.08.2021
6011 Clouds 15 1020 96 10000 1.2 332 00:20 29.08.2021
6012 Clouds 15 1020 95 10000 1.92 353 21:50 28.08.2021
6013 Clouds 17 1018 91 10000 2.54 358 19:54 28.08.2021
6014 Clouds 19 1018 82 10000 3.78 8 18:28 28.08.2021
6015 Clouds 18 1018 82 10000 3.78 8 17:59 28.08.2021
6016 Clouds 17 1018 78 10000 4.15 5 16:59 28.08.2021
6017 Clouds 18 1018 83 10000 3.43 357 15:33 28.08.2021
6018 Clouds 18 1018 81 10000 4.6 4 14:20 28.08.2021
6019 Clouds 17 1018 85 10000 4.03 347 13:43 28.08.2021
6020 Clouds 16 1018 90 10000 3.77 339 12:41 28.08.2021
6021 Clouds 16 1018 84 10000 3.02 333 11:51 28.08.2021
6022 Clouds 15 1018 88 10000 1.65 315 10:35 28.08.2021
6023 Clouds 13 1019 93 10000 1.23 284 08:39 28.08.2021
6024 Clouds 13 1018 92 10000 1.37 312 06:24 28.08.2021
6025 Clouds 14 1018 94 10000 1.59 315 22:29 27.08.2021
6026 Clouds 15 1018 93 10000 2.26 320 20:57 27.08.2021
6027 Clouds 16 1017 90 10000 3.02 324 20:19 27.08.2021
6028 Clouds 17 1017 83 10000 4.01 331 18:57 27.08.2021
6029 Clouds 17 1017 83 10000 4.01 331 18:37 27.08.2021
6030 Clouds 18 1017 76 10000 4.34 330 16:56 27.08.2021
6031 Clouds 18 1017 70 10000 4.58 326 15:36 27.08.2021
6032 Clouds 17 1017 65 10000 5.1 322 14:43 27.08.2021
6033 Clouds 16 1017 72 10000 3.11 320 12:30 27.08.2021
6034 Clouds 16 1018 78 10000 3.19 335 11:25 27.08.2021
6035 Clouds 15 1018 78 10000 3.19 335 10:43 27.08.2021
6036 Clear 14 1018 83 10000 2.61 336 09:30 27.08.2021
6037 Clear 12 1018 88 10000 1.59 329 08:44 27.08.2021
6038 Clouds 12 1017 96 10000 1.13 326 06:37 27.08.2021
6039 Clouds 13 1017 96 10000 1.77 336 03:48 27.08.2021
6040 Clouds 14 1016 95 10000 1.2 283 00:33 27.08.2021
6041 Clouds 15 1016 96 10000 1.53 276 22:41 26.08.2021
6042 Clouds 15 1016 95 10000 1.78 296 22:18 26.08.2021
6043 Clouds 16 1016 92 10000 2.5 305 20:31 26.08.2021
6044 Clouds 18 1015 76 10000 3.02 313 18:50 26.08.2021
6045 Clouds 18 1015 73 10000 3.84 316 17:44 26.08.2021
6046 Clouds 18 1015 76 10000 3.81 311 16:33 26.08.2021
6047 Clouds 18 1015 71 10000 4.1 316 15:54 26.08.2021
6048 Clouds 18 1015 68 10000 3.93 329 13:44 26.08.2021
6049 Clouds 17 1016 67 10000 4.33 336 12:50 26.08.2021
6050 Clouds 17 1016 68 10000 4.17 335 12:24 26.08.2021
6051 Clouds 16 1015 79 10000 4.61 336 10:18 26.08.2021
6052 Clouds 15 1015 94 10000 2.27 312 08:34 26.08.2021
6053 Clear 13 1017 93 10000 0.96 311 03:27 26.08.2021
6054 Clouds 16 1018 79 10000 0.55 312 22:49 25.08.2021
6055 Clouds 16 1018 79 10000 0.55 312 22:30 25.08.2021
6056 Clouds 17 1019 78 10000 1.75 19 21:41 25.08.2021
6057 Clouds 19 1018 76 10000 1.86 17 20:46 25.08.2021
6058 Clouds 19 1018 69 10000 1.79 11 20:27 25.08.2021
6059 Clouds 22 1018 64 10000 2.01 21 18:42 25.08.2021
6060 Clouds 23 1018 53 10000 2.22 27 17:31 25.08.2021
6061 Clouds 23 1019 48 10000 3.43 25 15:44 25.08.2021
6062 Clouds 22 1020 48 10000 3.59 29 14:48 25.08.2021
6063 Clouds 22 1021 49 10000 3.58 32 14:26 25.08.2021
6064 Clouds 21 1021 52 10000 3.51 42 12:56 25.08.2021
6065 Clouds 19 1022 64 10000 3.51 51 11:26 25.08.2021
6066 Clouds 18 1022 64 10000 3.51 51 10:43 25.08.2021
6067 Clouds 16 1023 72 10000 3.09 53 09:51 25.08.2021
6068 Clouds 13 1023 81 10000 2.56 51 08:50 25.08.2021
6069 Clouds 13 1023 92 10000 2.02 42 08:29 25.08.2021
6070 Clear 13 1024 94 10000 2.49 45 03:53 25.08.2021
6071 Clouds 14 1025 83 10000 2.4 48 23:54 24.08.2021
6072 Clouds 16 1025 75 10000 2.72 51 21:49 24.08.2021
6073 Clouds 17 1024 73 10000 2.77 45 20:48 24.08.2021
6074 Clear 19 1023 68 10000 3 38 19:52 24.08.2021
6075 Clear 20 1023 59 10000 4.04 40 18:47 24.08.2021
6076 Clear 21 1023 53 10000 4.37 42 17:46 24.08.2021
6077 Clear 22 1023 48 10000 4.74 45 17:19 24.08.2021
6078 Clear 21 1024 44 10000 5.26 45 14:30 24.08.2021
6079 Clear 21 1024 47 10000 5.77 49 13:29 24.08.2021
6080 Clear 20 1024 47 10000 5.77 49 12:33 24.08.2021
6081 Clear 18 1025 57 10000 5.88 48 10:48 24.08.2021
6082 Clear 17 1025 67 10000 5.03 49 10:28 24.08.2021
6083 Clear 15 1026 77 10000 3.64 45 08:59 24.08.2021
6084 Clear 13 1025 92 10000 2.51 39 06:55 24.08.2021
6085 Clear 14 1025 93 10000 2.54 43 04:54 24.08.2021
6086 Clouds 16 1024 96 10000 2 45 00:48 24.08.2021
6087 Clear 16 1024 96 10000 2.31 34 23:19 23.08.2021
6088 Clear 17 1024 96 10000 2.31 34 22:39 23.08.2021
6089 Clear 18 1024 94 10000 2.72 36 20:49 23.08.2021
6090 Clouds 20 1022 80 10000 3.15 44 19:24 23.08.2021
6091 Clouds 21 1021 65 10000 3.58 33 16:42 23.08.2021
6092 Clouds 22 1022 73 10000 3.2 44 15:21 23.08.2021
6093 Clouds 21 1022 74 10000 0.92 22 13:26 23.08.2021
6094 Clouds 19 1022 82 10000 0.27 316 12:20 23.08.2021
6095 Clouds 18 1022 87 10000 0.5 241 10:44 23.08.2021
6096 Clouds 17 1021 94 10000 0.87 215 09:51 23.08.2021
6097 Clouds 17 1021 95 10000 0.94 210 08:34 23.08.2021
6098 Rain 16 1021 95 10000 1.47 198 06:56 23.08.2021
6099 Rain 16 1021 95 10000 1.47 198 06:37 23.08.2021
6100 Clouds 16 1020 98 10000 2.43 248 00:57 23.08.2021
6101 Clouds 16 1020 96 10000 2.64 234 22:51 22.08.2021
6102 Clouds 16 1020 95 10000 2.77 241 22:28 22.08.2021
6103 Clouds 17 1018 92 10000 4.22 264 20:23 22.08.2021
6104 Clouds 18 1018 92 10000 4.22 264 19:57 22.08.2021
6105 Clouds 19 1018 83 10000 5.3 268 17:37 22.08.2021
6106 Clouds 21 1017 79 10000 5.38 262 15:32 22.08.2021
6107 Clouds 20 1017 73 9330 5.29 263 14:53 22.08.2021
6108 Clouds 20 1017 72 10000 5.36 250 13:37 22.08.2021
6109 Clouds 20 1018 80 10000 5.65 249 13:19 22.08.2021
6110 Clouds 19 1018 91 10000 4.05 239 12:29 22.08.2021
6111 Clouds 19 1018 91 10000 4.05 239 11:43 22.08.2021
6112 Clouds 18 1018 89 10000 4.67 229 10:43 22.08.2021
6113 Clouds 18 1018 91 10000 2.93 212 08:36 22.08.2021
6114 Clouds 18 1017 97 10000 2.28 225 04:59 22.08.2021
6115 Clouds 19 1016 94 10000 2.83 208 00:32 22.08.2021
6116 Rain 20 1016 87 10000 1.87 153 22:35 21.08.2021
6117 Clouds 21 1016 84 10000 1.71 157 21:34 21.08.2021
6118 Clouds 25 1016 69 10000 1.94 236 18:46 21.08.2021
6119 Clouds 26 1016 59 10000 2.42 231 17:59 21.08.2021
6120 Clouds 27 1016 56 10000 3.12 232 16:56 21.08.2021
6121 Clouds 27 1017 52 10000 3.22 226 16:29 21.08.2021
6122 Clouds 26 1017 52 10000 3.22 226 15:38 21.08.2021
6123 Clouds 26 1017 51 10000 2.64 211 15:20 21.08.2021
6124 Clouds 25 1017 52 10000 2.28 209 13:35 21.08.2021
6125 Clouds 24 1017 55 10000 1.95 203 12:39 21.08.2021
6126 Clouds 18 1018 70 10000 0.59 100 09:32 21.08.2021
6127 Clouds 13 1018 94 10000 1.21 68 06:20 21.08.2021
6128 Clear 16 1019 90 10000 0.81 58 23:50 20.08.2021
6129 Clear 17 1018 87 10000 0.2 125 21:54 20.08.2021
6130 Clouds 22 1018 66 10000 0.8 235 18:43 20.08.2021
6131 Clouds 23 1018 58 10000 2.03 265 16:29 20.08.2021
6132 Clouds 21 1018 67 10000 2.2 260 14:27 20.08.2021
6133 Clouds 20 1019 82 10000 1.37 228 11:54 20.08.2021
6134 Clouds 18 1018 88 10000 1.03 226 11:26 20.08.2021
6135 Clouds 17 1018 90 10000 1.03 228 09:45 20.08.2021
6136 Clouds 15 1018 92 10000 0.77 215 08:57 20.08.2021
6137 Clouds 15 1018 92 10000 0.77 215 08:36 20.08.2021
6138 Clouds 14 1017 96 10000 0.63 228 04:38 20.08.2021
6139 Clouds 14 1017 96 10000 0.95 240 04:19 20.08.2021
6140 Clouds 17 1017 94 10000 1.63 219 23:26 19.08.2021
6141 Clouds 17 1017 94 10000 1.63 219 22:37 19.08.2021
6142 Clouds 18 1016 94 10000 1.58 215 21:49 19.08.2021
6143 Clouds 19 1016 91 10000 2.35 235 19:59 19.08.2021
6144 Clouds 20 1016 84 10000 3.06 255 17:37 19.08.2021
6145 Clouds 20 1016 85 10000 3.34 248 16:41 19.08.2021
6146 Clouds 20 1017 94 10000 2.87 239 14:25 19.08.2021
6147 Clouds 19 1016 92 10000 3.15 245 12:45 19.08.2021
6148 Clouds 18 1017 92 10000 3.27 249 12:27 19.08.2021
6149 Clouds 17 1017 93 10000 3.11 244 10:47 19.08.2021
6150 Clouds 17 1017 93 10000 3.11 244 10:47 19.08.2021
6151 Clouds 17 1016 95 10000 2.8 239 09:48 19.08.2021
6152 Clouds 17 1016 97 10000 2.4 228 09:26 19.08.2021
6153 Clouds 16 1016 97 10000 2.05 228 08:25 19.08.2021
6154 Clouds 16 1016 98 10000 2.33 221 03:34 19.08.2021
6155 Clouds 16 1017 96 10000 2.53 224 01:58 19.08.2021
6156 Clouds 16 1017 96 10000 2.53 224 01:58 19.08.2021
6157 Clouds 17 1017 88 10000 2.96 227 23:21 18.08.2021
6158 Clouds 17 1017 87 10000 2.83 231 22:25 18.08.2021
6159 Clouds 18 1017 86 10000 3.24 242 20:41 18.08.2021
6160 Clouds 18 1016 84 10000 3.2 255 20:20 18.08.2021
6161 Clouds 19 1016 81 10000 3.81 266 18:58 18.08.2021
6162 Clouds 19 1016 81 10000 3.81 266 18:33 18.08.2021
6163 Clouds 19 1017 72 10000 4.97 253 16:52 18.08.2021
6164 Clouds 19 1017 78 10000 4.62 248 15:40 18.08.2021
6165 Clouds 18 1017 83 10000 4.38 250 15:21 18.08.2021
6166 Clouds 18 1018 92 10000 2.89 230 12:50 18.08.2021
6167 Clouds 18 1018 96 10000 2.42 228 12:27 18.08.2021
6168 Clouds 17 1018 96 10000 2.42 228 11:37 18.08.2021
6169 Clouds 15 1018 98 860 2.15 226 08:29 18.08.2021
6170 Clouds 14 1019 97 10000 2.35 243 01:29 18.08.2021
6171 Clouds 14 1018 96 10000 2.66 246 22:39 17.08.2021
6172 Clouds 14 1018 96 10000 3.03 246 21:54 17.08.2021
6173 Clouds 14 1018 97 10000 3.37 248 21:22 17.08.2021
6174 Clouds 15 1018 96 8025 2.06 259 19:42 17.08.2021
6175 Rain 16 1017 80 10000 4.61 253 17:47 17.08.2021
6176 Clouds 16 1018 68 10000 4.69 245 17:25 17.08.2021
6177 Clouds 17 1018 63 10000 4.46 253 15:46 17.08.2021
6178 Clouds 17 1019 55 10000 5.06 266 14:56 17.08.2021
6179 Clouds 16 1020 59 10000 4.58 254 12:44 17.08.2021
6180 Clouds 13 1021 82 10000 2.28 237 09:42 17.08.2021
6181 Clouds 12 1022 87 10000 2.05 240 09:18 17.08.2021
6182 Clear 11 1021 96 10000 1.53 219 06:57 17.08.2021
6183 Clouds 12 1020 95 10000 2.35 277 23:25 16.08.2021
6184 Clouds 13 1020 95 10000 2.35 277 22:53 16.08.2021
6185 Clouds 13 1020 95 10000 2.35 277 22:35 16.08.2021
6186 Clouds 14 1019 93 10000 2.22 293 21:46 16.08.2021
6187 Clouds 15 1019 94 9872 3.68 317 20:52 16.08.2021
6188 Clouds 16 1016 85 10000 5.04 302 19:29 16.08.2021
6189 Clouds 16 1016 85 10000 5.04 302 18:46 16.08.2021
6190 Clouds 16 1015 86 10000 5.35 303 17:54 16.08.2021
6191 Clouds 17 1014 84 9707 6.76 275 16:29 16.08.2021
6192 Clouds 18 1014 76 10000 6.85 253 15:23 16.08.2021
6193 Rain 18 1014 77 10000 6.76 246 14:21 16.08.2021
6194 Clouds 18 1014 75 10000 6.15 247 12:59 16.08.2021
6195 Clouds 19 1014 71 10000 6.4 244 12:24 16.08.2021
6196 Clouds 16 1014 82 10000 5.05 232 09:43 16.08.2021
6197 Clouds 16 1014 85 10000 4.22 235 08:43 16.08.2021
6198 Clouds 15 1014 85 10000 3.57 231 07:30 16.08.2021
6199 Clouds 16 1013 94 10000 2.6 224 05:58 16.08.2021
6200 Clouds 20 1013 91 10000 1.56 290 01:22 16.08.2021
6201 Clouds 23 1012 75 10000 1.47 233 21:34 15.08.2021
6202 Clouds 25 1012 76 10000 2 265 19:57 15.08.2021
6203 Clouds 27 1012 69 10000 2 250 18:41 15.08.2021
6204 Clouds 28 1012 59 10000 1.94 242 17:49 15.08.2021
6205 Clouds 28 1013 50 10000 2.22 250 17:22 15.08.2021
6206 Clouds 29 1013 47 10000 2.29 259 15:49 15.08.2021
6207 Clouds 28 1014 45 10000 2.26 271 14:42 15.08.2021
6208 Clouds 27 1014 43 10000 1.97 272 13:35 15.08.2021
6209 Clouds 24 1016 57 10000 0.8 315 10:50 15.08.2021
6210 Clouds 18 1017 72 10000 0.54 54 08:45 15.08.2021
6211 Clear 17 1020 88 10000 1.45 24 01:23 15.08.2021
6212 Clear 17 1020 88 10000 1.45 24 00:33 15.08.2021
6213 Clear 22 1019 82 10000 1.38 350 21:38 14.08.2021
6214 Clear 25 1019 72 10000 1.57 293 20:29 14.08.2021
6215 Clear 27 1019 72 10000 1.45 297 19:34 14.08.2021
6216 Clear 28 1019 63 10000 2.31 284 18:37 14.08.2021
6217 Clear 28 1019 52 10000 2.88 267 16:50 14.08.2021
6218 Clear 28 1020 53 10000 2.74 272 15:36 14.08.2021
6219 Clear 28 1021 56 10000 2.58 276 14:22 14.08.2021
6220 Clear 25 1021 62 10000 2.1 269 11:45 14.08.2021
6221 Clear 21 1022 71 10000 0.69 272 09:54 14.08.2021
6222 Clear 15 1022 93 10000 0.41 33 05:35 14.08.2021
6223 Clear 19 1024 93 10000 1.17 38 23:52 13.08.2021
6224 Clear 20 1023 91 10000 1.3 289 22:18 13.08.2021
6225 Clouds 25 1022 78 10000 1.55 261 20:24 13.08.2021
6226 Clouds 27 1022 68 10000 2.17 287 18:46 13.08.2021
6227 Clouds 28 1022 57 10000 3.46 295 17:23 13.08.2021
6228 Clouds 28 1021 55 10000 4.13 278 15:59 13.08.2021
6229 Clouds 26 1021 75 10000 2.52 256 11:59 13.08.2021
6230 Clouds 25 1021 74 10000 1.77 243 11:18 13.08.2021
6231 Clouds 20 1021 80 10000 1.06 237 08:43 13.08.2021
6232 Clouds 19 1021 85 10000 1.01 148 08:21 13.08.2021
6233 Clouds 18 1021 82 10000 0.44 215 06:43 13.08.2021
6234 Clouds 19 1020 87 10000 0.49 91 04:43 13.08.2021
6235 Clouds 22 1020 80 10000 1.2 124 21:54 12.08.2021
6236 Clouds 24 1019 78 10000 0.87 125 20:43 12.08.2021
6237 Clouds 26 1019 74 10000 0.34 23 19:55 12.08.2021
6238 Clouds 27 1019 68 10000 1.24 303 19:25 12.08.2021
6239 Clouds 28 1019 52 10000 1.91 261 17:26 12.08.2021
6240 Clouds 29 1019 50 10000 2.29 251 16:28 12.08.2021
6241 Clouds 27 1019 52 10000 0.8 228 14:31 12.08.2021
6242 Clouds 25 1020 62 10000 0.63 209 12:23 12.08.2021
6243 Clouds 21 1020 72 10000 0.63 39 09:59 12.08.2021
6244 Clouds 16 1020 85 10000 0.71 63 07:53 12.08.2021
6245 Clouds 16 1021 88 10000 0.56 117 01:29 12.08.2021
6246 Clouds 19 1020 85 10000 0.59 187 22:51 11.08.2021
6247 Clouds 24 1019 73 10000 0.61 242 19:36 11.08.2021
6248 Clouds 25 1019 56 10000 1.77 254 18:28 11.08.2021
6249 Clouds 26 1019 54 10000 2.07 276 15:39 11.08.2021
6250 Clouds 26 1020 56 10000 2.29 282 15:20 11.08.2021
6251 Clouds 25 1020 58 10000 2.53 278 14:22 11.08.2021
6252 Clouds 23 1020 61 10000 2.46 255 12:30 11.08.2021
6253 Clouds 22 1020 72 10000 1.29 238 11:46 11.08.2021
6254 Clouds 22 1020 81 10000 0.41 252 11:22 11.08.2021
6255 Clouds 19 1020 85 10000 0.14 280 09:46 11.08.2021
6256 Clouds 16 1020 88 10000 0.36 67 07:59 11.08.2021
6257 Clouds 17 1019 89 10000 0.21 241 23:34 10.08.2021
6258 Clouds 18 1019 89 10000 0.65 254 22:32 10.08.2021
6259 Clouds 19 1018 87 10000 1.88 239 21:19 10.08.2021
6260 Clouds 21 1017 79 10000 2.58 250 19:52 10.08.2021
6261 Clouds 22 1017 71 10000 3.66 250 18:39 10.08.2021
6262 Clouds 22 1017 59 10000 5.37 239 16:41 10.08.2021
6263 Clouds 22 1018 61 10000 5.01 231 14:54 10.08.2021
6264 Clouds 22 1018 64 10000 3.95 242 12:26 10.08.2021
6265 Clouds 19 1019 68 10000 3.87 227 10:38 10.08.2021
6266 Clouds 14 1018 85 10000 1.87 197 06:57 10.08.2021
6267 Clouds 14 1018 89 10000 1.97 176 04:58 10.08.2021
6268 Clouds 14 1019 82 10000 1.85 174 23:44 09.08.2021
6269 Clear 16 1019 89 10000 2.27 176 21:58 09.08.2021
6270 Clear 17 1019 89 10000 2.27 176 21:37 09.08.2021
6271 Clouds 20 1018 78 10000 2.79 222 19:50 09.08.2021
6272 Clouds 21 1018 65 10000 4.73 234 17:57 09.08.2021
6273 Clouds 21 1018 56 10000 5.59 226 15:35 09.08.2021
6274 Clouds 21 1018 60 10000 5.36 231 14:25 09.08.2021
6275 Clouds 20 1018 67 10000 4.88 232 13:28 09.08.2021
6276 Clouds 20 1018 68 10000 4.8 228 11:47 09.08.2021
6277 Clouds 15 1018 83 10000 2.73 183 08:48 09.08.2021
6278 Clouds 13 1018 91 10000 2.17 167 07:47 09.08.2021
6279 Clear 16 1017 94 10000 2.58 179 21:30 08.08.2021
6280 Clouds 18 1015 86 10000 4.35 219 19:55 08.08.2021
6281 Clouds 19 1014 80 10000 6.27 232 16:59 08.08.2021
6282 Clouds 18 1014 79 10000 6.23 232 15:43 08.08.2021
6283 Clouds 17 1014 85 10000 5.71 225 14:29 08.08.2021
6284 Clouds 17 1013 83 10000 5.92 222 12:19 08.08.2021
6285 Clouds 16 1013 83 10000 4.89 225 10:34 08.08.2021
6286 Clouds 14 1011 94 10000 4.76 222 06:41 08.08.2021
6287 Clouds 15 1008 93 10000 4.16 214 00:52 08.08.2021
6288 Clouds 15 1007 92 10000 4.21 212 00:24 08.08.2021
6289 Clouds 16 1006 92 10000 4.86 209 21:44 07.08.2021
6290 Clouds 16 1005 91 10000 5.17 210 20:59 07.08.2021
6291 Clouds 20 1004 80 10000 5.82 217 18:21 07.08.2021
6292 Clouds 20 1004 76 10000 4.93 226 16:51 07.08.2021
6293 Clouds 20 1004 66 10000 5.97 220 15:36 07.08.2021
6294 Clouds 20 1005 67 10000 5.93 211 13:34 07.08.2021
6295 Clouds 19 1005 71 10000 4.94 209 10:37 07.08.2021
6296 Clouds 15 1007 91 10000 2.07 165 07:44 07.08.2021
6297 Clouds 14 1008 95 10000 2.5 172 02:38 07.08.2021
6298 Clouds 16 1008 92 10000 2.72 196 22:23 06.08.2021
6299 Clouds 19 1007 87 10000 3.16 215 20:36 06.08.2021
6300 Clouds 19 1007 81 10000 4.25 227 19:59 06.08.2021
6301 Clouds 20 1007 77 10000 5.09 235 19:22 06.08.2021
6302 Clouds 20 1007 72 10000 5.81 238 17:34 06.08.2021
6303 Clouds 19 1007 88 10000 6.08 230 12:25 06.08.2021
6304 Clouds 17 1006 90 10000 6 230 09:57 06.08.2021
6305 Clouds 17 1006 95 10000 4.35 210 08:23 06.08.2021
6306 Clouds 16 1007 95 10000 2.55 166 00:33 06.08.2021
6307 Clouds 17 1008 95 10000 2.46 176 22:33 05.08.2021
6308 Clouds 19 1008 91 10000 2.41 206 20:48 05.08.2021
6309 Clouds 20 1008 89 10000 2.49 209 19:30 05.08.2021
6310 Rain 21 1008 87 10000 3.5 214 18:25 05.08.2021
6311 Clouds 22 1009 87 10000 3.71 208 15:35 05.08.2021
6312 Clouds 20 1010 72 10000 2.93 227 12:39 05.08.2021
6313 Rain 16 1011 92 10000 1.24 212 08:51 05.08.2021
6314 Clouds 15 1011 90 10000 0.62 181 07:38 05.08.2021
6315 Clouds 16 1013 91 10000 0.77 164 00:55 05.08.2021
6316 Clouds 17 1013 89 10000 0.75 169 22:21 04.08.2021
6317 Clouds 18 1012 87 10000 0.43 229 21:26 04.08.2021
6318 Clouds 20 1012 74 10000 1.46 255 19:24 04.08.2021
6319 Clouds 21 1012 63 10000 2.01 229 17:22 04.08.2021
6320 Clouds 20 1012 63 10000 2.02 208 14:45 04.08.2021
6321 Clouds 18 1014 84 10000 1.26 162 12:21 04.08.2021
6322 Clouds 14 1015 97 10000 1.52 201 06:49 04.08.2021
6323 Clouds 16 1013 94 10000 1.73 256 20:55 03.08.2021
6324 Clouds 17 1012 91 10000 2.3 253 20:26 03.08.2021
6325 Clouds 18 1012 87 9333 3.26 239 18:37 03.08.2021
6326 Clouds 18 1012 81 9617 3.49 233 16:58 03.08.2021
6327 Clouds 19 1013 80 9899 3.78 214 13:57 03.08.2021
6328 Clouds 16 1014 95 10000 2.88 198 10:57 03.08.2021
6329 Clouds 15 1014 95 10000 3.53 207 09:42 03.08.2021
6330 Clouds 16 1016 94 10000 0.75 303 21:55 02.08.2021
6331 Clouds 20 1014 75 10000 2.93 264 16:40 02.08.2021
6332 Clouds 20 1014 78 10000 2.98 278 15:33 02.08.2021
6333 Clouds 19 1014 74 9279 2.96 256 12:40 02.08.2021
6334 Clouds 18 1015 74 10000 2.9 265 11:57 02.08.2021
6335 Clouds 16 1015 82 10000 1.96 252 09:51 02.08.2021
6336 Clouds 13 1015 95 10000 1.2 208 06:22 02.08.2021
6337 Rain 18 1011 86 10000 3.65 282 19:21 01.08.2021
6338 Clouds 21 1011 65 10000 4.89 272 15:44 01.08.2021
6339 Clouds 18 1011 64 10000 3.79 268 11:39 01.08.2021
6340 Clouds 17 1011 76 10000 2.86 263 09:50 01.08.2021
6341 Clouds 14 1011 94 10000 0.85 220 03:49 01.08.2021
6342 Clouds 16 1012 93 10000 1.33 216 23:37 31.07.2021
6343 Clouds 16 1011 92 10000 1.34 207 22:33 31.07.2021
6344 Clouds 21 1011 69 10000 3.42 257 18:20 31.07.2021
6345 Clouds 21 1012 68 10000 4.35 262 16:37 31.07.2021
6346 Clouds 19 1011 65 10000 5.47 259 13:31 31.07.2021
6347 Clouds 18 1012 76 10000 6.04 242 10:28 31.07.2021
6348 Clear 15 1011 90 10000 3.67 216 03:18 31.07.2021
6349 Clouds 18 1010 92 10000 3.66 219 22:25 30.07.2021
6350 Clouds 22 1010 83 10000 5.33 239 20:23 30.07.2021
6351 Clouds 25 1009 58 10000 5.79 228 14:19 30.07.2021
6352 Clouds 21 1014 70 10000 3.92 240 18:53 29.07.2021
6353 Clouds 16 1015 94 10000 3.31 209 07:41 29.07.2021
6354 Clouds 15 1014 96 10000 3.29 210 04:51 29.07.2021
6355 Clear 17 1014 92 10000 3.4 217 22:26 28.07.2021
6356 Clouds 22 1013 79 10000 5.7 244 17:47 28.07.2021
6357 Clouds 21 1013 73 10000 6.35 244 16:54 28.07.2021
6358 Clouds 17 1013 95 10000 4.31 205 09:39 28.07.2021
6359 Clouds 15 1014 97 10000 2.7 178 23:46 27.07.2021
6360 Clouds 17 1014 94 10000 3.12 187 21:32 27.07.2021
6361 Rain 19 1013 77 10000 4.55 203 14:54 27.07.2021
6362 Clouds 21 1013 77 10000 3.53 194 13:44 27.07.2021
6363 Clouds 20 1014 88 10000 2.77 188 10:20 27.07.2021
6364 Clouds 17 1014 98 10000 2.76 202 00:49 27.07.2021
6365 Clouds 22 1012 83 10000 4.22 225 15:33 26.07.2021
6366 Clouds 18 1012 93 10000 3.57 207 08:59 26.07.2021
6367 Clouds 20 1010 93 10000 2.2 187 20:57 25.07.2021
6368 Clouds 21 1009 81 9430 3.45 212 19:24 25.07.2021
6369 Clouds 23 1009 63 10000 4.6 207 16:24 25.07.2021
6370 Clear 23 1010 67 10000 4.2 215 12:51 25.07.2021
6371 Clear 17 1010 94 10000 2.1 195 08:21 25.07.2021
6372 Clear 15 1010 97 10000 2.15 181 04:55 25.07.2021
6373 Clouds 19 1008 91 10000 3.43 244 20:22 24.07.2021
6374 Clouds 23 1009 89 10000 1.85 223 15:52 24.07.2021
6375 Clouds 18 1010 97 4451 0.49 122 08:59 24.07.2021
6376 Clouds 27 1013 55 10000 2.51 45 17:34 23.07.2021
6377 Clouds 26 1015 49 10000 2.1 9 14:35 23.07.2021
6378 Clouds 26 1015 49 10000 2.1 9 14:35 23.07.2021
6379 Clear 16 1018 86 10000 1.73 36 07:47 23.07.2021
6380 Clear 20 1020 89 10000 1.79 34 22:49 22.07.2021
6381 Clear 25 1020 52 10000 2.03 328 14:53 22.07.2021
6382 Clear 25 1020 51 10000 2.14 335 14:53 22.07.2021
6383 Clear 23 1022 63 10000 1.96 21 11:18 22.07.2021
6384 Clear 17 1022 82 10000 1.68 30 08:24 22.07.2021
6385 Clear 20 1023 78 10000 1.3 68 22:33 21.07.2021
6386 Clear 22 1023 76 10000 1.7 64 21:32 21.07.2021
6387 Clear 26 1022 50 10000 2.94 13 17:28 21.07.2021
6388 Clear 20 1022 71 10000 1.83 46 09:54 21.07.2021
6389 Clear 18 1022 78 10000 1.83 39 09:19 21.07.2021
6390 Clear 16 1022 89 10000 1.88 38 00:41 21.07.2021
6391 Clear 23 1020 74 10000 2.67 10 20:29 20.07.2021
6392 Clear 25 1019 52 10000 2.87 349 16:36 20.07.2021
6393 Clear 25 1019 52 10000 2.49 357 15:27 20.07.2021
6394 Clear 21 1020 64 10000 2.48 24 11:19 20.07.2021
6395 Clear 14 1020 86 10000 1.7 26 07:35 20.07.2021
6396 Clear 14 1020 95 10000 1.7 35 02:55 20.07.2021
6397 Clear 25 1019 61 10000 4.19 357 17:50 19.07.2021
6398 Clear 24 1020 58 10000 3.59 31 12:45 19.07.2021
6399 Clear 24 1021 86 10000 2.81 0 20:59 18.07.2021
6400 Clear 27 1021 55 10000 4.55 22 15:45 18.07.2021
6401 Clear 22 1023 71 10000 4.52 37 10:19 18.07.2021
6402 Clouds 20 1023 94 10000 2.52 360 22:30 17.07.2021
6403 Clouds 21 1023 92 10000 2.76 356 21:58 17.07.2021
6404 Clouds 22 1023 92 10000 2.76 356 21:40 17.07.2021
6405 Clouds 23 1022 62 10000 3.85 25 13:46 17.07.2021
6406 Clouds 19 1023 73 10000 3.21 34 11:30 17.07.2021
6407 Clear 16 1023 97 10000 1.93 12 04:48 17.07.2021
6408 Clouds 20 1021 75 10000 3.7 10 17:41 16.07.2021
6409 Clouds 19 1021 89 10000 3.46 14 11:44 16.07.2021
6410 Clouds 17 1019 98 10000 2.11 354 07:24 16.07.2021
6411 Clouds 21 1015 85 10000 2.03 334 19:47 15.07.2021
6412 Clouds 21 1015 85 10000 2.03 334 19:47 15.07.2021
6413 Clouds 20 1013 88 10000 2.35 334 13:50 15.07.2021
6414 Clouds 17 1012 96 10000 0.47 355 09:51 15.07.2021
6415 Clouds 16 1010 98 10000 3.5 15 00:31 15.07.2021
6416 Rain 17 1010 99 324 3.75 215 16:55 14.07.2021
6417 Rain 17 1010 99 244 2.58 194 12:48 14.07.2021
6418 Clouds 16 1010 99 163 2.16 215 04:44 14.07.2021
6419 Clouds 17 1010 98 10000 2.24 201 20:47 13.07.2021
6420 Clouds 17 1010 99 2081 3.74 217 19:52 13.07.2021
6421 Clouds 17 1009 99 1445 3.79 224 19:24 13.07.2021
6422 Rain 17 1009 99 1445 3.79 224 18:44 13.07.2021
6423 Rain 17 1010 99 4214 3.93 221 18:24 13.07.2021
6424 Clouds 17 1010 99 4214 3.93 221 17:30 13.07.2021
6425 Clouds 17 1010 99 392 3.48 230 09:49 13.07.2021
6426 Clouds 18 1010 97 10000 0.69 285 00:26 13.07.2021
6427 Clouds 21 1009 68 10000 2.49 170 17:34 12.07.2021
6428 Clouds 21 1010 71 10000 0.88 135 15:21 12.07.2021
6429 Clouds 19 1011 65 10000 2.91 77 09:40 12.07.2021
6430 Clouds 19 1016 84 10000 0.76 122 21:58 11.07.2021
6431 Clouds 22 1016 59 10000 1.88 279 16:19 11.07.2021
6432 Clouds 15 1017 99 10000 2.18 228 04:42 11.07.2021
6433 Clouds 23 1014 88 9880 3.27 233 17:48 10.07.2021
6434 Clouds 16 1019 92 10000 0.27 170 07:58 10.07.2021
6435 Clouds 15 1019 94 10000 0.44 138 07:23 10.07.2021
6436 Clouds 18 1021 89 10000 0.43 236 21:39 09.07.2021
6437 Clouds 22 1020 81 10000 2.07 269 17:45 09.07.2021
6438 Clouds 21 1021 71 10000 1.7 302 14:47 09.07.2021
6439 Clouds 15 1022 95 10000 0.51 342 03:22 09.07.2021
6440 Clouds 16 1022 93 10000 0.23 103 23:47 08.07.2021
6441 Clouds 17 1021 93 10000 0.2 205 21:36 08.07.2021
6442 Clouds 18 1020 85 9378 0.8 309 18:55 08.07.2021
6443 Rain 19 1020 78 10000 2.78 296 13:56 08.07.2021
6444 Clouds 20 1020 78 10000 2.78 296 13:31 08.07.2021
6445 Clouds 20 1020 70 10000 2.77 282 12:38 08.07.2021
6446 Rain 19 1020 82 9977 2.53 238 11:25 08.07.2021
6447 Clouds 16 1020 88 10000 0.55 339 07:45 08.07.2021
6448 Clouds 15 1020 93 10000 0.2 319 04:41 08.07.2021
6449 Clouds 17 1020 90 10000 1.13 172 23:45 07.07.2021
6450 Clouds 18 1019 87 10000 1.25 199 22:20 07.07.2021
6451 Clouds 19 1019 87 10000 1.25 199 21:46 07.07.2021
6452 Clouds 21 1018 84 10000 1.48 229 21:26 07.07.2021
6453 Clouds 22 1017 77 10000 2.23 220 20:21 07.07.2021
6454 Clouds 23 1017 77 10000 2.23 220 19:42 07.07.2021
6455 Clouds 23 1017 66 10000 3.02 211 19:24 07.07.2021
6456 Clouds 24 1017 54 10000 4.02 229 16:35 07.07.2021
6457 Clear 23 1017 54 10000 4.41 228 15:24 07.07.2021
6458 Clouds 22 1017 62 10000 5.03 213 12:24 07.07.2021
6459 Clouds 15 1016 94 10000 2.42 177 07:37 07.07.2021
6460 Clouds 14 1015 98 10000 2.06 165 05:56 07.07.2021
6461 Clouds 14 1015 97 10000 1.87 164 04:39 07.07.2021
6462 Clouds 19 1013 84 10000 3.54 206 20:55 06.07.2021
6463 Clouds 20 1012 75 10000 5.21 210 19:18 06.07.2021
6464 Clouds 20 1012 75 10000 5.21 210 18:45 06.07.2021
6465 Clouds 20 1012 73 10000 5.48 223 18:22 06.07.2021
6466 Clouds 21 1011 73 10000 7.83 211 13:44 06.07.2021
6467 Clouds 18 1009 95 10000 3.56 179 10:28 06.07.2021
6468 Clouds 17 1009 95 10000 3.56 179 09:39 06.07.2021
6469 Clouds 17 1008 96 10000 3.42 190 08:32 06.07.2021
6470 Clouds 17 1006 95 10000 1.84 121 04:50 06.07.2021
6471 Clouds 18 1010 96 10000 2.12 163 23:59 05.07.2021
6472 Clouds 18 1010 95 10000 2.51 184 21:59 05.07.2021
6473 Clouds 20 1009 90 10000 4.18 216 17:22 05.07.2021
6474 Clouds 18 1011 97 10000 3.01 176 14:29 05.07.2021
6475 Clouds 16 1011 96 10000 3.09 224 06:28 05.07.2021
6476 Clouds 16 1011 96 10000 3.09 224 05:43 05.07.2021
6477 Clouds 16 1011 99 3660 3.24 211 04:25 05.07.2021
6478 Clear 17 1012 96 10000 2.26 192 22:56 04.07.2021
6479 Clouds 19 1010 90 10000 4.29 222 18:51 04.07.2021
6480 Rain 18 1010 84 10000 4.45 225 16:23 04.07.2021
6481 Rain 20 1010 73 10000 4.08 222 11:50 04.07.2021
6482 Rain 19 1012 89 10000 1.66 199 09:24 04.07.2021
6483 Clouds 19 1014 95 10000 2.06 195 23:32 03.07.2021
6484 Clouds 20 1014 94 10000 2.2 207 22:40 03.07.2021
6485 Clouds 26 1014 50 10000 2.77 233 14:39 03.07.2021
6486 Clouds 25 1015 50 10000 2.02 221 12:38 03.07.2021
6487 Clouds 20 1017 77 10000 0.85 79 09:29 03.07.2021
6488 Clouds 18 1017 77 10000 0.85 79 08:46 03.07.2021
6489 Clouds 14 1017 91 10000 0.67 93 07:29 03.07.2021
6490 Clouds 23 1018 67 10000 1.96 273 17:21 02.07.2021
6491 Clouds 12 1019 83 10000 1.12 218 07:41 02.07.2021
6492 Clouds 10 1018 93 10000 1.22 204 05:44 02.07.2021
6493 Clouds 14 1018 90 10000 0.63 226 22:57 01.07.2021
6494 Clouds 15 1018 90 10000 1.04 296 21:56 01.07.2021
6495 Clouds 16 1018 90 10000 1.04 296 21:33 01.07.2021
6496 Clouds 18 1017 77 10000 2.44 288 19:36 01.07.2021
6497 Clouds 18 1017 76 10000 2.78 269 19:18 01.07.2021
6498 Clouds 18 1017 76 10000 2.78 269 18:38 01.07.2021
6499 Clouds 18 1017 72 10000 3.73 265 17:19 01.07.2021
6500 Clouds 18 1017 75 10000 4.17 267 15:31 01.07.2021
6501 Clouds 17 1018 85 10000 4.22 242 14:25 01.07.2021
6502 Clouds 15 1017 95 10000 3.53 252 11:27 01.07.2021
6503 Clouds 14 1017 97 10000 2.77 256 08:53 01.07.2021
6504 Clouds 14 1016 96 10000 2.87 258 23:23 30.06.2021
6505 Clouds 14 1016 96 10000 2.97 264 22:21 30.06.2021
6506 Clouds 15 1016 96 10000 2.97 264 21:55 30.06.2021
6507 Clouds 15 1015 94 10000 3.51 279 20:59 30.06.2021
6508 Clouds 15 1015 94 10000 3.42 272 20:20 30.06.2021
6509 Clouds 16 1014 96 10000 3.98 266 16:42 30.06.2021
6510 Clouds 16 1013 90 10000 4.73 222 13:25 30.06.2021
6511 Clouds 15 1013 97 5369 3.33 209 08:58 30.06.2021
6512 Clouds 15 1013 97 10000 2.35 220 23:56 29.06.2021
6513 Clouds 18 1013 88 10000 3.02 228 19:29 29.06.2021
6514 Clouds 17 1013 88 10000 3.81 216 17:45 29.06.2021
6515 Clouds 17 1012 89 10000 2.41 242 17:24 29.06.2021
6516 Rain 17 1013 90 10000 4.38 215 15:51 29.06.2021
6517 Rain 19 1013 89 10000 5.88 241 14:55 29.06.2021
6518 Clouds 22 1012 76 8091 3.56 267 13:23 29.06.2021
6519 Clouds 16 1014 97 9243 1.86 178 04:38 29.06.2021
6520 Clouds 20 1015 96 10000 2.93 178 23:24 28.06.2021
6521 Clouds 22 1013 91 10000 1.09 144 20:59 28.06.2021
6522 Clouds 26 1014 69 10000 1.66 177 18:42 28.06.2021
6523 Clouds 26 1014 66 10000 3.33 236 16:58 28.06.2021
6524 Clouds 26 1015 65 10000 5.47 238 14:31 28.06.2021
6525 Clouds 25 1015 76 10000 4.43 207 11:57 28.06.2021
6526 Clouds 20 1016 93 10000 0.21 139 23:47 27.06.2021
6527 Clouds 21 1015 92 10000 0.26 170 22:31 27.06.2021
6528 Clouds 24 1014 90 10000 0.73 58 19:44 27.06.2021
6529 Clouds 23 1014 93 10000 1.99 33 18:56 27.06.2021
6530 Rain 22 1015 91 10000 1.27 335 15:39 27.06.2021
6531 Clouds 24 1015 63 10000 1.5 123 11:22 27.06.2021
6532 Clouds 17 1017 90 10000 1.68 72 00:54 27.06.2021
6533 Clouds 20 1017 85 10000 1.22 87 22:22 26.06.2021
6534 Clouds 22 1017 82 10000 1.08 93 20:53 26.06.2021
6535 Clouds 22 1017 85 10000 1.1 76 20:34 26.06.2021
6536 Clouds 24 1017 63 10000 1.38 283 16:22 26.06.2021
6537 Clouds 24 1017 57 10000 1.06 272 14:37 26.06.2021
6538 Clouds 23 1019 58 10000 0.32 274 12:24 26.06.2021
6539 Clouds 13 1019 89 10000 0.73 95 07:25 26.06.2021
6540 Clouds 15 1019 89 10000 0.74 182 23:24 25.06.2021
6541 Clouds 20 1018 82 10000 2.02 218 20:38 25.06.2021
6542 Clouds 22 1018 65 10000 2.7 235 18:59 25.06.2021
6543 Clouds 22 1018 60 10000 3 241 17:31 25.06.2021
6544 Clouds 22 1018 60 10000 3.32 247 16:42 25.06.2021
6545 Clouds 20 1019 67 10000 4.03 247 13:58 25.06.2021
6546 Clouds 18 1020 88 10000 2.19 245 10:46 25.06.2021
6547 Clouds 15 1020 94 10000 1.1 238 07:39 25.06.2021
6548 Clouds 15 1020 96 10000 0.67 241 07:18 25.06.2021
6549 Clouds 16 1020 98 10000 1.04 285 01:40 25.06.2021
6550 Clouds 17 1020 98 10000 0.98 258 21:49 24.06.2021
6551 Rain 17 1019 98 10000 0.99 309 20:45 24.06.2021
6552 Rain 17 1019 98 10000 1.42 343 20:22 24.06.2021
6553 Clouds 18 1018 98 10000 2.02 358 18:35 24.06.2021
6554 Rain 18 1018 98 10000 0.32 36 15:25 24.06.2021
6555 Rain 17 1018 98 10000 0.32 36 14:55 24.06.2021
6556 Rain 17 1019 93 10000 1.15 34 13:57 24.06.2021
6557 Rain 17 1019 96 10000 1.05 50 10:39 24.06.2021
6558 Rain 17 1019 96 10000 1.76 39 09:23 24.06.2021
6559 Clouds 16 1019 96 10000 2.27 31 08:19 24.06.2021
6560 Clouds 15 1019 97 10000 2.34 20 02:32 24.06.2021
6561 Clouds 16 1019 95 10000 2.49 8 22:36 23.06.2021
6562 Clouds 17 1019 94 10000 2.77 19 21:43 23.06.2021
6563 Clouds 21 1018 90 10000 2.72 26 20:21 23.06.2021
6564 Clouds 22 1018 87 10000 3.24 35 18:33 23.06.2021
6565 Clouds 22 1018 83 10000 3.23 43 17:31 23.06.2021
6566 Clouds 22 1018 76 10000 2.09 36 15:34 23.06.2021
6567 Clouds 20 1018 79 10000 1.21 128 12:51 23.06.2021
6568 Clouds 19 1018 80 10000 1.24 89 11:55 23.06.2021
6569 Clouds 17 1018 83 10000 1.28 38 09:55 23.06.2021
6570 Clouds 15 1019 100 10000 1.54 40 08:46 23.06.2021
6571 Clouds 16 1018 94 10000 1.02 59 07:51 23.06.2021
6572 Clouds 15 1018 97 10000 1.28 50 06:49 23.06.2021
6573 Clouds 15 1017 98 10000 1.8 47 03:33 23.06.2021
6574 Clouds 15 1017 97 10000 1.42 51 00:43 23.06.2021
6575 Clouds 15 1016 97 10000 1.36 34 23:55 22.06.2021
6576 Clouds 16 1016 97 10000 1.56 65 22:44 22.06.2021
6577 Clouds 16 1016 95 10000 1.73 44 22:19 22.06.2021
6578 Clouds 16 1016 95 10000 1.73 44 21:36 22.06.2021
6579 Clouds 16 1014 92 10000 2.02 153 19:37 22.06.2021
6580 Clouds 17 1014 90 10000 2.72 143 18:54 22.06.2021
6581 Clouds 16 1014 88 10000 3.01 138 18:24 22.06.2021
6582 Clouds 16 1014 86 5339 2.48 130 17:21 22.06.2021
6583 Rain 16 1014 86 5339 2.48 130 16:30 22.06.2021
6584 Clouds 15 1014 100 10000 4.63 60 14:36 22.06.2021
6585 Clouds 15 1014 86 10000 3.83 101 13:48 22.06.2021
6586 Clouds 15 1014 86 10000 3.83 101 13:48 22.06.2021
6587 Clouds 15 1014 93 10000 3.26 65 12:53 22.06.2021
6588 Clouds 15 1014 94 10000 3.41 53 11:18 22.06.2021
6589 Clouds 16 1013 95 10000 3.79 57 09:31 22.06.2021
6590 Clouds 15 1012 94 10000 2.74 44 06:46 22.06.2021
6591 Rain 16 1012 96 10000 2.96 43 00:44 22.06.2021
6592 Clouds 17 1012 95 10000 3.49 46 23:19 21.06.2021
6593 Clouds 18 1012 93 7492 2.36 44 22:21 21.06.2021
6594 Clouds 19 1010 81 10000 4.2 26 21:18 21.06.2021
6595 Clouds 21 1010 82 10000 4.39 24 20:30 21.06.2021
6596 Clouds 23 1009 76 10000 3.8 8 19:51 21.06.2021
6597 Clouds 24 1009 72 10000 3.95 356 18:34 21.06.2021
6598 Clouds 24 1009 67 10000 3.67 311 17:24 21.06.2021
6599 Clouds 25 1009 67 10000 3.67 311 16:40 21.06.2021
6600 Clouds 24 1009 66 10000 4.18 291 16:20 21.06.2021
6601 Clouds 24 1009 66 10000 4.18 291 15:42 21.06.2021
6602 Clouds 23 1009 68 10000 4.8 272 13:59 21.06.2021
6603 Clouds 23 1009 68 10000 4.8 272 13:33 21.06.2021
6604 Clouds 21 1009 71 10000 5.73 254 12:36 21.06.2021
6605 Clouds 20 1009 76 10000 5.58 240 11:48 21.06.2021
6606 Clouds 19 1008 81 10000 5.51 224 10:30 21.06.2021
6607 Clouds 18 1008 89 10000 4.97 217 09:26 21.06.2021
6608 Clouds 18 1008 95 10000 4.4 215 08:21 21.06.2021
6609 Clouds 18 1007 96 10000 4.75 211 06:47 21.06.2021
6610 Clouds 20 1007 98 10000 2.2 157 00:42 21.06.2021
6611 Rain 20 1007 97 10000 2.34 177 23:35 20.06.2021
6612 Rain 20 1006 97 10000 1.61 120 22:58 20.06.2021
6613 Rain 21 1007 96 10000 2.91 142 21:58 20.06.2021
6614 Rain 22 1006 95 10000 0.81 106 21:26 20.06.2021
6615 Clouds 22 1007 97 10000 1.49 74 19:41 20.06.2021
6616 Clouds 23 1007 85 5453 1.32 144 19:22 20.06.2021
6617 Clouds 25 1007 73 10000 2.52 359 17:50 20.06.2021
6618 Clouds 27 1008 59 10000 1.55 335 16:51 20.06.2021
6619 Clouds 27 1008 58 10000 2.75 314 15:52 20.06.2021
6620 Clouds 27 1008 58 10000 2.75 314 15:32 20.06.2021
6621 Clouds 26 1010 50 10000 2.06 200 14:46 20.06.2021
6622 Clouds 25 1009 55 10000 2.33 254 13:40 20.06.2021
6623 Clouds 24 1010 56 10000 2.86 233 12:56 20.06.2021
6624 Clouds 23 1011 59 10000 3.89 234 11:46 20.06.2021
6625 Clouds 23 1011 63 10000 4.24 223 10:40 20.06.2021
6626 Clouds 22 1011 70 10000 4.35 233 09:46 20.06.2021
6627 Clouds 20 1011 94 10000 3.99 228 07:42 20.06.2021
6628 Clouds 22 1009 94 10000 1.66 181 23:57 19.06.2021
6629 Clouds 24 1009 89 6105 1.74 175 22:59 19.06.2021
6630 Clouds 25 1010 83 10000 1.65 138 21:59 19.06.2021
6631 Clouds 25 1010 83 10000 1.65 138 21:39 19.06.2021
6632 Clouds 30 1010 68 10000 0.86 301 18:56 19.06.2021
6633 Clouds 30 1011 58 10000 0.74 300 18:25 19.06.2021
6634 Clouds 31 1012 60 10000 0.98 307 17:27 19.06.2021
6635 Clouds 31 1012 60 10000 0.98 307 16:51 19.06.2021
6636 Clouds 31 1012 55 10000 1.42 277 15:42 19.06.2021
6637 Clouds 29 1014 54 10000 1.83 284 13:36 19.06.2021
6638 Clouds 28 1015 58 10000 2.76 247 12:25 19.06.2021
6639 Clouds 26 1015 63 10000 2.28 227 10:49 19.06.2021
6640 Clouds 26 1015 63 10000 2.28 227 10:49 19.06.2021
6641 Clouds 26 1015 63 10000 2.28 227 10:49 19.06.2021
6642 Clouds 26 1015 63 10000 2.28 227 10:49 19.06.2021
6643 Clouds 25 1015 72 10000 1.4 220 10:27 19.06.2021
6644 Clouds 24 1015 72 10000 1.4 220 09:59 19.06.2021
6645 Clouds 21 1016 92 10000 1.68 227 08:26 19.06.2021
6646 Clouds 18 1016 96 10000 1.74 205 06:55 19.06.2021
6647 Clouds 19 1016 96 10000 1